<?xml version='1.0' encoding='UTF-8'?><gpx version="1.1" creator="JPX - https://github.com/jenetics/jpx" xmlns="http://www.topografix.com/GPX/1/1"><trk><trkseg><trkpt lat="42.426347739323994" lon="-8.060161800310263"><ele>404.6666666666667</ele><time>2026-03-24T17:23:14.999Z</time></trkpt><trkpt lat="42.426267231410414" lon="-8.059977817063643"><ele>406.33333333333337</ele><time>2026-03-24T17:23:15.999Z</time></trkpt><trkpt lat="42.42618613001376" lon="-8.059760297674812"><ele>408.0</ele><time>2026-03-24T17:23:16.999Z</time></trkpt><trkpt lat="42.426100042632015" lon="-8.059562923957923"><ele>408.0</ele><time>2026-03-24T17:23:17.999Z</time></trkpt><trkpt lat="42.42600723185092" lon="-8.059360133006567"><ele>408.0</ele><time>2026-03-24T17:23:18.999Z</time></trkpt><trkpt lat="42.425915774115424" lon="-8.059166731473633"><ele>408.0</ele><time>2026-03-24T17:23:19.999Z</time></trkpt><trkpt lat="42.42583627824527" lon="-8.058994238324983"><ele>407.75</ele><time>2026-03-24T17:23:20.999Z</time></trkpt><trkpt lat="42.42576197494233" lon="-8.058828618747562"><ele>407.5</ele><time>2026-03-24T17:23:21.999Z</time></trkpt><trkpt lat="42.42568043682604" lon="-8.05866129472805"><ele>407.25</ele><time>2026-03-24T17:23:22.999Z</time></trkpt><trkpt lat="42.42560885074847" lon="-8.05850171429534"><ele>407.0</ele><time>2026-03-24T17:23:23.999Z</time></trkpt><trkpt lat="42.425531790306394" lon="-8.058337709642473"><ele>408.25</ele><time>2026-03-24T17:23:24.999Z</time></trkpt><trkpt lat="42.4254575730139" lon="-8.058175447025082"><ele>409.5</ele><time>2026-03-24T17:23:25.999Z</time></trkpt><trkpt lat="42.42538349184343" lon="-8.058012601430438"><ele>410.75</ele><time>2026-03-24T17:23:26.999Z</time></trkpt><trkpt lat="42.42530827708308" lon="-8.057852213153373"><ele>412.0</ele><time>2026-03-24T17:23:27.999Z</time></trkpt><trkpt lat="42.425239152320124" lon="-8.05768778634156"><ele>412.0</ele><time>2026-03-24T17:23:28.999Z</time></trkpt><trkpt lat="42.42517041803454" lon="-8.057530533178715"><ele>412.0</ele><time>2026-03-24T17:23:29.999Z</time></trkpt><trkpt lat="42.42509502967909" lon="-8.057358690997017"><ele>412.0</ele><time>2026-03-24T17:23:30.999Z</time></trkpt><trkpt lat="42.42501807316473" lon="-8.057186483630561"><ele>412.0</ele><time>2026-03-24T17:23:31.999Z</time></trkpt><trkpt lat="42.42495607577425" lon="-8.057017111130614"><ele>413.0</ele><time>2026-03-24T17:23:32.999Z</time></trkpt><trkpt lat="42.4248906693768" lon="-8.056852538591736"><ele>414.0</ele><time>2026-03-24T17:23:33.999Z</time></trkpt><trkpt lat="42.424823771100854" lon="-8.056672906209112"><ele>415.0</ele><time>2026-03-24T17:23:34.999Z</time></trkpt><trkpt lat="42.42476500965534" lon="-8.056499017029317"><ele>416.0</ele><time>2026-03-24T17:23:35.999Z</time></trkpt><trkpt lat="42.424699590170874" lon="-8.056322218108246"><ele>415.3333333333333</ele><time>2026-03-24T17:23:36.999Z</time></trkpt><trkpt lat="42.424632471140846" lon="-8.05613035573019"><ele>414.66666666666663</ele><time>2026-03-24T17:23:37.999Z</time></trkpt><trkpt lat="42.42456013437453" lon="-8.055938878409203"><ele>414.0</ele><time>2026-03-24T17:23:38.999Z</time></trkpt><trkpt lat="42.42450016770931" lon="-8.055762783080722"><ele>415.0</ele><time>2026-03-24T17:23:39.999Z</time></trkpt><trkpt lat="42.424442988537436" lon="-8.055588059062222"><ele>416.0</ele><time>2026-03-24T17:23:40.999Z</time></trkpt><trkpt lat="42.42437898797455" lon="-8.055415830489961"><ele>417.0</ele><time>2026-03-24T17:23:41.999Z</time></trkpt><trkpt lat="42.424310560425255" lon="-8.055253547018623"><ele>418.0</ele><time>2026-03-24T17:23:42.999Z</time></trkpt><trkpt lat="42.42423471806226" lon="-8.055090889072055"><ele>418.75</ele><time>2026-03-24T17:23:43.999Z</time></trkpt><trkpt lat="42.42416806308587" lon="-8.05493110592265"><ele>419.5</ele><time>2026-03-24T17:23:44.999Z</time></trkpt><trkpt lat="42.424104620662185" lon="-8.054756445846197"><ele>420.25</ele><time>2026-03-24T17:23:45.999Z</time></trkpt><trkpt lat="42.42403988747924" lon="-8.05459222534199"><ele>421.0</ele><time>2026-03-24T17:23:46.999Z</time></trkpt><trkpt lat="42.42397193114417" lon="-8.054434702740966"><ele>421.0</ele><time>2026-03-24T17:23:47.999Z</time></trkpt><trkpt lat="42.42390396692293" lon="-8.054277507236337"><ele>421.0</ele><time>2026-03-24T17:23:48.999Z</time></trkpt><trkpt lat="42.423835444409605" lon="-8.054119606195592"><ele>421.0</ele><time>2026-03-24T17:23:49.999Z</time></trkpt><trkpt lat="42.423770702758965" lon="-8.053962015495333"><ele>421.0</ele><time>2026-03-24T17:23:50.999Z</time></trkpt><trkpt lat="42.42371312525994" lon="-8.053813290206381"><ele>420.25</ele><time>2026-03-24T17:23:51.999Z</time></trkpt><trkpt lat="42.4236702492671" lon="-8.05366275178148"><ele>419.5</ele><time>2026-03-24T17:23:52.999Z</time></trkpt><trkpt lat="42.423630491867954" lon="-8.053502369304775"><ele>418.75</ele><time>2026-03-24T17:23:53.999Z</time></trkpt><trkpt lat="42.42359705771829" lon="-8.053331695243505"><ele>418.0</ele><time>2026-03-24T17:23:54.999Z</time></trkpt><trkpt lat="42.42357949565182" lon="-8.053148407645036"><ele>417.75</ele><time>2026-03-24T17:23:55.999Z</time></trkpt><trkpt lat="42.4235602375484" lon="-8.05296317913012"><ele>417.5</ele><time>2026-03-24T17:23:56.999Z</time></trkpt><trkpt lat="42.42354748338006" lon="-8.052771596735418"><ele>417.25</ele><time>2026-03-24T17:23:57.999Z</time></trkpt><trkpt lat="42.42351660844887" lon="-8.052584717138958"><ele>417.0</ele><time>2026-03-24T17:23:58.999Z</time></trkpt><trkpt lat="42.423486654920396" lon="-8.0524135362335"><ele>418.0</ele><time>2026-03-24T17:23:59.999Z</time></trkpt><trkpt lat="42.42345028390607" lon="-8.052249066411571"><ele>419.0</ele><time>2026-03-24T17:24:00.999Z</time></trkpt><trkpt lat="42.423367424687925" lon="-8.052084176219235"><ele>420.0</ele><time>2026-03-24T17:24:01.999Z</time></trkpt><trkpt lat="42.4232853379122" lon="-8.05193978687438"><ele>421.0</ele><time>2026-03-24T17:24:02.998Z</time></trkpt><trkpt lat="42.42319379280514" lon="-8.051808501761132"><ele>421.0</ele><time>2026-03-24T17:24:03.998Z</time></trkpt><trkpt lat="42.42309470842484" lon="-8.051685961080613"><ele>421.0</ele><time>2026-03-24T17:24:04.998Z</time></trkpt><trkpt lat="42.42299090465067" lon="-8.051573144043699"><ele>421.0</ele><time>2026-03-24T17:24:05.998Z</time></trkpt><trkpt lat="42.42287909446701" lon="-8.051458433114767"><ele>421.0</ele><time>2026-03-24T17:24:06.998Z</time></trkpt><trkpt lat="42.42276407831742" lon="-8.051343259599902"><ele>422.5</ele><time>2026-03-24T17:24:07.998Z</time></trkpt><trkpt lat="42.4226472150948" lon="-8.051231287820357"><ele>424.0</ele><time>2026-03-24T17:24:08.998Z</time></trkpt><trkpt lat="42.42253958384782" lon="-8.051125675964057"><ele>425.5</ele><time>2026-03-24T17:24:09.998Z</time></trkpt><trkpt lat="42.422440318262254" lon="-8.05101969920573"><ele>427.0</ele><time>2026-03-24T17:24:10.998Z</time></trkpt><trkpt lat="42.422350457298094" lon="-8.050893679078802"><ele>428.0</ele><time>2026-03-24T17:24:11.998Z</time></trkpt><trkpt lat="42.42229082921832" lon="-8.05075572054153"><ele>429.0</ele><time>2026-03-24T17:24:12.998Z</time></trkpt><trkpt lat="42.422260540000536" lon="-8.050598842513319"><ele>430.0</ele><time>2026-03-24T17:24:13.999Z</time></trkpt><trkpt lat="42.422239782885846" lon="-8.050444957245032"><ele>431.0</ele><time>2026-03-24T17:24:14.999Z</time></trkpt><trkpt lat="42.42222525192881" lon="-8.05028165187794"><ele>431.0</ele><time>2026-03-24T17:24:15.999Z</time></trkpt><trkpt lat="42.422217019979904" lon="-8.050119140293207"><ele>431.0</ele><time>2026-03-24T17:24:16.999Z</time></trkpt><trkpt lat="42.42222052222468" lon="-8.049956327975739"><ele>431.0</ele><time>2026-03-24T17:24:17.999Z</time></trkpt><trkpt lat="42.42220944082522" lon="-8.049781433271082"><ele>431.0</ele><time>2026-03-24T17:24:18.999Z</time></trkpt><trkpt lat="42.422187537708474" lon="-8.049618508679549"><ele>430.0</ele><time>2026-03-24T17:24:19.999Z</time></trkpt><trkpt lat="42.42218004393279" lon="-8.049461055049406"><ele>429.0</ele><time>2026-03-24T17:24:20.999Z</time></trkpt><trkpt lat="42.42217014394475" lon="-8.049301244801656"><ele>428.0</ele><time>2026-03-24T17:24:21.999Z</time></trkpt><trkpt lat="42.42215415004442" lon="-8.049137817521864"><ele>427.0</ele><time>2026-03-24T17:24:22.999Z</time></trkpt><trkpt lat="42.42215008292478" lon="-8.048995742982498"><ele>425.6666666666667</ele><time>2026-03-24T17:24:23.999Z</time></trkpt><trkpt lat="42.42214306789778" lon="-8.048878324338213"><ele>424.33333333333337</ele><time>2026-03-24T17:24:24.999Z</time></trkpt><trkpt lat="42.42212323677905" lon="-8.048771298899728"><ele>423.0</ele><time>2026-03-24T17:24:25.999Z</time></trkpt><trkpt lat="42.422115200610136" lon="-8.04866965023389"><ele>421.66666666666663</ele><time>2026-03-24T17:24:26.999Z</time></trkpt><trkpt lat="42.422105570796624" lon="-8.048547843723213"><ele>420.3333333333333</ele><time>2026-03-24T17:24:27.999Z</time></trkpt><trkpt lat="42.42209514987684" lon="-8.048416030556574"><ele>419.0</ele><time>2026-03-24T17:24:28.999Z</time></trkpt><trkpt lat="42.42208431827852" lon="-8.048279022814773"><ele>418.25</ele><time>2026-03-24T17:24:29.999Z</time></trkpt><trkpt lat="42.42207016617091" lon="-8.048126117466367"><ele>417.5</ele><time>2026-03-24T17:24:30.999Z</time></trkpt><trkpt lat="42.422054775932466" lon="-8.047948658604449"><ele>416.75</ele><time>2026-03-24T17:24:31.999Z</time></trkpt><trkpt lat="42.42203790558251" lon="-8.04775307922002"><ele>416.0</ele><time>2026-03-24T17:24:32.999Z</time></trkpt><trkpt lat="42.42202188681123" lon="-8.047556927396077"><ele>416.0</ele><time>2026-03-24T17:24:33.999Z</time></trkpt><trkpt lat="42.42200755791338" lon="-8.04737447545991"><ele>416.0</ele><time>2026-03-24T17:24:34.999Z</time></trkpt><trkpt lat="42.421993379350525" lon="-8.047193937791182"><ele>416.0</ele><time>2026-03-24T17:24:35.999Z</time></trkpt><trkpt lat="42.42197897079989" lon="-8.047007518173857"><ele>416.0</ele><time>2026-03-24T17:24:36.999Z</time></trkpt><trkpt lat="42.421963184366945" lon="-8.04681671363573"><ele>415.5</ele><time>2026-03-24T17:24:37.999Z</time></trkpt><trkpt lat="42.42194955323039" lon="-8.046626919330032"><ele>415.0</ele><time>2026-03-24T17:24:38.999Z</time></trkpt><trkpt lat="42.421939876674095" lon="-8.046435848997778"><ele>414.5</ele><time>2026-03-24T17:24:39.999Z</time></trkpt><trkpt lat="42.421938889994145" lon="-8.046249447777665"><ele>414.0</ele><time>2026-03-24T17:24:40.999Z</time></trkpt><trkpt lat="42.421950315452364" lon="-8.046061341754779"><ele>414.0</ele><time>2026-03-24T17:24:41.999Z</time></trkpt><trkpt lat="42.42197438751283" lon="-8.04587154050205"><ele>414.0</ele><time>2026-03-24T17:24:42.999Z</time></trkpt><trkpt lat="42.42201036460088" lon="-8.045684886952897"><ele>414.0</ele><time>2026-03-24T17:24:43.999Z</time></trkpt><trkpt lat="42.42204850261106" lon="-8.045505411448087"><ele>414.0</ele><time>2026-03-24T17:24:44.999Z</time></trkpt><trkpt lat="42.42208009935216" lon="-8.045327446782492"><ele>413.25</ele><time>2026-03-24T17:24:45.999Z</time></trkpt><trkpt lat="42.42210917595752" lon="-8.045147318733887"><ele>412.5</ele><time>2026-03-24T17:24:46.999Z</time></trkpt><trkpt lat="42.422128371579845" lon="-8.044961937905713"><ele>411.75</ele><time>2026-03-24T17:24:47.999Z</time></trkpt><trkpt lat="42.42212718900575" lon="-8.044779536559332"><ele>411.0</ele><time>2026-03-24T17:24:48.999Z</time></trkpt><trkpt lat="42.42210535158879" lon="-8.044595841255289"><ele>410.5</ele><time>2026-03-24T17:24:49.999Z</time></trkpt><trkpt lat="42.42206822611159" lon="-8.0444214798948"><ele>410.0</ele><time>2026-03-24T17:24:50.999Z</time></trkpt><trkpt lat="42.42201902963489" lon="-8.044242320978954"><ele>409.5</ele><time>2026-03-24T17:24:51.999Z</time></trkpt><trkpt lat="42.42194043695517" lon="-8.044068693906647"><ele>409.0</ele><time>2026-03-24T17:24:52.999Z</time></trkpt><trkpt lat="42.421846538800224" lon="-8.043880488989076"><ele>409.0</ele><time>2026-03-24T17:24:53.999Z</time></trkpt><trkpt lat="42.421746282275215" lon="-8.043689242892103"><ele>409.0</ele><time>2026-03-24T17:24:54.999Z</time></trkpt><trkpt lat="42.42163743828944" lon="-8.04348952587885"><ele>409.0</ele><time>2026-03-24T17:24:55.999Z</time></trkpt><trkpt lat="42.42151850945274" lon="-8.043279221361228"><ele>408.0</ele><time>2026-03-24T17:24:56.999Z</time></trkpt><trkpt lat="42.42139523391548" lon="-8.043071829403468"><ele>407.0</ele><time>2026-03-24T17:24:57.999Z</time></trkpt><trkpt lat="42.42126125552691" lon="-8.042865414796369"><ele>406.0</ele><time>2026-03-24T17:24:58.999Z</time></trkpt><trkpt lat="42.42111626927876" lon="-8.042672098936226"><ele>406.0</ele><time>2026-03-24T17:24:59.999Z</time></trkpt><trkpt lat="42.42095534264266" lon="-8.042488303472425"><ele>406.0</ele><time>2026-03-24T17:25:00.999Z</time></trkpt><trkpt lat="42.4207849229716" lon="-8.042323044883323"><ele>406.0</ele><time>2026-03-24T17:25:01.999Z</time></trkpt><trkpt lat="42.420595865372555" lon="-8.042179256587241"><ele>408.33333333333337</ele><time>2026-03-24T17:25:02.999Z</time></trkpt><trkpt lat="42.420399608717666" lon="-8.042054563627506"><ele>410.66666666666663</ele><time>2026-03-24T17:25:03.999Z</time></trkpt><trkpt lat="42.42020077156853" lon="-8.041947462885915"><ele>413.0</ele><time>2026-03-24T17:25:04.999Z</time></trkpt><trkpt lat="42.41999116984842" lon="-8.041851611344656"><ele>413.0</ele><time>2026-03-24T17:25:05.999Z</time></trkpt><trkpt lat="42.41977784455091" lon="-8.04177333121491"><ele>413.0</ele><time>2026-03-24T17:25:06.999Z</time></trkpt><trkpt lat="42.41956718571712" lon="-8.041681604421786"><ele>413.0</ele><time>2026-03-24T17:25:07.999Z</time></trkpt><trkpt lat="42.41935414057875" lon="-8.041617413792295"><ele>415.0</ele><time>2026-03-24T17:25:08.999Z</time></trkpt><trkpt lat="42.419140939474076" lon="-8.041540090762929"><ele>417.0</ele><time>2026-03-24T17:25:09.999Z</time></trkpt><trkpt lat="42.41892669057097" lon="-8.041453886559093"><ele>419.0</ele><time>2026-03-24T17:25:10.999Z</time></trkpt><trkpt lat="42.418724406347636" lon="-8.041356646551025"><ele>419.0</ele><time>2026-03-24T17:25:11.999Z</time></trkpt><trkpt lat="42.418533086713715" lon="-8.041212549748108"><ele>419.0</ele><time>2026-03-24T17:25:12.999Z</time></trkpt><trkpt lat="42.418359143097426" lon="-8.041021399973667"><ele>419.0</ele><time>2026-03-24T17:25:13.999Z</time></trkpt><trkpt lat="42.418198856918195" lon="-8.04081943396683"><ele>418.3333333333333</ele><time>2026-03-24T17:25:14.999Z</time></trkpt><trkpt lat="42.41801592933959" lon="-8.040646750186136"><ele>417.66666666666663</ele><time>2026-03-24T17:25:15.999Z</time></trkpt><trkpt lat="42.41786038607056" lon="-8.04043621427614"><ele>417.0</ele><time>2026-03-24T17:25:16.999Z</time></trkpt><trkpt lat="42.41772004719254" lon="-8.040207115575322"><ele>418.33333333333337</ele><time>2026-03-24T17:25:17.999Z</time></trkpt><trkpt lat="42.417620278116246" lon="-8.039935852992828"><ele>419.6666666666667</ele><time>2026-03-24T17:25:18.999Z</time></trkpt><trkpt lat="42.41754053510371" lon="-8.039651267154392"><ele>421.0</ele><time>2026-03-24T17:25:19.999Z</time></trkpt><trkpt lat="42.41746453581206" lon="-8.039371885872034"><ele>422.6666666666667</ele><time>2026-03-24T17:25:20.999Z</time></trkpt><trkpt lat="42.417378002904336" lon="-8.03909344159081"><ele>424.33333333333337</ele><time>2026-03-24T17:25:21.999Z</time></trkpt><trkpt lat="42.41728517231506" lon="-8.038827138855574"><ele>426.0</ele><time>2026-03-24T17:25:22.999Z</time></trkpt><trkpt lat="42.41719196250632" lon="-8.038554721454856"><ele>427.33333333333337</ele><time>2026-03-24T17:25:23.999Z</time></trkpt><trkpt lat="42.41709433538309" lon="-8.038298889002567"><ele>428.6666666666667</ele><time>2026-03-24T17:25:24.999Z</time></trkpt><trkpt lat="42.41696042603966" lon="-8.038074858837502"><ele>430.0</ele><time>2026-03-24T17:25:25.999Z</time></trkpt><trkpt lat="42.41682342880483" lon="-8.03785554561756"><ele>430.0</ele><time>2026-03-24T17:25:26.999Z</time></trkpt><trkpt lat="42.41668199449292" lon="-8.037645857923781"><ele>430.0</ele><time>2026-03-24T17:25:27.999Z</time></trkpt><trkpt lat="42.41653871243007" lon="-8.037434212050956"><ele>430.0</ele><time>2026-03-24T17:25:28.999Z</time></trkpt><trkpt lat="42.416386093393946" lon="-8.037230954344608"><ele>431.33333333333337</ele><time>2026-03-24T17:25:29.999Z</time></trkpt><trkpt lat="42.41624147304298" lon="-8.03702244399589"><ele>432.66666666666663</ele><time>2026-03-24T17:25:30.999Z</time></trkpt><trkpt lat="42.41609549264355" lon="-8.036808499145042"><ele>434.0</ele><time>2026-03-24T17:25:31.999Z</time></trkpt><trkpt lat="42.41594272020432" lon="-8.036598579328574"><ele>434.3333333333333</ele><time>2026-03-24T17:25:32.999Z</time></trkpt><trkpt lat="42.415796068439455" lon="-8.03638640390348"><ele>434.66666666666663</ele><time>2026-03-24T17:25:33.999Z</time></trkpt><trkpt lat="42.4156625887638" lon="-8.036156580618325"><ele>435.0</ele><time>2026-03-24T17:25:34.999Z</time></trkpt><trkpt lat="42.415535045665706" lon="-8.035912643704519"><ele>432.5</ele><time>2026-03-24T17:25:35.999Z</time></trkpt><trkpt lat="42.415415759365615" lon="-8.035654839243062"><ele>430.0</ele><time>2026-03-24T17:25:36.999Z</time></trkpt><trkpt lat="42.415299422254364" lon="-8.035386943705554"><ele>430.0</ele><time>2026-03-24T17:25:37.999Z</time></trkpt><trkpt lat="42.41518166697986" lon="-8.035108986443664"><ele>430.0</ele><time>2026-03-24T17:25:38.999Z</time></trkpt><trkpt lat="42.41505200428159" lon="-8.034829074379958"><ele>428.5</ele><time>2026-03-24T17:25:39.999Z</time></trkpt><trkpt lat="42.41490098939363" lon="-8.034567115465036"><ele>427.0</ele><time>2026-03-24T17:25:40.999Z</time></trkpt><trkpt lat="42.414766414410444" lon="-8.034282638544875"><ele>423.0</ele><time>2026-03-24T17:25:41.999Z</time></trkpt><trkpt lat="42.41461245929372" lon="-8.03400719035549"><ele>419.0</ele><time>2026-03-24T17:25:42.999Z</time></trkpt><trkpt lat="42.41446456261122" lon="-8.033727387864582"><ele>419.0</ele><time>2026-03-24T17:25:43.999Z</time></trkpt><trkpt lat="42.414328485034275" lon="-8.03345699456731"><ele>419.0</ele><time>2026-03-24T17:25:44.999Z</time></trkpt><trkpt lat="42.41420258522041" lon="-8.033200980043292"><ele>418.0</ele><time>2026-03-24T17:25:45.999Z</time></trkpt><trkpt lat="42.41411393877124" lon="-8.032917836166437"><ele>417.0</ele><time>2026-03-24T17:25:46.999Z</time></trkpt><trkpt lat="42.41402688862071" lon="-8.03262775349964"><ele>415.0</ele><time>2026-03-24T17:25:47.999Z</time></trkpt><trkpt lat="42.41396817765704" lon="-8.032317354916827"><ele>413.0</ele><time>2026-03-24T17:25:48.999Z</time></trkpt><trkpt lat="42.413930768283464" lon="-8.031983841465648"><ele>413.0</ele><time>2026-03-24T17:25:49.999Z</time></trkpt><trkpt lat="42.413930730348675" lon="-8.031659072897266"><ele>413.0</ele><time>2026-03-24T17:25:50.999Z</time></trkpt><trkpt lat="42.41395023172133" lon="-8.031337247430539"><ele>412.0</ele><time>2026-03-24T17:25:51.999Z</time></trkpt><trkpt lat="42.4139980314633" lon="-8.031012288273391"><ele>411.0</ele><time>2026-03-24T17:25:52.999Z</time></trkpt><trkpt lat="42.4140698680925" lon="-8.030691421241869"><ele>410.5</ele><time>2026-03-24T17:25:53.999Z</time></trkpt><trkpt lat="42.41416031091775" lon="-8.03038170340775"><ele>410.0</ele><time>2026-03-24T17:25:54.999Z</time></trkpt><trkpt lat="42.4142640417786" lon="-8.030076717344155"><ele>408.0</ele><time>2026-03-24T17:25:55.999Z</time></trkpt><trkpt lat="42.414371196982856" lon="-8.029772600472386"><ele>406.0</ele><time>2026-03-24T17:25:56.999Z</time></trkpt><trkpt lat="42.41447295176823" lon="-8.029458318726737"><ele>406.0</ele><time>2026-03-24T17:25:57.999Z</time></trkpt><trkpt lat="42.41455856858698" lon="-8.029154486740026"><ele>406.0</ele><time>2026-03-24T17:25:58.999Z</time></trkpt><trkpt lat="42.414644906715054" lon="-8.02883618236697"><ele>406.5</ele><time>2026-03-24T17:25:59.999Z</time></trkpt><trkpt lat="42.41473149525977" lon="-8.02852022019342"><ele>407.0</ele><time>2026-03-24T17:26:00.999Z</time></trkpt><trkpt lat="42.41480596473426" lon="-8.028200487764316"><ele>405.5</ele><time>2026-03-24T17:26:01.999Z</time></trkpt><trkpt lat="42.41487228639375" lon="-8.027881906603422"><ele>404.0</ele><time>2026-03-24T17:26:02.999Z</time></trkpt><trkpt lat="42.414936745197146" lon="-8.02759111335981"><ele>402.0</ele><time>2026-03-24T17:26:03.999Z</time></trkpt><trkpt lat="42.41499427649765" lon="-8.027306637098263"><ele>400.0</ele><time>2026-03-24T17:26:04.999Z</time></trkpt><trkpt lat="42.41505027654124" lon="-8.027029977366338"><ele>398.0</ele><time>2026-03-24T17:26:05.999Z</time></trkpt><trkpt lat="42.41509703292463" lon="-8.026756105384191"><ele>396.66666666666663</ele><time>2026-03-24T17:26:06.999Z</time></trkpt><trkpt lat="42.41514434757925" lon="-8.026477160840185"><ele>395.33333333333337</ele><time>2026-03-24T17:26:07.999Z</time></trkpt><trkpt lat="42.41519341153235" lon="-8.026197130921675"><ele>394.0</ele><time>2026-03-24T17:26:08.999Z</time></trkpt><trkpt lat="42.415226700642194" lon="-8.025891407225467"><ele>391.0</ele><time>2026-03-24T17:26:09.999Z</time></trkpt><trkpt lat="42.41524398145557" lon="-8.025578172621803"><ele>388.0</ele><time>2026-03-24T17:26:10.999Z</time></trkpt><trkpt lat="42.41522406976969" lon="-8.025262210466416"><ele>385.0</ele><time>2026-03-24T17:26:11.999Z</time></trkpt><trkpt lat="42.41520777721662" lon="-8.024948606731964"><ele>382.0</ele><time>2026-03-24T17:26:12.999Z</time></trkpt><trkpt lat="42.41517116467902" lon="-8.02464406853037"><ele>382.0</ele><time>2026-03-24T17:26:13.999Z</time></trkpt><trkpt lat="42.41514024336945" lon="-8.024335252254224"><ele>382.0</ele><time>2026-03-24T17:26:14.998Z</time></trkpt><trkpt lat="42.41506747698771" lon="-8.02402413987405"><ele>378.5</ele><time>2026-03-24T17:26:15.998Z</time></trkpt><trkpt lat="42.41497880483953" lon="-8.023718996117116"><ele>375.0</ele><time>2026-03-24T17:26:16.998Z</time></trkpt><trkpt lat="42.41486221095194" lon="-8.023417331948576"><ele>372.5</ele><time>2026-03-24T17:26:17.998Z</time></trkpt><trkpt lat="42.41473337667699" lon="-8.02311903252673"><ele>370.0</ele><time>2026-03-24T17:26:18.998Z</time></trkpt><trkpt lat="42.414584722023186" lon="-8.022831786442216"><ele>369.0</ele><time>2026-03-24T17:26:19.999Z</time></trkpt><trkpt lat="42.414418039095885" lon="-8.022562609998872"><ele>368.0</ele><time>2026-03-24T17:26:20.999Z</time></trkpt><trkpt lat="42.4142294621984" lon="-8.022303665754741"><ele>365.5</ele><time>2026-03-24T17:26:21.999Z</time></trkpt><trkpt lat="42.41402963869028" lon="-8.02207672016861"><ele>363.0</ele><time>2026-03-24T17:26:22.999Z</time></trkpt><trkpt lat="42.41381685402807" lon="-8.021870091127976"><ele>363.0</ele><time>2026-03-24T17:26:23.999Z</time></trkpt><trkpt lat="42.41359108352312" lon="-8.021686129180932"><ele>363.0</ele><time>2026-03-24T17:26:24.999Z</time></trkpt><trkpt lat="42.41335054300016" lon="-8.021548026132585"><ele>362.5</ele><time>2026-03-24T17:26:25.999Z</time></trkpt><trkpt lat="42.41310605385988" lon="-8.021438552910869"><ele>362.0</ele><time>2026-03-24T17:26:26.999Z</time></trkpt><trkpt lat="42.412853921733905" lon="-8.021332340433256"><ele>360.5</ele><time>2026-03-24T17:26:27.999Z</time></trkpt><trkpt lat="42.412606905536606" lon="-8.021242773525596"><ele>359.0</ele><time>2026-03-24T17:26:28.999Z</time></trkpt><trkpt lat="42.412367866174506" lon="-8.021162115267837"><ele>358.0</ele><time>2026-03-24T17:26:29.999Z</time></trkpt><trkpt lat="42.41213171480756" lon="-8.021060881377744"><ele>357.0</ele><time>2026-03-24T17:26:30.999Z</time></trkpt><trkpt lat="42.41188658448755" lon="-8.020970432962057"><ele>357.0</ele><time>2026-03-24T17:26:31.999Z</time></trkpt><trkpt lat="42.41164498325588" lon="-8.020863220554414"><ele>357.0</ele><time>2026-03-24T17:26:32.999Z</time></trkpt><trkpt lat="42.41140965079278" lon="-8.02072501530709"><ele>354.0</ele><time>2026-03-24T17:26:33.999Z</time></trkpt><trkpt lat="42.41118108660157" lon="-8.020556705888184"><ele>351.0</ele><time>2026-03-24T17:26:34.999Z</time></trkpt><trkpt lat="42.41096650848753" lon="-8.020371207675032"><ele>351.0</ele><time>2026-03-24T17:26:35.999Z</time></trkpt><trkpt lat="42.4107690443758" lon="-8.020168184779457"><ele>351.0</ele><time>2026-03-24T17:26:36.999Z</time></trkpt><trkpt lat="42.410568900934855" lon="-8.019949617092067"><ele>346.0</ele><time>2026-03-24T17:26:37.999Z</time></trkpt><trkpt lat="42.41036756617878" lon="-8.019730042137816"><ele>341.0</ele><time>2026-03-24T17:26:38.999Z</time></trkpt><trkpt lat="42.41016780868234" lon="-8.019502414120074"><ele>341.0</ele><time>2026-03-24T17:26:39.999Z</time></trkpt><trkpt lat="42.4099602285445" lon="-8.019271945046649"><ele>341.0</ele><time>2026-03-24T17:26:40.999Z</time></trkpt><trkpt lat="42.4097337679621" lon="-8.019092755964914"><ele>337.5</ele><time>2026-03-24T17:26:41.999Z</time></trkpt><trkpt lat="42.409528203641074" lon="-8.018862696755413"><ele>334.0</ele><time>2026-03-24T17:26:42.999Z</time></trkpt><trkpt lat="42.40932566037102" lon="-8.01863877955179"><ele>334.0</ele><time>2026-03-24T17:26:43.999Z</time></trkpt><trkpt lat="42.40913009264793" lon="-8.018426858525045"><ele>334.0</ele><time>2026-03-24T17:26:44.999Z</time></trkpt><trkpt lat="42.40893898859635" lon="-8.018224541287665"><ele>331.5</ele><time>2026-03-24T17:26:45.999Z</time></trkpt><trkpt lat="42.40875433606201" lon="-8.018025702545012"><ele>329.0</ele><time>2026-03-24T17:26:46.999Z</time></trkpt><trkpt lat="42.408573940671786" lon="-8.017831655537522"><ele>329.0</ele><time>2026-03-24T17:26:47.999Z</time></trkpt><trkpt lat="42.40840238681456" lon="-8.017647895547075"><ele>329.0</ele><time>2026-03-24T17:26:48.999Z</time></trkpt><trkpt lat="42.408238528628026" lon="-8.017470640163419"><ele>329.0</ele><time>2026-03-24T17:26:49.999Z</time></trkpt><trkpt lat="42.40809032065291" lon="-8.01731110909671"><ele>328.33333333333337</ele><time>2026-03-24T17:26:50.999Z</time></trkpt><trkpt lat="42.40795506395088" lon="-8.017166674107596"><ele>327.6666666666667</ele><time>2026-03-24T17:26:51.999Z</time></trkpt><trkpt lat="42.40784182535703" lon="-8.017011979239799"><ele>327.0</ele><time>2026-03-24T17:26:52.999Z</time></trkpt><trkpt lat="42.407719073941024" lon="-8.016880419880787"><ele>327.0</ele><time>2026-03-24T17:26:53.999Z</time></trkpt><trkpt lat="42.40759354896925" lon="-8.016740301103429"><ele>327.0</ele><time>2026-03-24T17:26:54.999Z</time></trkpt><trkpt lat="42.407456167221106" lon="-8.016615680188536"><ele>327.0</ele><time>2026-03-24T17:26:55.999Z</time></trkpt><trkpt lat="42.40731401668163" lon="-8.016464489703749"><ele>326.3333333333333</ele><time>2026-03-24T17:26:56.999Z</time></trkpt><trkpt lat="42.40716752500487" lon="-8.016305152317415"><ele>325.66666666666663</ele><time>2026-03-24T17:26:57.999Z</time></trkpt><trkpt lat="42.407016916579664" lon="-8.016138645663734"><ele>325.0</ele><time>2026-03-24T17:26:58.999Z</time></trkpt><trkpt lat="42.40686833110207" lon="-8.015962370681233"><ele>323.3333333333333</ele><time>2026-03-24T17:26:59.999Z</time></trkpt><trkpt lat="42.40670793712931" lon="-8.015799901797568"><ele>321.6666666666667</ele><time>2026-03-24T17:27:00.999Z</time></trkpt><trkpt lat="42.40653302437927" lon="-8.015647642138916"><ele>320.0</ele><time>2026-03-24T17:27:01.999Z</time></trkpt><trkpt lat="42.406337981732854" lon="-8.015529603354473"><ele>320.6666666666667</ele><time>2026-03-24T17:27:02.999Z</time></trkpt><trkpt lat="42.40614075170101" lon="-8.015412477517778"><ele>321.3333333333333</ele><time>2026-03-24T17:27:03.999Z</time></trkpt><trkpt lat="42.40593011050272" lon="-8.015326476702551"><ele>322.0</ele><time>2026-03-24T17:27:04.999Z</time></trkpt><trkpt lat="42.40572656126368" lon="-8.015255205376633"><ele>322.0</ele><time>2026-03-24T17:27:05.999Z</time></trkpt><trkpt lat="42.40553912138152" lon="-8.015180375056143"><ele>322.0</ele><time>2026-03-24T17:27:06.999Z</time></trkpt><trkpt lat="42.40536036492506" lon="-8.015120906449333"><ele>322.0</ele><time>2026-03-24T17:27:07.999Z</time></trkpt><trkpt lat="42.40518668576243" lon="-8.01505100956901"><ele>320.66666666666663</ele><time>2026-03-24T17:27:08.999Z</time></trkpt><trkpt lat="42.405018085748985" lon="-8.014962533152428"><ele>319.3333333333333</ele><time>2026-03-24T17:27:09.999Z</time></trkpt><trkpt lat="42.40485987838189" lon="-8.014838569194636"><ele>318.0</ele><time>2026-03-24T17:27:10.999Z</time></trkpt><trkpt lat="42.40471713805222" lon="-8.01468667534083"><ele>321.0</ele><time>2026-03-24T17:27:11.999Z</time></trkpt><trkpt lat="42.40459930521058" lon="-8.014512858663204"><ele>324.0</ele><time>2026-03-24T17:27:12.999Z</time></trkpt><trkpt lat="42.404509518656" lon="-8.01431598077701"><ele>327.0</ele><time>2026-03-24T17:27:13.999Z</time></trkpt><trkpt lat="42.40443747027746" lon="-8.014102665676264"><ele>327.0</ele><time>2026-03-24T17:27:14.999Z</time></trkpt><trkpt lat="42.40438320579445" lon="-8.013876050269563"><ele>327.0</ele><time>2026-03-24T17:27:15.999Z</time></trkpt><trkpt lat="42.404353515692414" lon="-8.01364793582887"><ele>327.0</ele><time>2026-03-24T17:27:16.999Z</time></trkpt><trkpt lat="42.40433628995637" lon="-8.013413999282228"><ele>325.6666666666667</ele><time>2026-03-24T17:27:17.999Z</time></trkpt><trkpt lat="42.40431806977189" lon="-8.013185231942222"><ele>324.33333333333337</ele><time>2026-03-24T17:27:18.999Z</time></trkpt><trkpt lat="42.404295033633844" lon="-8.012958267636503"><ele>323.0</ele><time>2026-03-24T17:27:19.999Z</time></trkpt><trkpt lat="42.40426303873832" lon="-8.012732536051002"><ele>323.0</ele><time>2026-03-24T17:27:20.999Z</time></trkpt><trkpt lat="42.4041949709574" lon="-8.01252213148602"><ele>323.0</ele><time>2026-03-24T17:27:21.999Z</time></trkpt><trkpt lat="42.404120605734086" lon="-8.0123198357208"><ele>323.0</ele><time>2026-03-24T17:27:22.999Z</time></trkpt><trkpt lat="42.404022114105295" lon="-8.012115415825189"><ele>323.0</ele><time>2026-03-24T17:27:23.999Z</time></trkpt><trkpt lat="42.403898902843366" lon="-8.01192599942518"><ele>323.0</ele><time>2026-03-24T17:27:24.999Z</time></trkpt><trkpt lat="42.40376245932363" lon="-8.011765561475775"><ele>323.0</ele><time>2026-03-24T17:27:25.999Z</time></trkpt><trkpt lat="42.403607126386454" lon="-8.01163164155079"><ele>321.6666666666667</ele><time>2026-03-24T17:27:26.999Z</time></trkpt><trkpt lat="42.403434669056494" lon="-8.011522352889202"><ele>320.3333333333333</ele><time>2026-03-24T17:27:27.999Z</time></trkpt><trkpt lat="42.40324710880463" lon="-8.01143045582861"><ele>319.0</ele><time>2026-03-24T17:27:28.999Z</time></trkpt><trkpt lat="42.40305034381971" lon="-8.011345821760184"><ele>318.66666666666663</ele><time>2026-03-24T17:27:29.999Z</time></trkpt><trkpt lat="42.40284413682583" lon="-8.011260771582561"><ele>318.3333333333333</ele><time>2026-03-24T17:27:30.999Z</time></trkpt><trkpt lat="42.40263525097349" lon="-8.011171927077438"><ele>318.0</ele><time>2026-03-24T17:27:31.999Z</time></trkpt><trkpt lat="42.40241572914527" lon="-8.01107730189988"><ele>318.0</ele><time>2026-03-24T17:27:32.999Z</time></trkpt><trkpt lat="42.402191166236506" lon="-8.010979780189825"><ele>318.0</ele><time>2026-03-24T17:27:33.999Z</time></trkpt><trkpt lat="42.40196504218118" lon="-8.010873829085961"><ele>316.0</ele><time>2026-03-24T17:27:34.999Z</time></trkpt><trkpt lat="42.40173302372596" lon="-8.01075843666473"><ele>314.0</ele><time>2026-03-24T17:27:35.999Z</time></trkpt><trkpt lat="42.40152299289946" lon="-8.010593154083145"><ele>313.5</ele><time>2026-03-24T17:27:36.999Z</time></trkpt><trkpt lat="42.4012914221086" lon="-8.010459245638144"><ele>313.0</ele><time>2026-03-24T17:27:37.999Z</time></trkpt><trkpt lat="42.401062983992304" lon="-8.010328358911888"><ele>313.0</ele><time>2026-03-24T17:27:38.999Z</time></trkpt><trkpt lat="42.40083639257639" lon="-8.010192163290796"><ele>313.0</ele><time>2026-03-24T17:27:39.999Z</time></trkpt><trkpt lat="42.400592260072024" lon="-8.010092587142482"><ele>313.5</ele><time>2026-03-24T17:27:40.999Z</time></trkpt><trkpt lat="42.400361961272104" lon="-8.009939123523747"><ele>314.0</ele><time>2026-03-24T17:27:41.999Z</time></trkpt><trkpt lat="42.40014587685301" lon="-8.009776058196154"><ele>314.0</ele><time>2026-03-24T17:27:42.999Z</time></trkpt><trkpt lat="42.399939338991366" lon="-8.00962628928107"><ele>314.0</ele><time>2026-03-24T17:27:43.999Z</time></trkpt><trkpt lat="42.399755361656766" lon="-8.009463454897219"><ele>314.0</ele><time>2026-03-24T17:27:44.999Z</time></trkpt><trkpt lat="42.39958863821789" lon="-8.009286219402254"><ele>314.0</ele><time>2026-03-24T17:27:45.999Z</time></trkpt><trkpt lat="42.39944775194878" lon="-8.009083129751762"><ele>314.0</ele><time>2026-03-24T17:27:46.999Z</time></trkpt><trkpt lat="42.39932376577314" lon="-8.008856671150156"><ele>314.0</ele><time>2026-03-24T17:27:47.999Z</time></trkpt><trkpt lat="42.39922287388799" lon="-8.008607441335586"><ele>314.0</ele><time>2026-03-24T17:27:48.999Z</time></trkpt><trkpt lat="42.39915360360568" lon="-8.008328535179704"><ele>314.0</ele><time>2026-03-24T17:27:49.999Z</time></trkpt><trkpt lat="42.39910932646058" lon="-8.008036555012147"><ele>313.33333333333337</ele><time>2026-03-24T17:27:50.999Z</time></trkpt><trkpt lat="42.399093080671975" lon="-8.00773769814704"><ele>312.6666666666667</ele><time>2026-03-24T17:27:51.999Z</time></trkpt><trkpt lat="42.399100022094224" lon="-8.007439560045896"><ele>312.0</ele><time>2026-03-24T17:27:52.999Z</time></trkpt><trkpt lat="42.39912535038808" lon="-8.007154955864582"><ele>312.0</ele><time>2026-03-24T17:27:53.999Z</time></trkpt><trkpt lat="42.39913596193624" lon="-8.0068912178593"><ele>312.0</ele><time>2026-03-24T17:27:54.999Z</time></trkpt><trkpt lat="42.3990991796722" lon="-8.00664084738684"><ele>312.0</ele><time>2026-03-24T17:27:55.999Z</time></trkpt><trkpt lat="42.39905241925819" lon="-8.006401317849075"><ele>311.6666666666667</ele><time>2026-03-24T17:27:56.999Z</time></trkpt><trkpt lat="42.39897428128703" lon="-8.006175794091858"><ele>311.33333333333337</ele><time>2026-03-24T17:27:57.999Z</time></trkpt><trkpt lat="42.39887510104415" lon="-8.005968644496148"><ele>311.0</ele><time>2026-03-24T17:27:58.999Z</time></trkpt><trkpt lat="42.39875278550816" lon="-8.005792506136208"><ele>308.33333333333337</ele><time>2026-03-24T17:27:59.999Z</time></trkpt><trkpt lat="42.398614155225054" lon="-8.005651781572842"><ele>305.6666666666667</ele><time>2026-03-24T17:28:00.999Z</time></trkpt><trkpt lat="42.398447281074965" lon="-8.005538570433252"><ele>303.0</ele><time>2026-03-24T17:28:01.999Z</time></trkpt><trkpt lat="42.398262532142056" lon="-8.005476463033325"><ele>303.0</ele><time>2026-03-24T17:28:02.999Z</time></trkpt><trkpt lat="42.39806635568204" lon="-8.00544739277979"><ele>303.0</ele><time>2026-03-24T17:28:03.999Z</time></trkpt><trkpt lat="42.39786821645869" lon="-8.005416873388597"><ele>303.0</ele><time>2026-03-24T17:28:04.999Z</time></trkpt><trkpt lat="42.39768055325635" lon="-8.005345833839957"><ele>302.3333333333333</ele><time>2026-03-24T17:28:05.999Z</time></trkpt><trkpt lat="42.39750599154295" lon="-8.005241224592995"><ele>301.66666666666663</ele><time>2026-03-24T17:28:06.999Z</time></trkpt><trkpt lat="42.397348273540395" lon="-8.005076589493976"><ele>301.0</ele><time>2026-03-24T17:28:07.999Z</time></trkpt><trkpt lat="42.39720778148546" lon="-8.004878105647355"><ele>298.66666666666663</ele><time>2026-03-24T17:28:08.999Z</time></trkpt><trkpt lat="42.39708550940266" lon="-8.00465548259026"><ele>296.3333333333333</ele><time>2026-03-24T17:28:09.999Z</time></trkpt><trkpt lat="42.39695456759552" lon="-8.004424980785673"><ele>294.0</ele><time>2026-03-24T17:28:10.999Z</time></trkpt><trkpt lat="42.39681429478039" lon="-8.004192877550263"><ele>289.0</ele><time>2026-03-24T17:28:11.999Z</time></trkpt><trkpt lat="42.39664986975138" lon="-8.00397425495741"><ele>284.0</ele><time>2026-03-24T17:28:12.999Z</time></trkpt><trkpt lat="42.39647628338115" lon="-8.003769399925766"><ele>287.0</ele><time>2026-03-24T17:28:13.999Z</time></trkpt><trkpt lat="42.39626445822217" lon="-8.003604948913555"><ele>290.0</ele><time>2026-03-24T17:28:14.999Z</time></trkpt><trkpt lat="42.39604639597027" lon="-8.003459419135513"><ele>283.5</ele><time>2026-03-24T17:28:15.999Z</time></trkpt><trkpt lat="42.39582421228606" lon="-8.00331558532872"><ele>277.0</ele><time>2026-03-24T17:28:16.999Z</time></trkpt><trkpt lat="42.39558315910997" lon="-8.003198194871523"><ele>279.0</ele><time>2026-03-24T17:28:17.999Z</time></trkpt><trkpt lat="42.395340581653805" lon="-8.003084376007727"><ele>281.0</ele><time>2026-03-24T17:28:18.999Z</time></trkpt><trkpt lat="42.39509918854735" lon="-8.00295732236893"><ele>281.0</ele><time>2026-03-24T17:28:19.999Z</time></trkpt><trkpt lat="42.39485634776059" lon="-8.002822056921621"><ele>281.0</ele><time>2026-03-24T17:28:20.999Z</time></trkpt><trkpt lat="42.39461348316806" lon="-8.002673940625781"><ele>278.0</ele><time>2026-03-24T17:28:21.999Z</time></trkpt><trkpt lat="42.394385668467216" lon="-8.002512709510231"><ele>275.0</ele><time>2026-03-24T17:28:22.999Z</time></trkpt><trkpt lat="42.39417323911132" lon="-8.002348893893213"><ele>275.0</ele><time>2026-03-24T17:28:23.999Z</time></trkpt><trkpt lat="42.39397879717" lon="-8.002142306857255"><ele>275.0</ele><time>2026-03-24T17:28:24.999Z</time></trkpt><trkpt lat="42.393786594429294" lon="-8.001939430279668"><ele>277.5</ele><time>2026-03-24T17:28:25.999Z</time></trkpt><trkpt lat="42.39359849840522" lon="-8.001752115402017"><ele>280.0</ele><time>2026-03-24T17:28:26.999Z</time></trkpt><trkpt lat="42.39343064895681" lon="-8.001551918842733"><ele>279.0</ele><time>2026-03-24T17:28:27.999Z</time></trkpt><trkpt lat="42.3932738469893" lon="-8.00135168643653"><ele>278.0</ele><time>2026-03-24T17:28:28.999Z</time></trkpt><trkpt lat="42.39312054099736" lon="-8.001153781351059"><ele>277.0</ele><time>2026-03-24T17:28:29.999Z</time></trkpt><trkpt lat="42.39296945966132" lon="-8.000959236923741"><ele>274.0</ele><time>2026-03-24T17:28:30.999Z</time></trkpt><trkpt lat="42.39283683610313" lon="-8.000770496749306"><ele>271.0</ele><time>2026-03-24T17:28:31.999Z</time></trkpt><trkpt lat="42.39269630654555" lon="-8.000595946173933"><ele>268.0</ele><time>2026-03-24T17:28:32.999Z</time></trkpt><trkpt lat="42.39255950396925" lon="-8.00041651957749"><ele>268.0</ele><time>2026-03-24T17:28:33.999Z</time></trkpt><trkpt lat="42.392421955705366" lon="-8.00024171500027"><ele>268.0</ele><time>2026-03-24T17:28:34.999Z</time></trkpt><trkpt lat="42.39227271519339" lon="-8.000082452209403"><ele>268.0</ele><time>2026-03-24T17:28:35.999Z</time></trkpt><trkpt lat="42.392122509811415" lon="-7.999916248999119"><ele>268.3333333333333</ele><time>2026-03-24T17:28:36.999Z</time></trkpt><trkpt lat="42.3919585288713" lon="-7.9997717581906045"><ele>268.6666666666667</ele><time>2026-03-24T17:28:37.999Z</time></trkpt><trkpt lat="42.39180174635233" lon="-7.999612851237417"><ele>269.0</ele><time>2026-03-24T17:28:38.999Z</time></trkpt><trkpt lat="42.391655136635194" lon="-7.999443762382192"><ele>269.0</ele><time>2026-03-24T17:28:39.999Z</time></trkpt><trkpt lat="42.39149951398293" lon="-7.999298763911831"><ele>269.0</ele><time>2026-03-24T17:28:40.999Z</time></trkpt><trkpt lat="42.391343203347155" lon="-7.999148350966299"><ele>269.0</ele><time>2026-03-24T17:28:41.999Z</time></trkpt><trkpt lat="42.39117710948514" lon="-7.999003454558839"><ele>268.0</ele><time>2026-03-24T17:28:42.999Z</time></trkpt><trkpt lat="42.39099282557105" lon="-7.998901509302052"><ele>267.0</ele><time>2026-03-24T17:28:43.999Z</time></trkpt><trkpt lat="42.390818159033" lon="-7.998800319831182"><ele>266.0</ele><time>2026-03-24T17:28:44.999Z</time></trkpt><trkpt lat="42.39063138743511" lon="-7.998720028875192"><ele>264.0</ele><time>2026-03-24T17:28:45.999Z</time></trkpt><trkpt lat="42.39042384779487" lon="-7.998731073962614"><ele>262.0</ele><time>2026-03-24T17:28:46.999Z</time></trkpt><trkpt lat="42.39021163983645" lon="-7.998749345511361"><ele>260.0</ele><time>2026-03-24T17:28:47.999Z</time></trkpt><trkpt lat="42.39000091349972" lon="-7.998834838721156"><ele>260.0</ele><time>2026-03-24T17:28:48.999Z</time></trkpt><trkpt lat="42.389810445503976" lon="-7.998975702100299"><ele>260.0</ele><time>2026-03-24T17:28:49.999Z</time></trkpt><trkpt lat="42.389622127003626" lon="-7.999086333930748"><ele>260.0</ele><time>2026-03-24T17:28:50.999Z</time></trkpt><trkpt lat="42.389453308342375" lon="-7.999218353769258"><ele>257.0</ele><time>2026-03-24T17:28:51.999Z</time></trkpt><trkpt lat="42.38928313998353" lon="-7.999335961302193"><ele>254.0</ele><time>2026-03-24T17:28:52.999Z</time></trkpt><trkpt lat="42.389109307214675" lon="-7.99942122749193"><ele>251.0</ele><time>2026-03-24T17:28:53.999Z</time></trkpt><trkpt lat="42.38893753483112" lon="-7.99946823259171"><ele>252.66666666666669</ele><time>2026-03-24T17:28:54.999Z</time></trkpt><trkpt lat="42.38875824274769" lon="-7.9994717236067245"><ele>254.33333333333331</ele><time>2026-03-24T17:28:55.999Z</time></trkpt><trkpt lat="42.38858313185174" lon="-7.999435284199949"><ele>256.0</ele><time>2026-03-24T17:28:56.999Z</time></trkpt><trkpt lat="42.38841588989813" lon="-7.999354875838844"><ele>256.0</ele><time>2026-03-24T17:28:57.999Z</time></trkpt><trkpt lat="42.38825499928223" lon="-7.999234709955226"><ele>256.0</ele><time>2026-03-24T17:28:58.999Z</time></trkpt><trkpt lat="42.388102592923325" lon="-7.999080125947664"><ele>256.0</ele><time>2026-03-24T17:28:59.999Z</time></trkpt><trkpt lat="42.387973416872825" lon="-7.998896612813946"><ele>258.0</ele><time>2026-03-24T17:29:00.999Z</time></trkpt><trkpt lat="42.38786823932744" lon="-7.998687717703804"><ele>260.0</ele><time>2026-03-24T17:29:01.999Z</time></trkpt><trkpt lat="42.3877757737512" lon="-7.998473911870727"><ele>262.0</ele><time>2026-03-24T17:29:02.999Z</time></trkpt><trkpt lat="42.387681930340605" lon="-7.99826793285056"><ele>256.3333333333333</ele><time>2026-03-24T17:29:03.999Z</time></trkpt><trkpt lat="42.38757943077221" lon="-7.998079237377979"><ele>250.66666666666669</ele><time>2026-03-24T17:29:04.999Z</time></trkpt><trkpt lat="42.38743505554966" lon="-7.997935381262994"><ele>245.0</ele><time>2026-03-24T17:29:05.999Z</time></trkpt><trkpt lat="42.3872865799136" lon="-7.99779320791698"><ele>245.66666666666669</ele><time>2026-03-24T17:29:06.999Z</time></trkpt><trkpt lat="42.38711003306919" lon="-7.997688125251699"><ele>246.33333333333331</ele><time>2026-03-24T17:29:07.999Z</time></trkpt><trkpt lat="42.3869159845485" lon="-7.99762540882168"><ele>247.0</ele><time>2026-03-24T17:29:08.999Z</time></trkpt><trkpt lat="42.38671471319494" lon="-7.997603182804648"><ele>247.0</ele><time>2026-03-24T17:29:09.999Z</time></trkpt><trkpt lat="42.38651272356798" lon="-7.997624061634248"><ele>247.0</ele><time>2026-03-24T17:29:10.999Z</time></trkpt><trkpt lat="42.38631143514252" lon="-7.997658510935175"><ele>247.0</ele><time>2026-03-24T17:29:11.999Z</time></trkpt><trkpt lat="42.38611933132577" lon="-7.997689208025565"><ele>245.33333333333331</ele><time>2026-03-24T17:29:12.999Z</time></trkpt><trkpt lat="42.385934689087435" lon="-7.997705472657581"><ele>243.66666666666669</ele><time>2026-03-24T17:29:13.999Z</time></trkpt><trkpt lat="42.38575654792455" lon="-7.997738936502558"><ele>242.0</ele><time>2026-03-24T17:29:14.999Z</time></trkpt><trkpt lat="42.38556904338617" lon="-7.997778215625552"><ele>238.66666666666669</ele><time>2026-03-24T17:29:15.999Z</time></trkpt><trkpt lat="42.385377102790024" lon="-7.997808242341893"><ele>235.33333333333331</ele><time>2026-03-24T17:29:16.999Z</time></trkpt><trkpt lat="42.38518034608819" lon="-7.997836913131868"><ele>232.0</ele><time>2026-03-24T17:29:17.999Z</time></trkpt><trkpt lat="42.38499462393031" lon="-7.997866383773627"><ele>232.0</ele><time>2026-03-24T17:29:18.999Z</time></trkpt><trkpt lat="42.38480500787372" lon="-7.997902655903156"><ele>232.0</ele><time>2026-03-24T17:29:19.999Z</time></trkpt><trkpt lat="42.38461979537302" lon="-7.9979496389453875"><ele>232.0</ele><time>2026-03-24T17:29:20.999Z</time></trkpt><trkpt lat="42.384432226744174" lon="-7.998023757470935"><ele>226.66666666666666</ele><time>2026-03-24T17:29:21.999Z</time></trkpt><trkpt lat="42.38425615955215" lon="-7.998116799013832"><ele>221.33333333333331</ele><time>2026-03-24T17:29:22.999Z</time></trkpt><trkpt lat="42.38408617846036" lon="-7.99822083046079"><ele>216.0</ele><time>2026-03-24T17:29:23.999Z</time></trkpt><trkpt lat="42.38392540226297" lon="-7.9983317357577075"><ele>213.33333333333331</ele><time>2026-03-24T17:29:24.999Z</time></trkpt><trkpt lat="42.38376654448056" lon="-7.998440841270786"><ele>210.66666666666666</ele><time>2026-03-24T17:29:25.999Z</time></trkpt><trkpt lat="42.38360486828248" lon="-7.998545216259159"><ele>208.0</ele><time>2026-03-24T17:29:26.999Z</time></trkpt><trkpt lat="42.383442291447345" lon="-7.99863158010859"><ele>208.0</ele><time>2026-03-24T17:29:27.999Z</time></trkpt><trkpt lat="42.38326373796255" lon="-7.998702603891765"><ele>208.0</ele><time>2026-03-24T17:29:28.999Z</time></trkpt><trkpt lat="42.38308569115515" lon="-7.998747876486806"><ele>208.0</ele><time>2026-03-24T17:29:29.999Z</time></trkpt><trkpt lat="42.38290546362553" lon="-7.998774415086981"><ele>205.66666666666666</ele><time>2026-03-24T17:29:30.999Z</time></trkpt><trkpt lat="42.38271977047279" lon="-7.998787373111743"><ele>203.33333333333331</ele><time>2026-03-24T17:29:31.999Z</time></trkpt><trkpt lat="42.38252313614274" lon="-7.998789157325425"><ele>201.0</ele><time>2026-03-24T17:29:32.999Z</time></trkpt><trkpt lat="42.382316990058634" lon="-7.998789972228639"><ele>199.33333333333331</ele><time>2026-03-24T17:29:33.999Z</time></trkpt><trkpt lat="42.38211280012026" lon="-7.998798785661871"><ele>197.66666666666666</ele><time>2026-03-24T17:29:34.999Z</time></trkpt><trkpt lat="42.38190066054421" lon="-7.998812170748073"><ele>196.0</ele><time>2026-03-24T17:29:35.999Z</time></trkpt><trkpt lat="42.38169123733421" lon="-7.998834748545483"><ele>196.0</ele><time>2026-03-24T17:29:36.999Z</time></trkpt><trkpt lat="42.38148675463045" lon="-7.998862548192075"><ele>196.0</ele><time>2026-03-24T17:29:37.999Z</time></trkpt><trkpt lat="42.38129063908291" lon="-7.998893528417358"><ele>196.0</ele><time>2026-03-24T17:29:38.999Z</time></trkpt><trkpt lat="42.381106328458564" lon="-7.998936536847979"><ele>194.0</ele><time>2026-03-24T17:29:39.999Z</time></trkpt><trkpt lat="42.38092167018065" lon="-7.998992894150786"><ele>192.0</ele><time>2026-03-24T17:29:40.999Z</time></trkpt><trkpt lat="42.38074329552776" lon="-7.9990599889419745"><ele>190.0</ele><time>2026-03-24T17:29:41.999Z</time></trkpt><trkpt lat="42.38056404007468" lon="-7.999144173026395"><ele>189.66666666666669</ele><time>2026-03-24T17:29:42.999Z</time></trkpt><trkpt lat="42.38037686602258" lon="-7.999248769193641"><ele>189.33333333333334</ele><time>2026-03-24T17:29:43.999Z</time></trkpt><trkpt lat="42.3801965164277" lon="-7.999368528117309"><ele>189.0</ele><time>2026-03-24T17:29:44.999Z</time></trkpt><trkpt lat="42.38000328084249" lon="-7.999491886079169"><ele>189.0</ele><time>2026-03-24T17:29:45.999Z</time></trkpt><trkpt lat="42.379801941491124" lon="-7.999611064704396"><ele>189.0</ele><time>2026-03-24T17:29:46.999Z</time></trkpt><trkpt lat="42.37959401856317" lon="-7.999711650096933"><ele>189.0</ele><time>2026-03-24T17:29:47.999Z</time></trkpt><trkpt lat="42.37938381028032" lon="-7.999789378282812"><ele>182.5</ele><time>2026-03-24T17:29:48.999Z</time></trkpt><trkpt lat="42.37916699240765" lon="-7.9998387490669165"><ele>176.0</ele><time>2026-03-24T17:29:49.999Z</time></trkpt><trkpt lat="42.37893665112582" lon="-7.999866822699049"><ele>177.0</ele><time>2026-03-24T17:29:50.999Z</time></trkpt><trkpt lat="42.37871386212397" lon="-7.9998779473897415"><ele>178.0</ele><time>2026-03-24T17:29:51.999Z</time></trkpt><trkpt lat="42.37850044151717" lon="-7.999888493387314"><ele>179.0</ele><time>2026-03-24T17:29:52.999Z</time></trkpt><trkpt lat="42.37828948200164" lon="-7.999897136841695"><ele>179.0</ele><time>2026-03-24T17:29:53.999Z</time></trkpt><trkpt lat="42.378088951279075" lon="-7.999927548937055"><ele>179.0</ele><time>2026-03-24T17:29:54.999Z</time></trkpt><trkpt lat="42.3778988802836" lon="-7.999983096501664"><ele>179.0</ele><time>2026-03-24T17:29:55.999Z</time></trkpt><trkpt lat="42.3777049110768" lon="-8.000079142294405"><ele>175.66666666666666</ele><time>2026-03-24T17:29:56.999Z</time></trkpt><trkpt lat="42.377518467460206" lon="-8.000205660815082"><ele>172.33333333333334</ele><time>2026-03-24T17:29:57.999Z</time></trkpt><trkpt lat="42.37734325318828" lon="-8.000334493111986"><ele>169.0</ele><time>2026-03-24T17:29:58.999Z</time></trkpt><trkpt lat="42.377184549446774" lon="-8.000476264103888"><ele>166.33333333333334</ele><time>2026-03-24T17:29:59.999Z</time></trkpt><trkpt lat="42.37700757439333" lon="-8.00057540288656"><ele>163.66666666666666</ele><time>2026-03-24T17:30:00.999Z</time></trkpt><trkpt lat="42.37683075364614" lon="-8.0006780123585"><ele>161.0</ele><time>2026-03-24T17:30:01.999Z</time></trkpt><trkpt lat="42.37663854116428" lon="-8.000745499435025"><ele>161.0</ele><time>2026-03-24T17:30:02.999Z</time></trkpt><trkpt lat="42.376431934088444" lon="-8.0007774359459"><ele>161.0</ele><time>2026-03-24T17:30:03.999Z</time></trkpt><trkpt lat="42.37621960685116" lon="-8.000787048560897"><ele>161.0</ele><time>2026-03-24T17:30:04.999Z</time></trkpt><trkpt lat="42.37600062656508" lon="-8.000775398309418"><ele>160.33333333333331</ele><time>2026-03-24T17:30:05.999Z</time></trkpt><trkpt lat="42.37578213191022" lon="-8.00079357187551"><ele>159.66666666666666</ele><time>2026-03-24T17:30:06.999Z</time></trkpt><trkpt lat="42.37555449595252" lon="-8.000797307204126"><ele>159.0</ele><time>2026-03-24T17:30:07.999Z</time></trkpt><trkpt lat="42.37532371195145" lon="-8.000803551186527"><ele>158.0</ele><time>2026-03-24T17:30:08.999Z</time></trkpt><trkpt lat="42.375090748970614" lon="-8.000806134643256"><ele>157.0</ele><time>2026-03-24T17:30:09.999Z</time></trkpt><trkpt lat="42.37485264865546" lon="-8.00081088153752"><ele>157.5</ele><time>2026-03-24T17:30:10.999Z</time></trkpt><trkpt lat="42.37461269870803" lon="-8.000820199266716"><ele>158.0</ele><time>2026-03-24T17:30:11.999Z</time></trkpt><trkpt lat="42.37437121243663" lon="-8.000824040572803"><ele>158.0</ele><time>2026-03-24T17:30:12.999Z</time></trkpt><trkpt lat="42.37412791451721" lon="-8.000829035187095"><ele>158.0</ele><time>2026-03-24T17:30:13.999Z</time></trkpt><trkpt lat="42.37388242739409" lon="-8.000834142895553"><ele>165.5</ele><time>2026-03-24T17:30:14.999Z</time></trkpt><trkpt lat="42.37363237762438" lon="-8.000839345537262"><ele>173.0</ele><time>2026-03-24T17:30:15.999Z</time></trkpt><trkpt lat="42.3733812776243" lon="-8.00084454542481"><ele>167.0</ele><time>2026-03-24T17:30:16.999Z</time></trkpt><trkpt lat="42.373127438401504" lon="-8.000829767269838"><ele>161.0</ele><time>2026-03-24T17:30:17.999Z</time></trkpt><trkpt lat="42.37287188833801" lon="-8.000839858119246"><ele>161.0</ele><time>2026-03-24T17:30:18.999Z</time></trkpt><trkpt lat="42.372616232637654" lon="-8.000841460230276"><ele>161.0</ele><time>2026-03-24T17:30:19.999Z</time></trkpt><trkpt lat="42.3723507537409" lon="-8.000864983626245"><ele>157.0</ele><time>2026-03-24T17:30:20.999Z</time></trkpt><trkpt lat="42.37209107064586" lon="-8.00087049801218"><ele>153.0</ele><time>2026-03-24T17:30:21.999Z</time></trkpt><trkpt lat="42.37183955284531" lon="-8.000863486910989"><ele>153.0</ele><time>2026-03-24T17:30:22.999Z</time></trkpt><trkpt lat="42.37159008299744" lon="-8.00086486217206"><ele>153.0</ele><time>2026-03-24T17:30:23.999Z</time></trkpt><trkpt lat="42.37135659088671" lon="-8.000853642217963"><ele>150.0</ele><time>2026-03-24T17:30:24.999Z</time></trkpt><trkpt lat="42.371133277060494" lon="-8.00083386381822"><ele>147.0</ele><time>2026-03-24T17:30:25.999Z</time></trkpt><trkpt lat="42.37092459790897" lon="-8.000790396714722"><ele>144.0</ele><time>2026-03-24T17:30:26.999Z</time></trkpt><trkpt lat="42.37073444095732" lon="-8.000731119579985"><ele>141.66666666666666</ele><time>2026-03-24T17:30:27.999Z</time></trkpt><trkpt lat="42.37056597378043" lon="-8.000673211744234"><ele>139.33333333333331</ele><time>2026-03-24T17:30:28.999Z</time></trkpt><trkpt lat="42.370401744969115" lon="-8.000648607963072"><ele>137.0</ele><time>2026-03-24T17:30:29.999Z</time></trkpt><trkpt lat="42.37024797723891" lon="-8.000610290834075"><ele>137.0</ele><time>2026-03-24T17:30:30.999Z</time></trkpt><trkpt lat="42.37009555543808" lon="-8.000570840071022"><ele>137.0</ele><time>2026-03-24T17:30:31.999Z</time></trkpt><trkpt lat="42.3699528559209" lon="-8.000534051211625"><ele>137.0</ele><time>2026-03-24T17:30:32.999Z</time></trkpt><trkpt lat="42.36982639921571" lon="-8.000499721793929"><ele>137.0</ele><time>2026-03-24T17:30:33.999Z</time></trkpt><trkpt lat="42.36971569581056" lon="-8.00046679854988"><ele>136.79999999999998</ele><time>2026-03-24T17:30:34.999Z</time></trkpt><trkpt lat="42.36961661819557" lon="-8.000437332801537"><ele>136.6</ele><time>2026-03-24T17:30:36Z</time></trkpt><trkpt lat="42.369515641442234" lon="-8.000407154333875"><ele>136.39999999999998</ele><time>2026-03-24T17:30:37Z</time></trkpt><trkpt lat="42.36941663336403" lon="-8.00037437257536"><ele>136.2</ele><time>2026-03-24T17:30:38Z</time></trkpt><trkpt lat="42.369312768037126" lon="-8.000340378119756"><ele>136.0</ele><time>2026-03-24T17:30:39Z</time></trkpt><trkpt lat="42.369216866193455" lon="-8.00031257311859"><ele>136.0</ele><time>2026-03-24T17:30:40Z</time></trkpt><trkpt lat="42.36910984834224" lon="-8.00029535722588"><ele>136.0</ele><time>2026-03-24T17:30:41Z</time></trkpt><trkpt lat="42.36899796705574" lon="-8.000290460225388"><ele>136.0</ele><time>2026-03-24T17:30:42Z</time></trkpt><trkpt lat="42.36887945872398" lon="-8.000308374438754"><ele>136.0</ele><time>2026-03-24T17:30:43Z</time></trkpt><trkpt lat="42.36876211808932" lon="-8.0003430748616"><ele>134.25</ele><time>2026-03-24T17:30:44Z</time></trkpt><trkpt lat="42.36864068515756" lon="-8.000400897411959"><ele>132.5</ele><time>2026-03-24T17:30:45Z</time></trkpt><trkpt lat="42.36851611599717" lon="-8.000478756869292"><ele>130.75</ele><time>2026-03-24T17:30:46Z</time></trkpt><trkpt lat="42.368392456251264" lon="-8.000569132826007"><ele>129.0</ele><time>2026-03-24T17:30:47Z</time></trkpt><trkpt lat="42.36827515402917" lon="-8.000664113347685"><ele>129.0</ele><time>2026-03-24T17:30:48Z</time></trkpt><trkpt lat="42.36816367314456" lon="-8.000749794051732"><ele>129.0</ele><time>2026-03-24T17:30:49Z</time></trkpt><trkpt lat="42.36805019827981" lon="-8.000826043645555"><ele>129.0</ele><time>2026-03-24T17:30:50Z</time></trkpt><trkpt lat="42.36792739704694" lon="-8.000899501957495"><ele>129.0</ele><time>2026-03-24T17:30:51Z</time></trkpt><trkpt lat="42.36780532065527" lon="-8.00095361004057"><ele>129.5</ele><time>2026-03-24T17:30:52Z</time></trkpt><trkpt lat="42.367668366039474" lon="-8.000972059264322"><ele>130.0</ele><time>2026-03-24T17:30:53Z</time></trkpt><trkpt lat="42.36752362679335" lon="-8.00099277696799"><ele>130.5</ele><time>2026-03-24T17:30:54Z</time></trkpt><trkpt lat="42.367383832001366" lon="-8.000985551221827"><ele>131.0</ele><time>2026-03-24T17:30:55Z</time></trkpt><trkpt lat="42.3672474877047" lon="-8.00096494227392"><ele>132.25</ele><time>2026-03-24T17:30:56Z</time></trkpt><trkpt lat="42.36710255844913" lon="-8.000966593373327"><ele>133.5</ele><time>2026-03-24T17:30:57Z</time></trkpt><trkpt lat="42.36695993382754" lon="-8.000950563912992"><ele>134.75</ele><time>2026-03-24T17:30:58Z</time></trkpt><trkpt lat="42.36681802567316" lon="-8.00094156294727"><ele>136.0</ele><time>2026-03-24T17:30:59Z</time></trkpt><trkpt lat="42.366668851941625" lon="-8.000945875145222"><ele>136.0</ele><time>2026-03-24T17:31:00Z</time></trkpt><trkpt lat="42.36652210852032" lon="-8.000970456401634"><ele>136.0</ele><time>2026-03-24T17:31:01Z</time></trkpt><trkpt lat="42.366388317163974" lon="-8.001010874957295"><ele>136.0</ele><time>2026-03-24T17:31:02Z</time></trkpt><trkpt lat="42.366255355006" lon="-8.001070437874064"><ele>136.0</ele><time>2026-03-24T17:31:03Z</time></trkpt><trkpt lat="42.3661202139254" lon="-8.00115179686163"><ele>134.33333333333334</ele><time>2026-03-24T17:31:04Z</time></trkpt><trkpt lat="42.365981967051404" lon="-8.001253621972168"><ele>132.66666666666666</ele><time>2026-03-24T17:31:05Z</time></trkpt><trkpt lat="42.36585042539888" lon="-8.001359009406922"><ele>131.0</ele><time>2026-03-24T17:31:06Z</time></trkpt><trkpt lat="42.3657241718879" lon="-8.001465282827816"><ele>131.0</ele><time>2026-03-24T17:31:07Z</time></trkpt><trkpt lat="42.365596666830854" lon="-8.00156968628953"><ele>131.0</ele><time>2026-03-24T17:31:08Z</time></trkpt><trkpt lat="42.3654707629229" lon="-8.001659061139188"><ele>131.0</ele><time>2026-03-24T17:31:09Z</time></trkpt><trkpt lat="42.36532862644499" lon="-8.001721143357594"><ele>131.0</ele><time>2026-03-24T17:31:10Z</time></trkpt><trkpt lat="42.365184653752735" lon="-8.001788927928043"><ele>128.33333333333331</ele><time>2026-03-24T17:31:11Z</time></trkpt><trkpt lat="42.36501606008675" lon="-8.001823653781399"><ele>125.66666666666666</ele><time>2026-03-24T17:31:12Z</time></trkpt><trkpt lat="42.36484297333588" lon="-8.001876797669336"><ele>123.0</ele><time>2026-03-24T17:31:13Z</time></trkpt><trkpt lat="42.364652219968576" lon="-8.001881258588089"><ele>122.33333333333334</ele><time>2026-03-24T17:31:14Z</time></trkpt><trkpt lat="42.364464330385616" lon="-8.00187531962128"><ele>121.66666666666667</ele><time>2026-03-24T17:31:15Z</time></trkpt><trkpt lat="42.364268440273136" lon="-8.001865369268343"><ele>121.0</ele><time>2026-03-24T17:31:16Z</time></trkpt><trkpt lat="42.36406615891596" lon="-8.001855228951493"><ele>121.33333333333334</ele><time>2026-03-24T17:31:17Z</time></trkpt><trkpt lat="42.36386032160579" lon="-8.001844910372672"><ele>121.66666666666666</ele><time>2026-03-24T17:31:18Z</time></trkpt><trkpt lat="42.363654358579026" lon="-8.001834369188382"><ele>122.0</ele><time>2026-03-24T17:31:19Z</time></trkpt><trkpt lat="42.36343739385371" lon="-8.001823122722747"><ele>122.0</ele><time>2026-03-24T17:31:20Z</time></trkpt><trkpt lat="42.36321730069211" lon="-8.001811406800227"><ele>122.0</ele><time>2026-03-24T17:31:21Z</time></trkpt><trkpt lat="42.362998329926214" lon="-8.00179901656379"><ele>122.0</ele><time>2026-03-24T17:31:22Z</time></trkpt><trkpt lat="42.36277025473071" lon="-8.001807995517916"><ele>122.0</ele><time>2026-03-24T17:31:23Z</time></trkpt><trkpt lat="42.362564057848694" lon="-8.00186017674329"><ele>122.0</ele><time>2026-03-24T17:31:24Z</time></trkpt><trkpt lat="42.36237900608801" lon="-8.001952100573105"><ele>122.0</ele><time>2026-03-24T17:31:25Z</time></trkpt><trkpt lat="42.362208752340045" lon="-8.002102727199265"><ele>120.33333333333333</ele><time>2026-03-24T17:31:26Z</time></trkpt><trkpt lat="42.36205016257526" lon="-8.002292897018789"><ele>118.66666666666666</ele><time>2026-03-24T17:31:27Z</time></trkpt><trkpt lat="42.36190191761372" lon="-8.002488176815834"><ele>117.0</ele><time>2026-03-24T17:31:28Z</time></trkpt><trkpt lat="42.36176640199208" lon="-8.002668255158508"><ele>117.0</ele><time>2026-03-24T17:31:29Z</time></trkpt><trkpt lat="42.3616344728345" lon="-8.002834872457884"><ele>117.0</ele><time>2026-03-24T17:31:30Z</time></trkpt><trkpt lat="42.36149518542626" lon="-8.002991607498826"><ele>117.0</ele><time>2026-03-24T17:31:31Z</time></trkpt><trkpt lat="42.36135461248989" lon="-8.003115899566824"><ele>117.0</ele><time>2026-03-24T17:31:32Z</time></trkpt><trkpt lat="42.36121812970149" lon="-8.00324485728896"><ele>117.0</ele><time>2026-03-24T17:31:33Z</time></trkpt><trkpt lat="42.36107161222899" lon="-8.003357810806332"><ele>117.0</ele><time>2026-03-24T17:31:34Z</time></trkpt><trkpt lat="42.36091736222883" lon="-8.003466981771268"><ele>117.0</ele><time>2026-03-24T17:31:35Z</time></trkpt><trkpt lat="42.36075804358039" lon="-8.003568199847514"><ele>117.0</ele><time>2026-03-24T17:31:36Z</time></trkpt><trkpt lat="42.36059550423445" lon="-8.003656149762866"><ele>117.0</ele><time>2026-03-24T17:31:37Z</time></trkpt><trkpt lat="42.360436014080456" lon="-8.00373922347597"><ele>117.66666666666666</ele><time>2026-03-24T17:31:38Z</time></trkpt><trkpt lat="42.36028188649519" lon="-8.003818876232481"><ele>118.33333333333333</ele><time>2026-03-24T17:31:39Z</time></trkpt><trkpt lat="42.36012551263223" lon="-8.003921489262595"><ele>119.0</ele><time>2026-03-24T17:31:40Z</time></trkpt><trkpt lat="42.35995381941444" lon="-8.004017768859368"><ele>119.0</ele><time>2026-03-24T17:31:41Z</time></trkpt><trkpt lat="42.359777381512025" lon="-8.004116529942037"><ele>119.0</ele><time>2026-03-24T17:31:42Z</time></trkpt><trkpt lat="42.35959614498976" lon="-8.004215926307507"><ele>119.0</ele><time>2026-03-24T17:31:43Z</time></trkpt><trkpt lat="42.359412654644785" lon="-8.004323041875683"><ele>119.66666666666666</ele><time>2026-03-24T17:31:44Z</time></trkpt><trkpt lat="42.35922427992732" lon="-8.004436923399492"><ele>120.33333333333334</ele><time>2026-03-24T17:31:45Z</time></trkpt><trkpt lat="42.35904656601584" lon="-8.004553664924632"><ele>121.0</ele><time>2026-03-24T17:31:46Z</time></trkpt><trkpt lat="42.35888212046342" lon="-8.004661690285232"><ele>117.0</ele><time>2026-03-24T17:31:47Z</time></trkpt><trkpt lat="42.35873375231637" lon="-8.004762621556315"><ele>113.0</ele><time>2026-03-24T17:31:48Z</time></trkpt><trkpt lat="42.35859056427867" lon="-8.00486362699458"><ele>109.0</ele><time>2026-03-24T17:31:49Z</time></trkpt><trkpt lat="42.35845302539813" lon="-8.004959907843299"><ele>109.25</ele><time>2026-03-24T17:31:50Z</time></trkpt><trkpt lat="42.358322698811634" lon="-8.005050861460248"><ele>109.5</ele><time>2026-03-24T17:31:51Z</time></trkpt><trkpt lat="42.358193004181935" lon="-8.00513919550185"><ele>109.75</ele><time>2026-03-24T17:31:52Z</time></trkpt><trkpt lat="42.358057843755766" lon="-8.005224619856548"><ele>110.0</ele><time>2026-03-24T17:31:53Z</time></trkpt><trkpt lat="42.35791745306224" lon="-8.00529989101258"><ele>110.0</ele><time>2026-03-24T17:31:54Z</time></trkpt><trkpt lat="42.35776891188277" lon="-8.005329976711"><ele>110.0</ele><time>2026-03-24T17:31:55Z</time></trkpt><trkpt lat="42.357618829189185" lon="-8.005362096948064"><ele>110.0</ele><time>2026-03-24T17:31:56Z</time></trkpt><trkpt lat="42.35745672405784" lon="-8.005370599534938"><ele>110.0</ele><time>2026-03-24T17:31:57Z</time></trkpt><trkpt lat="42.3572877399568" lon="-8.005354738023499"><ele>110.0</ele><time>2026-03-24T17:31:57.999Z</time></trkpt><trkpt lat="42.357121562950795" lon="-8.005329912221493"><ele>110.0</ele><time>2026-03-24T17:31:58.999Z</time></trkpt><trkpt lat="42.35695232651188" lon="-8.005321407941393"><ele>111.33333333333333</ele><time>2026-03-24T17:31:59.999Z</time></trkpt><trkpt lat="42.35678273156488" lon="-8.005303506997794"><ele>112.66666666666666</ele><time>2026-03-24T17:32:00.999Z</time></trkpt><trkpt lat="42.35660797606099" lon="-8.005296091159249"><ele>114.0</ele><time>2026-03-24T17:32:01.999Z</time></trkpt><trkpt lat="42.35644173083048" lon="-8.005295685136293"><ele>113.33333333333334</ele><time>2026-03-24T17:32:02.999Z</time></trkpt><trkpt lat="42.35627931368314" lon="-8.005299030982412"><ele>112.66666666666667</ele><time>2026-03-24T17:32:03.999Z</time></trkpt><trkpt lat="42.356119904271075" lon="-8.005289255496512"><ele>112.0</ele><time>2026-03-24T17:32:04.999Z</time></trkpt><trkpt lat="42.355961715736" lon="-8.005297623519168"><ele>112.0</ele><time>2026-03-24T17:32:05.999Z</time></trkpt><trkpt lat="42.35580713294356" lon="-8.005303757697476"><ele>112.0</ele><time>2026-03-24T17:32:06.999Z</time></trkpt><trkpt lat="42.355668179361366" lon="-8.005307544518583"><ele>112.0</ele><time>2026-03-24T17:32:07.999Z</time></trkpt><trkpt lat="42.35554566491071" lon="-8.005311333620561"><ele>112.0</ele><time>2026-03-24T17:32:08.999Z</time></trkpt><trkpt lat="42.35543110471619" lon="-8.00531602095476"><ele>111.39999999999999</ele><time>2026-03-24T17:32:09.999Z</time></trkpt><trkpt lat="42.35532025453197" lon="-8.00532186371376"><ele>110.79999999999998</ele><time>2026-03-24T17:32:10.999Z</time></trkpt><trkpt lat="42.35520660521505" lon="-8.005325731355802"><ele>110.2</ele><time>2026-03-24T17:32:11.999Z</time></trkpt><trkpt lat="42.35509258487657" lon="-8.005333361302862"><ele>109.6</ele><time>2026-03-24T17:32:12.999Z</time></trkpt><trkpt lat="42.35498649051092" lon="-8.005338613253592"><ele>109.0</ele><time>2026-03-24T17:32:13.999Z</time></trkpt><trkpt lat="42.354878489303005" lon="-8.00534534501775"><ele>109.0</ele><time>2026-03-24T17:32:14.999Z</time></trkpt><trkpt lat="42.35476491372721" lon="-8.005350861921746"><ele>109.0</ele><time>2026-03-24T17:32:15.999Z</time></trkpt><trkpt lat="42.35465844449606" lon="-8.00535974227096"><ele>109.0</ele><time>2026-03-24T17:32:16.999Z</time></trkpt><trkpt lat="42.35453871737323" lon="-8.005363256670194"><ele>109.0</ele><time>2026-03-24T17:32:17.999Z</time></trkpt><trkpt lat="42.35442212405948" lon="-8.005372044529157"><ele>109.0</ele><time>2026-03-24T17:32:18.999Z</time></trkpt><trkpt lat="42.354303121574254" lon="-8.00539623986178"><ele>109.0</ele><time>2026-03-24T17:32:19.999Z</time></trkpt><trkpt lat="42.35417999470362" lon="-8.00540049606608"><ele>109.0</ele><time>2026-03-24T17:32:20.999Z</time></trkpt><trkpt lat="42.35404423213712" lon="-8.005405189044088"><ele>109.0</ele><time>2026-03-24T17:32:21.999Z</time></trkpt><trkpt lat="42.353898842429935" lon="-8.005410214825815"><ele>109.33333333333334</ele><time>2026-03-24T17:32:22.999Z</time></trkpt><trkpt lat="42.35375087721166" lon="-8.005415329629853"><ele>109.66666666666666</ele><time>2026-03-24T17:32:23.999Z</time></trkpt><trkpt lat="42.35359651584371" lon="-8.00542066553106"><ele>110.0</ele><time>2026-03-24T17:32:24.999Z</time></trkpt><trkpt lat="42.353425758795225" lon="-8.005426566430295"><ele>110.0</ele><time>2026-03-24T17:32:25.999Z</time></trkpt><trkpt lat="42.35323924964706" lon="-8.00543210572878"><ele>110.0</ele><time>2026-03-24T17:32:26.999Z</time></trkpt><trkpt lat="42.353062468702696" lon="-8.005437537250417"><ele>110.0</ele><time>2026-03-24T17:32:27.999Z</time></trkpt><trkpt lat="42.35287367137614" lon="-8.005443337961323"><ele>108.66666666666666</ele><time>2026-03-24T17:32:28.999Z</time></trkpt><trkpt lat="42.352672817447235" lon="-8.005449052120877"><ele>107.33333333333334</ele><time>2026-03-24T17:32:29.999Z</time></trkpt><trkpt lat="42.3524699503345" lon="-8.005454660580961"><ele>106.0</ele><time>2026-03-24T17:32:30.999Z</time></trkpt><trkpt lat="42.35225635484655" lon="-8.005440040832"><ele>105.0</ele><time>2026-03-24T17:32:31.999Z</time></trkpt><trkpt lat="42.35204806462311" lon="-8.005459079540795"><ele>104.0</ele><time>2026-03-24T17:32:32.999Z</time></trkpt><trkpt lat="42.351850407660116" lon="-8.005458926699069"><ele>103.0</ele><time>2026-03-24T17:32:33.999Z</time></trkpt><trkpt lat="42.351658376622666" lon="-8.005447940340192"><ele>103.0</ele><time>2026-03-24T17:32:34.999Z</time></trkpt><trkpt lat="42.351460237832015" lon="-8.00541421646515"><ele>103.0</ele><time>2026-03-24T17:32:35.999Z</time></trkpt><trkpt lat="42.3512611590461" lon="-8.005330189153806"><ele>103.0</ele><time>2026-03-24T17:32:36.999Z</time></trkpt><trkpt lat="42.351068050869756" lon="-8.00521273577496"><ele>103.33333333333334</ele><time>2026-03-24T17:32:38Z</time></trkpt><trkpt lat="42.35089110608088" lon="-8.005060640590708"><ele>103.66666666666666</ele><time>2026-03-24T17:32:39Z</time></trkpt><trkpt lat="42.35072899381508" lon="-8.004873505901092"><ele>104.0</ele><time>2026-03-24T17:32:40Z</time></trkpt><trkpt lat="42.350576940536925" lon="-8.004667783474861"><ele>102.66666666666666</ele><time>2026-03-24T17:32:41Z</time></trkpt><trkpt lat="42.35043839347691" lon="-8.004430618052663"><ele>101.33333333333334</ele><time>2026-03-24T17:32:42Z</time></trkpt><trkpt lat="42.35030566141022" lon="-8.004194131566893"><ele>100.0</ele><time>2026-03-24T17:32:43Z</time></trkpt><trkpt lat="42.35017948789049" lon="-8.003963503595294"><ele>98.0</ele><time>2026-03-24T17:32:44Z</time></trkpt><trkpt lat="42.35005465886673" lon="-8.003753784449726"><ele>96.0</ele><time>2026-03-24T17:32:45Z</time></trkpt><trkpt lat="42.349931482191984" lon="-8.003551414928092"><ele>94.0</ele><time>2026-03-24T17:32:46Z</time></trkpt><trkpt lat="42.349816064823" lon="-8.003349914597495"><ele>93.0</ele><time>2026-03-24T17:32:47Z</time></trkpt><trkpt lat="42.349708504793924" lon="-8.003149510524038"><ele>92.0</ele><time>2026-03-24T17:32:48Z</time></trkpt><trkpt lat="42.34960948370752" lon="-8.002962373380353"><ele>91.0</ele><time>2026-03-24T17:32:49Z</time></trkpt><trkpt lat="42.34950216954004" lon="-8.002804672039815"><ele>91.0</ele><time>2026-03-24T17:32:50Z</time></trkpt><trkpt lat="42.349345154098295" lon="-8.00272630387124"><ele>91.0</ele><time>2026-03-24T17:32:51Z</time></trkpt><trkpt lat="42.34922535141241" lon="-8.002724379294017"><ele>91.0</ele><time>2026-03-24T17:32:52Z</time></trkpt><trkpt lat="42.349096021399106" lon="-8.002754261112484"><ele>91.0</ele><time>2026-03-24T17:32:53Z</time></trkpt><trkpt lat="42.348980193492594" lon="-8.002853359506632"><ele>91.0</ele><time>2026-03-24T17:32:54Z</time></trkpt><trkpt lat="42.34889030581979" lon="-8.002988587811124"><ele>91.0</ele><time>2026-03-24T17:32:55Z</time></trkpt><trkpt lat="42.348809458327366" lon="-8.00314454149765"><ele>91.0</ele><time>2026-03-24T17:32:56Z</time></trkpt><trkpt lat="42.34880928138362" lon="-8.00330781503991"><ele>91.0</ele><time>2026-03-24T17:32:57Z</time></trkpt><trkpt lat="42.3488588397714" lon="-8.003440022820781"><ele>92.25</ele><time>2026-03-24T17:32:58Z</time></trkpt><trkpt lat="42.348940243442065" lon="-8.003510893923767"><ele>93.5</ele><time>2026-03-24T17:32:59Z</time></trkpt><trkpt lat="42.34905481592786" lon="-8.003524620907948"><ele>94.75</ele><time>2026-03-24T17:33:00Z</time></trkpt><trkpt lat="42.34917223758666" lon="-8.003472420347638"><ele>96.0</ele><time>2026-03-24T17:33:01Z</time></trkpt><trkpt lat="42.34927051094493" lon="-8.00335673251227"><ele>94.75</ele><time>2026-03-24T17:33:02Z</time></trkpt><trkpt lat="42.34936973008376" lon="-8.003230394520322"><ele>93.5</ele><time>2026-03-24T17:33:03Z</time></trkpt><trkpt lat="42.349431130737536" lon="-8.003037660406951"><ele>92.25</ele><time>2026-03-24T17:33:04Z</time></trkpt><trkpt lat="42.349502627215536" lon="-8.002860416122129"><ele>91.0</ele><time>2026-03-24T17:33:05Z</time></trkpt><trkpt lat="42.34957852428197" lon="-8.002681413300175"><ele>93.33333333333333</ele><time>2026-03-24T17:33:06Z</time></trkpt><trkpt lat="42.34965326398144" lon="-8.002481518181964"><ele>95.66666666666666</ele><time>2026-03-24T17:33:07Z</time></trkpt><trkpt lat="42.34971463197778" lon="-8.002276156810163"><ele>98.0</ele><time>2026-03-24T17:33:08Z</time></trkpt><trkpt lat="42.349770211262324" lon="-8.002061897745204"><ele>99.33333333333333</ele><time>2026-03-24T17:33:09Z</time></trkpt><trkpt lat="42.3498159940991" lon="-8.001838257142007"><ele>100.66666666666666</ele><time>2026-03-24T17:33:10Z</time></trkpt><trkpt lat="42.349846531885085" lon="-8.001599440672525"><ele>102.0</ele><time>2026-03-24T17:33:11Z</time></trkpt><trkpt lat="42.349857587505106" lon="-8.00135806499026"><ele>104.66666666666666</ele><time>2026-03-24T17:33:12Z</time></trkpt><trkpt lat="42.349846966414894" lon="-8.001111205171423"><ele>107.33333333333333</ele><time>2026-03-24T17:33:13Z</time></trkpt><trkpt lat="42.34982328018093" lon="-8.000861952214509"><ele>110.0</ele><time>2026-03-24T17:33:14Z</time></trkpt><trkpt lat="42.34978385383503" lon="-8.000618881190356"><ele>110.33333333333333</ele><time>2026-03-24T17:33:15Z</time></trkpt><trkpt lat="42.34974316471976" lon="-8.000368297291933"><ele>110.66666666666666</ele><time>2026-03-24T17:33:16Z</time></trkpt><trkpt lat="42.349701151034715" lon="-8.000124198217843"><ele>111.0</ele><time>2026-03-24T17:33:17Z</time></trkpt><trkpt lat="42.349666849288226" lon="-7.999871771026119"><ele>111.0</ele><time>2026-03-24T17:33:18Z</time></trkpt><trkpt lat="42.349627939193304" lon="-7.999618896221519"><ele>111.0</ele><time>2026-03-24T17:33:19Z</time></trkpt><trkpt lat="42.34958848960348" lon="-7.999361725357156"><ele>111.0</ele><time>2026-03-24T17:33:20Z</time></trkpt><trkpt lat="42.349552265275555" lon="-7.99910305788328"><ele>113.33333333333334</ele><time>2026-03-24T17:33:21Z</time></trkpt><trkpt lat="42.34952877839517" lon="-7.998835330413606"><ele>115.66666666666667</ele><time>2026-03-24T17:33:22Z</time></trkpt><trkpt lat="42.34950837900936" lon="-7.99856646512655"><ele>118.0</ele><time>2026-03-24T17:33:23Z</time></trkpt><trkpt lat="42.34948894784261" lon="-7.998292820923137"><ele>120.33333333333334</ele><time>2026-03-24T17:33:24Z</time></trkpt><trkpt lat="42.349462054898034" lon="-7.998020589604454"><ele>122.66666666666666</ele><time>2026-03-24T17:33:25Z</time></trkpt><trkpt lat="42.34941835239889" lon="-7.997740280963048"><ele>125.0</ele><time>2026-03-24T17:33:26Z</time></trkpt><trkpt lat="42.34937981973843" lon="-7.997460224036952"><ele>125.0</ele><time>2026-03-24T17:33:27Z</time></trkpt><trkpt lat="42.34933686042922" lon="-7.997177394209215"><ele>125.0</ele><time>2026-03-24T17:33:28Z</time></trkpt><trkpt lat="42.3492833233941" lon="-7.9968861302281535"><ele>125.0</ele><time>2026-03-24T17:33:29Z</time></trkpt><trkpt lat="42.34922697324612" lon="-7.99659413409492"><ele>124.0</ele><time>2026-03-24T17:33:30Z</time></trkpt><trkpt lat="42.349179317259406" lon="-7.996300104499043"><ele>123.0</ele><time>2026-03-24T17:33:31Z</time></trkpt><trkpt lat="42.34910855687597" lon="-7.99602765441065"><ele>122.0</ele><time>2026-03-24T17:33:32Z</time></trkpt><trkpt lat="42.34902256755407" lon="-7.995760365584297"><ele>121.0</ele><time>2026-03-24T17:33:33Z</time></trkpt><trkpt lat="42.34894305733788" lon="-7.99550917227878"><ele>120.0</ele><time>2026-03-24T17:33:34Z</time></trkpt><trkpt lat="42.34887526556955" lon="-7.995279861126419"><ele>119.0</ele><time>2026-03-24T17:33:35Z</time></trkpt><trkpt lat="42.34880120045925" lon="-7.995056279015508"><ele>119.0</ele><time>2026-03-24T17:33:36Z</time></trkpt><trkpt lat="42.34873386625943" lon="-7.9948523983005435"><ele>119.0</ele><time>2026-03-24T17:33:37Z</time></trkpt><trkpt lat="42.34866350839256" lon="-7.994648577643273"><ele>119.0</ele><time>2026-03-24T17:33:38Z</time></trkpt><trkpt lat="42.34859017031833" lon="-7.994446097649291"><ele>119.0</ele><time>2026-03-24T17:33:39Z</time></trkpt><trkpt lat="42.34852288966931" lon="-7.994248695203593"><ele>119.0</ele><time>2026-03-24T17:33:40Z</time></trkpt><trkpt lat="42.348457865494886" lon="-7.994051579150385"><ele>119.0</ele><time>2026-03-24T17:33:41Z</time></trkpt><trkpt lat="42.3483949614808" lon="-7.993854490234019"><ele>120.0</ele><time>2026-03-24T17:33:42Z</time></trkpt><trkpt lat="42.34833066569193" lon="-7.993654108384989"><ele>121.0</ele><time>2026-03-24T17:33:43Z</time></trkpt><trkpt lat="42.348266922934414" lon="-7.99345830132327"><ele>122.0</ele><time>2026-03-24T17:33:44Z</time></trkpt><trkpt lat="42.34820082875477" lon="-7.99325634912055"><ele>122.0</ele><time>2026-03-24T17:33:45Z</time></trkpt><trkpt lat="42.348138844485256" lon="-7.993048875271588"><ele>122.0</ele><time>2026-03-24T17:33:46Z</time></trkpt><trkpt lat="42.34807747018557" lon="-7.992843596823458"><ele>122.0</ele><time>2026-03-24T17:33:47Z</time></trkpt><trkpt lat="42.34801908426531" lon="-7.992619810080961"><ele>122.33333333333333</ele><time>2026-03-24T17:33:48Z</time></trkpt><trkpt lat="42.34795667971334" lon="-7.992405854623543"><ele>122.66666666666666</ele><time>2026-03-24T17:33:49Z</time></trkpt><trkpt lat="42.347897158301336" lon="-7.992184338686859"><ele>123.0</ele><time>2026-03-24T17:33:50Z</time></trkpt><trkpt lat="42.34783748338512" lon="-7.991958382310487"><ele>123.0</ele><time>2026-03-24T17:33:51Z</time></trkpt><trkpt lat="42.347759947653905" lon="-7.9917457972951995"><ele>123.0</ele><time>2026-03-24T17:33:52Z</time></trkpt><trkpt lat="42.347696429570156" lon="-7.991521906317677"><ele>123.0</ele><time>2026-03-24T17:33:53Z</time></trkpt><trkpt lat="42.34763395112686" lon="-7.991301679817007"><ele>123.33333333333334</ele><time>2026-03-24T17:33:54Z</time></trkpt><trkpt lat="42.347587643905335" lon="-7.991076537951848"><ele>123.66666666666667</ele><time>2026-03-24T17:33:55Z</time></trkpt><trkpt lat="42.34751380468554" lon="-7.990878184985009"><ele>124.0</ele><time>2026-03-24T17:33:56Z</time></trkpt><trkpt lat="42.347458963023925" lon="-7.99068238480309"><ele>124.0</ele><time>2026-03-24T17:33:57Z</time></trkpt><trkpt lat="42.347407893166675" lon="-7.990501134263087"><ele>124.0</ele><time>2026-03-24T17:33:58Z</time></trkpt><trkpt lat="42.347357747205805" lon="-7.990323162441654"><ele>124.0</ele><time>2026-03-24T17:33:59Z</time></trkpt><trkpt lat="42.3473053387364" lon="-7.990137161122503"><ele>124.0</ele><time>2026-03-24T17:34:00Z</time></trkpt><trkpt lat="42.34725610332413" lon="-7.989959141253167"><ele>124.5</ele><time>2026-03-24T17:34:01Z</time></trkpt><trkpt lat="42.34720582451258" lon="-7.989776555199487"><ele>125.0</ele><time>2026-03-24T17:34:02Z</time></trkpt><trkpt lat="42.34715421350092" lon="-7.9895891315226555"><ele>125.5</ele><time>2026-03-24T17:34:03Z</time></trkpt><trkpt lat="42.34710442688387" lon="-7.989408333204739"><ele>126.0</ele><time>2026-03-24T17:34:04Z</time></trkpt><trkpt lat="42.34705355852047" lon="-7.989225541904745"><ele>125.75</ele><time>2026-03-24T17:34:05Z</time></trkpt><trkpt lat="42.34700204581108" lon="-7.989040431921544"><ele>125.5</ele><time>2026-03-24T17:34:06Z</time></trkpt><trkpt lat="42.34695160751599" lon="-7.988857126317887"><ele>125.25</ele><time>2026-03-24T17:34:07Z</time></trkpt><trkpt lat="42.34689885778163" lon="-7.988666196416437"><ele>125.0</ele><time>2026-03-24T17:34:08Z</time></trkpt><trkpt lat="42.34684713965758" lon="-7.9884820965319605"><ele>125.0</ele><time>2026-03-24T17:34:09Z</time></trkpt><trkpt lat="42.34679493048863" lon="-7.988293322397547"><ele>125.0</ele><time>2026-03-24T17:34:10Z</time></trkpt><trkpt lat="42.34674083073002" lon="-7.988097656113186"><ele>125.0</ele><time>2026-03-24T17:34:11Z</time></trkpt><trkpt lat="42.34668796098089" lon="-7.9879092981826085"><ele>125.0</ele><time>2026-03-24T17:34:12Z</time></trkpt><trkpt lat="42.346632953413405" lon="-7.987713270237404"><ele>125.0</ele><time>2026-03-24T17:34:13Z</time></trkpt><trkpt lat="42.346580096415984" lon="-7.987524906006334"><ele>125.0</ele><time>2026-03-24T17:34:14Z</time></trkpt><trkpt lat="42.346528071463844" lon="-7.987331675106077"><ele>125.0</ele><time>2026-03-24T17:34:15Z</time></trkpt><trkpt lat="42.34648083182228" lon="-7.9871481475512445"><ele>125.0</ele><time>2026-03-24T17:34:16Z</time></trkpt><trkpt lat="42.34643301413086" lon="-7.986960621921487"><ele>125.0</ele><time>2026-03-24T17:34:17Z</time></trkpt><trkpt lat="42.346407237911514" lon="-7.986773531236813"><ele>125.0</ele><time>2026-03-24T17:34:18Z</time></trkpt><trkpt lat="42.34637377190545" lon="-7.986593210167489"><ele>124.5</ele><time>2026-03-24T17:34:19Z</time></trkpt><trkpt lat="42.3463439790411" lon="-7.98640074577431"><ele>124.0</ele><time>2026-03-24T17:34:20Z</time></trkpt><trkpt lat="42.346323319334374" lon="-7.98621194575745"><ele>123.5</ele><time>2026-03-24T17:34:21Z</time></trkpt><trkpt lat="42.34628627292016" lon="-7.986016997219406"><ele>123.0</ele><time>2026-03-24T17:34:22Z</time></trkpt><trkpt lat="42.3462676889385" lon="-7.985810494949978"><ele>121.33333333333334</ele><time>2026-03-24T17:34:23Z</time></trkpt><trkpt lat="42.34625380184327" lon="-7.985609458221022"><ele>119.66666666666667</ele><time>2026-03-24T17:34:24Z</time></trkpt><trkpt lat="42.34624002671853" lon="-7.985400684530166"><ele>118.0</ele><time>2026-03-24T17:34:25Z</time></trkpt><trkpt lat="42.34622468146449" lon="-7.985177359964513"><ele>118.66666666666667</ele><time>2026-03-24T17:34:26Z</time></trkpt><trkpt lat="42.346210966306195" lon="-7.984984352807673"><ele>119.33333333333334</ele><time>2026-03-24T17:34:27Z</time></trkpt><trkpt lat="42.34619578114285" lon="-7.98477065893261"><ele>120.0</ele><time>2026-03-24T17:34:28Z</time></trkpt><trkpt lat="42.34617962501893" lon="-7.984556663584135"><ele>120.0</ele><time>2026-03-24T17:34:29Z</time></trkpt><trkpt lat="42.34616382737483" lon="-7.984348421865785"><ele>120.0</ele><time>2026-03-24T17:34:30Z</time></trkpt><trkpt lat="42.34614718234467" lon="-7.984131259164692"><ele>120.0</ele><time>2026-03-24T17:34:31Z</time></trkpt><trkpt lat="42.346127611627196" lon="-7.983922431661484"><ele>121.66666666666666</ele><time>2026-03-24T17:34:32Z</time></trkpt><trkpt lat="42.34610287367929" lon="-7.983714238702021"><ele>123.33333333333333</ele><time>2026-03-24T17:34:33Z</time></trkpt><trkpt lat="42.346072747996374" lon="-7.983504023227342"><ele>125.0</ele><time>2026-03-24T17:34:34Z</time></trkpt><trkpt lat="42.34603411165087" lon="-7.983303777971517"><ele>126.33333333333333</ele><time>2026-03-24T17:34:35Z</time></trkpt><trkpt lat="42.34598151130794" lon="-7.983100011400055"><ele>127.66666666666666</ele><time>2026-03-24T17:34:36Z</time></trkpt><trkpt lat="42.34594342064062" lon="-7.982892590175853"><ele>129.0</ele><time>2026-03-24T17:34:37Z</time></trkpt><trkpt lat="42.34587385906077" lon="-7.982698252678806"><ele>129.0</ele><time>2026-03-24T17:34:38Z</time></trkpt><trkpt lat="42.3457908660538" lon="-7.982521463788019"><ele>129.0</ele><time>2026-03-24T17:34:39Z</time></trkpt><trkpt lat="42.345690532381596" lon="-7.982363608692782"><ele>129.0</ele><time>2026-03-24T17:34:40Z</time></trkpt><trkpt lat="42.34557727640922" lon="-7.982221333976746"><ele>130.66666666666666</ele><time>2026-03-24T17:34:41Z</time></trkpt><trkpt lat="42.34543502865876" lon="-7.982126558238413"><ele>132.33333333333331</ele><time>2026-03-24T17:34:42Z</time></trkpt><trkpt lat="42.345314695558514" lon="-7.982003423793499"><ele>134.0</ele><time>2026-03-24T17:34:43Z</time></trkpt><trkpt lat="42.345174431228" lon="-7.981915300692441"><ele>134.0</ele><time>2026-03-24T17:34:44Z</time></trkpt><trkpt lat="42.345029324245395" lon="-7.98184066573512"><ele>134.0</ele><time>2026-03-24T17:34:45Z</time></trkpt><trkpt lat="42.3448790172943" lon="-7.981775695812429"><ele>134.0</ele><time>2026-03-24T17:34:46Z</time></trkpt><trkpt lat="42.34472851262071" lon="-7.981715912878318"><ele>136.33333333333331</ele><time>2026-03-24T17:34:47Z</time></trkpt><trkpt lat="42.344574287261516" lon="-7.981691301296655"><ele>138.66666666666666</ele><time>2026-03-24T17:34:48Z</time></trkpt><trkpt lat="42.34442155281514" lon="-7.981625129012676"><ele>141.0</ele><time>2026-03-24T17:34:49Z</time></trkpt><trkpt lat="42.344265300892964" lon="-7.981584296801326"><ele>141.5</ele><time>2026-03-24T17:34:50Z</time></trkpt><trkpt lat="42.34411269918205" lon="-7.98154194001151"><ele>142.0</ele><time>2026-03-24T17:34:51Z</time></trkpt><trkpt lat="42.34397139615116" lon="-7.981500688298598"><ele>142.5</ele><time>2026-03-24T17:34:52Z</time></trkpt><trkpt lat="42.3438333131535" lon="-7.981451467536237"><ele>143.0</ele><time>2026-03-24T17:34:53Z</time></trkpt><trkpt lat="42.343696256332656" lon="-7.981380076275511"><ele>143.0</ele><time>2026-03-24T17:34:54Z</time></trkpt><trkpt lat="42.34356043750994" lon="-7.981288367838778"><ele>143.0</ele><time>2026-03-24T17:34:55Z</time></trkpt><trkpt lat="42.343435957962186" lon="-7.981182186744626"><ele>143.0</ele><time>2026-03-24T17:34:56Z</time></trkpt><trkpt lat="42.343318286037814" lon="-7.981050109660704"><ele>143.0</ele><time>2026-03-24T17:34:57Z</time></trkpt><trkpt lat="42.34322055727912" lon="-7.980905134612939"><ele>143.0</ele><time>2026-03-24T17:34:58Z</time></trkpt><trkpt lat="42.343146570052156" lon="-7.980738908841813"><ele>143.0</ele><time>2026-03-24T17:34:59Z</time></trkpt><trkpt lat="42.3430860567999" lon="-7.980573181851432"><ele>143.0</ele><time>2026-03-24T17:35:00Z</time></trkpt><trkpt lat="42.343046448551824" lon="-7.9803932510112965"><ele>142.0</ele><time>2026-03-24T17:35:01Z</time></trkpt><trkpt lat="42.3430262083351" lon="-7.98021178337812"><ele>141.0</ele><time>2026-03-24T17:35:02Z</time></trkpt><trkpt lat="42.34301831399476" lon="-7.980029419344745"><ele>140.0</ele><time>2026-03-24T17:35:03Z</time></trkpt><trkpt lat="42.34302112808957" lon="-7.979857428825311"><ele>139.0</ele><time>2026-03-24T17:35:04Z</time></trkpt><trkpt lat="42.34303826955397" lon="-7.979663543572494"><ele>139.0</ele><time>2026-03-24T17:35:05Z</time></trkpt><trkpt lat="42.34309036128883" lon="-7.979464146997539"><ele>139.0</ele><time>2026-03-24T17:35:06Z</time></trkpt><trkpt lat="42.34315180052105" lon="-7.979268919292358"><ele>139.0</ele><time>2026-03-24T17:35:07Z</time></trkpt><trkpt lat="42.3432117444053" lon="-7.979074370024508"><ele>137.33333333333334</ele><time>2026-03-24T17:35:08Z</time></trkpt><trkpt lat="42.34327175993096" lon="-7.978869232884054"><ele>135.66666666666666</ele><time>2026-03-24T17:35:09Z</time></trkpt><trkpt lat="42.343293294601416" lon="-7.978662333590866"><ele>134.0</ele><time>2026-03-24T17:35:10Z</time></trkpt><trkpt lat="42.34330963008236" lon="-7.978445624622237"><ele>131.66666666666666</ele><time>2026-03-24T17:35:11Z</time></trkpt><trkpt lat="42.343308897376254" lon="-7.978217141405063"><ele>129.33333333333334</ele><time>2026-03-24T17:35:12Z</time></trkpt><trkpt lat="42.34328097537839" lon="-7.978001506190821"><ele>127.0</ele><time>2026-03-24T17:35:13Z</time></trkpt><trkpt lat="42.3432371383721" lon="-7.9777849855954415"><ele>127.0</ele><time>2026-03-24T17:35:14Z</time></trkpt><trkpt lat="42.34316746253133" lon="-7.977578645204963"><ele>127.0</ele><time>2026-03-24T17:35:15Z</time></trkpt><trkpt lat="42.34307273187105" lon="-7.977375831404026"><ele>127.0</ele><time>2026-03-24T17:35:16Z</time></trkpt><trkpt lat="42.342960339632995" lon="-7.977190315056792"><ele>124.0</ele><time>2026-03-24T17:35:17Z</time></trkpt><trkpt lat="42.34283097114839" lon="-7.977020316752547"><ele>121.0</ele><time>2026-03-24T17:35:18Z</time></trkpt><trkpt lat="42.342692638300065" lon="-7.97687151493712"><ele>118.0</ele><time>2026-03-24T17:35:19Z</time></trkpt><trkpt lat="42.342551105251374" lon="-7.976720631455776"><ele>121.33333333333334</ele><time>2026-03-24T17:35:20Z</time></trkpt><trkpt lat="42.34239184096625" lon="-7.976606191126703"><ele>124.66666666666666</ele><time>2026-03-24T17:35:21Z</time></trkpt><trkpt lat="42.34223420086994" lon="-7.976493926663964"><ele>128.0</ele><time>2026-03-24T17:35:22Z</time></trkpt><trkpt lat="42.34208493320856" lon="-7.976378034858215"><ele>128.0</ele><time>2026-03-24T17:35:23Z</time></trkpt><trkpt lat="42.34192922079911" lon="-7.976270476005299"><ele>128.0</ele><time>2026-03-24T17:35:24Z</time></trkpt><trkpt lat="42.34177641696658" lon="-7.976146933520459"><ele>128.0</ele><time>2026-03-24T17:35:25Z</time></trkpt><trkpt lat="42.341628622506974" lon="-7.976020118002051"><ele>128.0</ele><time>2026-03-24T17:35:26Z</time></trkpt><trkpt lat="42.34149828716492" lon="-7.9758980735944105"><ele>128.0</ele><time>2026-03-24T17:35:27Z</time></trkpt><trkpt lat="42.34131466742797" lon="-7.975782346125414"><ele>128.0</ele><time>2026-03-24T17:35:28Z</time></trkpt><trkpt lat="42.341212705354806" lon="-7.975574667904343"><ele>132.33333333333331</ele><time>2026-03-24T17:35:29Z</time></trkpt><trkpt lat="42.3410846655403" lon="-7.975394181602252"><ele>136.66666666666666</ele><time>2026-03-24T17:35:30Z</time></trkpt><trkpt lat="42.340969645674946" lon="-7.975202430602564"><ele>141.0</ele><time>2026-03-24T17:35:31Z</time></trkpt><trkpt lat="42.340853389949295" lon="-7.975009614899638"><ele>143.33333333333334</ele><time>2026-03-24T17:35:32Z</time></trkpt><trkpt lat="42.34076304857855" lon="-7.974789967751755"><ele>145.66666666666669</ele><time>2026-03-24T17:35:33Z</time></trkpt><trkpt lat="42.34070651578176" lon="-7.974560039469598"><ele>148.0</ele><time>2026-03-24T17:35:34Z</time></trkpt><trkpt lat="42.34067510108855" lon="-7.974312980079011"><ele>150.33333333333334</ele><time>2026-03-24T17:35:35Z</time></trkpt><trkpt lat="42.34067248591732" lon="-7.974064442640948"><ele>152.66666666666666</ele><time>2026-03-24T17:35:36Z</time></trkpt><trkpt lat="42.34070035642176" lon="-7.97381560832561"><ele>155.0</ele><time>2026-03-24T17:35:37Z</time></trkpt><trkpt lat="42.34074601033435" lon="-7.973575144729088"><ele>155.66666666666666</ele><time>2026-03-24T17:35:38Z</time></trkpt><trkpt lat="42.340812025842936" lon="-7.973342877792709"><ele>156.33333333333334</ele><time>2026-03-24T17:35:39Z</time></trkpt><trkpt lat="42.34089160189473" lon="-7.973118249086576"><ele>157.0</ele><time>2026-03-24T17:35:40Z</time></trkpt><trkpt lat="42.34098809700329" lon="-7.972914759045379"><ele>157.0</ele><time>2026-03-24T17:35:41Z</time></trkpt><trkpt lat="42.34110395594649" lon="-7.972711714516472"><ele>157.0</ele><time>2026-03-24T17:35:42Z</time></trkpt><trkpt lat="42.34122199762733" lon="-7.972520624818437"><ele>157.0</ele><time>2026-03-24T17:35:43Z</time></trkpt><trkpt lat="42.34134160913728" lon="-7.972326499571731"><ele>159.33333333333334</ele><time>2026-03-24T17:35:44Z</time></trkpt><trkpt lat="42.34145577649255" lon="-7.972131565092373"><ele>161.66666666666666</ele><time>2026-03-24T17:35:45Z</time></trkpt><trkpt lat="42.34155472792499" lon="-7.971941678269069"><ele>164.0</ele><time>2026-03-24T17:35:46Z</time></trkpt><trkpt lat="42.34163769862736" lon="-7.971753882638701"><ele>160.66666666666666</ele><time>2026-03-24T17:35:47Z</time></trkpt><trkpt lat="42.34170781559003" lon="-7.971549508389169"><ele>157.33333333333334</ele><time>2026-03-24T17:35:48Z</time></trkpt><trkpt lat="42.34176569091031" lon="-7.971337587442991"><ele>154.0</ele><time>2026-03-24T17:35:49Z</time></trkpt><trkpt lat="42.34178974753444" lon="-7.971119466088538"><ele>154.0</ele><time>2026-03-24T17:35:50Z</time></trkpt><trkpt lat="42.34182854525546" lon="-7.970906135704323"><ele>154.0</ele><time>2026-03-24T17:35:51Z</time></trkpt><trkpt lat="42.34181554380149" lon="-7.970690955061337"><ele>154.0</ele><time>2026-03-24T17:35:52Z</time></trkpt><trkpt lat="42.34180776700033" lon="-7.970477511140295"><ele>154.33333333333334</ele><time>2026-03-24T17:35:53Z</time></trkpt><trkpt lat="42.3417999729215" lon="-7.970270107778494"><ele>154.66666666666666</ele><time>2026-03-24T17:35:54Z</time></trkpt><trkpt lat="42.34175866706614" lon="-7.97006577282883"><ele>155.0</ele><time>2026-03-24T17:35:55Z</time></trkpt><trkpt lat="42.34170064731507" lon="-7.969859084767421"><ele>155.0</ele><time>2026-03-24T17:35:56Z</time></trkpt><trkpt lat="42.34163316621203" lon="-7.969659371839649"><ele>155.0</ele><time>2026-03-24T17:35:57Z</time></trkpt><trkpt lat="42.34155133316023" lon="-7.969476088287189"><ele>155.0</ele><time>2026-03-24T17:35:58Z</time></trkpt><trkpt lat="42.341452702957724" lon="-7.969300097711581"><ele>158.0</ele><time>2026-03-24T17:35:59Z</time></trkpt><trkpt lat="42.341342787519054" lon="-7.969131784538136"><ele>161.0</ele><time>2026-03-24T17:36:00Z</time></trkpt><trkpt lat="42.341228062468545" lon="-7.968978943634952"><ele>164.0</ele><time>2026-03-24T17:36:01Z</time></trkpt><trkpt lat="42.34110704851889" lon="-7.968822863881914"><ele>164.0</ele><time>2026-03-24T17:36:02Z</time></trkpt><trkpt lat="42.34099455670022" lon="-7.968660601937367"><ele>164.0</ele><time>2026-03-24T17:36:03Z</time></trkpt><trkpt lat="42.34088327105961" lon="-7.968490298726448"><ele>164.0</ele><time>2026-03-24T17:36:04Z</time></trkpt><trkpt lat="42.34077657806859" lon="-7.968308728761779"><ele>165.33333333333331</ele><time>2026-03-24T17:36:05Z</time></trkpt><trkpt lat="42.34068039769715" lon="-7.968115352244417"><ele>166.66666666666666</ele><time>2026-03-24T17:36:06Z</time></trkpt><trkpt lat="42.340597078306395" lon="-7.967899844816947"><ele>168.0</ele><time>2026-03-24T17:36:07Z</time></trkpt><trkpt lat="42.34053396502899" lon="-7.967676486470878"><ele>163.66666666666666</ele><time>2026-03-24T17:36:08Z</time></trkpt><trkpt lat="42.34048202582046" lon="-7.96743677047525"><ele>159.33333333333331</ele><time>2026-03-24T17:36:09Z</time></trkpt><trkpt lat="42.34044311879956" lon="-7.967197306718631"><ele>155.0</ele><time>2026-03-24T17:36:10Z</time></trkpt><trkpt lat="42.340408796757266" lon="-7.966945577978214"><ele>155.0</ele><time>2026-03-24T17:36:11Z</time></trkpt><trkpt lat="42.340376545712864" lon="-7.966696234312909"><ele>155.0</ele><time>2026-03-24T17:36:12Z</time></trkpt><trkpt lat="42.340343736954566" lon="-7.966447037178052"><ele>155.0</ele><time>2026-03-24T17:36:13Z</time></trkpt><trkpt lat="42.340314652362444" lon="-7.966208761166383"><ele>154.0</ele><time>2026-03-24T17:36:14Z</time></trkpt><trkpt lat="42.34029791984286" lon="-7.965973312548384"><ele>153.0</ele><time>2026-03-24T17:36:15Z</time></trkpt><trkpt lat="42.340312898658865" lon="-7.965731572630579"><ele>152.0</ele><time>2026-03-24T17:36:16Z</time></trkpt><trkpt lat="42.3403667270141" lon="-7.965494889995574"><ele>151.66666666666666</ele><time>2026-03-24T17:36:17Z</time></trkpt><trkpt lat="42.340441466347976" lon="-7.965268631385543"><ele>151.33333333333334</ele><time>2026-03-24T17:36:18Z</time></trkpt><trkpt lat="42.34053294027515" lon="-7.965044186755355"><ele>151.0</ele><time>2026-03-24T17:36:19Z</time></trkpt><trkpt lat="42.34061978007555" lon="-7.9648231527794335"><ele>155.0</ele><time>2026-03-24T17:36:20Z</time></trkpt><trkpt lat="42.34069248206145" lon="-7.964601745589787"><ele>159.0</ele><time>2026-03-24T17:36:21Z</time></trkpt><trkpt lat="42.34072232167151" lon="-7.964374033388078"><ele>163.0</ele><time>2026-03-24T17:36:22Z</time></trkpt><trkpt lat="42.34073611329097" lon="-7.9641513681764895"><ele>163.0</ele><time>2026-03-24T17:36:23Z</time></trkpt><trkpt lat="42.340745732129854" lon="-7.963920187245913"><ele>163.0</ele><time>2026-03-24T17:36:24Z</time></trkpt><trkpt lat="42.340726214615394" lon="-7.963694965603565"><ele>163.0</ele><time>2026-03-24T17:36:25Z</time></trkpt><trkpt lat="42.34069471766866" lon="-7.963481942314159"><ele>163.75</ele><time>2026-03-24T17:36:26Z</time></trkpt><trkpt lat="42.340661698403935" lon="-7.96328021435753"><ele>164.5</ele><time>2026-03-24T17:36:27Z</time></trkpt><trkpt lat="42.34063364570426" lon="-7.963085122633972"><ele>165.25</ele><time>2026-03-24T17:36:28Z</time></trkpt><trkpt lat="42.340608490619125" lon="-7.962891616466235"><ele>166.0</ele><time>2026-03-24T17:36:29Z</time></trkpt><trkpt lat="42.340585414058744" lon="-7.962708971896893"><ele>167.25</ele><time>2026-03-24T17:36:30Z</time></trkpt><trkpt lat="42.34055308634569" lon="-7.962524047925053"><ele>168.5</ele><time>2026-03-24T17:36:31Z</time></trkpt><trkpt lat="42.34052054317679" lon="-7.962333298110084"><ele>169.75</ele><time>2026-03-24T17:36:32Z</time></trkpt><trkpt lat="42.340480193056514" lon="-7.962137689296431"><ele>171.0</ele><time>2026-03-24T17:36:33Z</time></trkpt><trkpt lat="42.340437141286586" lon="-7.961931589135567"><ele>160.66666666666666</ele><time>2026-03-24T17:36:34Z</time></trkpt><trkpt lat="42.34039420240092" lon="-7.961722372842551"><ele>150.33333333333331</ele><time>2026-03-24T17:36:35Z</time></trkpt><trkpt lat="42.34035083213143" lon="-7.961504042395641"><ele>140.0</ele><time>2026-03-24T17:36:36Z</time></trkpt><trkpt lat="42.34030323037827" lon="-7.961278185876213"><ele>140.66666666666666</ele><time>2026-03-24T17:36:37Z</time></trkpt><trkpt lat="42.34025512186959" lon="-7.961049023052759"><ele>141.33333333333334</ele><time>2026-03-24T17:36:38Z</time></trkpt><trkpt lat="42.340202304611374" lon="-7.960811948228608"><ele>142.0</ele><time>2026-03-24T17:36:39Z</time></trkpt><trkpt lat="42.34014187400757" lon="-7.960561183407369"><ele>142.0</ele><time>2026-03-24T17:36:40Z</time></trkpt><trkpt lat="42.34008551484452" lon="-7.960305250227867"><ele>142.0</ele><time>2026-03-24T17:36:41Z</time></trkpt><trkpt lat="42.34004109943873" lon="-7.96005236806315"><ele>142.0</ele><time>2026-03-24T17:36:42Z</time></trkpt><trkpt lat="42.34001078458748" lon="-7.959791486230105"><ele>143.33333333333334</ele><time>2026-03-24T17:36:43Z</time></trkpt><trkpt lat="42.34000488911326" lon="-7.959531636256909"><ele>144.66666666666666</ele><time>2026-03-24T17:36:44Z</time></trkpt><trkpt lat="42.340023589297196" lon="-7.959271986605586"><ele>146.0</ele><time>2026-03-24T17:36:45Z</time></trkpt><trkpt lat="42.34005456681859" lon="-7.9590083826124385"><ele>146.0</ele><time>2026-03-24T17:36:46Z</time></trkpt><trkpt lat="42.34008202366609" lon="-7.958748198763122"><ele>146.0</ele><time>2026-03-24T17:36:47Z</time></trkpt><trkpt lat="42.34010415928624" lon="-7.958491898491596"><ele>146.0</ele><time>2026-03-24T17:36:48Z</time></trkpt><trkpt lat="42.340121757998816" lon="-7.958234920522949"><ele>146.0</ele><time>2026-03-24T17:36:49Z</time></trkpt><trkpt lat="42.34013227192616" lon="-7.957980953409259"><ele>146.0</ele><time>2026-03-24T17:36:50Z</time></trkpt><trkpt lat="42.340141760317856" lon="-7.957728612629869"><ele>146.0</ele><time>2026-03-24T17:36:51Z</time></trkpt><trkpt lat="42.34014872038942" lon="-7.957475774757563"><ele>146.0</ele><time>2026-03-24T17:36:52Z</time></trkpt><trkpt lat="42.340155857729414" lon="-7.957225286663245"><ele>146.0</ele><time>2026-03-24T17:36:53Z</time></trkpt><trkpt lat="42.34016773263304" lon="-7.9569739661928125"><ele>146.0</ele><time>2026-03-24T17:36:54Z</time></trkpt><trkpt lat="42.340182035277586" lon="-7.956729088340442"><ele>146.0</ele><time>2026-03-24T17:36:55Z</time></trkpt><trkpt lat="42.3402109474044" lon="-7.9564925355088345"><ele>146.0</ele><time>2026-03-24T17:36:56Z</time></trkpt><trkpt lat="42.34024105135765" lon="-7.956253243139699"><ele>146.0</ele><time>2026-03-24T17:36:57Z</time></trkpt><trkpt lat="42.340264898652514" lon="-7.956017454245723"><ele>145.33333333333331</ele><time>2026-03-24T17:36:58Z</time></trkpt><trkpt lat="42.3402898035078" lon="-7.9557837493481935"><ele>144.66666666666666</ele><time>2026-03-24T17:36:59Z</time></trkpt><trkpt lat="42.34031107217241" lon="-7.955560069055464"><ele>144.0</ele><time>2026-03-24T17:37:00Z</time></trkpt><trkpt lat="42.340330156563525" lon="-7.955336028882146"><ele>144.0</ele><time>2026-03-24T17:37:01Z</time></trkpt><trkpt lat="42.34035074320047" lon="-7.955113432758906"><ele>144.0</ele><time>2026-03-24T17:37:02Z</time></trkpt><trkpt lat="42.34037158681989" lon="-7.954897298994051"><ele>144.0</ele><time>2026-03-24T17:37:03Z</time></trkpt><trkpt lat="42.34039112260269" lon="-7.954676300272409"><ele>144.0</ele><time>2026-03-24T17:37:04Z</time></trkpt><trkpt lat="42.34040915496194" lon="-7.9544632237623105"><ele>144.0</ele><time>2026-03-24T17:37:05Z</time></trkpt><trkpt lat="42.34043260998471" lon="-7.954242302910612"><ele>144.0</ele><time>2026-03-24T17:37:06Z</time></trkpt><trkpt lat="42.34046324804866" lon="-7.954016216252942"><ele>144.0</ele><time>2026-03-24T17:37:07Z</time></trkpt><trkpt lat="42.34049834919693" lon="-7.953793689346311"><ele>144.0</ele><time>2026-03-24T17:37:08Z</time></trkpt><trkpt lat="42.34053770192243" lon="-7.953568597172758"><ele>144.0</ele><time>2026-03-24T17:37:09Z</time></trkpt><trkpt lat="42.34057393678" lon="-7.953346153323744"><ele>148.0</ele><time>2026-03-24T17:37:10Z</time></trkpt><trkpt lat="42.34060930453567" lon="-7.953123621337781"><ele>152.0</ele><time>2026-03-24T17:37:11Z</time></trkpt><trkpt lat="42.34064263941069" lon="-7.952902438646502"><ele>156.0</ele><time>2026-03-24T17:37:12Z</time></trkpt><trkpt lat="42.340683741329656" lon="-7.952681946603734"><ele>156.33333333333334</ele><time>2026-03-24T17:37:13Z</time></trkpt><trkpt lat="42.34072057696842" lon="-7.95246316181524"><ele>156.66666666666669</ele><time>2026-03-24T17:37:14Z</time></trkpt><trkpt lat="42.340761822312054" lon="-7.952244555387614"><ele>157.0</ele><time>2026-03-24T17:37:15Z</time></trkpt><trkpt lat="42.34080874185023" lon="-7.952030802394766"><ele>157.0</ele><time>2026-03-24T17:37:16Z</time></trkpt><trkpt lat="42.34086148353576" lon="-7.951822712482406"><ele>157.0</ele><time>2026-03-24T17:37:17Z</time></trkpt><trkpt lat="42.34091326122848" lon="-7.951631299801968"><ele>157.0</ele><time>2026-03-24T17:37:18Z</time></trkpt><trkpt lat="42.34094771128526" lon="-7.951425114067709"><ele>155.66666666666669</ele><time>2026-03-24T17:37:19Z</time></trkpt><trkpt lat="42.34099621267582" lon="-7.951225939145928"><ele>154.33333333333334</ele><time>2026-03-24T17:37:20Z</time></trkpt><trkpt lat="42.341047338435075" lon="-7.951015986991581"><ele>153.0</ele><time>2026-03-24T17:37:21Z</time></trkpt><trkpt lat="42.34111431264277" lon="-7.950810886186663"><ele>152.0</ele><time>2026-03-24T17:37:22Z</time></trkpt><trkpt lat="42.34116494001857" lon="-7.950595157008757"><ele>151.0</ele><time>2026-03-24T17:37:23Z</time></trkpt><trkpt lat="42.34121659386989" lon="-7.9503725499919256"><ele>150.0</ele><time>2026-03-24T17:37:24Z</time></trkpt><trkpt lat="42.34126950779616" lon="-7.950147515587981"><ele>149.0</ele><time>2026-03-24T17:37:25Z</time></trkpt><trkpt lat="42.34132555249605" lon="-7.949921050250923"><ele>148.0</ele><time>2026-03-24T17:37:26Z</time></trkpt><trkpt lat="42.34138094604232" lon="-7.949700363752553"><ele>147.0</ele><time>2026-03-24T17:37:27Z</time></trkpt><trkpt lat="42.341424970109415" lon="-7.949461817293344"><ele>149.0</ele><time>2026-03-24T17:37:28Z</time></trkpt><trkpt lat="42.34148074052078" lon="-7.949234895760996"><ele>151.0</ele><time>2026-03-24T17:37:29Z</time></trkpt><trkpt lat="42.34153389944835" lon="-7.949018599598944"><ele>153.0</ele><time>2026-03-24T17:37:30Z</time></trkpt><trkpt lat="42.341585976847156" lon="-7.948813630977096"><ele>153.0</ele><time>2026-03-24T17:37:31Z</time></trkpt><trkpt lat="42.34164048807392" lon="-7.948609603014781"><ele>153.0</ele><time>2026-03-24T17:37:32Z</time></trkpt><trkpt lat="42.34170548961419" lon="-7.948426318389268"><ele>153.0</ele><time>2026-03-24T17:37:33Z</time></trkpt><trkpt lat="42.341760741673376" lon="-7.948231106052004"><ele>152.0</ele><time>2026-03-24T17:37:34Z</time></trkpt><trkpt lat="42.34181745844814" lon="-7.948041774131554"><ele>151.0</ele><time>2026-03-24T17:37:35Z</time></trkpt><trkpt lat="42.34187289865814" lon="-7.94785134152774"><ele>150.0</ele><time>2026-03-24T17:37:36Z</time></trkpt><trkpt lat="42.341926546222034" lon="-7.947657754119991"><ele>147.66666666666666</ele><time>2026-03-24T17:37:37Z</time></trkpt><trkpt lat="42.34197210640838" lon="-7.947454648509979"><ele>145.33333333333331</ele><time>2026-03-24T17:37:38Z</time></trkpt><trkpt lat="42.34201387099062" lon="-7.947240384038705"><ele>143.0</ele><time>2026-03-24T17:37:39Z</time></trkpt><trkpt lat="42.3420389063149" lon="-7.947024939868828"><ele>143.0</ele><time>2026-03-24T17:37:40Z</time></trkpt><trkpt lat="42.34205079778982" lon="-7.946805786739153"><ele>143.0</ele><time>2026-03-24T17:37:41Z</time></trkpt><trkpt lat="42.342048479136366" lon="-7.946593024871642"><ele>143.0</ele><time>2026-03-24T17:37:42Z</time></trkpt><trkpt lat="42.34203712559448" lon="-7.946381909700323"><ele>141.66666666666666</ele><time>2026-03-24T17:37:43Z</time></trkpt><trkpt lat="42.34202229557715" lon="-7.94616743876092"><ele>140.33333333333334</ele><time>2026-03-24T17:37:44Z</time></trkpt><trkpt lat="42.34200647987974" lon="-7.945946702211966"><ele>139.0</ele><time>2026-03-24T17:37:45Z</time></trkpt><trkpt lat="42.341988818841514" lon="-7.945725393912128"><ele>139.0</ele><time>2026-03-24T17:37:46Z</time></trkpt><trkpt lat="42.34196877574487" lon="-7.945502424981474"><ele>139.0</ele><time>2026-03-24T17:37:47Z</time></trkpt><trkpt lat="42.341953140265225" lon="-7.94528523232768"><ele>139.0</ele><time>2026-03-24T17:37:48Z</time></trkpt><trkpt lat="42.34194411474827" lon="-7.9450504903609485"><ele>138.66666666666669</ele><time>2026-03-24T17:37:49Z</time></trkpt><trkpt lat="42.34194177998059" lon="-7.944816688118038"><ele>138.33333333333334</ele><time>2026-03-24T17:37:50Z</time></trkpt><trkpt lat="42.34194731778815" lon="-7.944585195632366"><ele>138.0</ele><time>2026-03-24T17:37:51Z</time></trkpt><trkpt lat="42.341959165366816" lon="-7.944348760302615"><ele>137.0</ele><time>2026-03-24T17:37:52Z</time></trkpt><trkpt lat="42.341985288015074" lon="-7.944108746515171"><ele>136.0</ele><time>2026-03-24T17:37:53Z</time></trkpt><trkpt lat="42.34201534261791" lon="-7.943877183291296"><ele>135.0</ele><time>2026-03-24T17:37:54Z</time></trkpt><trkpt lat="42.34204830059716" lon="-7.9436529959831645"><ele>135.0</ele><time>2026-03-24T17:37:55Z</time></trkpt><trkpt lat="42.34208047912541" lon="-7.943416916121942"><ele>135.0</ele><time>2026-03-24T17:37:56Z</time></trkpt><trkpt lat="42.342109553727646" lon="-7.943170556555033"><ele>135.0</ele><time>2026-03-24T17:37:57Z</time></trkpt><trkpt lat="42.342126155552194" lon="-7.942934125972999"><ele>133.33333333333334</ele><time>2026-03-24T17:37:58Z</time></trkpt><trkpt lat="42.342122556806366" lon="-7.942702091115994"><ele>131.66666666666669</ele><time>2026-03-24T17:37:59Z</time></trkpt><trkpt lat="42.342111589506075" lon="-7.9424587776541955"><ele>130.0</ele><time>2026-03-24T17:38:00Z</time></trkpt><trkpt lat="42.342093284605774" lon="-7.942222725455158"><ele>130.0</ele><time>2026-03-24T17:38:01Z</time></trkpt><trkpt lat="42.342075209288545" lon="-7.941984617951525"><ele>130.0</ele><time>2026-03-24T17:38:02Z</time></trkpt><trkpt lat="42.342062137094864" lon="-7.941745036838678"><ele>130.0</ele><time>2026-03-24T17:38:03Z</time></trkpt><trkpt lat="42.34205275881686" lon="-7.941512838987381"><ele>130.66666666666669</ele><time>2026-03-24T17:38:04Z</time></trkpt><trkpt lat="42.34206006199503" lon="-7.941273905986746"><ele>131.33333333333334</ele><time>2026-03-24T17:38:05Z</time></trkpt><trkpt lat="42.34206587957785" lon="-7.941043909377195"><ele>132.0</ele><time>2026-03-24T17:38:06Z</time></trkpt><trkpt lat="42.34208278553616" lon="-7.940799936027755"><ele>132.0</ele><time>2026-03-24T17:38:07Z</time></trkpt><trkpt lat="42.34211132398145" lon="-7.940558766010457"><ele>132.0</ele><time>2026-03-24T17:38:08Z</time></trkpt><trkpt lat="42.34215694563225" lon="-7.940307653482473"><ele>132.0</ele><time>2026-03-24T17:38:09Z</time></trkpt><trkpt lat="42.34220795323734" lon="-7.940056791112744"><ele>136.33333333333334</ele><time>2026-03-24T17:38:10Z</time></trkpt><trkpt lat="42.34226741921624" lon="-7.939805288028504"><ele>140.66666666666669</ele><time>2026-03-24T17:38:11Z</time></trkpt><trkpt lat="42.34232387755849" lon="-7.939543907107947"><ele>145.0</ele><time>2026-03-24T17:38:12Z</time></trkpt><trkpt lat="42.342386283008395" lon="-7.939299583419515"><ele>145.0</ele><time>2026-03-24T17:38:13Z</time></trkpt><trkpt lat="42.34245045879016" lon="-7.939088230177984"><ele>145.0</ele><time>2026-03-24T17:38:14Z</time></trkpt><trkpt lat="42.34249841528397" lon="-7.9388865129619015"><ele>145.0</ele><time>2026-03-24T17:38:15Z</time></trkpt><trkpt lat="42.342550694056996" lon="-7.938683727848938"><ele>145.0</ele><time>2026-03-24T17:38:16Z</time></trkpt><trkpt lat="42.34260755365675" lon="-7.93847357473005"><ele>145.0</ele><time>2026-03-24T17:38:17Z</time></trkpt><trkpt lat="42.342661074889605" lon="-7.938264107153948"><ele>145.0</ele><time>2026-03-24T17:38:18Z</time></trkpt><trkpt lat="42.342712178568476" lon="-7.9380515873283874"><ele>143.66666666666669</ele><time>2026-03-24T17:38:19Z</time></trkpt><trkpt lat="42.34276387845621" lon="-7.937836440657609"><ele>142.33333333333334</ele><time>2026-03-24T17:38:20Z</time></trkpt><trkpt lat="42.34282661014087" lon="-7.937603351186463"><ele>141.0</ele><time>2026-03-24T17:38:21Z</time></trkpt><trkpt lat="42.34288885661918" lon="-7.9373805175230405"><ele>138.0</ele><time>2026-03-24T17:38:22Z</time></trkpt><trkpt lat="42.34297340040966" lon="-7.937138057442019"><ele>135.0</ele><time>2026-03-24T17:38:23Z</time></trkpt><trkpt lat="42.343056716027796" lon="-7.936929614669305"><ele>132.0</ele><time>2026-03-24T17:38:24Z</time></trkpt><trkpt lat="42.343177461545686" lon="-7.936727152941273"><ele>137.0</ele><time>2026-03-24T17:38:25Z</time></trkpt><trkpt lat="42.34331483950935" lon="-7.936540132928417"><ele>142.0</ele><time>2026-03-24T17:38:26Z</time></trkpt><trkpt lat="42.34345607301236" lon="-7.936358564248681"><ele>147.0</ele><time>2026-03-24T17:38:27Z</time></trkpt><trkpt lat="42.3435997409326" lon="-7.93617296293915"><ele>147.0</ele><time>2026-03-24T17:38:28Z</time></trkpt><trkpt lat="42.343742304326156" lon="-7.935983987025505"><ele>147.0</ele><time>2026-03-24T17:38:29Z</time></trkpt><trkpt lat="42.343881769279335" lon="-7.935798162685759"><ele>147.0</ele><time>2026-03-24T17:38:30Z</time></trkpt><trkpt lat="42.34401751652161" lon="-7.935596562506681"><ele>147.0</ele><time>2026-03-24T17:38:31Z</time></trkpt><trkpt lat="42.34411894394193" lon="-7.935378679336026"><ele>147.0</ele><time>2026-03-24T17:38:32Z</time></trkpt><trkpt lat="42.34420936861759" lon="-7.935164642656388"><ele>147.0</ele><time>2026-03-24T17:38:33Z</time></trkpt><trkpt lat="42.34430076817598" lon="-7.934947558128358"><ele>147.0</ele><time>2026-03-24T17:38:34Z</time></trkpt><trkpt lat="42.34440791446806" lon="-7.934740574641748"><ele>147.0</ele><time>2026-03-24T17:38:35Z</time></trkpt><trkpt lat="42.34450284863478" lon="-7.934531082269967"><ele>147.0</ele><time>2026-03-24T17:38:36Z</time></trkpt><trkpt lat="42.34461508251249" lon="-7.934345380628133"><ele>150.33333333333334</ele><time>2026-03-24T17:38:37Z</time></trkpt><trkpt lat="42.34473794935233" lon="-7.934178479770007"><ele>153.66666666666669</ele><time>2026-03-24T17:38:38Z</time></trkpt><trkpt lat="42.34486810433515" lon="-7.93403030288635"><ele>157.0</ele><time>2026-03-24T17:38:39Z</time></trkpt><trkpt lat="42.34500469941316" lon="-7.933884239479278"><ele>157.0</ele><time>2026-03-24T17:38:40Z</time></trkpt><trkpt lat="42.34515589534593" lon="-7.933733208160298"><ele>157.0</ele><time>2026-03-24T17:38:41Z</time></trkpt><trkpt lat="42.34529597856413" lon="-7.9335755413794296"><ele>157.0</ele><time>2026-03-24T17:38:42Z</time></trkpt><trkpt lat="42.345433124867675" lon="-7.933411341966991"><ele>160.33333333333334</ele><time>2026-03-24T17:38:43Z</time></trkpt><trkpt lat="42.34554092043822" lon="-7.933227798429028"><ele>163.66666666666666</ele><time>2026-03-24T17:38:44Z</time></trkpt><trkpt lat="42.3456384731285" lon="-7.933034702755412"><ele>167.0</ele><time>2026-03-24T17:38:45Z</time></trkpt><trkpt lat="42.34574356795108" lon="-7.932834359022581"><ele>167.0</ele><time>2026-03-24T17:38:46Z</time></trkpt><trkpt lat="42.34582248053713" lon="-7.93261540046692"><ele>167.0</ele><time>2026-03-24T17:38:47Z</time></trkpt><trkpt lat="42.34590506374403" lon="-7.9323955112904025"><ele>167.0</ele><time>2026-03-24T17:38:48Z</time></trkpt><trkpt lat="42.34598522350168" lon="-7.932177647581609"><ele>164.0</ele><time>2026-03-24T17:38:49Z</time></trkpt><trkpt lat="42.34606228003428" lon="-7.931960882289679"><ele>161.0</ele><time>2026-03-24T17:38:50Z</time></trkpt><trkpt lat="42.34614264700297" lon="-7.931753465799083"><ele>158.0</ele><time>2026-03-24T17:38:51Z</time></trkpt><trkpt lat="42.346220337068004" lon="-7.931550549702676"><ele>156.0</ele><time>2026-03-24T17:38:52Z</time></trkpt><trkpt lat="42.34629328821378" lon="-7.931349847802213"><ele>154.0</ele><time>2026-03-24T17:38:53Z</time></trkpt><trkpt lat="42.34637675846668" lon="-7.9311542353713165"><ele>152.0</ele><time>2026-03-24T17:38:54Z</time></trkpt><trkpt lat="42.346448544947876" lon="-7.930965562772658"><ele>155.0</ele><time>2026-03-24T17:38:55Z</time></trkpt><trkpt lat="42.34652296354724" lon="-7.930785427707607"><ele>158.0</ele><time>2026-03-24T17:38:56Z</time></trkpt><trkpt lat="42.346599711144414" lon="-7.930615150212066"><ele>161.0</ele><time>2026-03-24T17:38:57Z</time></trkpt><trkpt lat="42.34668711572335" lon="-7.9304518198505916"><ele>164.0</ele><time>2026-03-24T17:38:58Z</time></trkpt><trkpt lat="42.34677099434343" lon="-7.930290839130458"><ele>164.0</ele><time>2026-03-24T17:38:59Z</time></trkpt><trkpt lat="42.34687255307435" lon="-7.930142871645886"><ele>164.0</ele><time>2026-03-24T17:39:00Z</time></trkpt><trkpt lat="42.34697336827756" lon="-7.929999368709267"><ele>164.0</ele><time>2026-03-24T17:39:01Z</time></trkpt><trkpt lat="42.34709294010522" lon="-7.929856163475464"><ele>165.0</ele><time>2026-03-24T17:39:02Z</time></trkpt><trkpt lat="42.347212252949475" lon="-7.929715908015971"><ele>166.0</ele><time>2026-03-24T17:39:03Z</time></trkpt><trkpt lat="42.34734030078809" lon="-7.929590900681666"><ele>167.0</ele><time>2026-03-24T17:39:04Z</time></trkpt><trkpt lat="42.34746672147046" lon="-7.929464587760214"><ele>167.0</ele><time>2026-03-24T17:39:05Z</time></trkpt><trkpt lat="42.34759453144388" lon="-7.92933454685038"><ele>167.0</ele><time>2026-03-24T17:39:06Z</time></trkpt><trkpt lat="42.34772310516313" lon="-7.929203107054287"><ele>167.0</ele><time>2026-03-24T17:39:07Z</time></trkpt><trkpt lat="42.34799358001962" lon="-7.928942709040735"><ele>168.0</ele><time>2026-03-24T17:39:09Z</time></trkpt><trkpt lat="42.34812366275082" lon="-7.928802551495666"><ele>169.0</ele><time>2026-03-24T17:39:10Z</time></trkpt><trkpt lat="42.34824932784195" lon="-7.9286596250859755"><ele>170.0</ele><time>2026-03-24T17:39:11Z</time></trkpt><trkpt lat="42.34837414941589" lon="-7.928515641447979"><ele>165.66666666666666</ele><time>2026-03-24T17:39:12Z</time></trkpt><trkpt lat="42.34850050122283" lon="-7.92836763328778"><ele>161.33333333333334</ele><time>2026-03-24T17:39:13Z</time></trkpt><trkpt lat="42.348628533637786" lon="-7.928205646645022"><ele>157.0</ele><time>2026-03-24T17:39:14Z</time></trkpt><trkpt lat="42.34874621501384" lon="-7.928033604061656"><ele>157.0</ele><time>2026-03-24T17:39:15Z</time></trkpt><trkpt lat="42.34885588068117" lon="-7.927846611320259"><ele>157.0</ele><time>2026-03-24T17:39:16Z</time></trkpt><trkpt lat="42.34896070763787" lon="-7.92764335074064"><ele>157.0</ele><time>2026-03-24T17:39:17Z</time></trkpt><trkpt lat="42.349062903492104" lon="-7.92742001334253"><ele>156.66666666666669</ele><time>2026-03-24T17:39:18Z</time></trkpt><trkpt lat="42.34914622015989" lon="-7.927173956540728"><ele>156.33333333333334</ele><time>2026-03-24T17:39:19Z</time></trkpt><trkpt lat="42.349210000206476" lon="-7.926908033208585"><ele>156.0</ele><time>2026-03-24T17:39:20Z</time></trkpt><trkpt lat="42.34924907171012" lon="-7.92663348090902"><ele>155.0</ele><time>2026-03-24T17:39:21Z</time></trkpt><trkpt lat="42.34925669096242" lon="-7.926345463150226"><ele>154.0</ele><time>2026-03-24T17:39:22Z</time></trkpt><trkpt lat="42.349237184376875" lon="-7.926055496216276"><ele>153.0</ele><time>2026-03-24T17:39:23Z</time></trkpt><trkpt lat="42.349197696213515" lon="-7.925763961410584"><ele>155.0</ele><time>2026-03-24T17:39:24Z</time></trkpt><trkpt lat="42.349139903819314" lon="-7.925476574691284"><ele>157.0</ele><time>2026-03-24T17:39:25Z</time></trkpt><trkpt lat="42.3490704019951" lon="-7.925209057653572"><ele>159.0</ele><time>2026-03-24T17:39:26Z</time></trkpt><trkpt lat="42.349000031650036" lon="-7.924948352671011"><ele>157.0</ele><time>2026-03-24T17:39:27Z</time></trkpt><trkpt lat="42.348934633338075" lon="-7.924689622865044"><ele>155.0</ele><time>2026-03-24T17:39:28Z</time></trkpt><trkpt lat="42.34887289676502" lon="-7.92444561533287"><ele>153.0</ele><time>2026-03-24T17:39:29Z</time></trkpt><trkpt lat="42.34882039966989" lon="-7.924208725861062"><ele>153.0</ele><time>2026-03-24T17:39:30Z</time></trkpt><trkpt lat="42.348780393694625" lon="-7.923973531362094"><ele>153.0</ele><time>2026-03-24T17:39:31Z</time></trkpt><trkpt lat="42.34876012108906" lon="-7.923744048995104"><ele>153.0</ele><time>2026-03-24T17:39:32Z</time></trkpt><trkpt lat="42.34874872468652" lon="-7.923517583487103"><ele>152.66666666666666</ele><time>2026-03-24T17:39:33Z</time></trkpt><trkpt lat="42.34874817937979" lon="-7.923290541804695"><ele>152.33333333333331</ele><time>2026-03-24T17:39:34Z</time></trkpt><trkpt lat="42.348760937480506" lon="-7.923058047178479"><ele>152.0</ele><time>2026-03-24T17:39:35Z</time></trkpt><trkpt lat="42.3487826709211" lon="-7.922825435709503"><ele>152.0</ele><time>2026-03-24T17:39:36Z</time></trkpt><trkpt lat="42.348813814296506" lon="-7.922602581650646"><ele>152.0</ele><time>2026-03-24T17:39:37Z</time></trkpt><trkpt lat="42.348848400860454" lon="-7.922384862669726"><ele>152.0</ele><time>2026-03-24T17:39:38Z</time></trkpt><trkpt lat="42.34888771894353" lon="-7.922169686237722"><ele>151.66666666666666</ele><time>2026-03-24T17:39:39Z</time></trkpt><trkpt lat="42.34893472567617" lon="-7.921963907717921"><ele>151.33333333333334</ele><time>2026-03-24T17:39:40Z</time></trkpt><trkpt lat="42.34898975937721" lon="-7.921773599442297"><ele>151.0</ele><time>2026-03-24T17:39:41Z</time></trkpt><trkpt lat="42.34904950530202" lon="-7.921595588788411"><ele>150.0</ele><time>2026-03-24T17:39:42Z</time></trkpt><trkpt lat="42.34911024970846" lon="-7.921415618980377"><ele>149.0</ele><time>2026-03-24T17:39:43Z</time></trkpt><trkpt lat="42.34917018988039" lon="-7.921230761915508"><ele>148.0</ele><time>2026-03-24T17:39:44Z</time></trkpt><trkpt lat="42.34922670809965" lon="-7.921051933705135"><ele>147.0</ele><time>2026-03-24T17:39:45Z</time></trkpt><trkpt lat="42.34928819774685" lon="-7.920865243527462"><ele>145.33333333333334</ele><time>2026-03-24T17:39:46Z</time></trkpt><trkpt lat="42.349356244797725" lon="-7.9206779285636575"><ele>143.66666666666669</ele><time>2026-03-24T17:39:47Z</time></trkpt><trkpt lat="42.34942138619405" lon="-7.9204988482447725"><ele>142.0</ele><time>2026-03-24T17:39:48Z</time></trkpt><trkpt lat="42.349494426964654" lon="-7.920318222631293"><ele>142.0</ele><time>2026-03-24T17:39:49Z</time></trkpt><trkpt lat="42.349574203867185" lon="-7.9201392838189735"><ele>142.0</ele><time>2026-03-24T17:39:50Z</time></trkpt><trkpt lat="42.3496593147252" lon="-7.919957864287719"><ele>142.0</ele><time>2026-03-24T17:39:51Z</time></trkpt><trkpt lat="42.34974777038589" lon="-7.919771236056167"><ele>141.66666666666669</ele><time>2026-03-24T17:39:52Z</time></trkpt><trkpt lat="42.349839913328616" lon="-7.919583488355492"><ele>141.33333333333334</ele><time>2026-03-24T17:39:53Z</time></trkpt><trkpt lat="42.34993650651145" lon="-7.919393195437503"><ele>141.0</ele><time>2026-03-24T17:39:54Z</time></trkpt><trkpt lat="42.35003272535376" lon="-7.919205772807695"><ele>139.66666666666666</ele><time>2026-03-24T17:39:55Z</time></trkpt><trkpt lat="42.35013265678232" lon="-7.91901761448359"><ele>138.33333333333331</ele><time>2026-03-24T17:39:56Z</time></trkpt><trkpt lat="42.35023246368511" lon="-7.9188343738005935"><ele>137.0</ele><time>2026-03-24T17:39:57Z</time></trkpt><trkpt lat="42.35032670801947" lon="-7.918655109884158"><ele>137.0</ele><time>2026-03-24T17:39:58Z</time></trkpt><trkpt lat="42.35041265379737" lon="-7.918479540487932"><ele>137.0</ele><time>2026-03-24T17:39:59Z</time></trkpt><trkpt lat="42.35049395543674" lon="-7.918307426257197"><ele>137.0</ele><time>2026-03-24T17:40:00Z</time></trkpt><trkpt lat="42.350577634620755" lon="-7.9181261388331725"><ele>135.66666666666666</ele><time>2026-03-24T17:40:01Z</time></trkpt><trkpt lat="42.3506600448326" lon="-7.917946672322381"><ele>134.33333333333334</ele><time>2026-03-24T17:40:02Z</time></trkpt><trkpt lat="42.35074384929998" lon="-7.917760959733183"><ele>133.0</ele><time>2026-03-24T17:40:03Z</time></trkpt><trkpt lat="42.35082235065532" lon="-7.917569994173775"><ele>130.66666666666669</ele><time>2026-03-24T17:40:04Z</time></trkpt><trkpt lat="42.35088607680863" lon="-7.917366873807615"><ele>128.33333333333334</ele><time>2026-03-24T17:40:05Z</time></trkpt><trkpt lat="42.35093350546613" lon="-7.917162086984856"><ele>126.0</ele><time>2026-03-24T17:40:06Z</time></trkpt><trkpt lat="42.35096378978691" lon="-7.916945003629022"><ele>124.66666666666666</ele><time>2026-03-24T17:40:07Z</time></trkpt><trkpt lat="42.350985261027255" lon="-7.916728614044458"><ele>123.33333333333333</ele><time>2026-03-24T17:40:08Z</time></trkpt><trkpt lat="42.351004516453415" lon="-7.916505592726737"><ele>122.0</ele><time>2026-03-24T17:40:09Z</time></trkpt><trkpt lat="42.35102286807527" lon="-7.916277583357244"><ele>122.0</ele><time>2026-03-24T17:40:10Z</time></trkpt><trkpt lat="42.35104150208113" lon="-7.916046343246681"><ele>122.0</ele><time>2026-03-24T17:40:11Z</time></trkpt><trkpt lat="42.35107173167574" lon="-7.915816099095177"><ele>122.0</ele><time>2026-03-24T17:40:12Z</time></trkpt><trkpt lat="42.351118474533195" lon="-7.915592161586567"><ele>119.66666666666666</ele><time>2026-03-24T17:40:13Z</time></trkpt><trkpt lat="42.35117982763781" lon="-7.915380923449622"><ele>117.33333333333334</ele><time>2026-03-24T17:40:14Z</time></trkpt><trkpt lat="42.35125346263551" lon="-7.915188660309813"><ele>115.0</ele><time>2026-03-24T17:40:15Z</time></trkpt><trkpt lat="42.351327691053484" lon="-7.915001456744587"><ele>116.0</ele><time>2026-03-24T17:40:16Z</time></trkpt><trkpt lat="42.35139327980191" lon="-7.914818553813088"><ele>117.0</ele><time>2026-03-24T17:40:17Z</time></trkpt><trkpt lat="42.35145019181102" lon="-7.914634272982114"><ele>118.0</ele><time>2026-03-24T17:40:18Z</time></trkpt><trkpt lat="42.3515037299564" lon="-7.914437234548684"><ele>114.0</ele><time>2026-03-24T17:40:19Z</time></trkpt><trkpt lat="42.3515500799561" lon="-7.914235625798849"><ele>110.0</ele><time>2026-03-24T17:40:20Z</time></trkpt><trkpt lat="42.35158660077171" lon="-7.914025996815262"><ele>106.0</ele><time>2026-03-24T17:40:21Z</time></trkpt><trkpt lat="42.35161394448665" lon="-7.9138164392451396"><ele>106.0</ele><time>2026-03-24T17:40:22Z</time></trkpt><trkpt lat="42.3516275963688" lon="-7.913610363712109"><ele>106.0</ele><time>2026-03-24T17:40:23Z</time></trkpt><trkpt lat="42.35163962934904" lon="-7.913405369555354"><ele>106.0</ele><time>2026-03-24T17:40:24Z</time></trkpt><trkpt lat="42.35164869797535" lon="-7.913196310275154"><ele>104.66666666666667</ele><time>2026-03-24T17:40:25Z</time></trkpt><trkpt lat="42.351651887635654" lon="-7.912993572893006"><ele>103.33333333333334</ele><time>2026-03-24T17:40:26Z</time></trkpt><trkpt lat="42.35164676808309" lon="-7.912789845012632"><ele>102.0</ele><time>2026-03-24T17:40:27Z</time></trkpt><trkpt lat="42.35163340991496" lon="-7.912586239526104"><ele>100.66666666666666</ele><time>2026-03-24T17:40:28Z</time></trkpt><trkpt lat="42.351620945852694" lon="-7.9123741051684915"><ele>99.33333333333333</ele><time>2026-03-24T17:40:29Z</time></trkpt><trkpt lat="42.35160920886035" lon="-7.912151104638495"><ele>98.0</ele><time>2026-03-24T17:40:30Z</time></trkpt><trkpt lat="42.35160540670896" lon="-7.911929278381024"><ele>97.0</ele><time>2026-03-24T17:40:31Z</time></trkpt><trkpt lat="42.3516159644012" lon="-7.911713877387431"><ele>96.0</ele><time>2026-03-24T17:40:32Z</time></trkpt><trkpt lat="42.35164626020107" lon="-7.911499322500407"><ele>95.0</ele><time>2026-03-24T17:40:33Z</time></trkpt><trkpt lat="42.35169024740526" lon="-7.911286336592461"><ele>95.0</ele><time>2026-03-24T17:40:34Z</time></trkpt><trkpt lat="42.351739460938404" lon="-7.911075948360071"><ele>95.0</ele><time>2026-03-24T17:40:35Z</time></trkpt><trkpt lat="42.351785359197436" lon="-7.910875778288569"><ele>95.0</ele><time>2026-03-24T17:40:36Z</time></trkpt><trkpt lat="42.35182823815776" lon="-7.910675749027205"><ele>94.66666666666667</ele><time>2026-03-24T17:40:37Z</time></trkpt><trkpt lat="42.35186873723012" lon="-7.9104798226933735"><ele>94.33333333333333</ele><time>2026-03-24T17:40:38Z</time></trkpt><trkpt lat="42.35191004208703" lon="-7.910279067594077"><ele>94.0</ele><time>2026-03-24T17:40:39Z</time></trkpt><trkpt lat="42.35194475273706" lon="-7.910082962955727"><ele>93.66666666666666</ele><time>2026-03-24T17:40:40Z</time></trkpt><trkpt lat="42.35197469968786" lon="-7.9098814440797165"><ele>93.33333333333333</ele><time>2026-03-24T17:40:41Z</time></trkpt><trkpt lat="42.35199883867035" lon="-7.909679347668044"><ele>93.0</ele><time>2026-03-24T17:40:42Z</time></trkpt><trkpt lat="42.35201648309783" lon="-7.909476170023746"><ele>93.0</ele><time>2026-03-24T17:40:43Z</time></trkpt><trkpt lat="42.35202329549518" lon="-7.909273635757297"><ele>93.0</ele><time>2026-03-24T17:40:44Z</time></trkpt><trkpt lat="42.35202578823332" lon="-7.909066596877553"><ele>93.0</ele><time>2026-03-24T17:40:45Z</time></trkpt><trkpt lat="42.352029727043025" lon="-7.908850915876224"><ele>93.0</ele><time>2026-03-24T17:40:46Z</time></trkpt><trkpt lat="42.352034900085975" lon="-7.908628911561139"><ele>93.0</ele><time>2026-03-24T17:40:47Z</time></trkpt><trkpt lat="42.35204363074479" lon="-7.90840126584833"><ele>93.0</ele><time>2026-03-24T17:40:48Z</time></trkpt><trkpt lat="42.35205672969423" lon="-7.908172397890143"><ele>93.0</ele><time>2026-03-24T17:40:49Z</time></trkpt><trkpt lat="42.352078527874156" lon="-7.907936376223901"><ele>93.0</ele><time>2026-03-24T17:40:50Z</time></trkpt><trkpt lat="42.35210929562896" lon="-7.907705091394515"><ele>93.0</ele><time>2026-03-24T17:40:51Z</time></trkpt><trkpt lat="42.3521470232998" lon="-7.907493340130445"><ele>92.66666666666667</ele><time>2026-03-24T17:40:52Z</time></trkpt><trkpt lat="42.35219361047262" lon="-7.9072838813514235"><ele>92.33333333333334</ele><time>2026-03-24T17:40:53Z</time></trkpt><trkpt lat="42.352251766158574" lon="-7.907065654560996"><ele>92.0</ele><time>2026-03-24T17:40:54Z</time></trkpt><trkpt lat="42.3523254739337" lon="-7.906844765760747"><ele>93.66666666666667</ele><time>2026-03-24T17:40:55Z</time></trkpt><trkpt lat="42.35241810624398" lon="-7.9066183616449806"><ele>95.33333333333334</ele><time>2026-03-24T17:40:56Z</time></trkpt><trkpt lat="42.35251390221483" lon="-7.906397874631244"><ele>97.0</ele><time>2026-03-24T17:40:57Z</time></trkpt><trkpt lat="42.35260093674789" lon="-7.906187018319117"><ele>97.0</ele><time>2026-03-24T17:40:58Z</time></trkpt><trkpt lat="42.352687213311256" lon="-7.9059996055055315"><ele>97.0</ele><time>2026-03-24T17:40:59Z</time></trkpt><trkpt lat="42.352779665705484" lon="-7.905808948125579"><ele>97.0</ele><time>2026-03-24T17:41:00Z</time></trkpt><trkpt lat="42.35288179221477" lon="-7.90561698991201"><ele>97.33333333333334</ele><time>2026-03-24T17:41:01Z</time></trkpt><trkpt lat="42.352989813874764" lon="-7.905417352327264"><ele>97.66666666666666</ele><time>2026-03-24T17:41:02Z</time></trkpt><trkpt lat="42.353098601456196" lon="-7.905211984070615"><ele>98.0</ele><time>2026-03-24T17:41:03Z</time></trkpt><trkpt lat="42.35320614914744" lon="-7.904992912617662"><ele>98.0</ele><time>2026-03-24T17:41:04Z</time></trkpt><trkpt lat="42.35331732032205" lon="-7.904769533301108"><ele>98.0</ele><time>2026-03-24T17:41:05Z</time></trkpt><trkpt lat="42.353420060134205" lon="-7.904533537935582"><ele>98.0</ele><time>2026-03-24T17:41:06Z</time></trkpt><trkpt lat="42.35350674162153" lon="-7.904278141031989"><ele>97.66666666666666</ele><time>2026-03-24T17:41:07Z</time></trkpt><trkpt lat="42.353574141730356" lon="-7.90400746793143"><ele>97.33333333333334</ele><time>2026-03-24T17:41:08Z</time></trkpt><trkpt lat="42.35362367068697" lon="-7.903740042614437"><ele>97.0</ele><time>2026-03-24T17:41:09Z</time></trkpt><trkpt lat="42.3536743783335" lon="-7.9034303690481265"><ele>97.0</ele><time>2026-03-24T17:41:10Z</time></trkpt><trkpt lat="42.35370537951797" lon="-7.903127567961377"><ele>97.0</ele><time>2026-03-24T17:41:11Z</time></trkpt><trkpt lat="42.35372240195665" lon="-7.902815180817398"><ele>97.5</ele><time>2026-03-24T17:41:12Z</time></trkpt><trkpt lat="42.35373557833144" lon="-7.902488511265716"><ele>98.0</ele><time>2026-03-24T17:41:13Z</time></trkpt><trkpt lat="42.353753158493745" lon="-7.902174651835625"><ele>98.0</ele><time>2026-03-24T17:41:14Z</time></trkpt><trkpt lat="42.353773629273526" lon="-7.9018689745218"><ele>98.0</ele><time>2026-03-24T17:41:15Z</time></trkpt><trkpt lat="42.35380264653429" lon="-7.901550688249814"><ele>96.5</ele><time>2026-03-24T17:41:16Z</time></trkpt><trkpt lat="42.353845799743254" lon="-7.901236855002365"><ele>95.0</ele><time>2026-03-24T17:41:17Z</time></trkpt><trkpt lat="42.35390022405449" lon="-7.900923007800819"><ele>97.0</ele><time>2026-03-24T17:41:18Z</time></trkpt><trkpt lat="42.35396018770721" lon="-7.900614489479361"><ele>99.0</ele><time>2026-03-24T17:41:19Z</time></trkpt><trkpt lat="42.35402268613507" lon="-7.900293540846717"><ele>98.0</ele><time>2026-03-24T17:41:20Z</time></trkpt><trkpt lat="42.35407980014504" lon="-7.8999742957375485"><ele>97.0</ele><time>2026-03-24T17:41:21Z</time></trkpt><trkpt lat="42.35413565924155" lon="-7.89965546003655"><ele>97.0</ele><time>2026-03-24T17:41:22Z</time></trkpt><trkpt lat="42.35419330604655" lon="-7.899328838289448"><ele>97.0</ele><time>2026-03-24T17:41:23Z</time></trkpt><trkpt lat="42.35425026064062" lon="-7.899004757234727"><ele>96.0</ele><time>2026-03-24T17:41:24Z</time></trkpt><trkpt lat="42.354304249271806" lon="-7.898688315008692"><ele>95.0</ele><time>2026-03-24T17:41:25Z</time></trkpt><trkpt lat="42.35436336622476" lon="-7.898360098330614"><ele>95.0</ele><time>2026-03-24T17:41:26Z</time></trkpt><trkpt lat="42.354416670352045" lon="-7.8980271111973845"><ele>95.0</ele><time>2026-03-24T17:41:27Z</time></trkpt><trkpt lat="42.35447442517762" lon="-7.897697781295285"><ele>95.0</ele><time>2026-03-24T17:41:28Z</time></trkpt><trkpt lat="42.35453104382325" lon="-7.897372884616142"><ele>95.0</ele><time>2026-03-24T17:41:29Z</time></trkpt><trkpt lat="42.35458653578614" lon="-7.897040479757821"><ele>95.0</ele><time>2026-03-24T17:41:30Z</time></trkpt><trkpt lat="42.35463666601136" lon="-7.896709171487146"><ele>95.0</ele><time>2026-03-24T17:41:31Z</time></trkpt><trkpt lat="42.35467408304665" lon="-7.896376951426764"><ele>98.0</ele><time>2026-03-24T17:41:32Z</time></trkpt><trkpt lat="42.354713455667806" lon="-7.896037948213294"><ele>101.0</ele><time>2026-03-24T17:41:33Z</time></trkpt><trkpt lat="42.35474200822026" lon="-7.895703715233969"><ele>101.0</ele><time>2026-03-24T17:41:34Z</time></trkpt><trkpt lat="42.35477257423247" lon="-7.895367168098119"><ele>101.0</ele><time>2026-03-24T17:41:35Z</time></trkpt><trkpt lat="42.35479172483278" lon="-7.895026339773245"><ele>101.0</ele><time>2026-03-24T17:41:36Z</time></trkpt><trkpt lat="42.354802946029366" lon="-7.894699610434548"><ele>101.0</ele><time>2026-03-24T17:41:37Z</time></trkpt><trkpt lat="42.35481353331839" lon="-7.894374917005196"><ele>100.5</ele><time>2026-03-24T17:41:38Z</time></trkpt><trkpt lat="42.35481852390262" lon="-7.894040371870255"><ele>100.0</ele><time>2026-03-24T17:41:39Z</time></trkpt><trkpt lat="42.354816473712425" lon="-7.893709139607502"><ele>100.0</ele><time>2026-03-24T17:41:40Z</time></trkpt><trkpt lat="42.35481220939951" lon="-7.893371701609958"><ele>100.0</ele><time>2026-03-24T17:41:41Z</time></trkpt><trkpt lat="42.354802435770175" lon="-7.893044991969602"><ele>100.0</ele><time>2026-03-24T17:41:42Z</time></trkpt><trkpt lat="42.35478989778251" lon="-7.892707557588782"><ele>100.0</ele><time>2026-03-24T17:41:43Z</time></trkpt><trkpt lat="42.354767579175075" lon="-7.892370888457005"><ele>100.0</ele><time>2026-03-24T17:41:44Z</time></trkpt><trkpt lat="42.3547383768239" lon="-7.892037688383056"><ele>100.0</ele><time>2026-03-24T17:41:45Z</time></trkpt><trkpt lat="42.35471352476897" lon="-7.891703976036962"><ele>98.5</ele><time>2026-03-24T17:41:46Z</time></trkpt><trkpt lat="42.354685549326256" lon="-7.891372326442438"><ele>97.0</ele><time>2026-03-24T17:41:47Z</time></trkpt><trkpt lat="42.3546627756375" lon="-7.891044572967558"><ele>98.5</ele><time>2026-03-24T17:41:48Z</time></trkpt><trkpt lat="42.35464365801064" lon="-7.890704781813348"><ele>100.0</ele><time>2026-03-24T17:41:49Z</time></trkpt><trkpt lat="42.35462089925515" lon="-7.8903685206675505"><ele>99.0</ele><time>2026-03-24T17:41:50Z</time></trkpt><trkpt lat="42.35459295224444" lon="-7.8900352780218155"><ele>98.0</ele><time>2026-03-24T17:41:51Z</time></trkpt><trkpt lat="42.35458297307347" lon="-7.889702444085021"><ele>98.0</ele><time>2026-03-24T17:41:52Z</time></trkpt><trkpt lat="42.354572864156886" lon="-7.88936676277959"><ele>98.0</ele><time>2026-03-24T17:41:53Z</time></trkpt><trkpt lat="42.354558377985185" lon="-7.889036488465139"><ele>99.0</ele><time>2026-03-24T17:41:54Z</time></trkpt><trkpt lat="42.354563333106626" lon="-7.888699955309013"><ele>100.0</ele><time>2026-03-24T17:41:55Z</time></trkpt><trkpt lat="42.35456299157976" lon="-7.8883732716691055"><ele>100.0</ele><time>2026-03-24T17:41:56Z</time></trkpt><trkpt lat="42.35454899002677" lon="-7.888054247730995"><ele>100.0</ele><time>2026-03-24T17:41:57Z</time></trkpt><trkpt lat="42.354535795434224" lon="-7.887722817518505"><ele>100.0</ele><time>2026-03-24T17:41:58Z</time></trkpt><trkpt lat="42.35451539736222" lon="-7.887394938578977"><ele>100.0</ele><time>2026-03-24T17:41:59Z</time></trkpt><trkpt lat="42.35446886110818" lon="-7.8870776569207"><ele>100.0</ele><time>2026-03-24T17:42:00Z</time></trkpt><trkpt lat="42.35440717748842" lon="-7.88676486540878"><ele>100.0</ele><time>2026-03-24T17:42:01Z</time></trkpt><trkpt lat="42.354334529723246" lon="-7.886465851570067"><ele>101.5</ele><time>2026-03-24T17:42:02Z</time></trkpt><trkpt lat="42.354239683468926" lon="-7.886154273779423"><ele>103.0</ele><time>2026-03-24T17:42:03Z</time></trkpt><trkpt lat="42.35412928119972" lon="-7.8858629578519945"><ele>104.5</ele><time>2026-03-24T17:42:04Z</time></trkpt><trkpt lat="42.35400734265025" lon="-7.885586783643563"><ele>106.0</ele><time>2026-03-24T17:42:05Z</time></trkpt><trkpt lat="42.35387785895249" lon="-7.885313306278383"><ele>103.0</ele><time>2026-03-24T17:42:06Z</time></trkpt><trkpt lat="42.35375577626646" lon="-7.885034413504279"><ele>100.0</ele><time>2026-03-24T17:42:07Z</time></trkpt><trkpt lat="42.35364388833269" lon="-7.884751319382172"><ele>100.0</ele><time>2026-03-24T17:42:08Z</time></trkpt><trkpt lat="42.353518975161634" lon="-7.884467427706281"><ele>100.0</ele><time>2026-03-24T17:42:09Z</time></trkpt><trkpt lat="42.35339984874995" lon="-7.88418930489586"><ele>103.5</ele><time>2026-03-24T17:42:10Z</time></trkpt><trkpt lat="42.35328887769044" lon="-7.883903992407524"><ele>107.0</ele><time>2026-03-24T17:42:11Z</time></trkpt><trkpt lat="42.353181483075616" lon="-7.883611527765179"><ele>109.0</ele><time>2026-03-24T17:42:12Z</time></trkpt><trkpt lat="42.35308403372054" lon="-7.883318043158027"><ele>111.0</ele><time>2026-03-24T17:42:13Z</time></trkpt><trkpt lat="42.35299098021628" lon="-7.883015947699968"><ele>107.5</ele><time>2026-03-24T17:42:14Z</time></trkpt><trkpt lat="42.35289965492769" lon="-7.882711821485894"><ele>104.0</ele><time>2026-03-24T17:42:15Z</time></trkpt><trkpt lat="42.35281336177523" lon="-7.882405038242814"><ele>104.0</ele><time>2026-03-24T17:42:16Z</time></trkpt><trkpt lat="42.352729643190116" lon="-7.88209640858751"><ele>104.0</ele><time>2026-03-24T17:42:17Z</time></trkpt><trkpt lat="42.35264409010226" lon="-7.881787674579142"><ele>106.0</ele><time>2026-03-24T17:42:18Z</time></trkpt><trkpt lat="42.35255271841132" lon="-7.881484210561103"><ele>108.0</ele><time>2026-03-24T17:42:19Z</time></trkpt><trkpt lat="42.352441945855254" lon="-7.881189688843546"><ele>108.5</ele><time>2026-03-24T17:42:20Z</time></trkpt><trkpt lat="42.35231387196503" lon="-7.8809082601956275"><ele>109.0</ele><time>2026-03-24T17:42:21Z</time></trkpt><trkpt lat="42.3521607768731" lon="-7.880653284388235"><ele>105.5</ele><time>2026-03-24T17:42:22Z</time></trkpt><trkpt lat="42.35199782775462" lon="-7.880404043523935"><ele>102.0</ele><time>2026-03-24T17:42:23Z</time></trkpt><trkpt lat="42.35182428485912" lon="-7.880183879409804"><ele>102.33333333333334</ele><time>2026-03-24T17:42:24Z</time></trkpt><trkpt lat="42.35165812842739" lon="-7.879989281894891"><ele>102.66666666666667</ele><time>2026-03-24T17:42:25Z</time></trkpt><trkpt lat="42.351499739637006" lon="-7.879817682370318"><ele>103.0</ele><time>2026-03-24T17:42:26Z</time></trkpt><trkpt lat="42.351343218667274" lon="-7.879656869482258"><ele>103.0</ele><time>2026-03-24T17:42:27Z</time></trkpt><trkpt lat="42.351187507003395" lon="-7.879488870759141"><ele>103.0</ele><time>2026-03-24T17:42:28Z</time></trkpt><trkpt lat="42.35104158877772" lon="-7.879339957413624"><ele>103.0</ele><time>2026-03-24T17:42:29Z</time></trkpt><trkpt lat="42.35090264348117" lon="-7.879175721099895"><ele>103.33333333333334</ele><time>2026-03-24T17:42:30Z</time></trkpt><trkpt lat="42.35076384897975" lon="-7.879004700184106"><ele>103.66666666666666</ele><time>2026-03-24T17:42:31Z</time></trkpt><trkpt lat="42.350622314187895" lon="-7.878829574041409"><ele>104.0</ele><time>2026-03-24T17:42:32Z</time></trkpt><trkpt lat="42.350473544612434" lon="-7.878675120674531"><ele>104.0</ele><time>2026-03-24T17:42:33Z</time></trkpt><trkpt lat="42.35033776432985" lon="-7.878534580860234"><ele>104.0</ele><time>2026-03-24T17:42:34Z</time></trkpt><trkpt lat="42.35021048514347" lon="-7.87841437488375"><ele>104.0</ele><time>2026-03-24T17:42:35Z</time></trkpt><trkpt lat="42.35008071610217" lon="-7.878302897027291"><ele>105.5</ele><time>2026-03-24T17:42:36Z</time></trkpt><trkpt lat="42.349951953076605" lon="-7.878197483160056"><ele>107.0</ele><time>2026-03-24T17:42:37Z</time></trkpt><trkpt lat="42.34982325426498" lon="-7.878114406881571"><ele>108.5</ele><time>2026-03-24T17:42:38Z</time></trkpt><trkpt lat="42.349693885939644" lon="-7.878029040476345"><ele>110.0</ele><time>2026-03-24T17:42:39Z</time></trkpt><trkpt lat="42.34956604392022" lon="-7.877939674068277"><ele>110.0</ele><time>2026-03-24T17:42:40Z</time></trkpt><trkpt lat="42.3494557764728" lon="-7.87785584633364"><ele>110.0</ele><time>2026-03-24T17:42:41Z</time></trkpt><trkpt lat="42.349337108514064" lon="-7.877764776916982"><ele>110.0</ele><time>2026-03-24T17:42:42Z</time></trkpt><trkpt lat="42.349223301286365" lon="-7.877669979602251"><ele>110.0</ele><time>2026-03-24T17:42:43Z</time></trkpt><trkpt lat="42.3491180620234" lon="-7.877569238964714"><ele>110.75</ele><time>2026-03-24T17:42:44Z</time></trkpt><trkpt lat="42.349019501097004" lon="-7.877475269341693"><ele>111.5</ele><time>2026-03-24T17:42:45Z</time></trkpt><trkpt lat="42.34892728807919" lon="-7.877376163811003"><ele>112.25</ele><time>2026-03-24T17:42:46Z</time></trkpt><trkpt lat="42.34883829066074" lon="-7.877279493624223"><ele>113.0</ele><time>2026-03-24T17:42:47Z</time></trkpt><trkpt lat="42.34874887246283" lon="-7.87717930176365"><ele>113.0</ele><time>2026-03-24T17:42:48Z</time></trkpt><trkpt lat="42.34866124293892" lon="-7.877081425725689"><ele>113.0</ele><time>2026-03-24T17:42:49Z</time></trkpt><trkpt lat="42.34856632816639" lon="-7.876984559574832"><ele>113.0</ele><time>2026-03-24T17:42:50Z</time></trkpt><trkpt lat="42.348476377039354" lon="-7.876882232244981"><ele>113.0</ele><time>2026-03-24T17:42:51Z</time></trkpt><trkpt lat="42.34837263210652" lon="-7.876762463555311"><ele>114.33333333333333</ele><time>2026-03-24T17:42:52Z</time></trkpt><trkpt lat="42.34825921921555" lon="-7.876637392399684"><ele>115.66666666666666</ele><time>2026-03-24T17:42:53Z</time></trkpt><trkpt lat="42.348141538545605" lon="-7.876507153160986"><ele>117.0</ele><time>2026-03-24T17:42:54Z</time></trkpt><trkpt lat="42.3480216231358" lon="-7.876373769021346"><ele>114.0</ele><time>2026-03-24T17:42:55Z</time></trkpt><trkpt lat="42.34789236448999" lon="-7.876245509353167"><ele>111.0</ele><time>2026-03-24T17:42:56Z</time></trkpt><trkpt lat="42.347786011740205" lon="-7.876115968686776"><ele>108.0</ele><time>2026-03-24T17:42:57Z</time></trkpt><trkpt lat="42.34767035292394" lon="-7.875988230734737"><ele>109.75</ele><time>2026-03-24T17:42:58Z</time></trkpt><trkpt lat="42.347542945536304" lon="-7.875863854277036"><ele>111.5</ele><time>2026-03-24T17:42:59Z</time></trkpt><trkpt lat="42.347445660723714" lon="-7.875749057918545"><ele>113.25</ele><time>2026-03-24T17:43:00Z</time></trkpt><trkpt lat="42.3473470904934" lon="-7.875639831315121"><ele>115.0</ele><time>2026-03-24T17:43:01Z</time></trkpt><trkpt lat="42.34724833608018" lon="-7.875552037091001"><ele>114.0</ele><time>2026-03-24T17:43:02Z</time></trkpt><trkpt lat="42.347158361066384" lon="-7.875487244361281"><ele>113.0</ele><time>2026-03-24T17:43:03Z</time></trkpt><trkpt lat="42.34709980709949" lon="-7.875446117327364"><ele>112.0</ele><time>2026-03-24T17:43:04Z</time></trkpt><trkpt lat="42.34702165867" lon="-7.875404713146246"><ele>111.0</ele><time>2026-03-24T17:43:06Z</time></trkpt><trkpt lat="42.346913899250495" lon="-7.875362320512006"><ele>110.0</ele><time>2026-03-24T17:43:08Z</time></trkpt><trkpt lat="42.346819415038574" lon="-7.8753179415913355"><ele>110.0</ele><time>2026-03-24T17:43:10Z</time></trkpt><trkpt lat="42.34674287146137" lon="-7.875336233400549"><ele>110.0</ele><time>2026-03-24T17:43:11Z</time></trkpt><trkpt lat="42.3466603449139" lon="-7.87534223340071"><ele>110.0</ele><time>2026-03-24T17:43:12Z</time></trkpt><trkpt lat="42.34655777252996" lon="-7.875347982794626"><ele>110.0</ele><time>2026-03-24T17:43:13Z</time></trkpt><trkpt lat="42.3464344196618" lon="-7.875354290368928"><ele>110.0</ele><time>2026-03-24T17:43:14Z</time></trkpt><trkpt lat="42.34631141517582" lon="-7.875407746756351"><ele>107.0</ele><time>2026-03-24T17:43:15Z</time></trkpt><trkpt lat="42.34617781558924" lon="-7.875439778421195"><ele>104.0</ele><time>2026-03-24T17:43:16Z</time></trkpt><trkpt lat="42.3460327996489" lon="-7.875495964672951"><ele>101.0</ele><time>2026-03-24T17:43:17Z</time></trkpt><trkpt lat="42.345880871053716" lon="-7.875558348632251"><ele>98.0</ele><time>2026-03-24T17:43:18Z</time></trkpt><trkpt lat="42.34571455687781" lon="-7.875616127079519"><ele>98.0</ele><time>2026-03-24T17:43:19Z</time></trkpt><trkpt lat="42.3455497975155" lon="-7.875670539098227"><ele>98.0</ele><time>2026-03-24T17:43:20Z</time></trkpt><trkpt lat="42.345376266050756" lon="-7.875728000507118"><ele>98.0</ele><time>2026-03-24T17:43:21Z</time></trkpt><trkpt lat="42.34519869600633" lon="-7.875788666931655"><ele>99.33333333333333</ele><time>2026-03-24T17:43:22Z</time></trkpt><trkpt lat="42.345007960244835" lon="-7.875850881083411"><ele>100.66666666666666</ele><time>2026-03-24T17:43:23Z</time></trkpt><trkpt lat="42.344815328118806" lon="-7.8759165937236295"><ele>102.0</ele><time>2026-03-24T17:43:24Z</time></trkpt><trkpt lat="42.34462090070409" lon="-7.8759793737416395"><ele>104.33333333333334</ele><time>2026-03-24T17:43:25Z</time></trkpt><trkpt lat="42.344414583981035" lon="-7.876055309692583"><ele>106.66666666666667</ele><time>2026-03-24T17:43:26Z</time></trkpt><trkpt lat="42.34421140746677" lon="-7.87613014524225"><ele>109.0</ele><time>2026-03-24T17:43:27Z</time></trkpt><trkpt lat="42.34400888918859" lon="-7.876200647626961"><ele>111.33333333333334</ele><time>2026-03-24T17:43:28Z</time></trkpt><trkpt lat="42.343800341573285" lon="-7.8762768573070225"><ele>113.66666666666666</ele><time>2026-03-24T17:43:29Z</time></trkpt><trkpt lat="42.3435926341071" lon="-7.8763568329389955"><ele>116.0</ele><time>2026-03-24T17:43:30Z</time></trkpt><trkpt lat="42.343384157969886" lon="-7.876453904048569"><ele>116.0</ele><time>2026-03-24T17:43:31Z</time></trkpt><trkpt lat="42.34318072743534" lon="-7.876584472686247"><ele>116.0</ele><time>2026-03-24T17:43:32Z</time></trkpt><trkpt lat="42.34298164868332" lon="-7.876749651244366"><ele>115.5</ele><time>2026-03-24T17:43:33Z</time></trkpt><trkpt lat="42.342786404716854" lon="-7.876919250992779"><ele>115.0</ele><time>2026-03-24T17:43:34Z</time></trkpt><trkpt lat="42.34260029593709" lon="-7.877072938086324"><ele>115.0</ele><time>2026-03-24T17:43:35Z</time></trkpt><trkpt lat="42.34240341339646" lon="-7.877217741362404"><ele>115.0</ele><time>2026-03-24T17:43:36Z</time></trkpt><trkpt lat="42.34219704316037" lon="-7.8773790037834255"><ele>115.0</ele><time>2026-03-24T17:43:37Z</time></trkpt><trkpt lat="42.34198927514031" lon="-7.877494540971096"><ele>115.0</ele><time>2026-03-24T17:43:38Z</time></trkpt><trkpt lat="42.341787647201706" lon="-7.877612049512225"><ele>115.0</ele><time>2026-03-24T17:43:39Z</time></trkpt><trkpt lat="42.34158469112965" lon="-7.877707676404798"><ele>115.33333333333334</ele><time>2026-03-24T17:43:40Z</time></trkpt><trkpt lat="42.341377158360054" lon="-7.877788630675504"><ele>115.66666666666666</ele><time>2026-03-24T17:43:41Z</time></trkpt><trkpt lat="42.34116735782496" lon="-7.8778565419335"><ele>116.0</ele><time>2026-03-24T17:43:42Z</time></trkpt><trkpt lat="42.34095542552955" lon="-7.877912651141176"><ele>116.0</ele><time>2026-03-24T17:43:43Z</time></trkpt><trkpt lat="42.34073874071485" lon="-7.877953959388142"><ele>116.0</ele><time>2026-03-24T17:43:44Z</time></trkpt><trkpt lat="42.34052734510269" lon="-7.8779859616219134"><ele>116.0</ele><time>2026-03-24T17:43:45Z</time></trkpt><trkpt lat="42.340318386484654" lon="-7.878011502437416"><ele>117.0</ele><time>2026-03-24T17:43:46Z</time></trkpt><trkpt lat="42.340123300258334" lon="-7.878034796383065"><ele>118.0</ele><time>2026-03-24T17:43:47Z</time></trkpt><trkpt lat="42.33993765730723" lon="-7.878053014459383"><ele>119.0</ele><time>2026-03-24T17:43:48Z</time></trkpt><trkpt lat="42.339746770888624" lon="-7.878078240100901"><ele>120.0</ele><time>2026-03-24T17:43:49Z</time></trkpt><trkpt lat="42.339544931604536" lon="-7.878107291541393"><ele>121.0</ele><time>2026-03-24T17:43:50Z</time></trkpt><trkpt lat="42.33934142634092" lon="-7.8781297365041985"><ele>122.0</ele><time>2026-03-24T17:43:51Z</time></trkpt><trkpt lat="42.3391344198621" lon="-7.878156385066555"><ele>122.0</ele><time>2026-03-24T17:43:52Z</time></trkpt><trkpt lat="42.33893161578562" lon="-7.878193692881062"><ele>122.0</ele><time>2026-03-24T17:43:53Z</time></trkpt><trkpt lat="42.3387268072246" lon="-7.878243816003203"><ele>122.0</ele><time>2026-03-24T17:43:54Z</time></trkpt><trkpt lat="42.33853344974416" lon="-7.87832946404407"><ele>123.33333333333333</ele><time>2026-03-24T17:43:55Z</time></trkpt><trkpt lat="42.338328150705955" lon="-7.878393275126959"><ele>124.66666666666666</ele><time>2026-03-24T17:43:56Z</time></trkpt><trkpt lat="42.33813178262695" lon="-7.8784900953412"><ele>126.0</ele><time>2026-03-24T17:43:57Z</time></trkpt><trkpt lat="42.33793974171704" lon="-7.878590461905336"><ele>126.33333333333334</ele><time>2026-03-24T17:43:58Z</time></trkpt><trkpt lat="42.33774814484179" lon="-7.8787151296000255"><ele>126.66666666666667</ele><time>2026-03-24T17:43:59Z</time></trkpt><trkpt lat="42.33756150539875" lon="-7.878853126666826"><ele>127.0</ele><time>2026-03-24T17:44:00Z</time></trkpt><trkpt lat="42.33737708280868" lon="-7.878988063021009"><ele>126.66666666666667</ele><time>2026-03-24T17:44:01Z</time></trkpt><trkpt lat="42.33719453151043" lon="-7.879125571824482"><ele>126.33333333333334</ele><time>2026-03-24T17:44:02Z</time></trkpt><trkpt lat="42.33701447743493" lon="-7.879264960513834"><ele>126.0</ele><time>2026-03-24T17:44:03Z</time></trkpt><trkpt lat="42.33683330058197" lon="-7.8794140114180555"><ele>126.0</ele><time>2026-03-24T17:44:04Z</time></trkpt><trkpt lat="42.33665901508816" lon="-7.879567561335514"><ele>126.0</ele><time>2026-03-24T17:44:05Z</time></trkpt><trkpt lat="42.33647727157119" lon="-7.879714043171413"><ele>126.0</ele><time>2026-03-24T17:44:06Z</time></trkpt><trkpt lat="42.336292012573594" lon="-7.8798416909197995"><ele>129.0</ele><time>2026-03-24T17:44:07Z</time></trkpt><trkpt lat="42.336097062580286" lon="-7.879960529668107"><ele>132.0</ele><time>2026-03-24T17:44:08Z</time></trkpt><trkpt lat="42.335897557470695" lon="-7.880058914382252"><ele>135.0</ele><time>2026-03-24T17:44:09Z</time></trkpt><trkpt lat="42.33570279772505" lon="-7.880137449412914"><ele>137.0</ele><time>2026-03-24T17:44:10Z</time></trkpt><trkpt lat="42.33549201780499" lon="-7.880191827414308"><ele>139.0</ele><time>2026-03-24T17:44:11Z</time></trkpt><trkpt lat="42.33528351296434" lon="-7.880230857617469"><ele>141.0</ele><time>2026-03-24T17:44:12Z</time></trkpt><trkpt lat="42.335076702141535" lon="-7.88025085029352"><ele>141.0</ele><time>2026-03-24T17:44:13Z</time></trkpt><trkpt lat="42.33486812570537" lon="-7.8802483741601845"><ele>141.0</ele><time>2026-03-24T17:44:14Z</time></trkpt><trkpt lat="42.334660431004046" lon="-7.8802314886526785"><ele>141.0</ele><time>2026-03-24T17:44:15Z</time></trkpt><trkpt lat="42.334447682986905" lon="-7.880247273644307"><ele>141.0</ele><time>2026-03-24T17:44:16Z</time></trkpt><trkpt lat="42.33425110682142" lon="-7.880122280925438"><ele>141.0</ele><time>2026-03-24T17:44:17Z</time></trkpt><trkpt lat="42.334058040292085" lon="-7.880023863826887"><ele>141.0</ele><time>2026-03-24T17:44:18Z</time></trkpt><trkpt lat="42.33387077274046" lon="-7.879911544723476"><ele>144.33333333333334</ele><time>2026-03-24T17:44:19Z</time></trkpt><trkpt lat="42.33368488835406" lon="-7.87977088247451"><ele>147.66666666666669</ele><time>2026-03-24T17:44:20Z</time></trkpt><trkpt lat="42.33350665196633" lon="-7.879622267289021"><ele>151.0</ele><time>2026-03-24T17:44:21Z</time></trkpt><trkpt lat="42.33332676046933" lon="-7.879470563691818"><ele>151.0</ele><time>2026-03-24T17:44:22Z</time></trkpt><trkpt lat="42.333148019299955" lon="-7.879315583335033"><ele>151.0</ele><time>2026-03-24T17:44:23Z</time></trkpt><trkpt lat="42.33296995200823" lon="-7.879156942545679"><ele>151.0</ele><time>2026-03-24T17:44:24Z</time></trkpt><trkpt lat="42.33278889176928" lon="-7.87899906897025"><ele>157.33333333333334</ele><time>2026-03-24T17:44:25Z</time></trkpt><trkpt lat="42.33260663027671" lon="-7.878848754099683"><ele>163.66666666666666</ele><time>2026-03-24T17:44:26Z</time></trkpt><trkpt lat="42.3324241951519" lon="-7.878698128984696"><ele>170.0</ele><time>2026-03-24T17:44:27Z</time></trkpt><trkpt lat="42.332238155531655" lon="-7.878557296977746"><ele>173.66666666666666</ele><time>2026-03-24T17:44:28Z</time></trkpt><trkpt lat="42.3320432819013" lon="-7.878425700876014"><ele>177.33333333333334</ele><time>2026-03-24T17:44:29Z</time></trkpt><trkpt lat="42.331844362908015" lon="-7.878319959601654"><ele>181.0</ele><time>2026-03-24T17:44:30Z</time></trkpt><trkpt lat="42.331629853433604" lon="-7.878229776454643"><ele>181.0</ele><time>2026-03-24T17:44:31Z</time></trkpt><trkpt lat="42.33140961126962" lon="-7.87817006575989"><ele>181.0</ele><time>2026-03-24T17:44:32Z</time></trkpt><trkpt lat="42.33120173578542" lon="-7.878130126716305"><ele>181.0</ele><time>2026-03-24T17:44:33Z</time></trkpt><trkpt lat="42.33097752251989" lon="-7.878095238653276"><ele>182.0</ele><time>2026-03-24T17:44:34Z</time></trkpt><trkpt lat="42.3307653187735" lon="-7.878075985047545"><ele>183.0</ele><time>2026-03-24T17:44:35Z</time></trkpt><trkpt lat="42.33056406590396" lon="-7.878080723052059"><ele>184.0</ele><time>2026-03-24T17:44:36Z</time></trkpt><trkpt lat="42.33037630569988" lon="-7.87810437812502"><ele>184.0</ele><time>2026-03-24T17:44:37Z</time></trkpt><trkpt lat="42.33019908849973" lon="-7.878144297028815"><ele>184.0</ele><time>2026-03-24T17:44:38Z</time></trkpt><trkpt lat="42.33001861037872" lon="-7.878187655176109"><ele>184.0</ele><time>2026-03-24T17:44:39Z</time></trkpt><trkpt lat="42.329850330641285" lon="-7.87824393325758"><ele>184.33333333333334</ele><time>2026-03-24T17:44:40Z</time></trkpt><trkpt lat="42.329676367310356" lon="-7.878314208441503"><ele>184.66666666666666</ele><time>2026-03-24T17:44:41Z</time></trkpt><trkpt lat="42.32949998584087" lon="-7.878396095435909"><ele>185.0</ele><time>2026-03-24T17:44:42Z</time></trkpt><trkpt lat="42.32932115107415" lon="-7.878499842818855"><ele>185.0</ele><time>2026-03-24T17:44:43Z</time></trkpt><trkpt lat="42.329137015366946" lon="-7.8786217336297755"><ele>185.0</ele><time>2026-03-24T17:44:44Z</time></trkpt><trkpt lat="42.32895587632984" lon="-7.878740244739174"><ele>185.0</ele><time>2026-03-24T17:44:45Z</time></trkpt><trkpt lat="42.32877309752866" lon="-7.878876318860869"><ele>179.33333333333331</ele><time>2026-03-24T17:44:46Z</time></trkpt><trkpt lat="42.32860127008297" lon="-7.879009425828474"><ele>173.66666666666666</ele><time>2026-03-24T17:44:47Z</time></trkpt><trkpt lat="42.3284359308768" lon="-7.87913129964717"><ele>168.0</ele><time>2026-03-24T17:44:48Z</time></trkpt><trkpt lat="42.32827449607792" lon="-7.879241767285308"><ele>166.66666666666666</ele><time>2026-03-24T17:44:49Z</time></trkpt><trkpt lat="42.328117887516775" lon="-7.879360880112278"><ele>165.33333333333331</ele><time>2026-03-24T17:44:50Z</time></trkpt><trkpt lat="42.32795834888772" lon="-7.8794495252114745"><ele>164.0</ele><time>2026-03-24T17:44:51Z</time></trkpt><trkpt lat="42.32780378841886" lon="-7.879534629778255"><ele>164.0</ele><time>2026-03-24T17:44:52Z</time></trkpt><trkpt lat="42.327650091885914" lon="-7.879603020587915"><ele>164.0</ele><time>2026-03-24T17:44:53Z</time></trkpt><trkpt lat="42.32750001162744" lon="-7.879653062667036"><ele>164.0</ele><time>2026-03-24T17:44:54Z</time></trkpt><trkpt lat="42.32734698417014" lon="-7.879689481596146"><ele>161.5</ele><time>2026-03-24T17:44:55Z</time></trkpt><trkpt lat="42.327198543780455" lon="-7.879736678572854"><ele>159.0</ele><time>2026-03-24T17:44:56Z</time></trkpt><trkpt lat="42.327058394124315" lon="-7.8797589516568385"><ele>156.5</ele><time>2026-03-24T17:44:57Z</time></trkpt><trkpt lat="42.32692030849536" lon="-7.879771306478674"><ele>154.0</ele><time>2026-03-24T17:44:58Z</time></trkpt><trkpt lat="42.32678277939037" lon="-7.87977036968071"><ele>154.0</ele><time>2026-03-24T17:44:59Z</time></trkpt><trkpt lat="42.326649502347216" lon="-7.87975847351071"><ele>154.0</ele><time>2026-03-24T17:45:00Z</time></trkpt><trkpt lat="42.326529817452844" lon="-7.879742704731097"><ele>154.0</ele><time>2026-03-24T17:45:01Z</time></trkpt><trkpt lat="42.3264387502343" lon="-7.879731819084376"><ele>154.0</ele><time>2026-03-24T17:45:02Z</time></trkpt><trkpt lat="42.326348290154336" lon="-7.879785843515121"><ele>154.0</ele><time>2026-03-24T17:45:03Z</time></trkpt><trkpt lat="42.32624714917697" lon="-7.879906174983481"><ele>154.25</ele><time>2026-03-24T17:45:04Z</time></trkpt><trkpt lat="42.32617281078735" lon="-7.880035968529178"><ele>154.5</ele><time>2026-03-24T17:45:05Z</time></trkpt><trkpt lat="42.3261203590354" lon="-7.880188296517926"><ele>154.75</ele><time>2026-03-24T17:45:06Z</time></trkpt><trkpt lat="42.3260635681596" lon="-7.880354530479801"><ele>155.0</ele><time>2026-03-24T17:45:07Z</time></trkpt><trkpt lat="42.325986468633275" lon="-7.880522566144295"><ele>155.0</ele><time>2026-03-24T17:45:08Z</time></trkpt><trkpt lat="42.325901972651714" lon="-7.880710828628909"><ele>155.0</ele><time>2026-03-24T17:45:09Z</time></trkpt><trkpt lat="42.32581337296341" lon="-7.880900229579425"><ele>155.0</ele><time>2026-03-24T17:45:10Z</time></trkpt><trkpt lat="42.32571665571608" lon="-7.881096645549947"><ele>154.0</ele><time>2026-03-24T17:45:11Z</time></trkpt><trkpt lat="42.3256160066744" lon="-7.881292825567785"><ele>153.0</ele><time>2026-03-24T17:45:12Z</time></trkpt><trkpt lat="42.32551718580169" lon="-7.88150108185655"><ele>152.0</ele><time>2026-03-24T17:45:13Z</time></trkpt><trkpt lat="42.32542829625169" lon="-7.881714528723274"><ele>154.2</ele><time>2026-03-24T17:45:14Z</time></trkpt><trkpt lat="42.32533569057577" lon="-7.881898479090262"><ele>156.39999999999998</ele><time>2026-03-24T17:45:15Z</time></trkpt><trkpt lat="42.32528972927175" lon="-7.882059942277661"><ele>158.60000000000002</ele><time>2026-03-24T17:45:16Z</time></trkpt><trkpt lat="42.325258784948424" lon="-7.882160766767635"><ele>160.8</ele><time>2026-03-24T17:45:17Z</time></trkpt><trkpt lat="42.32523471955406" lon="-7.882240218955031"><ele>163.0</ele><time>2026-03-24T17:45:18Z</time></trkpt><trkpt lat="42.32511183749213" lon="-7.88225508378002"><ele>163.0</ele><time>2026-03-24T17:45:20Z</time></trkpt><trkpt lat="42.32500899758985" lon="-7.8822565637659014"><ele>163.0</ele><time>2026-03-24T17:45:22Z</time></trkpt><trkpt lat="42.324930143009645" lon="-7.8822598336576375"><ele>163.0</ele><time>2026-03-24T17:45:24Z</time></trkpt><trkpt lat="42.32485824576771" lon="-7.8823390833063876"><ele>163.0</ele><time>2026-03-24T17:45:29Z</time></trkpt><trkpt lat="42.324764505255544" lon="-7.882376704094963"><ele>163.0</ele><time>2026-03-24T17:45:31Z</time></trkpt><trkpt lat="42.324694598198235" lon="-7.882433361821394"><ele>162.0</ele><time>2026-03-24T17:45:33Z</time></trkpt><trkpt lat="42.32463558538327" lon="-7.882472553021752"><ele>161.0</ele><time>2026-03-24T17:45:35Z</time></trkpt><trkpt lat="42.32455255164251" lon="-7.88177806291163"><ele>161.0</ele><time>2026-03-24T17:46:07.915Z</time></trkpt><trkpt lat="42.324657778696015" lon="-7.882518583749284"><ele>161.0</ele><time>2026-03-24T17:46:12Z</time></trkpt><trkpt lat="42.324593382786254" lon="-7.8826105406431735"><ele>161.0</ele><time>2026-03-24T17:47:11.502Z</time></trkpt><trkpt lat="42.32455934516678" lon="-7.882692912025819"><ele>161.0</ele><time>2026-03-24T17:47:18.458Z</time></trkpt><trkpt lat="42.324609691285964" lon="-7.882626075572719"><ele>161.0</ele><time>2026-03-24T17:47:24.597Z</time></trkpt><trkpt lat="42.32457081504899" lon="-7.882418918275129"><ele>161.0</ele><time>2026-03-24T17:47:30.61Z</time></trkpt><trkpt lat="42.32454634713616" lon="-7.882633517034842"><ele>161.0</ele><time>2026-03-24T17:49:05.489Z</time></trkpt><trkpt lat="42.32457203366206" lon="-7.882407013978344"><ele>161.0</ele><time>2026-03-24T18:13:15.035Z</time></trkpt><trkpt lat="42.32454244586602" lon="-7.882593254673424"><ele>161.0</ele><time>2026-03-24T18:13:29.434Z</time></trkpt><trkpt lat="42.32456812364418" lon="-7.882678369779953"><ele>161.0</ele><time>2026-03-24T18:13:35.928Z</time></trkpt><trkpt lat="42.32462059647197" lon="-7.882581650102272"><ele>161.0</ele><time>2026-03-24T18:14:30.033Z</time></trkpt><trkpt lat="42.32459483576985" lon="-7.882479327573913"><ele>161.0</ele><time>2026-03-24T18:14:40.007Z</time></trkpt><trkpt lat="42.3246749709256" lon="-7.882475738157052"><ele>161.0</ele><time>2026-03-24T18:18:29.999Z</time></trkpt><trkpt lat="42.3246005196516" lon="-7.882448239591886"><ele>161.0</ele><time>2026-03-24T18:22:38.999Z</time></trkpt><trkpt lat="42.32452341943256" lon="-7.8825613927837415"><ele>161.0</ele><time>2026-03-24T18:22:39.999Z</time></trkpt><trkpt lat="42.32461808342331" lon="-7.882755332950318"><ele>166.0</ele><time>2026-03-24T18:22:49.999Z</time></trkpt><trkpt lat="42.32480652541541" lon="-7.882902278096368"><ele>171.0</ele><time>2026-03-24T18:22:59Z</time></trkpt><trkpt lat="42.32460073186177" lon="-7.882684706235711"><ele>171.0</ele><time>2026-03-24T18:23:35.555Z</time></trkpt><trkpt lat="42.32454414958506" lon="-7.882637571396692"><ele>171.0</ele><time>2026-03-24T18:23:37.028Z</time></trkpt><trkpt lat="42.32456778169912" lon="-7.882528207088359"><ele>171.0</ele><time>2026-03-24T18:38:13.998Z</time></trkpt><trkpt lat="42.3245984883726" lon="-7.882393111791904"><ele>171.0</ele><time>2026-03-24T18:38:17.998Z</time></trkpt><trkpt lat="42.32460916496326" lon="-7.882306375293319"><ele>171.0</ele><time>2026-03-24T18:38:19.998Z</time></trkpt><trkpt lat="42.32466270985996" lon="-7.882352676842443"><ele>171.0</ele><time>2026-03-24T18:38:43.999Z</time></trkpt><trkpt lat="42.32463578760585" lon="-7.88243514060283"><ele>171.0</ele><time>2026-03-24T18:38:50.999Z</time></trkpt><trkpt lat="42.324570455101195" lon="-7.88263708080726"><ele>171.0</ele><time>2026-03-24T18:39:12.55Z</time></trkpt><trkpt lat="42.32459740501665" lon="-7.882533584731917"><ele>171.0</ele><time>2026-03-24T19:04:22.999Z</time></trkpt><trkpt lat="42.32460812465785" lon="-7.882391838384956"><ele>171.0</ele><time>2026-03-24T19:12:05Z</time></trkpt><trkpt lat="42.32455314798924" lon="-7.882460546502815"><ele>171.0</ele><time>2026-03-24T19:12:13Z</time></trkpt><trkpt lat="42.32456641535805" lon="-7.882340984577146"><ele>169.0</ele><time>2026-03-24T19:12:21Z</time></trkpt><trkpt lat="42.324611893164764" lon="-7.882497477929148"><ele>167.0</ele><time>2026-03-24T19:13:03Z</time></trkpt><trkpt lat="42.324630663862145" lon="-7.882406909113476"><ele>165.0</ele><time>2026-03-24T19:13:04Z</time></trkpt><trkpt lat="42.32461035236547" lon="-7.882497154409318"><ele>163.0</ele><time>2026-03-24T19:13:17.001Z</time></trkpt><trkpt lat="42.32456748804223" lon="-7.882414225996484"><ele>161.0</ele><time>2026-03-24T19:22:47.409Z</time></trkpt><trkpt lat="42.32453650950193" lon="-7.882573236723906"><ele>161.0</ele><time>2026-03-24T19:23:42.335Z</time></trkpt><trkpt lat="42.324548280828466" lon="-7.882485198957393"><ele>161.0</ele><time>2026-03-24T19:24:01.025Z</time></trkpt><trkpt lat="42.32460268302043" lon="-7.8824392440895235"><ele>161.0</ele><time>2026-03-24T19:24:02.996Z</time></trkpt><trkpt lat="42.32474641601083" lon="-7.882271228096808"><ele>161.0</ele><time>2026-03-24T19:27:32.999Z</time></trkpt><trkpt lat="42.324815170799546" lon="-7.882194117953285"><ele>161.0</ele><time>2026-03-24T19:27:33.999Z</time></trkpt><trkpt lat="42.32492607138673" lon="-7.882175269015208"><ele>161.4</ele><time>2026-03-24T19:27:34.999Z</time></trkpt><trkpt lat="42.32505912259346" lon="-7.8821886243225485"><ele>161.8</ele><time>2026-03-24T19:27:35.999Z</time></trkpt><trkpt lat="42.325166119546736" lon="-7.882140020269243"><ele>162.20000000000002</ele><time>2026-03-24T19:27:36.999Z</time></trkpt><trkpt lat="42.32523854106235" lon="-7.882107122321889"><ele>162.60000000000002</ele><time>2026-03-24T19:27:38.999Z</time></trkpt><trkpt lat="42.325278144988395" lon="-7.882185352466283"><ele>163.0</ele><time>2026-03-24T19:27:39.999Z</time></trkpt><trkpt lat="42.325309074345164" lon="-7.881900864506393"><ele>159.33333333333334</ele><time>2026-03-24T19:27:40.999Z</time></trkpt><trkpt lat="42.325406019786286" lon="-7.881675908578269"><ele>155.66666666666666</ele><time>2026-03-24T19:27:41.999Z</time></trkpt><trkpt lat="42.32547621439349" lon="-7.881505177878219"><ele>152.0</ele><time>2026-03-24T19:27:42.999Z</time></trkpt><trkpt lat="42.32556054046432" lon="-7.881324410924686"><ele>153.0</ele><time>2026-03-24T19:27:43.999Z</time></trkpt><trkpt lat="42.325650262339224" lon="-7.881132942388054"><ele>154.0</ele><time>2026-03-24T19:27:44.999Z</time></trkpt><trkpt lat="42.325733489129675" lon="-7.880938432639723"><ele>155.0</ele><time>2026-03-24T19:27:45.999Z</time></trkpt><trkpt lat="42.325833487019985" lon="-7.880746135455341"><ele>155.0</ele><time>2026-03-24T19:27:46.999Z</time></trkpt><trkpt lat="42.32592958220697" lon="-7.880562348891523"><ele>155.0</ele><time>2026-03-24T19:27:47.999Z</time></trkpt><trkpt lat="42.32600833541728" lon="-7.880378992930643"><ele>155.0</ele><time>2026-03-24T19:27:48.999Z</time></trkpt><trkpt lat="42.32606852410508" lon="-7.880236737058448"><ele>155.0</ele><time>2026-03-24T19:27:49.999Z</time></trkpt><trkpt lat="42.32611826955301" lon="-7.8801269697996865"><ele>154.16666666666666</ele><time>2026-03-24T19:27:50.999Z</time></trkpt><trkpt lat="42.326165116188314" lon="-7.880034049846936"><ele>153.33333333333331</ele><time>2026-03-24T19:27:51.999Z</time></trkpt><trkpt lat="42.326185828260996" lon="-7.879885899081198"><ele>152.5</ele><time>2026-03-24T19:27:53.999Z</time></trkpt><trkpt lat="42.3261058205612" lon="-7.8797891204296295"><ele>151.66666666666666</ele><time>2026-03-24T19:27:55.999Z</time></trkpt><trkpt lat="42.326043466232" lon="-7.879764170108124"><ele>150.83333333333334</ele><time>2026-03-24T19:27:56.999Z</time></trkpt><trkpt lat="42.325972964157394" lon="-7.8797513796804814"><ele>150.0</ele><time>2026-03-24T19:27:57.999Z</time></trkpt><trkpt lat="42.32589336079895" lon="-7.87977050722985"><ele>150.0</ele><time>2026-03-24T19:27:58.999Z</time></trkpt><trkpt lat="42.325802319024355" lon="-7.879807634715808"><ele>150.0</ele><time>2026-03-24T19:27:59.999Z</time></trkpt><trkpt lat="42.32571874553009" lon="-7.879856638785989"><ele>150.0</ele><time>2026-03-24T19:28:00.999Z</time></trkpt><trkpt lat="42.32564616683954" lon="-7.879895581525976"><ele>150.0</ele><time>2026-03-24T19:28:01.999Z</time></trkpt><trkpt lat="42.32558254815273" lon="-7.879922134596359"><ele>150.0</ele><time>2026-03-24T19:28:02.999Z</time></trkpt><trkpt lat="42.32551837866625" lon="-7.879947573394411"><ele>150.0</ele><time>2026-03-24T19:28:03.999Z</time></trkpt><trkpt lat="42.325451939551904" lon="-7.87996662660353"><ele>148.83333333333334</ele><time>2026-03-24T19:28:04.999Z</time></trkpt><trkpt lat="42.325389879370306" lon="-7.8799834774270865"><ele>147.66666666666666</ele><time>2026-03-24T19:28:05.999Z</time></trkpt><trkpt lat="42.32527360173891" lon="-7.880000142789108"><ele>146.5</ele><time>2026-03-24T19:28:07.999Z</time></trkpt><trkpt lat="42.325204598997345" lon="-7.880007359314208"><ele>145.33333333333331</ele><time>2026-03-24T19:28:08.999Z</time></trkpt><trkpt lat="42.32509996700932" lon="-7.880012675379524"><ele>144.16666666666666</ele><time>2026-03-24T19:28:10.999Z</time></trkpt><trkpt lat="42.325010257653666" lon="-7.880018866159104"><ele>143.0</ele><time>2026-03-24T19:28:12.999Z</time></trkpt><trkpt lat="42.32494432343815" lon="-7.88002770513472"><ele>143.0</ele><time>2026-03-24T19:28:16.999Z</time></trkpt><trkpt lat="42.32485746989575" lon="-7.880065555894443"><ele>143.0</ele><time>2026-03-24T19:28:20.999Z</time></trkpt><trkpt lat="42.32478840295985" lon="-7.880083307701044"><ele>143.0</ele><time>2026-03-24T19:28:21.999Z</time></trkpt><trkpt lat="42.324698533642724" lon="-7.880120523764152"><ele>143.0</ele><time>2026-03-24T19:28:23.999Z</time></trkpt><trkpt lat="42.32464068275386" lon="-7.879977854438994"><ele>143.0</ele><time>2026-03-24T19:28:24.999Z</time></trkpt><trkpt lat="42.324614049604435" lon="-7.879894377898432"><ele>143.0</ele><time>2026-03-24T19:28:25.999Z</time></trkpt><trkpt lat="42.32466403393561" lon="-7.87978631861299"><ele>143.0</ele><time>2026-03-24T19:28:26.999Z</time></trkpt><trkpt lat="42.324731198536114" lon="-7.879717725573202"><ele>143.0</ele><time>2026-03-24T19:28:27.999Z</time></trkpt><trkpt lat="42.32482685803924" lon="-7.879670488068926"><ele>143.0</ele><time>2026-03-24T19:28:28.999Z</time></trkpt><trkpt lat="42.32493523857027" lon="-7.879633991006046"><ele>143.0</ele><time>2026-03-24T19:28:29.999Z</time></trkpt><trkpt lat="42.32504549029634" lon="-7.879581865470987"><ele>143.0</ele><time>2026-03-24T19:28:30.999Z</time></trkpt><trkpt lat="42.32516701407847" lon="-7.879482547163961"><ele>143.0</ele><time>2026-03-24T19:28:31.999Z</time></trkpt><trkpt lat="42.325267134401045" lon="-7.879359378667709"><ele>143.0</ele><time>2026-03-24T19:28:32.999Z</time></trkpt><trkpt lat="42.32533633105962" lon="-7.879172535316863"><ele>143.0</ele><time>2026-03-24T19:28:33.999Z</time></trkpt><trkpt lat="42.325445624831076" lon="-7.879018060271182"><ele>143.0</ele><time>2026-03-24T19:28:34.999Z</time></trkpt><trkpt lat="42.3255222049668" lon="-7.878856231545324"><ele>142.8</ele><time>2026-03-24T19:28:35.999Z</time></trkpt><trkpt lat="42.32559271712765" lon="-7.8787091207627045"><ele>142.60000000000002</ele><time>2026-03-24T19:28:36.999Z</time></trkpt><trkpt lat="42.32564923802707" lon="-7.878581374115142"><ele>142.39999999999998</ele><time>2026-03-24T19:28:37.999Z</time></trkpt><trkpt lat="42.325700823913415" lon="-7.878466051753914"><ele>142.2</ele><time>2026-03-24T19:28:38.999Z</time></trkpt><trkpt lat="42.32574896034036" lon="-7.878357400433305"><ele>142.0</ele><time>2026-03-24T19:28:39.999Z</time></trkpt><trkpt lat="42.325791711722" lon="-7.87825318879059"><ele>142.0</ele><time>2026-03-24T19:28:40.999Z</time></trkpt><trkpt lat="42.325834259144244" lon="-7.878163409118831"><ele>142.0</ele><time>2026-03-24T19:28:41.999Z</time></trkpt><trkpt lat="42.32585837377032" lon="-7.878076318312146"><ele>142.0</ele><time>2026-03-24T19:28:42.999Z</time></trkpt><trkpt lat="42.32589260122664" lon="-7.878002527064479"><ele>142.0</ele><time>2026-03-24T19:28:43.999Z</time></trkpt><trkpt lat="42.325944246682596" lon="-7.87786157688555"><ele>142.0</ele><time>2026-03-24T19:28:45.999Z</time></trkpt><trkpt lat="42.32593732501113" lon="-7.877769893662642"><ele>142.0</ele><time>2026-03-24T19:28:46.999Z</time></trkpt><trkpt lat="42.32590929216657" lon="-7.877659766201968"><ele>141.66666666666669</ele><time>2026-03-24T19:28:47.999Z</time></trkpt><trkpt lat="42.32586639197493" lon="-7.877583249091796"><ele>141.33333333333334</ele><time>2026-03-24T19:28:48.999Z</time></trkpt><trkpt lat="42.32577222080277" lon="-7.877545001584576"><ele>141.0</ele><time>2026-03-24T19:28:50.999Z</time></trkpt><trkpt lat="42.32567335133276" lon="-7.877547335628713"><ele>140.66666666666666</ele><time>2026-03-24T19:28:52.999Z</time></trkpt><trkpt lat="42.32559765322708" lon="-7.877600076673561"><ele>140.33333333333331</ele><time>2026-03-24T19:28:53.999Z</time></trkpt><trkpt lat="42.325530864199116" lon="-7.877687441746505"><ele>140.0</ele><time>2026-03-24T19:28:54.999Z</time></trkpt><trkpt lat="42.325460602304325" lon="-7.877800515066649"><ele>139.8</ele><time>2026-03-24T19:28:55.999Z</time></trkpt><trkpt lat="42.325386501794306" lon="-7.8779098710096696"><ele>139.6</ele><time>2026-03-24T19:28:56.999Z</time></trkpt><trkpt lat="42.325320365583494" lon="-7.877995867121647"><ele>139.4</ele><time>2026-03-24T19:28:57.999Z</time></trkpt><trkpt lat="42.325262502565614" lon="-7.87807473607166"><ele>139.2</ele><time>2026-03-24T19:28:58.999Z</time></trkpt><trkpt lat="42.325207903654096" lon="-7.878171089024634"><ele>139.0</ele><time>2026-03-24T19:28:59.999Z</time></trkpt><trkpt lat="42.32516633821454" lon="-7.878281054127533"><ele>139.0</ele><time>2026-03-24T19:29:00.999Z</time></trkpt><trkpt lat="42.32517638771182" lon="-7.878412842599558"><ele>139.0</ele><time>2026-03-24T19:29:01.999Z</time></trkpt><trkpt lat="42.325208207284525" lon="-7.878545924025886"><ele>139.0</ele><time>2026-03-24T19:29:02.999Z</time></trkpt><trkpt lat="42.32524731694699" lon="-7.878684214185364"><ele>139.0</ele><time>2026-03-24T19:29:03.999Z</time></trkpt><trkpt lat="42.32535555810882" lon="-7.87875955717743"><ele>139.0</ele><time>2026-03-24T19:29:04.999Z</time></trkpt><trkpt lat="42.3254350639026" lon="-7.878851333451479"><ele>139.0</ele><time>2026-03-24T19:29:05.999Z</time></trkpt><trkpt lat="42.32552340488064" lon="-7.878951924874207"><ele>139.0</ele><time>2026-03-24T19:29:06.999Z</time></trkpt><trkpt lat="42.32562602901053" lon="-7.879058327468775"><ele>139.0</ele><time>2026-03-24T19:29:07.999Z</time></trkpt><trkpt lat="42.32572348296828" lon="-7.879160678775149"><ele>139.0</ele><time>2026-03-24T19:29:08.999Z</time></trkpt><trkpt lat="42.32582328754545" lon="-7.879257634488066"><ele>141.2</ele><time>2026-03-24T19:29:09.999Z</time></trkpt><trkpt lat="42.325920747626824" lon="-7.879342235876118"><ele>143.4</ele><time>2026-03-24T19:29:10.999Z</time></trkpt><trkpt lat="42.32601812615381" lon="-7.879415307683339"><ele>145.6</ele><time>2026-03-24T19:29:11.999Z</time></trkpt><trkpt lat="42.3261145738879" lon="-7.879483138583269"><ele>147.8</ele><time>2026-03-24T19:29:12.999Z</time></trkpt><trkpt lat="42.32620708854634" lon="-7.8795431433053915"><ele>150.0</ele><time>2026-03-24T19:29:13.999Z</time></trkpt><trkpt lat="42.32629253902504" lon="-7.879589277488225"><ele>150.0</ele><time>2026-03-24T19:29:14.999Z</time></trkpt><trkpt lat="42.326386476499096" lon="-7.879624720044378"><ele>150.0</ele><time>2026-03-24T19:29:15.999Z</time></trkpt><trkpt lat="42.32647295737506" lon="-7.87964951858885"><ele>150.0</ele><time>2026-03-24T19:29:16.999Z</time></trkpt><trkpt lat="42.32655649034542" lon="-7.879648082770111"><ele>150.0</ele><time>2026-03-24T19:29:17.999Z</time></trkpt><trkpt lat="42.32663787977973" lon="-7.879663410697709"><ele>150.0</ele><time>2026-03-24T19:29:18.999Z</time></trkpt><trkpt lat="42.32671009247691" lon="-7.87967310508407"><ele>150.0</ele><time>2026-03-24T19:29:19.999Z</time></trkpt><trkpt lat="42.32679245026037" lon="-7.87968153091197"><ele>150.8</ele><time>2026-03-24T19:29:20.999Z</time></trkpt><trkpt lat="42.32688390817044" lon="-7.879689673257202"><ele>151.6</ele><time>2026-03-24T19:29:21.999Z</time></trkpt><trkpt lat="42.3269720841235" lon="-7.8796907647361225"><ele>152.4</ele><time>2026-03-24T19:29:22.999Z</time></trkpt><trkpt lat="42.32706814514248" lon="-7.8797093688715405"><ele>153.2</ele><time>2026-03-24T19:29:23.999Z</time></trkpt><trkpt lat="42.32716986668336" lon="-7.8796935570604"><ele>154.0</ele><time>2026-03-24T19:29:24.999Z</time></trkpt><trkpt lat="42.32727181783989" lon="-7.879659041705306"><ele>156.0</ele><time>2026-03-24T19:29:25.999Z</time></trkpt><trkpt lat="42.327383899279425" lon="-7.879634782009785"><ele>158.0</ele><time>2026-03-24T19:29:26.999Z</time></trkpt><trkpt lat="42.32748436034232" lon="-7.879607778649636"><ele>160.0</ele><time>2026-03-24T19:29:27.999Z</time></trkpt><trkpt lat="42.32757611522249" lon="-7.879578077535023"><ele>162.0</ele><time>2026-03-24T19:29:28.999Z</time></trkpt><trkpt lat="42.327678123360286" lon="-7.879539819541224"><ele>164.0</ele><time>2026-03-24T19:29:29.999Z</time></trkpt><trkpt lat="42.32778269781836" lon="-7.8794909892616465"><ele>164.0</ele><time>2026-03-24T19:29:30.999Z</time></trkpt><trkpt lat="42.32787796191643" lon="-7.879442489694411"><ele>164.0</ele><time>2026-03-24T19:29:31.999Z</time></trkpt><trkpt lat="42.327973857663885" lon="-7.879411156673544"><ele>164.0</ele><time>2026-03-24T19:29:32.999Z</time></trkpt><trkpt lat="42.32805937106837" lon="-7.879354818588581"><ele>164.0</ele><time>2026-03-24T19:29:33.999Z</time></trkpt><trkpt lat="42.328148709195474" lon="-7.879297508143761"><ele>164.0</ele><time>2026-03-24T19:29:34.999Z</time></trkpt><trkpt lat="42.32823509454013" lon="-7.879237376301061"><ele>164.79999999999998</ele><time>2026-03-24T19:29:35.999Z</time></trkpt><trkpt lat="42.328331861148946" lon="-7.879164987530485"><ele>165.6</ele><time>2026-03-24T19:29:36.999Z</time></trkpt><trkpt lat="42.328422811273406" lon="-7.87909497859952"><ele>166.4</ele><time>2026-03-24T19:29:37.999Z</time></trkpt><trkpt lat="42.32850215194832" lon="-7.879029354527105"><ele>167.2</ele><time>2026-03-24T19:29:38.999Z</time></trkpt><trkpt lat="42.3285616214983" lon="-7.878957233974303"><ele>168.0</ele><time>2026-03-24T19:29:39.999Z</time></trkpt><trkpt lat="42.32864991405518" lon="-7.878883931828431"><ele>168.0</ele><time>2026-03-24T19:29:40.999Z</time></trkpt><trkpt lat="42.32875750601695" lon="-7.878798845274172"><ele>168.0</ele><time>2026-03-24T19:29:41.999Z</time></trkpt><trkpt lat="42.32887395392746" lon="-7.8787314308818885"><ele>168.0</ele><time>2026-03-24T19:29:42.999Z</time></trkpt><trkpt lat="42.32896818194075" lon="-7.8786355647066015"><ele>168.0</ele><time>2026-03-24T19:29:43.999Z</time></trkpt><trkpt lat="42.32909526871075" lon="-7.87854218122177"><ele>169.75</ele><time>2026-03-24T19:29:44.999Z</time></trkpt><trkpt lat="42.32922405326453" lon="-7.878456154033565"><ele>171.5</ele><time>2026-03-24T19:29:45.999Z</time></trkpt><trkpt lat="42.329347780960305" lon="-7.8784036276294085"><ele>173.25</ele><time>2026-03-24T19:29:46.999Z</time></trkpt><trkpt lat="42.32946266041867" lon="-7.878335469145533"><ele>175.0</ele><time>2026-03-24T19:29:47.999Z</time></trkpt><trkpt lat="42.32958452515097" lon="-7.87827954821102"><ele>175.0</ele><time>2026-03-24T19:29:48.999Z</time></trkpt><trkpt lat="42.32970320876216" lon="-7.878233901373566"><ele>175.0</ele><time>2026-03-24T19:29:49.999Z</time></trkpt><trkpt lat="42.329828398886896" lon="-7.878185281367388"><ele>175.0</ele><time>2026-03-24T19:29:50.999Z</time></trkpt><trkpt lat="42.329965901527025" lon="-7.8781335021497245"><ele>175.0</ele><time>2026-03-24T19:29:51.999Z</time></trkpt><trkpt lat="42.33010826548778" lon="-7.878102164690534"><ele>177.25</ele><time>2026-03-24T19:29:52.999Z</time></trkpt><trkpt lat="42.33023805812019" lon="-7.878073332485193"><ele>179.5</ele><time>2026-03-24T19:29:53.999Z</time></trkpt><trkpt lat="42.330355340085276" lon="-7.878056052058746"><ele>181.75</ele><time>2026-03-24T19:29:54.999Z</time></trkpt><trkpt lat="42.330466063549515" lon="-7.878045463398752"><ele>184.0</ele><time>2026-03-24T19:29:55.999Z</time></trkpt><trkpt lat="42.33056855303456" lon="-7.8780311897941795"><ele>184.0</ele><time>2026-03-24T19:29:56.999Z</time></trkpt><trkpt lat="42.33066632647479" lon="-7.878015012877557"><ele>184.0</ele><time>2026-03-24T19:29:57.999Z</time></trkpt><trkpt lat="42.33076790874751" lon="-7.878011857577944"><ele>184.0</ele><time>2026-03-24T19:29:58.999Z</time></trkpt><trkpt lat="42.33088232079519" lon="-7.878016727758446"><ele>184.0</ele><time>2026-03-24T19:29:59.999Z</time></trkpt><trkpt lat="42.33101487228201" lon="-7.878025317128237"><ele>184.0</ele><time>2026-03-24T19:30:00.999Z</time></trkpt><trkpt lat="42.33115415374301" lon="-7.8780503244423405"><ele>184.0</ele><time>2026-03-24T19:30:01.999Z</time></trkpt><trkpt lat="42.331304927618675" lon="-7.878080710133616"><ele>184.0</ele><time>2026-03-24T19:30:02.999Z</time></trkpt><trkpt lat="42.331461349131494" lon="-7.8781175891278155"><ele>184.0</ele><time>2026-03-24T19:30:03.999Z</time></trkpt><trkpt lat="42.331636749453125" lon="-7.878156002624754"><ele>183.0</ele><time>2026-03-24T19:30:04.999Z</time></trkpt><trkpt lat="42.3318009396688" lon="-7.878226663914825"><ele>182.0</ele><time>2026-03-24T19:30:05.999Z</time></trkpt><trkpt lat="42.33195932238178" lon="-7.878307880417422"><ele>181.0</ele><time>2026-03-24T19:30:06.999Z</time></trkpt><trkpt lat="42.33210496906188" lon="-7.878381209878684"><ele>177.33333333333334</ele><time>2026-03-24T19:30:07.999Z</time></trkpt><trkpt lat="42.33226001405853" lon="-7.878485125041774"><ele>173.66666666666666</ele><time>2026-03-24T19:30:08.999Z</time></trkpt><trkpt lat="42.332406185064094" lon="-7.878553922296641"><ele>170.0</ele><time>2026-03-24T19:30:09.999Z</time></trkpt><trkpt lat="42.3325494584051" lon="-7.878633040609645"><ele>170.0</ele><time>2026-03-24T19:30:10.999Z</time></trkpt><trkpt lat="42.33267921821775" lon="-7.878714659060235"><ele>170.0</ele><time>2026-03-24T19:30:11.999Z</time></trkpt><trkpt lat="42.33280328261769" lon="-7.878817921557913"><ele>170.0</ele><time>2026-03-24T19:30:12.999Z</time></trkpt><trkpt lat="42.332919907620614" lon="-7.878920777480086"><ele>170.0</ele><time>2026-03-24T19:30:13.999Z</time></trkpt><trkpt lat="42.33303255763767" lon="-7.8790262227897845"><ele>167.25</ele><time>2026-03-24T19:30:14.999Z</time></trkpt><trkpt lat="42.3331514123387" lon="-7.879129843328257"><ele>164.5</ele><time>2026-03-24T19:30:15.999Z</time></trkpt><trkpt lat="42.33327686238444" lon="-7.879242266210057"><ele>161.75</ele><time>2026-03-24T19:30:16.999Z</time></trkpt><trkpt lat="42.33340626170367" lon="-7.879350432770364"><ele>159.0</ele><time>2026-03-24T19:30:17.999Z</time></trkpt><trkpt lat="42.333536139404885" lon="-7.8794606212774845"><ele>156.66666666666666</ele><time>2026-03-24T19:30:18.999Z</time></trkpt><trkpt lat="42.33366563396529" lon="-7.879572448491284"><ele>154.33333333333331</ele><time>2026-03-24T19:30:19.999Z</time></trkpt><trkpt lat="42.33379497026876" lon="-7.879679146421448"><ele>152.0</ele><time>2026-03-24T19:30:20.999Z</time></trkpt><trkpt lat="42.33393872805265" lon="-7.879757823549798"><ele>152.0</ele><time>2026-03-24T19:30:21.999Z</time></trkpt><trkpt lat="42.33407953640778" lon="-7.879836527396837"><ele>152.0</ele><time>2026-03-24T19:30:22.999Z</time></trkpt><trkpt lat="42.334216342450134" lon="-7.8799115956605155"><ele>152.0</ele><time>2026-03-24T19:30:23.999Z</time></trkpt><trkpt lat="42.3343628303424" lon="-7.879972229849976"><ele>152.0</ele><time>2026-03-24T19:30:24.999Z</time></trkpt><trkpt lat="42.33451144419372" lon="-7.880023813500609"><ele>152.0</ele><time>2026-03-24T19:30:25.999Z</time></trkpt><trkpt lat="42.334660702722616" lon="-7.88006943010963"><ele>152.0</ele><time>2026-03-24T19:30:26.999Z</time></trkpt><trkpt lat="42.33481219270703" lon="-7.880106391625295"><ele>148.33333333333331</ele><time>2026-03-24T19:30:27.999Z</time></trkpt><trkpt lat="42.33497088867253" lon="-7.880124804505022"><ele>144.66666666666666</ele><time>2026-03-24T19:30:28.999Z</time></trkpt><trkpt lat="42.33513411231185" lon="-7.880129785919838"><ele>141.0</ele><time>2026-03-24T19:30:29.999Z</time></trkpt><trkpt lat="42.33530998778545" lon="-7.880114287611814"><ele>141.0</ele><time>2026-03-24T19:30:30.999Z</time></trkpt><trkpt lat="42.33549820845108" lon="-7.8800822272253574"><ele>141.0</ele><time>2026-03-24T19:30:31.999Z</time></trkpt><trkpt lat="42.33568619572108" lon="-7.880035603856406"><ele>141.0</ele><time>2026-03-24T19:30:32.999Z</time></trkpt><trkpt lat="42.33587808102543" lon="-7.879964298471731"><ele>141.0</ele><time>2026-03-24T19:30:33.999Z</time></trkpt><trkpt lat="42.33607320737058" lon="-7.879874959064666"><ele>141.0</ele><time>2026-03-24T19:30:34.999Z</time></trkpt><trkpt lat="42.336266272544286" lon="-7.879760309929923"><ele>141.0</ele><time>2026-03-24T19:30:35.999Z</time></trkpt><trkpt lat="42.33644085785505" lon="-7.879642887824462"><ele>136.0</ele><time>2026-03-24T19:30:36.999Z</time></trkpt><trkpt lat="42.33660187427517" lon="-7.879520458396706"><ele>131.0</ele><time>2026-03-24T19:30:37.999Z</time></trkpt><trkpt lat="42.33676103190985" lon="-7.879395145184824"><ele>126.0</ele><time>2026-03-24T19:30:38.999Z</time></trkpt><trkpt lat="42.33691031579159" lon="-7.879269075049782"><ele>126.33333333333334</ele><time>2026-03-24T19:30:39.999Z</time></trkpt><trkpt lat="42.33705323516722" lon="-7.879152522630509"><ele>126.66666666666667</ele><time>2026-03-24T19:30:40.999Z</time></trkpt><trkpt lat="42.33719003930947" lon="-7.879039843841183"><ele>127.0</ele><time>2026-03-24T19:30:41.999Z</time></trkpt><trkpt lat="42.33733201490947" lon="-7.8789287318756305"><ele>127.0</ele><time>2026-03-24T19:30:42.999Z</time></trkpt><trkpt lat="42.337470443625044" lon="-7.878828225146898"><ele>127.0</ele><time>2026-03-24T19:30:43.999Z</time></trkpt><trkpt lat="42.33760328537467" lon="-7.878732032327517"><ele>127.0</ele><time>2026-03-24T19:30:44.999Z</time></trkpt><trkpt lat="42.33774145826755" lon="-7.878639956573628"><ele>127.0</ele><time>2026-03-24T19:30:45.999Z</time></trkpt><trkpt lat="42.33788179170215" lon="-7.878548694822763"><ele>127.0</ele><time>2026-03-24T19:30:46.999Z</time></trkpt><trkpt lat="42.33801791362093" lon="-7.8784731872347455"><ele>127.0</ele><time>2026-03-24T19:30:47.999Z</time></trkpt><trkpt lat="42.338156768121195" lon="-7.8783957248282634"><ele>128.0</ele><time>2026-03-24T19:30:48.999Z</time></trkpt><trkpt lat="42.33829655061498" lon="-7.878333208238607"><ele>129.0</ele><time>2026-03-24T19:30:49.999Z</time></trkpt><trkpt lat="42.33843965794218" lon="-7.878273080615841"><ele>130.0</ele><time>2026-03-24T19:30:50.999Z</time></trkpt><trkpt lat="42.33858808184952" lon="-7.878220806974862"><ele>130.0</ele><time>2026-03-24T19:30:51.999Z</time></trkpt><trkpt lat="42.33873249963891" lon="-7.878177788736492"><ele>130.0</ele><time>2026-03-24T19:30:52.999Z</time></trkpt><trkpt lat="42.33886857901717" lon="-7.87815437448709"><ele>130.0</ele><time>2026-03-24T19:30:53.999Z</time></trkpt><trkpt lat="42.339006611781805" lon="-7.8781124660953825"><ele>130.0</ele><time>2026-03-24T19:30:54.999Z</time></trkpt><trkpt lat="42.33914859592775" lon="-7.878089540008529"><ele>128.0</ele><time>2026-03-24T19:30:55.999Z</time></trkpt><trkpt lat="42.33928804479303" lon="-7.8780600811635795"><ele>126.0</ele><time>2026-03-24T19:30:56.999Z</time></trkpt><trkpt lat="42.33942043032192" lon="-7.8780364173338295"><ele>124.0</ele><time>2026-03-24T19:30:57.999Z</time></trkpt><trkpt lat="42.33957112255045" lon="-7.87803810354016"><ele>122.0</ele><time>2026-03-24T19:30:58.999Z</time></trkpt><trkpt lat="42.33969574525124" lon="-7.878009889628385"><ele>121.0</ele><time>2026-03-24T19:30:59.999Z</time></trkpt><trkpt lat="42.33983464092423" lon="-7.877983382297225"><ele>120.0</ele><time>2026-03-24T19:31:00.999Z</time></trkpt><trkpt lat="42.34000655104826" lon="-7.8779739884883595"><ele>119.0</ele><time>2026-03-24T19:31:01.999Z</time></trkpt><trkpt lat="42.340172950317154" lon="-7.877957110408998"><ele>119.0</ele><time>2026-03-24T19:31:02.999Z</time></trkpt><trkpt lat="42.340327557568585" lon="-7.877934198964021"><ele>119.0</ele><time>2026-03-24T19:31:03.999Z</time></trkpt><trkpt lat="42.3404713982178" lon="-7.877905404408005"><ele>119.0</ele><time>2026-03-24T19:31:04.999Z</time></trkpt><trkpt lat="42.34060742457472" lon="-7.877873400564017"><ele>119.0</ele><time>2026-03-24T19:31:05.999Z</time></trkpt><trkpt lat="42.340735597926376" lon="-7.877835080116006"><ele>118.4</ele><time>2026-03-24T19:31:06.999Z</time></trkpt><trkpt lat="42.340864701608325" lon="-7.877825617762678"><ele>117.80000000000001</ele><time>2026-03-24T19:31:07.999Z</time></trkpt><trkpt lat="42.34098881877129" lon="-7.877797981508006"><ele>117.19999999999999</ele><time>2026-03-24T19:31:08.999Z</time></trkpt><trkpt lat="42.34107586544816" lon="-7.877776693558564"><ele>116.6</ele><time>2026-03-24T19:31:09.999Z</time></trkpt><trkpt lat="42.3411679481208" lon="-7.8777503952122965"><ele>116.0</ele><time>2026-03-24T19:31:10.999Z</time></trkpt><trkpt lat="42.34125185878692" lon="-7.877724401592485"><ele>116.0</ele><time>2026-03-24T19:31:11.999Z</time></trkpt><trkpt lat="42.341325830861166" lon="-7.877671579357037"><ele>116.0</ele><time>2026-03-24T19:31:12.999Z</time></trkpt><trkpt lat="42.341391811435564" lon="-7.877653178309297"><ele>116.0</ele><time>2026-03-24T19:31:13.999Z</time></trkpt><trkpt lat="42.341534951328605" lon="-7.877597662766755"><ele>116.0</ele><time>2026-03-24T19:31:15.999Z</time></trkpt><trkpt lat="42.34160732671881" lon="-7.877561512447773"><ele>116.0</ele><time>2026-03-24T19:31:16.999Z</time></trkpt><trkpt lat="42.34168755922893" lon="-7.8775188931881495"><ele>116.4</ele><time>2026-03-24T19:31:17.999Z</time></trkpt><trkpt lat="42.341753952642065" lon="-7.877484057776996"><ele>116.8</ele><time>2026-03-24T19:31:18.999Z</time></trkpt><trkpt lat="42.341854110541036" lon="-7.8774376167505995"><ele>117.20000000000002</ele><time>2026-03-24T19:31:20.999Z</time></trkpt><trkpt lat="42.341961598344845" lon="-7.877370410720941"><ele>117.60000000000001</ele><time>2026-03-24T19:31:22.999Z</time></trkpt><trkpt lat="42.342033068717754" lon="-7.8773317189366265"><ele>118.0</ele><time>2026-03-24T19:31:23.999Z</time></trkpt><trkpt lat="42.3421103562451" lon="-7.877289884904059"><ele>118.00000000000001</ele><time>2026-03-24T19:31:24.999Z</time></trkpt><trkpt lat="42.342169973068465" lon="-7.87724455645495"><ele>118.0</ele><time>2026-03-24T19:31:25.999Z</time></trkpt><trkpt lat="42.34226934661168" lon="-7.877181613612027"><ele>118.0</ele><time>2026-03-24T19:31:27.999Z</time></trkpt><trkpt lat="42.34233912244192" lon="-7.877135728814251"><ele>118.0</ele><time>2026-03-24T19:31:29.999Z</time></trkpt><trkpt lat="42.34239936688109" lon="-7.8770844020699595"><ele>118.00000000000001</ele><time>2026-03-24T19:31:31.999Z</time></trkpt><trkpt lat="42.34246843049507" lon="-7.877022941890254"><ele>118.0</ele><time>2026-03-24T19:31:33.999Z</time></trkpt><trkpt lat="42.34253524920116" lon="-7.8768898054705225"><ele>118.5</ele><time>2026-03-24T19:31:35.999Z</time></trkpt><trkpt lat="42.34252201370935" lon="-7.87680580137693"><ele>119.0</ele><time>2026-03-24T19:31:36.999Z</time></trkpt><trkpt lat="42.342589451035366" lon="-7.87685435184567"><ele>119.5</ele><time>2026-03-24T19:31:37.999Z</time></trkpt><trkpt lat="42.342459982484854" lon="-7.876590244179439"><ele>120.0</ele><time>2026-03-24T19:31:45.999Z</time></trkpt><trkpt lat="42.34238200088821" lon="-7.8765160870532736"><ele>120.0</ele><time>2026-03-24T19:31:46.999Z</time></trkpt><trkpt lat="42.34233545442629" lon="-7.876393103234526"><ele>120.0</ele><time>2026-03-24T19:31:47.999Z</time></trkpt><trkpt lat="42.34227513176566" lon="-7.876311738631835"><ele>120.0</ele><time>2026-03-24T19:31:48.999Z</time></trkpt><trkpt lat="42.34226236614398" lon="-7.876209746278781"><ele>120.0</ele><time>2026-03-24T19:31:49.999Z</time></trkpt><trkpt lat="42.3424031567006" lon="-7.876056393294344"><ele>120.0</ele><time>2026-03-24T19:31:51.999Z</time></trkpt><trkpt lat="42.34249352589493" lon="-7.875963275192095"><ele>121.0</ele><time>2026-03-24T19:31:52.999Z</time></trkpt><trkpt lat="42.34258390749541" lon="-7.875874539217392"><ele>122.0</ele><time>2026-03-24T19:31:53.999Z</time></trkpt><trkpt lat="42.342672493993106" lon="-7.875764953284369"><ele>123.0</ele><time>2026-03-24T19:31:54.999Z</time></trkpt><trkpt lat="42.34278314256528" lon="-7.875678668072333"><ele>124.0</ele><time>2026-03-24T19:31:55.999Z</time></trkpt><trkpt lat="42.34288590843023" lon="-7.875582886574238"><ele>124.0</ele><time>2026-03-24T19:31:56.999Z</time></trkpt><trkpt lat="42.342970146021955" lon="-7.8755053461057445"><ele>124.0</ele><time>2026-03-24T19:31:57.999Z</time></trkpt><trkpt lat="42.34305100668193" lon="-7.875438770578138"><ele>124.0</ele><time>2026-03-24T19:31:58.999Z</time></trkpt><trkpt lat="42.343129011766365" lon="-7.875366259493613"><ele>124.0</ele><time>2026-03-24T19:31:59.999Z</time></trkpt><trkpt lat="42.34323418844995" lon="-7.875308096433779"><ele>124.0</ele><time>2026-03-24T19:32:01.999Z</time></trkpt><trkpt lat="42.34330354365711" lon="-7.875247801325386"><ele>121.0</ele><time>2026-03-24T19:32:03.999Z</time></trkpt></trkseg><trkseg><trkpt lat="42.34326004789373" lon="-7.874930686190686"><ele>120.0</ele><time>2026-03-24T20:56:03.999Z</time></trkpt><trkpt lat="42.34325495708599" lon="-7.874773863334282"><ele>120.0</ele><time>2026-03-24T20:56:04.999Z</time></trkpt><trkpt lat="42.34323740715993" lon="-7.874649390498498"><ele>120.0</ele><time>2026-03-24T20:56:05.999Z</time></trkpt><trkpt lat="42.34321687096541" lon="-7.87451611603615"><ele>120.0</ele><time>2026-03-24T20:56:06.999Z</time></trkpt><trkpt lat="42.343204491707674" lon="-7.874367823612564"><ele>120.0</ele><time>2026-03-24T20:56:07.999Z</time></trkpt><trkpt lat="42.34317664462363" lon="-7.874263913937142"><ele>120.0</ele><time>2026-03-24T20:56:08.999Z</time></trkpt><trkpt lat="42.34310485550568" lon="-7.874193132900239"><ele>120.0</ele><time>2026-03-24T20:56:09.999Z</time></trkpt><trkpt lat="42.34314352137242" lon="-7.8741146172031575"><ele>120.0</ele><time>2026-03-24T20:56:10.999Z</time></trkpt><trkpt lat="42.34316042002507" lon="-7.874025830775076"><ele>120.0</ele><time>2026-03-24T20:56:11.999Z</time></trkpt><trkpt lat="42.343041081250824" lon="-7.873869288981232"><ele>120.0</ele><time>2026-03-24T20:56:13.999Z</time></trkpt><trkpt lat="42.34301893820566" lon="-7.873756765206472"><ele>120.66666666666667</ele><time>2026-03-24T20:56:14.999Z</time></trkpt><trkpt lat="42.342990986613444" lon="-7.873614724361529"><ele>121.33333333333334</ele><time>2026-03-24T20:56:15.999Z</time></trkpt><trkpt lat="42.342973567280005" lon="-7.873526204901225"><ele>122.0</ele><time>2026-03-24T20:56:16.999Z</time></trkpt><trkpt lat="42.34295577865051" lon="-7.873435808907139"><ele>122.66666666666667</ele><time>2026-03-24T20:56:17.999Z</time></trkpt><trkpt lat="42.34293254759906" lon="-7.873342092494604"><ele>123.33333333333334</ele><time>2026-03-24T20:56:18.999Z</time></trkpt><trkpt lat="42.34292058247327" lon="-7.873236062276315"><ele>124.0</ele><time>2026-03-24T20:56:19.999Z</time></trkpt><trkpt lat="42.34289555924722" lon="-7.873064190063839"><ele>124.00000000000001</ele><time>2026-03-24T20:56:21.999Z</time></trkpt><trkpt lat="42.34286890716583" lon="-7.872941337442793"><ele>124.0</ele><time>2026-03-24T20:56:22.999Z</time></trkpt><trkpt lat="42.342829644339936" lon="-7.872841223802124"><ele>124.0</ele><time>2026-03-24T20:56:23.999Z</time></trkpt><trkpt lat="42.34278424082106" lon="-7.872704975000469"><ele>124.0</ele><time>2026-03-24T20:56:24.999Z</time></trkpt><trkpt lat="42.34278049558924" lon="-7.872599409098389"><ele>124.00000000000001</ele><time>2026-03-24T20:56:25.999Z</time></trkpt><trkpt lat="42.342749010525424" lon="-7.872496767695422"><ele>124.0</ele><time>2026-03-24T20:56:26.999Z</time></trkpt><trkpt lat="42.34273059181721" lon="-7.872413680048341"><ele>123.2</ele><time>2026-03-24T20:56:27.999Z</time></trkpt><trkpt lat="42.34271317150382" lon="-7.872251463781857"><ele>122.4</ele><time>2026-03-24T20:56:29.999Z</time></trkpt><trkpt lat="42.34269239378167" lon="-7.872110977206095"><ele>121.6</ele><time>2026-03-24T20:56:31.999Z</time></trkpt><trkpt lat="42.34265308207287" lon="-7.871969374412807"><ele>120.8</ele><time>2026-03-24T20:56:33.999Z</time></trkpt><trkpt lat="42.342645166309204" lon="-7.871872487636725"><ele>120.0</ele><time>2026-03-24T20:56:34.999Z</time></trkpt><trkpt lat="42.34261636270536" lon="-7.871721906392886"><ele>118.4</ele><time>2026-03-24T20:56:36.999Z</time></trkpt><trkpt lat="42.34258301602452" lon="-7.871586222455996"><ele>116.8</ele><time>2026-03-24T20:56:38.999Z</time></trkpt><trkpt lat="42.34253704561335" lon="-7.871500046944249"><ele>115.19999999999999</ele><time>2026-03-24T20:56:40.999Z</time></trkpt><trkpt lat="42.34245837835434" lon="-7.871428532345552"><ele>113.6</ele><time>2026-03-24T20:56:42.999Z</time></trkpt><trkpt lat="42.342359736479395" lon="-7.871400174733061"><ele>112.0</ele><time>2026-03-24T20:56:43.999Z</time></trkpt><trkpt lat="42.34228626339374" lon="-7.8713580898744295"><ele>112.0</ele><time>2026-03-24T20:56:45.999Z</time></trkpt><trkpt lat="42.34226601039041" lon="-7.871216036399592"><ele>111.99999999999999</ele><time>2026-03-24T20:56:47.999Z</time></trkpt><trkpt lat="42.342304952151814" lon="-7.871078141592498"><ele>111.99999999999999</ele><time>2026-03-24T20:56:49.999Z</time></trkpt><trkpt lat="42.34235904665346" lon="-7.870988252929825"><ele>112.0</ele><time>2026-03-24T20:56:51.999Z</time></trkpt><trkpt lat="42.342461429407834" lon="-7.871032283344788"><ele>112.0</ele><time>2026-03-24T20:56:52.999Z</time></trkpt><trkpt lat="42.34253454273356" lon="-7.871044179517906"><ele>112.0</ele><time>2026-03-24T20:56:53.999Z</time></trkpt><trkpt lat="42.34263072532216" lon="-7.8710702226993945"><ele>111.99999999999999</ele><time>2026-03-24T20:56:55.999Z</time></trkpt><trkpt lat="42.342658336634706" lon="-7.870982593472949"><ele>111.99999999999999</ele><time>2026-03-24T20:56:57.999Z</time></trkpt><trkpt lat="42.34258899797092" lon="-7.871018828856298"><ele>112.0</ele><time>2026-03-24T20:57:32.999Z</time></trkpt><trkpt lat="42.34241684173696" lon="-7.8708713354140505"><ele>112.0</ele><time>2026-03-24T20:57:37.999Z</time></trkpt><trkpt lat="42.342666929290104" lon="-7.871019930642527"><ele>112.00000000000001</ele><time>2026-03-24T20:58:22.999Z</time></trkpt><trkpt lat="42.34262349485215" lon="-7.87094732872269"><ele>112.0</ele><time>2026-03-24T20:58:43.999Z</time></trkpt><trkpt lat="42.34267133485271" lon="-7.870890620023971"><ele>112.0</ele><time>2026-03-24T20:58:59Z</time></trkpt><trkpt lat="42.342731817897025" lon="-7.870832747012361"><ele>112.0</ele><time>2026-03-24T20:59:08Z</time></trkpt><trkpt lat="42.34287822083731" lon="-7.870760123167468"><ele>112.00000000000001</ele><time>2026-03-24T20:59:10Z</time></trkpt><trkpt lat="42.342939089109144" lon="-7.870722389635428"><ele>112.0</ele><time>2026-03-24T20:59:11Z</time></trkpt><trkpt lat="42.34305794661753" lon="-7.870692188345355"><ele>110.83333333333334</ele><time>2026-03-24T20:59:13Z</time></trkpt><trkpt lat="42.34313034671411" lon="-7.870685325989798"><ele>109.66666666666667</ele><time>2026-03-24T20:59:14Z</time></trkpt><trkpt lat="42.34319156242529" lon="-7.8707424919439255"><ele>108.5</ele><time>2026-03-24T20:59:15Z</time></trkpt><trkpt lat="42.34322718327097" lon="-7.870820430042358"><ele>107.33333333333334</ele><time>2026-03-24T20:59:16Z</time></trkpt><trkpt lat="42.34323478084913" lon="-7.870923652729307"><ele>106.16666666666667</ele><time>2026-03-24T20:59:17Z</time></trkpt><trkpt lat="42.34321991736297" lon="-7.871054133275818"><ele>105.0</ele><time>2026-03-24T20:59:18Z</time></trkpt><trkpt lat="42.34319609318136" lon="-7.871199643770172"><ele>105.0</ele><time>2026-03-24T20:59:19Z</time></trkpt><trkpt lat="42.343201426397634" lon="-7.871354100254332"><ele>105.0</ele><time>2026-03-24T20:59:20Z</time></trkpt><trkpt lat="42.34322653013511" lon="-7.871485376650993"><ele>105.0</ele><time>2026-03-24T20:59:21Z</time></trkpt><trkpt lat="42.34325605057533" lon="-7.87162117102459"><ele>105.0</ele><time>2026-03-24T20:59:22Z</time></trkpt><trkpt lat="42.34330649672488" lon="-7.871756731445386"><ele>105.0</ele><time>2026-03-24T20:59:23Z</time></trkpt><trkpt lat="42.34335798358326" lon="-7.871861869217186"><ele>105.8</ele><time>2026-03-24T20:59:24Z</time></trkpt><trkpt lat="42.34340395437081" lon="-7.871966558551902"><ele>106.6</ele><time>2026-03-24T20:59:25Z</time></trkpt><trkpt lat="42.343516486326266" lon="-7.872011739685593"><ele>107.4</ele><time>2026-03-24T20:59:26Z</time></trkpt><trkpt lat="42.34358996434468" lon="-7.872093168396513"><ele>108.2</ele><time>2026-03-24T20:59:27Z</time></trkpt><trkpt lat="42.34360571182345" lon="-7.872250666920842"><ele>109.0</ele><time>2026-03-24T20:59:28Z</time></trkpt><trkpt lat="42.343688628897866" lon="-7.87237125838885"><ele>109.0</ele><time>2026-03-24T20:59:29Z</time></trkpt><trkpt lat="42.34376791251217" lon="-7.872527942735232"><ele>109.0</ele><time>2026-03-24T20:59:30Z</time></trkpt><trkpt lat="42.343871719472666" lon="-7.872665467170554"><ele>109.0</ele><time>2026-03-24T20:59:31Z</time></trkpt><trkpt lat="42.3439791135409" lon="-7.8727998742999725"><ele>109.0</ele><time>2026-03-24T20:59:32Z</time></trkpt><trkpt lat="42.34409205295197" lon="-7.872940290466641"><ele>108.0</ele><time>2026-03-24T20:59:33Z</time></trkpt><trkpt lat="42.34420223560883" lon="-7.873076349532523"><ele>107.0</ele><time>2026-03-24T20:59:34Z</time></trkpt><trkpt lat="42.34430968341617" lon="-7.8732131658584965"><ele>106.0</ele><time>2026-03-24T20:59:35Z</time></trkpt><trkpt lat="42.344418324285556" lon="-7.873343357668496"><ele>105.0</ele><time>2026-03-24T20:59:36Z</time></trkpt><trkpt lat="42.34454205764647" lon="-7.873459495145632"><ele>105.0</ele><time>2026-03-24T20:59:37Z</time></trkpt><trkpt lat="42.3446758396035" lon="-7.873588670485099"><ele>105.0</ele><time>2026-03-24T20:59:38Z</time></trkpt><trkpt lat="42.344815435116715" lon="-7.873701568241955"><ele>105.0</ele><time>2026-03-24T20:59:39Z</time></trkpt><trkpt lat="42.34496031179861" lon="-7.873807459025946"><ele>102.0</ele><time>2026-03-24T20:59:40Z</time></trkpt><trkpt lat="42.34511007009532" lon="-7.873900867189468"><ele>99.0</ele><time>2026-03-24T20:59:41Z</time></trkpt><trkpt lat="42.345260807916304" lon="-7.8739826130376835"><ele>96.0</ele><time>2026-03-24T20:59:42Z</time></trkpt><trkpt lat="42.34541042156361" lon="-7.874055480652216"><ele>96.33333333333334</ele><time>2026-03-24T20:59:42.999Z</time></trkpt><trkpt lat="42.34556004462128" lon="-7.874122989544809"><ele>96.66666666666667</ele><time>2026-03-24T20:59:43.999Z</time></trkpt><trkpt lat="42.345728313824054" lon="-7.874149818363649"><ele>97.0</ele><time>2026-03-24T20:59:44.999Z</time></trkpt><trkpt lat="42.345892945758266" lon="-7.874180907365058"><ele>97.0</ele><time>2026-03-24T20:59:45.999Z</time></trkpt><trkpt lat="42.34606374989137" lon="-7.874201178194314"><ele>97.0</ele><time>2026-03-24T20:59:46.999Z</time></trkpt><trkpt lat="42.346218034572686" lon="-7.874225080186965"><ele>97.0</ele><time>2026-03-24T20:59:47.999Z</time></trkpt><trkpt lat="42.3463686342265" lon="-7.874188409262119"><ele>100.0</ele><time>2026-03-24T20:59:48.999Z</time></trkpt><trkpt lat="42.3464821716509" lon="-7.874182287232279"><ele>103.0</ele><time>2026-03-24T20:59:49.999Z</time></trkpt><trkpt lat="42.34660673460565" lon="-7.874161802960505"><ele>105.99999999999999</ele><time>2026-03-24T20:59:50.999Z</time></trkpt><trkpt lat="42.346707356735145" lon="-7.874139048257718"><ele>109.0</ele><time>2026-03-24T20:59:51.999Z</time></trkpt><trkpt lat="42.34679323497235" lon="-7.874116881371596"><ele>112.0</ele><time>2026-03-24T20:59:52.999Z</time></trkpt><trkpt lat="42.346854285217" lon="-7.874072645789226"><ele>112.00000000000001</ele><time>2026-03-24T20:59:53.999Z</time></trkpt><trkpt lat="42.34690224312162" lon="-7.874016413030047"><ele>112.0</ele><time>2026-03-24T20:59:54.999Z</time></trkpt><trkpt lat="42.34698946188673" lon="-7.873886377603962"><ele>112.0</ele><time>2026-03-24T20:59:56.999Z</time></trkpt><trkpt lat="42.34704339738443" lon="-7.873823708401276"><ele>112.0</ele><time>2026-03-24T20:59:57.999Z</time></trkpt><trkpt lat="42.347107950216476" lon="-7.873817768673988"><ele>112.00000000000001</ele><time>2026-03-24T20:59:58.999Z</time></trkpt><trkpt lat="42.347178154284556" lon="-7.873830434114096"><ele>112.0</ele><time>2026-03-24T20:59:59.999Z</time></trkpt><trkpt lat="42.34723801218535" lon="-7.873886315149167"><ele>112.5</ele><time>2026-03-24T21:00:00.999Z</time></trkpt><trkpt lat="42.34727476477089" lon="-7.8740628121394645"><ele>113.0</ele><time>2026-03-24T21:00:02.999Z</time></trkpt><trkpt lat="42.3472144001771" lon="-7.874245182509791"><ele>113.5</ele><time>2026-03-24T21:00:04.999Z</time></trkpt><trkpt lat="42.34715805536665" lon="-7.874343998666602"><ele>114.0</ele><time>2026-03-24T21:00:05.999Z</time></trkpt><trkpt lat="42.34713997449253" lon="-7.874478106673905"><ele>114.0</ele><time>2026-03-24T21:00:06.999Z</time></trkpt><trkpt lat="42.3471160987793" lon="-7.874608136480549"><ele>114.0</ele><time>2026-03-24T21:00:07.999Z</time></trkpt><trkpt lat="42.34710480628278" lon="-7.874724289702138"><ele>114.0</ele><time>2026-03-24T21:00:08.999Z</time></trkpt><trkpt lat="42.34710380841174" lon="-7.874824217293684"><ele>114.0</ele><time>2026-03-24T21:00:09.999Z</time></trkpt><trkpt lat="42.347080637210134" lon="-7.874909360381507"><ele>114.0</ele><time>2026-03-24T21:00:11.999Z</time></trkpt><trkpt lat="42.34709211158457" lon="-7.875039615086024"><ele>114.0</ele><time>2026-03-24T21:00:14.999Z</time></trkpt><trkpt lat="42.34711602411756" lon="-7.875126913432844"><ele>114.25</ele><time>2026-03-24T21:00:15.999Z</time></trkpt><trkpt lat="42.347156482255286" lon="-7.87523473341643"><ele>114.5</ele><time>2026-03-24T21:00:16.999Z</time></trkpt><trkpt lat="42.34722566573078" lon="-7.875347263310741"><ele>114.75</ele><time>2026-03-24T21:00:17.999Z</time></trkpt><trkpt lat="42.347324578473675" lon="-7.87545367281325"><ele>115.0</ele><time>2026-03-24T21:00:18.999Z</time></trkpt><trkpt lat="42.34743251625372" lon="-7.875551627629152"><ele>115.0</ele><time>2026-03-24T21:00:19.999Z</time></trkpt><trkpt lat="42.347539623375944" lon="-7.875660170967875"><ele>115.0</ele><time>2026-03-24T21:00:20.999Z</time></trkpt><trkpt lat="42.34765552642095" lon="-7.875785797484727"><ele>115.0</ele><time>2026-03-24T21:00:21.999Z</time></trkpt><trkpt lat="42.34775816181887" lon="-7.875914784055893"><ele>115.0</ele><time>2026-03-24T21:00:22.999Z</time></trkpt><trkpt lat="42.34787213731962" lon="-7.87604706730551"><ele>115.5</ele><time>2026-03-24T21:00:23.999Z</time></trkpt><trkpt lat="42.34797747339708" lon="-7.876170869409665"><ele>116.0</ele><time>2026-03-24T21:00:24.999Z</time></trkpt><trkpt lat="42.34808489179243" lon="-7.876299764763645"><ele>116.5</ele><time>2026-03-24T21:00:25.999Z</time></trkpt><trkpt lat="42.348196296579914" lon="-7.876421357285772"><ele>117.0</ele><time>2026-03-24T21:00:26.999Z</time></trkpt><trkpt lat="42.3483113667774" lon="-7.87654719125215"><ele>117.0</ele><time>2026-03-24T21:00:27.999Z</time></trkpt><trkpt lat="42.34842536110809" lon="-7.876664112809"><ele>117.0</ele><time>2026-03-24T21:00:28.999Z</time></trkpt><trkpt lat="42.348535652468954" lon="-7.87678033160329"><ele>117.0</ele><time>2026-03-24T21:00:29.999Z</time></trkpt><trkpt lat="42.34864088757413" lon="-7.876895088423598"><ele>117.0</ele><time>2026-03-24T21:00:30.999Z</time></trkpt><trkpt lat="42.34874677076672" lon="-7.8770096210962315"><ele>117.0</ele><time>2026-03-24T21:00:31.999Z</time></trkpt><trkpt lat="42.34884658897749" lon="-7.877113778065322"><ele>117.0</ele><time>2026-03-24T21:00:32.999Z</time></trkpt><trkpt lat="42.34894092281831" lon="-7.877217092087583"><ele>117.0</ele><time>2026-03-24T21:00:33.999Z</time></trkpt><trkpt lat="42.34903797512526" lon="-7.877317750423027"><ele>117.0</ele><time>2026-03-24T21:00:34.999Z</time></trkpt><trkpt lat="42.34913956292412" lon="-7.877418154903334"><ele>117.0</ele><time>2026-03-24T21:00:35.999Z</time></trkpt><trkpt lat="42.34924778980558" lon="-7.877513822762321"><ele>117.0</ele><time>2026-03-24T21:00:36.999Z</time></trkpt><trkpt lat="42.34936049311288" lon="-7.877598921827338"><ele>117.0</ele><time>2026-03-24T21:00:37.999Z</time></trkpt><trkpt lat="42.34948508631069" lon="-7.877676360851017"><ele>117.0</ele><time>2026-03-24T21:00:38.999Z</time></trkpt><trkpt lat="42.34961899011103" lon="-7.877746151049927"><ele>115.66666666666666</ele><time>2026-03-24T21:00:39.999Z</time></trkpt><trkpt lat="42.3497635026743" lon="-7.87781003836998"><ele>114.33333333333333</ele><time>2026-03-24T21:00:40.999Z</time></trkpt><trkpt lat="42.34991674550605" lon="-7.877869120566269"><ele>113.0</ele><time>2026-03-24T21:00:41.999Z</time></trkpt><trkpt lat="42.35007685057364" lon="-7.877911749279521"><ele>113.0</ele><time>2026-03-24T21:00:42.999Z</time></trkpt><trkpt lat="42.35024302129088" lon="-7.877936958517055"><ele>113.0</ele><time>2026-03-24T21:00:43.999Z</time></trkpt><trkpt lat="42.35041408620108" lon="-7.877950095599241"><ele>113.0</ele><time>2026-03-24T21:00:44.999Z</time></trkpt><trkpt lat="42.35059125620755" lon="-7.8779656051196065"><ele>116.0</ele><time>2026-03-24T21:00:45.999Z</time></trkpt><trkpt lat="42.350765305117854" lon="-7.877978111673612"><ele>119.0</ele><time>2026-03-24T21:00:46.999Z</time></trkpt><trkpt lat="42.3509446785813" lon="-7.877990458238766"><ele>122.0</ele><time>2026-03-24T21:00:47.999Z</time></trkpt><trkpt lat="42.35112735521218" lon="-7.8780009848486205"><ele>122.0</ele><time>2026-03-24T21:00:48.999Z</time></trkpt><trkpt lat="42.35131078309749" lon="-7.878018944020836"><ele>122.0</ele><time>2026-03-24T21:00:49.999Z</time></trkpt><trkpt lat="42.351496419490765" lon="-7.878031260414258"><ele>122.0</ele><time>2026-03-24T21:00:50.999Z</time></trkpt><trkpt lat="42.3516903352925" lon="-7.878046852740832"><ele>122.33333333333333</ele><time>2026-03-24T21:00:51.999Z</time></trkpt><trkpt lat="42.351889962445185" lon="-7.87807213164143"><ele>122.66666666666666</ele><time>2026-03-24T21:00:52.999Z</time></trkpt><trkpt lat="42.3520844585309" lon="-7.878099777112919"><ele>123.0</ele><time>2026-03-24T21:00:53.999Z</time></trkpt><trkpt lat="42.35228679777614" lon="-7.878133857919143"><ele>123.0</ele><time>2026-03-24T21:00:54.999Z</time></trkpt><trkpt lat="42.352488877042845" lon="-7.878165895649103"><ele>123.0</ele><time>2026-03-24T21:00:55.999Z</time></trkpt><trkpt lat="42.35269799810354" lon="-7.8782076618893395"><ele>123.0</ele><time>2026-03-24T21:00:56.999Z</time></trkpt><trkpt lat="42.35290328441086" lon="-7.8782446391356915"><ele>124.0</ele><time>2026-03-24T21:00:57.999Z</time></trkpt><trkpt lat="42.353102827031904" lon="-7.878279874403342"><ele>125.0</ele><time>2026-03-24T21:00:59Z</time></trkpt><trkpt lat="42.35330139516906" lon="-7.878314206762673"><ele>126.0</ele><time>2026-03-24T21:01:00Z</time></trkpt><trkpt lat="42.353497140975854" lon="-7.8783517365798525"><ele>126.0</ele><time>2026-03-24T21:01:01Z</time></trkpt><trkpt lat="42.35369393637314" lon="-7.878388899179461"><ele>126.0</ele><time>2026-03-24T21:01:02Z</time></trkpt><trkpt lat="42.353852026715984" lon="-7.878489827972924"><ele>126.0</ele><time>2026-03-24T21:01:03Z</time></trkpt><trkpt lat="42.35403975673205" lon="-7.878671278794271"><ele>124.66666666666666</ele><time>2026-03-24T21:01:04Z</time></trkpt><trkpt lat="42.354205673635896" lon="-7.878808802958834"><ele>123.33333333333333</ele><time>2026-03-24T21:01:05Z</time></trkpt><trkpt lat="42.35434670081279" lon="-7.878966921689074"><ele>122.0</ele><time>2026-03-24T21:01:06Z</time></trkpt><trkpt lat="42.354477546011694" lon="-7.87912972788626"><ele>122.33333333333333</ele><time>2026-03-24T21:01:07Z</time></trkpt><trkpt lat="42.35460351031285" lon="-7.879296850507314"><ele>122.66666666666666</ele><time>2026-03-24T21:01:08Z</time></trkpt><trkpt lat="42.35474444277868" lon="-7.879461390144849"><ele>123.0</ele><time>2026-03-24T21:01:09Z</time></trkpt><trkpt lat="42.354851557973085" lon="-7.879625928670195"><ele>123.0</ele><time>2026-03-24T21:01:10Z</time></trkpt><trkpt lat="42.35493517533213" lon="-7.8797978362047125"><ele>123.0</ele><time>2026-03-24T21:01:11Z</time></trkpt><trkpt lat="42.35501962377875" lon="-7.879943806179023"><ele>123.0</ele><time>2026-03-24T21:01:12Z</time></trkpt><trkpt lat="42.35509448656678" lon="-7.880089945964855"><ele>123.0</ele><time>2026-03-24T21:01:13Z</time></trkpt><trkpt lat="42.35516032651629" lon="-7.880219271303683"><ele>123.16666666666667</ele><time>2026-03-24T21:01:14Z</time></trkpt><trkpt lat="42.355202443985036" lon="-7.880318311758829"><ele>123.33333333333334</ele><time>2026-03-24T21:01:15Z</time></trkpt><trkpt lat="42.35522523671531" lon="-7.880410095427316"><ele>123.5</ele><time>2026-03-24T21:01:17Z</time></trkpt><trkpt lat="42.355248972428974" lon="-7.880510021423261"><ele>123.66666666666667</ele><time>2026-03-24T21:01:28Z</time></trkpt><trkpt lat="42.35528004519593" lon="-7.88061669318705"><ele>123.83333333333334</ele><time>2026-03-24T21:01:29Z</time></trkpt><trkpt lat="42.35531638112046" lon="-7.880750971773353"><ele>124.0</ele><time>2026-03-24T21:01:30Z</time></trkpt><trkpt lat="42.355349971491535" lon="-7.880888936884862"><ele>125.5</ele><time>2026-03-24T21:01:31Z</time></trkpt><trkpt lat="42.35538560159361" lon="-7.881042092258235"><ele>127.0</ele><time>2026-03-24T21:01:32Z</time></trkpt><trkpt lat="42.355427396921684" lon="-7.8812003713982355"><ele>128.5</ele><time>2026-03-24T21:01:33Z</time></trkpt><trkpt lat="42.355456576073614" lon="-7.881385404094629"><ele>130.0</ele><time>2026-03-24T21:01:34Z</time></trkpt><trkpt lat="42.355474908115234" lon="-7.881582486085371"><ele>129.33333333333334</ele><time>2026-03-24T21:01:35Z</time></trkpt><trkpt lat="42.35549105613681" lon="-7.88179196499328"><ele>128.66666666666666</ele><time>2026-03-24T21:01:36Z</time></trkpt><trkpt lat="42.35550003722887" lon="-7.8820063785569054"><ele>128.0</ele><time>2026-03-24T21:01:37Z</time></trkpt><trkpt lat="42.355509007058075" lon="-7.882228728051732"><ele>128.0</ele><time>2026-03-24T21:01:38Z</time></trkpt><trkpt lat="42.355509879284405" lon="-7.882444160418604"><ele>128.0</ele><time>2026-03-24T21:01:39Z</time></trkpt><trkpt lat="42.355504994020414" lon="-7.882658383867775"><ele>128.0</ele><time>2026-03-24T21:01:40Z</time></trkpt><trkpt lat="42.35551207774469" lon="-7.882847641212777"><ele>127.0</ele><time>2026-03-24T21:01:41Z</time></trkpt><trkpt lat="42.35552019103966" lon="-7.883036473625705"><ele>126.0</ele><time>2026-03-24T21:01:42Z</time></trkpt><trkpt lat="42.35552697752277" lon="-7.883208459571384"><ele>125.0</ele><time>2026-03-24T21:01:43Z</time></trkpt><trkpt lat="42.355536214064664" lon="-7.883343074352367"><ele>124.0</ele><time>2026-03-24T21:01:44Z</time></trkpt><trkpt lat="42.35553404901425" lon="-7.883498247411472"><ele>124.5</ele><time>2026-03-24T21:01:45Z</time></trkpt><trkpt lat="42.35553927829635" lon="-7.88368366785829"><ele>125.0</ele><time>2026-03-24T21:01:45.999Z</time></trkpt><trkpt lat="42.35555382130997" lon="-7.883885507180832"><ele>125.5</ele><time>2026-03-24T21:01:46.999Z</time></trkpt><trkpt lat="42.35557419987677" lon="-7.884096399326769"><ele>126.0</ele><time>2026-03-24T21:01:47.999Z</time></trkpt><trkpt lat="42.355573004726786" lon="-7.884307050587547"><ele>126.0</ele><time>2026-03-24T21:01:48.999Z</time></trkpt><trkpt lat="42.355578417134986" lon="-7.884516782718787"><ele>126.0</ele><time>2026-03-24T21:01:49.999Z</time></trkpt><trkpt lat="42.35559106749372" lon="-7.88472000989989"><ele>126.0</ele><time>2026-03-24T21:01:50.999Z</time></trkpt><trkpt lat="42.35559026160361" lon="-7.8849236942864165"><ele>125.66666666666666</ele><time>2026-03-24T21:01:51.999Z</time></trkpt><trkpt lat="42.35560106509311" lon="-7.885141858379527"><ele>125.33333333333333</ele><time>2026-03-24T21:01:52.999Z</time></trkpt><trkpt lat="42.355606821285924" lon="-7.885347540932051"><ele>125.0</ele><time>2026-03-24T21:01:53.999Z</time></trkpt><trkpt lat="42.355608361014426" lon="-7.885570699042482"><ele>125.0</ele><time>2026-03-24T21:01:54.999Z</time></trkpt><trkpt lat="42.355614618720516" lon="-7.885781223906111"><ele>125.0</ele><time>2026-03-24T21:01:55.999Z</time></trkpt><trkpt lat="42.35561516779944" lon="-7.885984298832654"><ele>125.0</ele><time>2026-03-24T21:01:56.999Z</time></trkpt><trkpt lat="42.355616566532944" lon="-7.886173863812686"><ele>125.0</ele><time>2026-03-24T21:01:57.999Z</time></trkpt><trkpt lat="42.35561910348261" lon="-7.886365022528013"><ele>123.66666666666666</ele><time>2026-03-24T21:01:58.999Z</time></trkpt><trkpt lat="42.35562936559065" lon="-7.886559188695881"><ele>122.33333333333334</ele><time>2026-03-24T21:01:59.999Z</time></trkpt><trkpt lat="42.355628796973825" lon="-7.886766233011095"><ele>121.0</ele><time>2026-03-24T21:02:00.999Z</time></trkpt><trkpt lat="42.355643470521485" lon="-7.8869768466108"><ele>121.0</ele><time>2026-03-24T21:02:01.999Z</time></trkpt><trkpt lat="42.35564879178571" lon="-7.88719176586902"><ele>121.0</ele><time>2026-03-24T21:02:02.999Z</time></trkpt><trkpt lat="42.35565876628888" lon="-7.887415340057037"><ele>121.0</ele><time>2026-03-24T21:02:03.999Z</time></trkpt><trkpt lat="42.35566606651758" lon="-7.887645099139299"><ele>119.33333333333334</ele><time>2026-03-24T21:02:04.999Z</time></trkpt><trkpt lat="42.355678498903906" lon="-7.887878935028842"><ele>117.66666666666666</ele><time>2026-03-24T21:02:05.999Z</time></trkpt><trkpt lat="42.355674718876166" lon="-7.888108914763124"><ele>116.0</ele><time>2026-03-24T21:02:06.999Z</time></trkpt><trkpt lat="42.35568070290023" lon="-7.888339774287327"><ele>115.33333333333333</ele><time>2026-03-24T21:02:07.999Z</time></trkpt><trkpt lat="42.355696577428475" lon="-7.888562113503995"><ele>114.66666666666666</ele><time>2026-03-24T21:02:08.999Z</time></trkpt><trkpt lat="42.35569623450471" lon="-7.888778720011698"><ele>114.0</ele><time>2026-03-24T21:02:09.999Z</time></trkpt><trkpt lat="42.35570033701035" lon="-7.88897057841239"><ele>114.0</ele><time>2026-03-24T21:02:10.999Z</time></trkpt><trkpt lat="42.35570829092768" lon="-7.88915176384697"><ele>114.0</ele><time>2026-03-24T21:02:11.999Z</time></trkpt><trkpt lat="42.355706157919464" lon="-7.889339675510636"><ele>114.0</ele><time>2026-03-24T21:02:12.999Z</time></trkpt><trkpt lat="42.355687905425654" lon="-7.8896050887096045"><ele>113.75</ele><time>2026-03-24T21:02:13.999Z</time></trkpt><trkpt lat="42.35572128033813" lon="-7.889723850346044"><ele>113.5</ele><time>2026-03-24T21:02:14.999Z</time></trkpt><trkpt lat="42.35572828016917" lon="-7.889908108134059"><ele>113.25</ele><time>2026-03-24T21:02:15.999Z</time></trkpt><trkpt lat="42.355727710183814" lon="-7.890091277916801"><ele>113.0</ele><time>2026-03-24T21:02:16.999Z</time></trkpt><trkpt lat="42.355729695244705" lon="-7.8902519072037585"><ele>112.80000000000001</ele><time>2026-03-24T21:02:17.999Z</time></trkpt><trkpt lat="42.35573245775761" lon="-7.890403261842822"><ele>112.60000000000001</ele><time>2026-03-24T21:02:18.999Z</time></trkpt><trkpt lat="42.3557371310686" lon="-7.890554672128563"><ele>112.39999999999999</ele><time>2026-03-24T21:02:19.999Z</time></trkpt><trkpt lat="42.355742777219696" lon="-7.890702876457382"><ele>112.19999999999999</ele><time>2026-03-24T21:02:20.999Z</time></trkpt><trkpt lat="42.355743199829014" lon="-7.890835465054676"><ele>112.0</ele><time>2026-03-24T21:02:21.999Z</time></trkpt><trkpt lat="42.35574566997975" lon="-7.890962031363316"><ele>111.66666666666667</ele><time>2026-03-24T21:02:22.999Z</time></trkpt><trkpt lat="42.35574753787353" lon="-7.891083694087512"><ele>111.33333333333334</ele><time>2026-03-24T21:02:23.999Z</time></trkpt><trkpt lat="42.35575119741591" lon="-7.891183956998101"><ele>111.0</ele><time>2026-03-24T21:02:24.999Z</time></trkpt><trkpt lat="42.355742561396994" lon="-7.891277772506747"><ele>110.66666666666666</ele><time>2026-03-24T21:02:25.999Z</time></trkpt><trkpt lat="42.35573447188062" lon="-7.891367527270227"><ele>110.33333333333333</ele><time>2026-03-24T21:02:26.999Z</time></trkpt><trkpt lat="42.35574451081868" lon="-7.891503925204641"><ele>110.0</ele><time>2026-03-24T21:02:28.999Z</time></trkpt><trkpt lat="42.35573604794707" lon="-7.891624657628908"><ele>109.5</ele><time>2026-03-24T21:02:36.999Z</time></trkpt><trkpt lat="42.35574940845699" lon="-7.8918173760982775"><ele>109.0</ele><time>2026-03-24T21:02:37.999Z</time></trkpt><trkpt lat="42.355753262910994" lon="-7.8919766150139665"><ele>108.5</ele><time>2026-03-24T21:02:38.999Z</time></trkpt><trkpt lat="42.35575628334414" lon="-7.892140741655592"><ele>108.0</ele><time>2026-03-24T21:02:39.999Z</time></trkpt><trkpt lat="42.35575693993193" lon="-7.892327133039277"><ele>108.0</ele><time>2026-03-24T21:02:40.999Z</time></trkpt><trkpt lat="42.355757332619966" lon="-7.892517128380799"><ele>108.0</ele><time>2026-03-24T21:02:41.999Z</time></trkpt><trkpt lat="42.35576008716032" lon="-7.892715405325488"><ele>108.0</ele><time>2026-03-24T21:02:42.999Z</time></trkpt><trkpt lat="42.35576906407952" lon="-7.892921121259556"><ele>108.0</ele><time>2026-03-24T21:02:43.999Z</time></trkpt><trkpt lat="42.355768554706486" lon="-7.893113592458969"><ele>107.66666666666666</ele><time>2026-03-24T21:02:44.999Z</time></trkpt><trkpt lat="42.355768978390735" lon="-7.893312533183571"><ele>107.33333333333333</ele><time>2026-03-24T21:02:45.999Z</time></trkpt><trkpt lat="42.35577216651306" lon="-7.893517868366419"><ele>107.0</ele><time>2026-03-24T21:02:46.999Z</time></trkpt><trkpt lat="42.35577554168027" lon="-7.893732318571902"><ele>108.0</ele><time>2026-03-24T21:02:47.999Z</time></trkpt><trkpt lat="42.35578015081993" lon="-7.893946170612619"><ele>109.0</ele><time>2026-03-24T21:02:48.999Z</time></trkpt><trkpt lat="42.35577202116696" lon="-7.8941810839486335"><ele>110.0</ele><time>2026-03-24T21:02:49.999Z</time></trkpt><trkpt lat="42.355797585124776" lon="-7.894388466430154"><ele>110.33333333333333</ele><time>2026-03-24T21:02:50.999Z</time></trkpt><trkpt lat="42.35580851422241" lon="-7.894589858716078"><ele>110.66666666666666</ele><time>2026-03-24T21:02:51.999Z</time></trkpt><trkpt lat="42.35581385105502" lon="-7.894801177585023"><ele>111.0</ele><time>2026-03-24T21:02:52.999Z</time></trkpt><trkpt lat="42.355816027335884" lon="-7.89502432317704"><ele>110.0</ele><time>2026-03-24T21:02:53.999Z</time></trkpt><trkpt lat="42.35581946601668" lon="-7.895250021863797"><ele>109.0</ele><time>2026-03-24T21:02:54.999Z</time></trkpt><trkpt lat="42.35582293178873" lon="-7.895481954270662"><ele>108.0</ele><time>2026-03-24T21:02:55.999Z</time></trkpt><trkpt lat="42.35582893077347" lon="-7.89570917161217"><ele>107.66666666666666</ele><time>2026-03-24T21:02:56.999Z</time></trkpt><trkpt lat="42.35583095855463" lon="-7.895959117306343"><ele>107.33333333333333</ele><time>2026-03-24T21:02:57.999Z</time></trkpt><trkpt lat="42.355833582339656" lon="-7.896204969170172"><ele>107.0</ele><time>2026-03-24T21:02:58.999Z</time></trkpt><trkpt lat="42.35583584247096" lon="-7.896451596936464"><ele>107.0</ele><time>2026-03-24T21:02:59.999Z</time></trkpt><trkpt lat="42.35583507409469" lon="-7.896698019162085"><ele>107.0</ele><time>2026-03-24T21:03:00.999Z</time></trkpt><trkpt lat="42.35583893502567" lon="-7.896939635529533"><ele>107.0</ele><time>2026-03-24T21:03:01.999Z</time></trkpt><trkpt lat="42.35583769866183" lon="-7.897182735607512"><ele>108.0</ele><time>2026-03-24T21:03:02.999Z</time></trkpt><trkpt lat="42.35584093714617" lon="-7.897429869474096"><ele>109.0</ele><time>2026-03-24T21:03:03.999Z</time></trkpt><trkpt lat="42.355839736493145" lon="-7.897657222637528"><ele>110.0</ele><time>2026-03-24T21:03:05Z</time></trkpt><trkpt lat="42.35584203554546" lon="-7.897879117762756"><ele>110.25</ele><time>2026-03-24T21:03:06Z</time></trkpt><trkpt lat="42.35584613583947" lon="-7.898079115637293"><ele>110.5</ele><time>2026-03-24T21:03:07Z</time></trkpt><trkpt lat="42.35584771061311" lon="-7.898278977218498"><ele>110.75</ele><time>2026-03-24T21:03:08Z</time></trkpt><trkpt lat="42.355855063922064" lon="-7.898480651393141"><ele>111.0</ele><time>2026-03-24T21:03:09Z</time></trkpt><trkpt lat="42.35585358859329" lon="-7.898684662626357"><ele>111.66666666666666</ele><time>2026-03-24T21:03:10Z</time></trkpt><trkpt lat="42.35585904780407" lon="-7.898885155033718"><ele>112.33333333333333</ele><time>2026-03-24T21:03:11Z</time></trkpt><trkpt lat="42.35585732352619" lon="-7.899094538819569"><ele>113.0</ele><time>2026-03-24T21:03:12Z</time></trkpt><trkpt lat="42.355862866554" lon="-7.899301481889311"><ele>114.0</ele><time>2026-03-24T21:03:13Z</time></trkpt><trkpt lat="42.355862542075464" lon="-7.899508901457608"><ele>115.0</ele><time>2026-03-24T21:03:14Z</time></trkpt><trkpt lat="42.35586598088319" lon="-7.899714741539955"><ele>116.0</ele><time>2026-03-24T21:03:15Z</time></trkpt><trkpt lat="42.35586734988439" lon="-7.899921967589545"><ele>117.33333333333333</ele><time>2026-03-24T21:03:16Z</time></trkpt><trkpt lat="42.355869179736" lon="-7.9001416182186475"><ele>118.66666666666666</ele><time>2026-03-24T21:03:17Z</time></trkpt><trkpt lat="42.35586842509816" lon="-7.900359679643967"><ele>120.0</ele><time>2026-03-24T21:03:18Z</time></trkpt><trkpt lat="42.35587280472665" lon="-7.900579181813354"><ele>120.0</ele><time>2026-03-24T21:03:19Z</time></trkpt><trkpt lat="42.355872522433344" lon="-7.900808142303161"><ele>120.0</ele><time>2026-03-24T21:03:20Z</time></trkpt><trkpt lat="42.35587144755055" lon="-7.901039080090834"><ele>120.0</ele><time>2026-03-24T21:03:21Z</time></trkpt><trkpt lat="42.35587435332653" lon="-7.901272845011456"><ele>120.0</ele><time>2026-03-24T21:03:22Z</time></trkpt><trkpt lat="42.35587472453157" lon="-7.901501686271959"><ele>120.0</ele><time>2026-03-24T21:03:23Z</time></trkpt><trkpt lat="42.35587416120235" lon="-7.901727624466905"><ele>120.0</ele><time>2026-03-24T21:03:24Z</time></trkpt><trkpt lat="42.35586985854638" lon="-7.901944220521026"><ele>122.0</ele><time>2026-03-24T21:03:25Z</time></trkpt><trkpt lat="42.35586315989578" lon="-7.902150463628657"><ele>124.0</ele><time>2026-03-24T21:03:26Z</time></trkpt><trkpt lat="42.355847357852745" lon="-7.902361330006066"><ele>126.0</ele><time>2026-03-24T21:03:27Z</time></trkpt><trkpt lat="42.35583028267625" lon="-7.9025658997638395"><ele>126.33333333333334</ele><time>2026-03-24T21:03:28Z</time></trkpt><trkpt lat="42.35580538824335" lon="-7.902763484752456"><ele>126.66666666666667</ele><time>2026-03-24T21:03:29Z</time></trkpt><trkpt lat="42.355764131942166" lon="-7.902975584885072"><ele>127.0</ele><time>2026-03-24T21:03:30Z</time></trkpt><trkpt lat="42.355725883345386" lon="-7.903177553352229"><ele>127.0</ele><time>2026-03-24T21:03:31Z</time></trkpt><trkpt lat="42.35567824459606" lon="-7.90337461753532"><ele>127.0</ele><time>2026-03-24T21:03:32Z</time></trkpt><trkpt lat="42.355628291282564" lon="-7.903577535231486"><ele>127.0</ele><time>2026-03-24T21:03:33Z</time></trkpt><trkpt lat="42.35557544159217" lon="-7.903785887813634"><ele>124.66666666666667</ele><time>2026-03-24T21:03:34Z</time></trkpt><trkpt lat="42.35552611304891" lon="-7.903987726211072"><ele>122.33333333333334</ele><time>2026-03-24T21:03:35Z</time></trkpt><trkpt lat="42.35547531316039" lon="-7.9041903239996145"><ele>120.0</ele><time>2026-03-24T21:03:36Z</time></trkpt><trkpt lat="42.35542094675959" lon="-7.904393756158237"><ele>120.0</ele><time>2026-03-24T21:03:37Z</time></trkpt><trkpt lat="42.355374718399645" lon="-7.904589374806364"><ele>120.0</ele><time>2026-03-24T21:03:38Z</time></trkpt><trkpt lat="42.35533001983465" lon="-7.904769902978657"><ele>120.0</ele><time>2026-03-24T21:03:39Z</time></trkpt><trkpt lat="42.35528443969707" lon="-7.904934671202708"><ele>120.0</ele><time>2026-03-24T21:03:40Z</time></trkpt><trkpt lat="42.35523986940315" lon="-7.905103347717507"><ele>119.25</ele><time>2026-03-24T21:03:41Z</time></trkpt><trkpt lat="42.355195153677215" lon="-7.905282589457582"><ele>118.5</ele><time>2026-03-24T21:03:42Z</time></trkpt><trkpt lat="42.355149104070314" lon="-7.905461574538468"><ele>117.75</ele><time>2026-03-24T21:03:43Z</time></trkpt><trkpt lat="42.35510201556718" lon="-7.905640864558957"><ele>117.0</ele><time>2026-03-24T21:03:44Z</time></trkpt><trkpt lat="42.35505757009162" lon="-7.905823952826176"><ele>117.0</ele><time>2026-03-24T21:03:45Z</time></trkpt><trkpt lat="42.35500763971081" lon="-7.9060181784775825"><ele>117.0</ele><time>2026-03-24T21:03:46Z</time></trkpt><trkpt lat="42.35496136748263" lon="-7.90621255058861"><ele>117.0</ele><time>2026-03-24T21:03:47Z</time></trkpt><trkpt lat="42.35491698133902" lon="-7.906403825211862"><ele>117.0</ele><time>2026-03-24T21:03:48Z</time></trkpt><trkpt lat="42.354866518770415" lon="-7.906599008553072"><ele>117.0</ele><time>2026-03-24T21:03:49Z</time></trkpt><trkpt lat="42.35481629828977" lon="-7.906796835023059"><ele>117.0</ele><time>2026-03-24T21:03:50Z</time></trkpt><trkpt lat="42.35476698164692" lon="-7.906999742205133"><ele>116.66666666666666</ele><time>2026-03-24T21:03:51Z</time></trkpt><trkpt lat="42.35471234411848" lon="-7.907195814116163"><ele>116.33333333333333</ele><time>2026-03-24T21:03:52Z</time></trkpt><trkpt lat="42.35466259268524" lon="-7.907391403367168"><ele>116.0</ele><time>2026-03-24T21:03:53Z</time></trkpt><trkpt lat="42.35461831548002" lon="-7.907590604156547"><ele>113.0</ele><time>2026-03-24T21:03:54Z</time></trkpt><trkpt lat="42.35456548036135" lon="-7.907790642161892"><ele>110.0</ele><time>2026-03-24T21:03:55Z</time></trkpt><trkpt lat="42.354512726891315" lon="-7.90799346934227"><ele>107.0</ele><time>2026-03-24T21:03:56Z</time></trkpt><trkpt lat="42.35446051685571" lon="-7.908198895542574"><ele>106.66666666666666</ele><time>2026-03-24T21:03:57Z</time></trkpt><trkpt lat="42.354411011274046" lon="-7.9084146800704085"><ele>106.33333333333334</ele><time>2026-03-24T21:03:58Z</time></trkpt><trkpt lat="42.35436902760926" lon="-7.908607138787395"><ele>106.0</ele><time>2026-03-24T21:03:59Z</time></trkpt><trkpt lat="42.35431102127836" lon="-7.908801058750593"><ele>106.0</ele><time>2026-03-24T21:04:00Z</time></trkpt><trkpt lat="42.35424803406557" lon="-7.908999458990621"><ele>106.0</ele><time>2026-03-24T21:04:01Z</time></trkpt><trkpt lat="42.35420114123739" lon="-7.909188514526166"><ele>106.0</ele><time>2026-03-24T21:04:02Z</time></trkpt><trkpt lat="42.354152395008" lon="-7.909382602650385"><ele>106.66666666666667</ele><time>2026-03-24T21:04:03Z</time></trkpt><trkpt lat="42.3541104658053" lon="-7.909573844088094"><ele>107.33333333333334</ele><time>2026-03-24T21:04:04Z</time></trkpt><trkpt lat="42.35405478631874" lon="-7.909771049512409"><ele>108.0</ele><time>2026-03-24T21:04:05Z</time></trkpt><trkpt lat="42.35399988419894" lon="-7.909969783788439"><ele>109.33333333333334</ele><time>2026-03-24T21:04:06Z</time></trkpt><trkpt lat="42.353950287827125" lon="-7.91017203362787"><ele>110.66666666666667</ele><time>2026-03-24T21:04:07Z</time></trkpt><trkpt lat="42.35389634026506" lon="-7.910386046315288"><ele>112.0</ele><time>2026-03-24T21:04:08Z</time></trkpt><trkpt lat="42.353840467244936" lon="-7.910599973748911"><ele>109.0</ele><time>2026-03-24T21:04:09Z</time></trkpt><trkpt lat="42.35378769027114" lon="-7.910822052350412"><ele>106.0</ele><time>2026-03-24T21:04:10Z</time></trkpt><trkpt lat="42.353728397784266" lon="-7.9110435228726095"><ele>103.0</ele><time>2026-03-24T21:04:11Z</time></trkpt><trkpt lat="42.353674049148395" lon="-7.9112635973054815"><ele>103.0</ele><time>2026-03-24T21:04:11.999Z</time></trkpt><trkpt lat="42.35361060795622" lon="-7.911501642739708"><ele>103.0</ele><time>2026-03-24T21:04:12.999Z</time></trkpt><trkpt lat="42.3535608525931" lon="-7.911736578718086"><ele>103.0</ele><time>2026-03-24T21:04:13.999Z</time></trkpt><trkpt lat="42.353498623309186" lon="-7.911971693815942"><ele>101.66666666666667</ele><time>2026-03-24T21:04:14.999Z</time></trkpt><trkpt lat="42.35344285509851" lon="-7.912207701451774"><ele>100.33333333333334</ele><time>2026-03-24T21:04:15.999Z</time></trkpt><trkpt lat="42.35337866071386" lon="-7.9124482805759015"><ele>99.0</ele><time>2026-03-24T21:04:16.999Z</time></trkpt><trkpt lat="42.35331617582464" lon="-7.912690297748983"><ele>98.66666666666666</ele><time>2026-03-24T21:04:17.999Z</time></trkpt><trkpt lat="42.35325539245127" lon="-7.912926162827603"><ele>98.33333333333333</ele><time>2026-03-24T21:04:18.999Z</time></trkpt><trkpt lat="42.353183862463474" lon="-7.913156701537436"><ele>98.0</ele><time>2026-03-24T21:04:19.999Z</time></trkpt><trkpt lat="42.353098521347896" lon="-7.913384949873633"><ele>101.0</ele><time>2026-03-24T21:04:20.999Z</time></trkpt><trkpt lat="42.352995909807184" lon="-7.9135995900599685"><ele>104.0</ele><time>2026-03-24T21:04:21.999Z</time></trkpt><trkpt lat="42.35287019389329" lon="-7.913801556374635"><ele>107.0</ele><time>2026-03-24T21:04:22.999Z</time></trkpt><trkpt lat="42.35272665981858" lon="-7.91398160167536"><ele>107.0</ele><time>2026-03-24T21:04:23.999Z</time></trkpt><trkpt lat="42.35257697013697" lon="-7.914138962901188"><ele>107.0</ele><time>2026-03-24T21:04:24.999Z</time></trkpt><trkpt lat="42.35241153062804" lon="-7.914274079637982"><ele>107.0</ele><time>2026-03-24T21:04:25.999Z</time></trkpt><trkpt lat="42.35224378022406" lon="-7.914404567255302"><ele>110.66666666666666</ele><time>2026-03-24T21:04:26.999Z</time></trkpt><trkpt lat="42.352081162771796" lon="-7.914532057556559"><ele>114.33333333333334</ele><time>2026-03-24T21:04:27.999Z</time></trkpt><trkpt lat="42.35191652415822" lon="-7.914666037543288"><ele>118.0</ele><time>2026-03-24T21:04:28.999Z</time></trkpt><trkpt lat="42.35175717047134" lon="-7.914802065374869"><ele>118.0</ele><time>2026-03-24T21:04:29.999Z</time></trkpt><trkpt lat="42.35159912668959" lon="-7.9149527703517535"><ele>118.0</ele><time>2026-03-24T21:04:30.999Z</time></trkpt><trkpt lat="42.35145867367545" lon="-7.915125163366803"><ele>118.0</ele><time>2026-03-24T21:04:31.999Z</time></trkpt><trkpt lat="42.35133360971535" lon="-7.915322848381297"><ele>117.0</ele><time>2026-03-24T21:04:32.999Z</time></trkpt><trkpt lat="42.35123562731949" lon="-7.915537397633404"><ele>116.0</ele><time>2026-03-24T21:04:33.999Z</time></trkpt><trkpt lat="42.351165174727115" lon="-7.915770429559327"><ele>115.0</ele><time>2026-03-24T21:04:34.999Z</time></trkpt><trkpt lat="42.351122082932946" lon="-7.9160133911489625"><ele>117.33333333333334</ele><time>2026-03-24T21:04:35.999Z</time></trkpt><trkpt lat="42.35109319890034" lon="-7.916257905843762"><ele>119.66666666666666</ele><time>2026-03-24T21:04:36.999Z</time></trkpt><trkpt lat="42.35108389279008" lon="-7.916496041321258"><ele>122.0</ele><time>2026-03-24T21:04:37.999Z</time></trkpt><trkpt lat="42.35105797797116" lon="-7.91673978499061"><ele>123.33333333333333</ele><time>2026-03-24T21:04:38.999Z</time></trkpt><trkpt lat="42.351030331029044" lon="-7.916976480489949"><ele>124.66666666666666</ele><time>2026-03-24T21:04:39.999Z</time></trkpt><trkpt lat="42.35098819790722" lon="-7.917204447008127"><ele>126.0</ele><time>2026-03-24T21:04:40.999Z</time></trkpt><trkpt lat="42.35092176410797" lon="-7.917425195503796"><ele>128.33333333333334</ele><time>2026-03-24T21:04:41.999Z</time></trkpt><trkpt lat="42.3508415252045" lon="-7.917631157357975"><ele>130.66666666666669</ele><time>2026-03-24T21:04:42.999Z</time></trkpt><trkpt lat="42.350755908954476" lon="-7.917837964145831"><ele>133.0</ele><time>2026-03-24T21:04:43.999Z</time></trkpt><trkpt lat="42.35068225801797" lon="-7.918022673600828"><ele>133.0</ele><time>2026-03-24T21:04:44.999Z</time></trkpt><trkpt lat="42.35061804984876" lon="-7.918199780110236"><ele>133.0</ele><time>2026-03-24T21:04:45.999Z</time></trkpt><trkpt lat="42.35054534544702" lon="-7.91838273936647"><ele>133.0</ele><time>2026-03-24T21:04:46.999Z</time></trkpt><trkpt lat="42.350457020124665" lon="-7.918564491573767"><ele>134.33333333333334</ele><time>2026-03-24T21:04:47.999Z</time></trkpt><trkpt lat="42.350362933784986" lon="-7.918749646836253"><ele>135.66666666666666</ele><time>2026-03-24T21:04:48.999Z</time></trkpt><trkpt lat="42.35027112321969" lon="-7.918932801423939"><ele>137.0</ele><time>2026-03-24T21:04:49.999Z</time></trkpt><trkpt lat="42.35017649359743" lon="-7.919130272504846"><ele>138.33333333333331</ele><time>2026-03-24T21:04:50.999Z</time></trkpt><trkpt lat="42.35008266249362" lon="-7.919327883893437"><ele>139.66666666666666</ele><time>2026-03-24T21:04:51.999Z</time></trkpt><trkpt lat="42.34998700568927" lon="-7.919525791468816"><ele>141.0</ele><time>2026-03-24T21:04:52.999Z</time></trkpt><trkpt lat="42.34988918899815" lon="-7.919721594584338"><ele>141.0</ele><time>2026-03-24T21:04:53.999Z</time></trkpt><trkpt lat="42.349783393954695" lon="-7.9199234808692545"><ele>141.0</ele><time>2026-03-24T21:04:54.999Z</time></trkpt><trkpt lat="42.34968154762706" lon="-7.92012937142026"><ele>141.0</ele><time>2026-03-24T21:04:55.999Z</time></trkpt><trkpt lat="42.34958425562002" lon="-7.920345479188769"><ele>141.33333333333334</ele><time>2026-03-24T21:04:56.999Z</time></trkpt><trkpt lat="42.3494832864661" lon="-7.920578139341453"><ele>141.66666666666669</ele><time>2026-03-24T21:04:57.999Z</time></trkpt><trkpt lat="42.34940528832762" lon="-7.920799138391908"><ele>142.0</ele><time>2026-03-24T21:04:58.999Z</time></trkpt><trkpt lat="42.34932161359005" lon="-7.921025057883118"><ele>143.66666666666669</ele><time>2026-03-24T21:04:59.999Z</time></trkpt><trkpt lat="42.34924023802546" lon="-7.921244025745566"><ele>145.33333333333334</ele><time>2026-03-24T21:05:00.999Z</time></trkpt><trkpt lat="42.349158075993195" lon="-7.9214772462036205"><ele>147.0</ele><time>2026-03-24T21:05:01.999Z</time></trkpt><trkpt lat="42.349081457980624" lon="-7.921710340653021"><ele>148.33333333333334</ele><time>2026-03-24T21:05:02.999Z</time></trkpt><trkpt lat="42.34901221887435" lon="-7.921949418283431"><ele>149.66666666666669</ele><time>2026-03-24T21:05:03.999Z</time></trkpt><trkpt lat="42.34895060341069" lon="-7.922189376305821"><ele>151.0</ele><time>2026-03-24T21:05:04.999Z</time></trkpt><trkpt lat="42.348900477886374" lon="-7.9224375797520805"><ele>151.33333333333334</ele><time>2026-03-24T21:05:05.999Z</time></trkpt><trkpt lat="42.34886202376588" lon="-7.922691246574291"><ele>151.66666666666666</ele><time>2026-03-24T21:05:06.999Z</time></trkpt><trkpt lat="42.34883808670453" lon="-7.922945357043554"><ele>152.0</ele><time>2026-03-24T21:05:07.999Z</time></trkpt><trkpt lat="42.348825695158716" lon="-7.923199255090036"><ele>152.33333333333331</ele><time>2026-03-24T21:05:08.999Z</time></trkpt><trkpt lat="42.34882634652323" lon="-7.923458740215133"><ele>152.66666666666666</ele><time>2026-03-24T21:05:09.999Z</time></trkpt><trkpt lat="42.348835804136456" lon="-7.923720920400837"><ele>153.0</ele><time>2026-03-24T21:05:11Z</time></trkpt><trkpt lat="42.34885516951016" lon="-7.923977732557198"><ele>159.0</ele><time>2026-03-24T21:05:12Z</time></trkpt><trkpt lat="42.3488925367432" lon="-7.924229461211293"><ele>165.0</ele><time>2026-03-24T21:05:13Z</time></trkpt><trkpt lat="42.348939266564926" lon="-7.924481564192914"><ele>171.0</ele><time>2026-03-24T21:05:14Z</time></trkpt><trkpt lat="42.34898999667777" lon="-7.9247347449130725"><ele>171.0</ele><time>2026-03-24T21:05:15Z</time></trkpt><trkpt lat="42.34904557299089" lon="-7.924984285578008"><ele>171.0</ele><time>2026-03-24T21:05:16Z</time></trkpt><trkpt lat="42.349110891004976" lon="-7.925234165900653"><ele>171.0</ele><time>2026-03-24T21:05:17Z</time></trkpt><trkpt lat="42.349177314114435" lon="-7.925484280178664"><ele>167.0</ele><time>2026-03-24T21:05:18Z</time></trkpt><trkpt lat="42.349229517077184" lon="-7.925736621766609"><ele>163.0</ele><time>2026-03-24T21:05:19Z</time></trkpt><trkpt lat="42.34926430869053" lon="-7.92599735878605"><ele>159.0</ele><time>2026-03-24T21:05:20Z</time></trkpt><trkpt lat="42.349285723743456" lon="-7.926241599682669"><ele>158.0</ele><time>2026-03-24T21:05:21Z</time></trkpt><trkpt lat="42.349283726042096" lon="-7.9264799098621435"><ele>157.0</ele><time>2026-03-24T21:05:22Z</time></trkpt><trkpt lat="42.34926418959145" lon="-7.926709854971082"><ele>156.0</ele><time>2026-03-24T21:05:23Z</time></trkpt><trkpt lat="42.3492307449524" lon="-7.926939685876908"><ele>156.0</ele><time>2026-03-24T21:05:24Z</time></trkpt><trkpt lat="42.34917991920424" lon="-7.927163465377249"><ele>156.0</ele><time>2026-03-24T21:05:25Z</time></trkpt><trkpt lat="42.34911110428462" lon="-7.9273788282507995"><ele>156.0</ele><time>2026-03-24T21:05:26Z</time></trkpt><trkpt lat="42.34902483070731" lon="-7.927588204197725"><ele>156.33333333333334</ele><time>2026-03-24T21:05:27Z</time></trkpt><trkpt lat="42.34892291935423" lon="-7.927800951024102"><ele>156.66666666666669</ele><time>2026-03-24T21:05:28Z</time></trkpt><trkpt lat="42.34879917650723" lon="-7.927995304918233"><ele>157.0</ele><time>2026-03-24T21:05:29Z</time></trkpt><trkpt lat="42.34867312131133" lon="-7.928176987898213"><ele>157.0</ele><time>2026-03-24T21:05:30Z</time></trkpt><trkpt lat="42.34853168860751" lon="-7.928369459614886"><ele>157.0</ele><time>2026-03-24T21:05:31Z</time></trkpt><trkpt lat="42.34839132968841" lon="-7.928546162256396"><ele>157.0</ele><time>2026-03-24T21:05:32Z</time></trkpt><trkpt lat="42.3482387353108" lon="-7.928719557551992"><ele>157.0</ele><time>2026-03-24T21:05:33Z</time></trkpt><trkpt lat="42.34808280023317" lon="-7.928894335829618"><ele>157.0</ele><time>2026-03-24T21:05:34Z</time></trkpt><trkpt lat="42.34791730082568" lon="-7.929061063177772"><ele>157.0</ele><time>2026-03-24T21:05:35Z</time></trkpt><trkpt lat="42.347747160118665" lon="-7.929227402494974"><ele>160.33333333333334</ele><time>2026-03-24T21:05:36Z</time></trkpt><trkpt lat="42.34757588690994" lon="-7.92939625223317"><ele>163.66666666666666</ele><time>2026-03-24T21:05:37Z</time></trkpt><trkpt lat="42.347407280152254" lon="-7.929570673418648"><ele>167.0</ele><time>2026-03-24T21:05:38Z</time></trkpt><trkpt lat="42.34724017284163" lon="-7.929748673535827"><ele>166.66666666666666</ele><time>2026-03-24T21:05:39Z</time></trkpt><trkpt lat="42.347082541704225" lon="-7.929934462568947"><ele>166.33333333333334</ele><time>2026-03-24T21:05:40Z</time></trkpt><trkpt lat="42.34694376402023" lon="-7.930114905194817"><ele>166.0</ele><time>2026-03-24T21:05:41Z</time></trkpt><trkpt lat="42.34682323647863" lon="-7.93029474804636"><ele>165.33333333333334</ele><time>2026-03-24T21:05:42Z</time></trkpt><trkpt lat="42.34671366224366" lon="-7.93047731023696"><ele>164.66666666666666</ele><time>2026-03-24T21:05:43Z</time></trkpt><trkpt lat="42.346616930491074" lon="-7.930669479910851"><ele>164.0</ele><time>2026-03-24T21:05:44Z</time></trkpt><trkpt lat="42.34653342610519" lon="-7.930863463628783"><ele>166.0</ele><time>2026-03-24T21:05:45Z</time></trkpt><trkpt lat="42.34646367538178" lon="-7.93105157343917"><ele>168.0</ele><time>2026-03-24T21:05:46Z</time></trkpt><trkpt lat="42.34639082547017" lon="-7.931250130081183"><ele>170.0</ele><time>2026-03-24T21:05:47Z</time></trkpt><trkpt lat="42.34631141543888" lon="-7.931454242184451"><ele>166.0</ele><time>2026-03-24T21:05:48Z</time></trkpt><trkpt lat="42.34623089243784" lon="-7.931670423321785"><ele>162.0</ele><time>2026-03-24T21:05:49Z</time></trkpt><trkpt lat="42.3461430461057" lon="-7.9318870731988955"><ele>158.0</ele><time>2026-03-24T21:05:50Z</time></trkpt><trkpt lat="42.346059666913554" lon="-7.932112988650174"><ele>158.0</ele><time>2026-03-24T21:05:51Z</time></trkpt><trkpt lat="42.34596917336601" lon="-7.9323358202660295"><ele>158.0</ele><time>2026-03-24T21:05:52Z</time></trkpt><trkpt lat="42.34587827228747" lon="-7.932568991917842"><ele>158.0</ele><time>2026-03-24T21:05:53Z</time></trkpt><trkpt lat="42.345785764113195" lon="-7.932799664290001"><ele>157.66666666666666</ele><time>2026-03-24T21:05:54Z</time></trkpt><trkpt lat="42.34568464953367" lon="-7.9330327896699"><ele>157.33333333333334</ele><time>2026-03-24T21:05:55Z</time></trkpt><trkpt lat="42.34557041783078" lon="-7.933256145032795"><ele>157.0</ele><time>2026-03-24T21:05:56Z</time></trkpt><trkpt lat="42.345438028488786" lon="-7.933477020579159"><ele>157.0</ele><time>2026-03-24T21:05:57Z</time></trkpt><trkpt lat="42.345275891392824" lon="-7.933675973865016"><ele>157.0</ele><time>2026-03-24T21:05:58Z</time></trkpt><trkpt lat="42.34509960697084" lon="-7.933855041206991"><ele>157.0</ele><time>2026-03-24T21:05:59Z</time></trkpt><trkpt lat="42.34493227656166" lon="-7.9340196077133145"><ele>157.0</ele><time>2026-03-24T21:06:00Z</time></trkpt><trkpt lat="42.34478078205776" lon="-7.934189541845356"><ele>157.0</ele><time>2026-03-24T21:06:01Z</time></trkpt><trkpt lat="42.344638010280185" lon="-7.934375156348409"><ele>157.0</ele><time>2026-03-24T21:06:02Z</time></trkpt><trkpt lat="42.344510801062036" lon="-7.934581325440806"><ele>157.66666666666669</ele><time>2026-03-24T21:06:03Z</time></trkpt><trkpt lat="42.3443996050727" lon="-7.934819956856935"><ele>158.33333333333334</ele><time>2026-03-24T21:06:04Z</time></trkpt><trkpt lat="42.34429544479754" lon="-7.935085449803357"><ele>159.0</ele><time>2026-03-24T21:06:05Z</time></trkpt><trkpt lat="42.344183278324685" lon="-7.935344100575296"><ele>159.0</ele><time>2026-03-24T21:06:06Z</time></trkpt><trkpt lat="42.34405807267768" lon="-7.935605507537699"><ele>159.0</ele><time>2026-03-24T21:06:07Z</time></trkpt><trkpt lat="42.34390863671509" lon="-7.935847007814062"><ele>153.0</ele><time>2026-03-24T21:06:08Z</time></trkpt><trkpt lat="42.3437405745644" lon="-7.936071823214684"><ele>147.0</ele><time>2026-03-24T21:06:09Z</time></trkpt><trkpt lat="42.343566380488305" lon="-7.936283626625351"><ele>147.0</ele><time>2026-03-24T21:06:10Z</time></trkpt><trkpt lat="42.343399422320424" lon="-7.9364926200007995"><ele>147.0</ele><time>2026-03-24T21:06:11Z</time></trkpt><trkpt lat="42.3432517257478" lon="-7.936695997194775"><ele>147.0</ele><time>2026-03-24T21:06:12Z</time></trkpt><trkpt lat="42.343120744515524" lon="-7.936905614358684"><ele>145.0</ele><time>2026-03-24T21:06:13Z</time></trkpt><trkpt lat="42.34300502489388" lon="-7.937137888644035"><ele>143.0</ele><time>2026-03-24T21:06:14Z</time></trkpt><trkpt lat="42.34290765405954" lon="-7.937400345491666"><ele>141.0</ele><time>2026-03-24T21:06:15Z</time></trkpt><trkpt lat="42.342826179583696" lon="-7.937685687931372"><ele>141.0</ele><time>2026-03-24T21:06:16Z</time></trkpt><trkpt lat="42.34275573282412" lon="-7.937974753158491"><ele>141.0</ele><time>2026-03-24T21:06:17Z</time></trkpt><trkpt lat="42.342684807091" lon="-7.938261320920507"><ele>141.0</ele><time>2026-03-24T21:06:18Z</time></trkpt><trkpt lat="42.3426140211048" lon="-7.938547088043911"><ele>142.33333333333334</ele><time>2026-03-24T21:06:19Z</time></trkpt><trkpt lat="42.34253737473387" lon="-7.938837230857651"><ele>143.66666666666669</ele><time>2026-03-24T21:06:20Z</time></trkpt><trkpt lat="42.34246748998685" lon="-7.939106229548302"><ele>145.0</ele><time>2026-03-24T21:06:21Z</time></trkpt><trkpt lat="42.342402540042606" lon="-7.939355490537223"><ele>145.0</ele><time>2026-03-24T21:06:22Z</time></trkpt><trkpt lat="42.3423405515889" lon="-7.939591541705897"><ele>145.0</ele><time>2026-03-24T21:06:22.999Z</time></trkpt><trkpt lat="42.34230695275844" lon="-7.93983278831296"><ele>145.0</ele><time>2026-03-24T21:06:23.999Z</time></trkpt><trkpt lat="42.34224988479368" lon="-7.940068540064329"><ele>140.66666666666669</ele><time>2026-03-24T21:06:24.999Z</time></trkpt><trkpt lat="42.34219259208145" lon="-7.94031052003725"><ele>136.33333333333334</ele><time>2026-03-24T21:06:25.999Z</time></trkpt><trkpt lat="42.34214757130486" lon="-7.940564272384127"><ele>132.0</ele><time>2026-03-24T21:06:26.999Z</time></trkpt><trkpt lat="42.34211238464556" lon="-7.94081751828762"><ele>132.33333333333334</ele><time>2026-03-24T21:06:27.999Z</time></trkpt><trkpt lat="42.34209918533264" lon="-7.941078421435799"><ele>132.66666666666669</ele><time>2026-03-24T21:06:28.999Z</time></trkpt><trkpt lat="42.342092989031265" lon="-7.941341822488312"><ele>133.0</ele><time>2026-03-24T21:06:29.999Z</time></trkpt><trkpt lat="42.342102288106055" lon="-7.941588372565412"><ele>132.0</ele><time>2026-03-24T21:06:30.999Z</time></trkpt><trkpt lat="42.34211408045169" lon="-7.941811697741664"><ele>131.0</ele><time>2026-03-24T21:06:31.999Z</time></trkpt><trkpt lat="42.34212490489455" lon="-7.942032461685418"><ele>130.0</ele><time>2026-03-24T21:06:32.999Z</time></trkpt><trkpt lat="42.34213973957757" lon="-7.942262776165017"><ele>130.0</ele><time>2026-03-24T21:06:33.999Z</time></trkpt><trkpt lat="42.342154432354434" lon="-7.942486302008555"><ele>130.0</ele><time>2026-03-24T21:06:34.999Z</time></trkpt><trkpt lat="42.342167578464206" lon="-7.9426994058900435"><ele>130.0</ele><time>2026-03-24T21:06:35.999Z</time></trkpt><trkpt lat="42.34217386255172" lon="-7.942890123020272"><ele>130.0</ele><time>2026-03-24T21:06:36.999Z</time></trkpt><trkpt lat="42.34217516343735" lon="-7.943043424527733"><ele>130.0</ele><time>2026-03-24T21:06:37.999Z</time></trkpt><trkpt lat="42.34218087898849" lon="-7.9431722548853125"><ele>130.0</ele><time>2026-03-24T21:06:38.999Z</time></trkpt><trkpt lat="42.34216704503171" lon="-7.943282680409421"><ele>130.0</ele><time>2026-03-24T21:06:39.999Z</time></trkpt><trkpt lat="42.342152201207405" lon="-7.94337555666529"><ele>130.0</ele><time>2026-03-24T21:06:40.999Z</time></trkpt><trkpt lat="42.34213811273737" lon="-7.943461178276881"><ele>130.0</ele><time>2026-03-24T21:06:41.999Z</time></trkpt><trkpt lat="42.34213108010853" lon="-7.943559793844473"><ele>131.0</ele><time>2026-03-24T21:06:43.999Z</time></trkpt><trkpt lat="42.342138804687885" lon="-7.943677558652857"><ele>132.0</ele><time>2026-03-24T21:08:06Z</time></trkpt><trkpt lat="42.34212508975167" lon="-7.94378569517247"><ele>133.0</ele><time>2026-03-24T21:08:07Z</time></trkpt><trkpt lat="42.34208485511897" lon="-7.943902669481107"><ele>134.0</ele><time>2026-03-24T21:08:08Z</time></trkpt><trkpt lat="42.34204813803779" lon="-7.94406742496598"><ele>135.0</ele><time>2026-03-24T21:08:09Z</time></trkpt><trkpt lat="42.342032684526096" lon="-7.944213082821018"><ele>135.75</ele><time>2026-03-24T21:08:10Z</time></trkpt><trkpt lat="42.3420200198027" lon="-7.944378789336477"><ele>136.5</ele><time>2026-03-24T21:08:11Z</time></trkpt><trkpt lat="42.3420024508739" lon="-7.944552610612246"><ele>137.25</ele><time>2026-03-24T21:08:12Z</time></trkpt><trkpt lat="42.34199548278838" lon="-7.944737275037382"><ele>138.0</ele><time>2026-03-24T21:08:13Z</time></trkpt><trkpt lat="42.34199092470695" lon="-7.9449244025243475"><ele>138.25</ele><time>2026-03-24T21:08:14Z</time></trkpt><trkpt lat="42.3419997473703" lon="-7.945131872823732"><ele>138.5</ele><time>2026-03-24T21:08:15Z</time></trkpt><trkpt lat="42.34200846468195" lon="-7.945320664735226"><ele>138.75</ele><time>2026-03-24T21:08:16Z</time></trkpt><trkpt lat="42.34201557994462" lon="-7.945515614444091"><ele>139.0</ele><time>2026-03-24T21:08:17Z</time></trkpt><trkpt lat="42.34202735979545" lon="-7.945728732908048"><ele>138.66666666666669</ele><time>2026-03-24T21:08:18Z</time></trkpt><trkpt lat="42.34204521152424" lon="-7.945940562253333"><ele>138.33333333333334</ele><time>2026-03-24T21:08:19Z</time></trkpt><trkpt lat="42.342061590300666" lon="-7.9461548505026105"><ele>138.0</ele><time>2026-03-24T21:08:20Z</time></trkpt><trkpt lat="42.34207460911993" lon="-7.946373120683299"><ele>138.0</ele><time>2026-03-24T21:08:21Z</time></trkpt><trkpt lat="42.34208812934487" lon="-7.946591264762449"><ele>138.0</ele><time>2026-03-24T21:08:22Z</time></trkpt><trkpt lat="42.34208727695697" lon="-7.946829534980329"><ele>138.0</ele><time>2026-03-24T21:08:23Z</time></trkpt><trkpt lat="42.34207501949748" lon="-7.94706130281139"><ele>139.66666666666666</ele><time>2026-03-24T21:08:24Z</time></trkpt><trkpt lat="42.342042248122176" lon="-7.947310476537565"><ele>141.33333333333331</ele><time>2026-03-24T21:08:25Z</time></trkpt><trkpt lat="42.34199777645436" lon="-7.947547502400176"><ele>143.0</ele><time>2026-03-24T21:08:26Z</time></trkpt><trkpt lat="42.34194093263901" lon="-7.947776602086056"><ele>145.33333333333331</ele><time>2026-03-24T21:08:27Z</time></trkpt><trkpt lat="42.34186781218539" lon="-7.94800747738955"><ele>147.66666666666666</ele><time>2026-03-24T21:08:28Z</time></trkpt><trkpt lat="42.341797814129876" lon="-7.948245544329944"><ele>150.0</ele><time>2026-03-24T21:08:29Z</time></trkpt><trkpt lat="42.34173176141586" lon="-7.948477723559057"><ele>151.0</ele><time>2026-03-24T21:08:30Z</time></trkpt><trkpt lat="42.34166088984973" lon="-7.948711534261412"><ele>152.0</ele><time>2026-03-24T21:08:31Z</time></trkpt><trkpt lat="42.34158029016081" lon="-7.94895091441301"><ele>153.0</ele><time>2026-03-24T21:08:32Z</time></trkpt><trkpt lat="42.34151814517001" lon="-7.949184665320562"><ele>154.33333333333334</ele><time>2026-03-24T21:08:33Z</time></trkpt><trkpt lat="42.34146237587507" lon="-7.949431175939639"><ele>155.66666666666669</ele><time>2026-03-24T21:08:34Z</time></trkpt><trkpt lat="42.341409300593185" lon="-7.949683228658375"><ele>157.0</ele><time>2026-03-24T21:08:35Z</time></trkpt><trkpt lat="42.34134093496924" lon="-7.949937430094938"><ele>154.66666666666669</ele><time>2026-03-24T21:08:36Z</time></trkpt><trkpt lat="42.341286838247036" lon="-7.950197861322934"><ele>152.33333333333334</ele><time>2026-03-24T21:08:37Z</time></trkpt><trkpt lat="42.34120950969358" lon="-7.950446410346477"><ele>150.0</ele><time>2026-03-24T21:08:38Z</time></trkpt><trkpt lat="42.34114696181038" lon="-7.950702044648859"><ele>151.0</ele><time>2026-03-24T21:08:38.999Z</time></trkpt><trkpt lat="42.341083981517265" lon="-7.950962424957991"><ele>152.0</ele><time>2026-03-24T21:08:39.999Z</time></trkpt><trkpt lat="42.341031767774496" lon="-7.95122389384929"><ele>153.0</ele><time>2026-03-24T21:08:40.999Z</time></trkpt><trkpt lat="42.34096863835288" lon="-7.951462535735534"><ele>154.33333333333334</ele><time>2026-03-24T21:08:41.999Z</time></trkpt><trkpt lat="42.34089860581707" lon="-7.951746457949828"><ele>155.66666666666669</ele><time>2026-03-24T21:08:42.999Z</time></trkpt><trkpt lat="42.34083590078334" lon="-7.9520175199651115"><ele>157.0</ele><time>2026-03-24T21:08:43.999Z</time></trkpt><trkpt lat="42.34077286787686" lon="-7.952273883358478"><ele>157.0</ele><time>2026-03-24T21:08:44.999Z</time></trkpt><trkpt lat="42.340717513189944" lon="-7.952537589396242"><ele>157.0</ele><time>2026-03-24T21:08:45.999Z</time></trkpt><trkpt lat="42.340677240252646" lon="-7.952807657762725"><ele>157.0</ele><time>2026-03-24T21:08:46.999Z</time></trkpt><trkpt lat="42.3406407836147" lon="-7.95306884399033"><ele>157.0</ele><time>2026-03-24T21:08:47.999Z</time></trkpt><trkpt lat="42.3406126771039" lon="-7.953307023013105"><ele>157.0</ele><time>2026-03-24T21:08:48.999Z</time></trkpt><trkpt lat="42.3405596407689" lon="-7.953583922630951"><ele>157.0</ele><time>2026-03-24T21:08:49.999Z</time></trkpt><trkpt lat="42.340514114983705" lon="-7.953874633318308"><ele>153.0</ele><time>2026-03-24T21:08:50.999Z</time></trkpt><trkpt lat="42.34047826801029" lon="-7.954152269735278"><ele>149.0</ele><time>2026-03-24T21:08:51.999Z</time></trkpt><trkpt lat="42.340440929217046" lon="-7.9544445998093085"><ele>145.0</ele><time>2026-03-24T21:08:52.999Z</time></trkpt><trkpt lat="42.34041611201029" lon="-7.954737724184689"><ele>144.5</ele><time>2026-03-24T21:08:53.999Z</time></trkpt><trkpt lat="42.340384802655656" lon="-7.955045957323555"><ele>144.0</ele><time>2026-03-24T21:08:54.999Z</time></trkpt><trkpt lat="42.34034310880896" lon="-7.955363357886813"><ele>144.0</ele><time>2026-03-24T21:08:55.999Z</time></trkpt><trkpt lat="42.3403229374625" lon="-7.955675203152163"><ele>144.0</ele><time>2026-03-24T21:08:56.999Z</time></trkpt><trkpt lat="42.3402905340346" lon="-7.956003128520462"><ele>145.0</ele><time>2026-03-24T21:08:57.999Z</time></trkpt><trkpt lat="42.34025952682676" lon="-7.956327310676555"><ele>146.0</ele><time>2026-03-24T21:08:58.999Z</time></trkpt><trkpt lat="42.340229701600286" lon="-7.956648799620637"><ele>146.0</ele><time>2026-03-24T21:08:59.999Z</time></trkpt><trkpt lat="42.34020158295105" lon="-7.956971615326219"><ele>146.0</ele><time>2026-03-24T21:09:00.999Z</time></trkpt><trkpt lat="42.34018132789214" lon="-7.957313374196484"><ele>146.0</ele><time>2026-03-24T21:09:01.999Z</time></trkpt><trkpt lat="42.340175325907566" lon="-7.957649698970965"><ele>146.0</ele><time>2026-03-24T21:09:02.999Z</time></trkpt><trkpt lat="42.34016296873238" lon="-7.957985923126341"><ele>146.0</ele><time>2026-03-24T21:09:03.999Z</time></trkpt><trkpt lat="42.340147947003395" lon="-7.958314217971918"><ele>146.0</ele><time>2026-03-24T21:09:04.999Z</time></trkpt><trkpt lat="42.34011899629445" lon="-7.958642641022694"><ele>146.0</ele><time>2026-03-24T21:09:05.999Z</time></trkpt><trkpt lat="42.34009094860015" lon="-7.9589682675786735"><ele>146.0</ele><time>2026-03-24T21:09:06.999Z</time></trkpt><trkpt lat="42.34006439466603" lon="-7.959275104531727"><ele>147.5</ele><time>2026-03-24T21:09:07.999Z</time></trkpt><trkpt lat="42.340049913978824" lon="-7.959588555689344"><ele>149.0</ele><time>2026-03-24T21:09:08.999Z</time></trkpt><trkpt lat="42.340057687385176" lon="-7.959910626716773"><ele>145.5</ele><time>2026-03-24T21:09:09.999Z</time></trkpt><trkpt lat="42.3401093933371" lon="-7.96024268428473"><ele>142.0</ele><time>2026-03-24T21:09:10.999Z</time></trkpt><trkpt lat="42.340171589938244" lon="-7.960541330534451"><ele>142.0</ele><time>2026-03-24T21:09:11.999Z</time></trkpt><trkpt lat="42.34024328538548" lon="-7.960834962843291"><ele>142.0</ele><time>2026-03-24T21:09:12.999Z</time></trkpt><trkpt lat="42.340310157444144" lon="-7.961120142132102"><ele>141.33333333333334</ele><time>2026-03-24T21:09:13.999Z</time></trkpt><trkpt lat="42.3403784370634" lon="-7.961389722124881"><ele>140.66666666666666</ele><time>2026-03-24T21:09:14.999Z</time></trkpt><trkpt lat="42.34041836108705" lon="-7.96162414099884"><ele>140.0</ele><time>2026-03-24T21:09:15.999Z</time></trkpt><trkpt lat="42.340467784322016" lon="-7.9618676080021125"><ele>140.0</ele><time>2026-03-24T21:09:16.999Z</time></trkpt><trkpt lat="42.34050893756555" lon="-7.962105302224229"><ele>140.0</ele><time>2026-03-24T21:09:17.999Z</time></trkpt><trkpt lat="42.3405547439271" lon="-7.962326137697646"><ele>140.0</ele><time>2026-03-24T21:09:18.999Z</time></trkpt><trkpt lat="42.340594891548875" lon="-7.962543955061586"><ele>148.66666666666666</ele><time>2026-03-24T21:09:19.999Z</time></trkpt><trkpt lat="42.34063029787152" lon="-7.962759024205054"><ele>157.33333333333334</ele><time>2026-03-24T21:09:20.999Z</time></trkpt><trkpt lat="42.34066188227608" lon="-7.96297574566594"><ele>166.0</ele><time>2026-03-24T21:09:21.999Z</time></trkpt><trkpt lat="42.340688603278494" lon="-7.963180050184881"><ele>165.0</ele><time>2026-03-24T21:09:23.001Z</time></trkpt><trkpt lat="42.340712601700055" lon="-7.963382702610661"><ele>164.0</ele><time>2026-03-24T21:09:24.001Z</time></trkpt><trkpt lat="42.34073903434381" lon="-7.963592918850183"><ele>163.0</ele><time>2026-03-24T21:09:25.001Z</time></trkpt><trkpt lat="42.340762702062804" lon="-7.963810174921893"><ele>163.0</ele><time>2026-03-24T21:09:26.001Z</time></trkpt><trkpt lat="42.34077718231482" lon="-7.964029922787502"><ele>163.0</ele><time>2026-03-24T21:09:27.001Z</time></trkpt><trkpt lat="42.34078059612793" lon="-7.964251079554123"><ele>163.0</ele><time>2026-03-24T21:09:28.001Z</time></trkpt><trkpt lat="42.34075925698856" lon="-7.964477151107366"><ele>167.0</ele><time>2026-03-24T21:09:29.001Z</time></trkpt><trkpt lat="42.34071665006263" lon="-7.964697172565272"><ele>171.0</ele><time>2026-03-24T21:09:30.001Z</time></trkpt><trkpt lat="42.34065798085288" lon="-7.964891637588749"><ele>175.0</ele><time>2026-03-24T21:09:31.001Z</time></trkpt><trkpt lat="42.340589780394" lon="-7.965061264144551"><ele>169.0</ele><time>2026-03-24T21:09:32.001Z</time></trkpt><trkpt lat="42.34051881163718" lon="-7.965235385551235"><ele>163.0</ele><time>2026-03-24T21:09:33Z</time></trkpt><trkpt lat="42.34045250428471" lon="-7.965407550753179"><ele>157.0</ele><time>2026-03-24T21:09:34Z</time></trkpt><trkpt lat="42.34039825327972" lon="-7.965581798834993"><ele>151.0</ele><time>2026-03-24T21:09:35Z</time></trkpt><trkpt lat="42.34036233340521" lon="-7.9657668246476465"><ele>151.25</ele><time>2026-03-24T21:09:36Z</time></trkpt><trkpt lat="42.340345054256225" lon="-7.965966859538672"><ele>151.5</ele><time>2026-03-24T21:09:37Z</time></trkpt><trkpt lat="42.34035281266913" lon="-7.966173521177812"><ele>151.75</ele><time>2026-03-24T21:09:38Z</time></trkpt><trkpt lat="42.34036587433324" lon="-7.96636804848499"><ele>152.0</ele><time>2026-03-24T21:09:39Z</time></trkpt><trkpt lat="42.34039137556288" lon="-7.966550590775372"><ele>152.75</ele><time>2026-03-24T21:09:40Z</time></trkpt><trkpt lat="42.340412171610716" lon="-7.96674782902271"><ele>153.5</ele><time>2026-03-24T21:09:41Z</time></trkpt><trkpt lat="42.34044205557445" lon="-7.966926700821708"><ele>154.25</ele><time>2026-03-24T21:09:42Z</time></trkpt><trkpt lat="42.34047419606136" lon="-7.967111003331361"><ele>155.0</ele><time>2026-03-24T21:09:43Z</time></trkpt><trkpt lat="42.34050719652181" lon="-7.967292249986719"><ele>155.0</ele><time>2026-03-24T21:09:44Z</time></trkpt><trkpt lat="42.34053465708922" lon="-7.967485261882671"><ele>155.0</ele><time>2026-03-24T21:09:45Z</time></trkpt><trkpt lat="42.340574047671225" lon="-7.967681921488763"><ele>155.0</ele><time>2026-03-24T21:09:46Z</time></trkpt><trkpt lat="42.34062452035943" lon="-7.967852425717237"><ele>155.0</ele><time>2026-03-24T21:09:47Z</time></trkpt><trkpt lat="42.34068569791722" lon="-7.9680229878002695"><ele>157.25</ele><time>2026-03-24T21:09:48Z</time></trkpt><trkpt lat="42.34075749936427" lon="-7.968192673427543"><ele>159.5</ele><time>2026-03-24T21:09:49Z</time></trkpt><trkpt lat="42.340841835935386" lon="-7.968355228367971"><ele>161.75</ele><time>2026-03-24T21:09:50Z</time></trkpt><trkpt lat="42.34093223882457" lon="-7.968508888119409"><ele>164.0</ele><time>2026-03-24T21:09:51Z</time></trkpt><trkpt lat="42.341021289936876" lon="-7.9686465036724465"><ele>164.0</ele><time>2026-03-24T21:09:52Z</time></trkpt><trkpt lat="42.34111870171138" lon="-7.968784030262164"><ele>164.0</ele><time>2026-03-24T21:09:53Z</time></trkpt><trkpt lat="42.34122465344692" lon="-7.968923347445327"><ele>164.0</ele><time>2026-03-24T21:09:54Z</time></trkpt><trkpt lat="42.341330479478856" lon="-7.969058903320424"><ele>164.0</ele><time>2026-03-24T21:09:55Z</time></trkpt><trkpt lat="42.34144023277681" lon="-7.969201510423818"><ele>161.75</ele><time>2026-03-24T21:09:56Z</time></trkpt><trkpt lat="42.341523115113155" lon="-7.969351178414788"><ele>159.5</ele><time>2026-03-24T21:09:57Z</time></trkpt><trkpt lat="42.34160971510489" lon="-7.96952161381851"><ele>157.25</ele><time>2026-03-24T21:09:58Z</time></trkpt><trkpt lat="42.34168286390201" lon="-7.969696633340097"><ele>155.0</ele><time>2026-03-24T21:09:59Z</time></trkpt><trkpt lat="42.34174669758243" lon="-7.969873301692107"><ele>153.66666666666666</ele><time>2026-03-24T21:10:00Z</time></trkpt><trkpt lat="42.34178484397634" lon="-7.97006201308082"><ele>152.33333333333334</ele><time>2026-03-24T21:10:01Z</time></trkpt><trkpt lat="42.34182677441059" lon="-7.970270442361769"><ele>151.0</ele><time>2026-03-24T21:10:02Z</time></trkpt><trkpt lat="42.34185262230561" lon="-7.970481790292331"><ele>151.0</ele><time>2026-03-24T21:10:03Z</time></trkpt><trkpt lat="42.34185976598456" lon="-7.97069110794669"><ele>151.0</ele><time>2026-03-24T21:10:04Z</time></trkpt><trkpt lat="42.34185195777922" lon="-7.970893780776224"><ele>151.0</ele><time>2026-03-24T21:10:05Z</time></trkpt><trkpt lat="42.341830469758165" lon="-7.971081904301157"><ele>151.0</ele><time>2026-03-24T21:10:06Z</time></trkpt><trkpt lat="42.34180167443542" lon="-7.971270495469973"><ele>151.75</ele><time>2026-03-24T21:10:07Z</time></trkpt><trkpt lat="42.341765493071605" lon="-7.971438950972465"><ele>152.5</ele><time>2026-03-24T21:10:08Z</time></trkpt><trkpt lat="42.34171958622835" lon="-7.971604109743056"><ele>153.25</ele><time>2026-03-24T21:10:09Z</time></trkpt><trkpt lat="42.34165938389115" lon="-7.971774313129905"><ele>154.0</ele><time>2026-03-24T21:10:10Z</time></trkpt><trkpt lat="42.3415846225799" lon="-7.971937319066373"><ele>156.5</ele><time>2026-03-24T21:10:11Z</time></trkpt><trkpt lat="42.341500552237484" lon="-7.97207483618945"><ele>159.0</ele><time>2026-03-24T21:10:12Z</time></trkpt><trkpt lat="42.3414346252636" lon="-7.972219694968456"><ele>161.5</ele><time>2026-03-24T21:10:13Z</time></trkpt><trkpt lat="42.34135685775261" lon="-7.972362617466001"><ele>164.0</ele><time>2026-03-24T21:10:14Z</time></trkpt><trkpt lat="42.34127348768579" lon="-7.972511566365241"><ele>162.25</ele><time>2026-03-24T21:10:15Z</time></trkpt><trkpt lat="42.34119909983778" lon="-7.972644991976306"><ele>160.5</ele><time>2026-03-24T21:10:16Z</time></trkpt><trkpt lat="42.34111108557363" lon="-7.972795783508388"><ele>158.75</ele><time>2026-03-24T21:10:17Z</time></trkpt><trkpt lat="42.34102911334842" lon="-7.972933428099836"><ele>157.0</ele><time>2026-03-24T21:10:18Z</time></trkpt><trkpt lat="42.34095069261885" lon="-7.973098706176391"><ele>157.0</ele><time>2026-03-24T21:10:19Z</time></trkpt><trkpt lat="42.34088530754934" lon="-7.9732652846560645"><ele>157.0</ele><time>2026-03-24T21:10:20Z</time></trkpt><trkpt lat="42.34082707331804" lon="-7.973440930828958"><ele>157.0</ele><time>2026-03-24T21:10:21Z</time></trkpt><trkpt lat="42.34077616603674" lon="-7.973627996287639"><ele>157.0</ele><time>2026-03-24T21:10:22Z</time></trkpt><trkpt lat="42.34074083028423" lon="-7.9738225417023765"><ele>156.5</ele><time>2026-03-24T21:10:23Z</time></trkpt><trkpt lat="42.340719766471764" lon="-7.974016429840963"><ele>156.0</ele><time>2026-03-24T21:10:24Z</time></trkpt><trkpt lat="42.34071141876567" lon="-7.974205751181014"><ele>155.5</ele><time>2026-03-24T21:10:25Z</time></trkpt><trkpt lat="42.34072562717054" lon="-7.974410908148137"><ele>155.0</ele><time>2026-03-24T21:10:26Z</time></trkpt><trkpt lat="42.34075891582851" lon="-7.974606482545976"><ele>152.66666666666666</ele><time>2026-03-24T21:10:27Z</time></trkpt><trkpt lat="42.340814898445316" lon="-7.9748044310347"><ele>150.33333333333334</ele><time>2026-03-24T21:10:28Z</time></trkpt><trkpt lat="42.340886218284886" lon="-7.974993170507939"><ele>148.0</ele><time>2026-03-24T21:10:29Z</time></trkpt><trkpt lat="42.340961175285166" lon="-7.975154035224473"><ele>145.66666666666669</ele><time>2026-03-24T21:10:30Z</time></trkpt><trkpt lat="42.341046101463235" lon="-7.975317359802674"><ele>143.33333333333334</ele><time>2026-03-24T21:10:31Z</time></trkpt><trkpt lat="42.341151510004266" lon="-7.975468632077917"><ele>141.0</ele><time>2026-03-24T21:10:32Z</time></trkpt><trkpt lat="42.34127226600137" lon="-7.975613821058399"><ele>142.66666666666666</ele><time>2026-03-24T21:10:33Z</time></trkpt><trkpt lat="42.341405516284816" lon="-7.975742817213909"><ele>144.33333333333331</ele><time>2026-03-24T21:10:34Z</time></trkpt><trkpt lat="42.34153686904383" lon="-7.975878521658716"><ele>146.0</ele><time>2026-03-24T21:10:35Z</time></trkpt><trkpt lat="42.34167797292115" lon="-7.976007575209012"><ele>140.0</ele><time>2026-03-24T21:10:36Z</time></trkpt><trkpt lat="42.341814898202294" lon="-7.976136756580616"><ele>134.0</ele><time>2026-03-24T21:10:37Z</time></trkpt><trkpt lat="42.34195058394149" lon="-7.976234983247498"><ele>128.0</ele><time>2026-03-24T21:10:38Z</time></trkpt><trkpt lat="42.342084428049006" lon="-7.9763417610854646"><ele>130.0</ele><time>2026-03-24T21:10:39Z</time></trkpt><trkpt lat="42.34221715180137" lon="-7.976433959682802"><ele>132.0</ele><time>2026-03-24T21:10:40Z</time></trkpt><trkpt lat="42.342346053043485" lon="-7.976535111096121"><ele>134.0</ele><time>2026-03-24T21:10:40.999Z</time></trkpt><trkpt lat="42.34247541325984" lon="-7.976620314572607"><ele>136.0</ele><time>2026-03-24T21:10:41.999Z</time></trkpt><trkpt lat="42.34259495435616" lon="-7.9767136087362775"><ele>133.0</ele><time>2026-03-24T21:10:42.999Z</time></trkpt><trkpt lat="42.342712270563254" lon="-7.976834055154482"><ele>130.0</ele><time>2026-03-24T21:10:43.999Z</time></trkpt><trkpt lat="42.34283565188341" lon="-7.976950405676083"><ele>127.0</ele><time>2026-03-24T21:10:44.999Z</time></trkpt><trkpt lat="42.34294841533066" lon="-7.977082541747188"><ele>124.0</ele><time>2026-03-24T21:10:45.999Z</time></trkpt><trkpt lat="42.343057544510344" lon="-7.977241448490288"><ele>124.0</ele><time>2026-03-24T21:10:46.999Z</time></trkpt><trkpt lat="42.343146419919485" lon="-7.977388120911699"><ele>124.0</ele><time>2026-03-24T21:10:47.999Z</time></trkpt><trkpt lat="42.3432240221587" lon="-7.977555722206043"><ele>124.0</ele><time>2026-03-24T21:10:48.999Z</time></trkpt><trkpt lat="42.34327775678033" lon="-7.97774078552135"><ele>124.0</ele><time>2026-03-24T21:10:49.999Z</time></trkpt><trkpt lat="42.34331543626471" lon="-7.977920847618439"><ele>124.75</ele><time>2026-03-24T21:10:50.999Z</time></trkpt><trkpt lat="42.34334497753876" lon="-7.9781130843616825"><ele>125.5</ele><time>2026-03-24T21:10:51.999Z</time></trkpt><trkpt lat="42.343344319402014" lon="-7.978292720485818"><ele>126.25</ele><time>2026-03-24T21:10:52.999Z</time></trkpt><trkpt lat="42.34335003017858" lon="-7.978467747158537"><ele>127.0</ele><time>2026-03-24T21:10:53.999Z</time></trkpt><trkpt lat="42.34333926976885" lon="-7.978653211760319"><ele>128.75</ele><time>2026-03-24T21:10:54.999Z</time></trkpt><trkpt lat="42.343311073818604" lon="-7.97883619714676"><ele>130.5</ele><time>2026-03-24T21:10:55.999Z</time></trkpt><trkpt lat="42.34327344391636" lon="-7.979004424871724"><ele>132.25</ele><time>2026-03-24T21:10:56.999Z</time></trkpt><trkpt lat="42.34322658762152" lon="-7.979170983841107"><ele>134.0</ele><time>2026-03-24T21:10:57.999Z</time></trkpt><trkpt lat="42.343182968952405" lon="-7.9793417013312675"><ele>135.25</ele><time>2026-03-24T21:10:58.999Z</time></trkpt><trkpt lat="42.34313562991355" lon="-7.979516138650513"><ele>136.5</ele><time>2026-03-24T21:10:59.999Z</time></trkpt><trkpt lat="42.343092306317054" lon="-7.979683902037437"><ele>137.75</ele><time>2026-03-24T21:11:00.999Z</time></trkpt><trkpt lat="42.34306644807228" lon="-7.979862539636459"><ele>139.0</ele><time>2026-03-24T21:11:01.999Z</time></trkpt><trkpt lat="42.34305485635992" lon="-7.980039529697049"><ele>140.0</ele><time>2026-03-24T21:11:02.999Z</time></trkpt><trkpt lat="42.34305858576056" lon="-7.980218787933257"><ele>141.0</ele><time>2026-03-24T21:11:03.999Z</time></trkpt><trkpt lat="42.34307783174043" lon="-7.9803856386503895"><ele>142.0</ele><time>2026-03-24T21:11:04.999Z</time></trkpt><trkpt lat="42.3431185969612" lon="-7.980562644220977"><ele>143.0</ele><time>2026-03-24T21:11:05.999Z</time></trkpt><trkpt lat="42.343171923190674" lon="-7.980718491457168"><ele>143.0</ele><time>2026-03-24T21:11:06.999Z</time></trkpt><trkpt lat="42.34324031055261" lon="-7.980850512377033"><ele>143.0</ele><time>2026-03-24T21:11:07.999Z</time></trkpt><trkpt lat="42.343313659691496" lon="-7.98098190790152"><ele>143.0</ele><time>2026-03-24T21:11:08.999Z</time></trkpt><trkpt lat="42.343394622635486" lon="-7.981094262951372"><ele>143.0</ele><time>2026-03-24T21:11:09.999Z</time></trkpt><trkpt lat="42.34348094833398" lon="-7.9811765056412725"><ele>143.0</ele><time>2026-03-24T21:11:10.999Z</time></trkpt><trkpt lat="42.3435706308168" lon="-7.981265715674959"><ele>143.0</ele><time>2026-03-24T21:11:11.999Z</time></trkpt><trkpt lat="42.34365675115481" lon="-7.9813327607116635"><ele>143.0</ele><time>2026-03-24T21:11:12.999Z</time></trkpt><trkpt lat="42.343747157527375" lon="-7.981383273606762"><ele>143.0</ele><time>2026-03-24T21:11:13.999Z</time></trkpt><trkpt lat="42.343835562378196" lon="-7.981427942018524"><ele>143.0</ele><time>2026-03-24T21:11:14.999Z</time></trkpt><trkpt lat="42.34393615005526" lon="-7.981475966650288"><ele>143.5</ele><time>2026-03-24T21:11:15.999Z</time></trkpt><trkpt lat="42.34402456668391" lon="-7.981506116336391"><ele>144.0</ele><time>2026-03-24T21:11:16.999Z</time></trkpt><trkpt lat="42.344108954509394" lon="-7.981529721141613"><ele>144.5</ele><time>2026-03-24T21:11:17.999Z</time></trkpt><trkpt lat="42.34418389863003" lon="-7.9815473916868855"><ele>145.0</ele><time>2026-03-24T21:11:18.999Z</time></trkpt><trkpt lat="42.34426969033554" lon="-7.981578197136238"><ele>145.5</ele><time>2026-03-24T21:11:19.999Z</time></trkpt><trkpt lat="42.34435931285324" lon="-7.981598436093395"><ele>146.0</ele><time>2026-03-24T21:11:20.999Z</time></trkpt><trkpt lat="42.344464640764315" lon="-7.981640840732772"><ele>146.0</ele><time>2026-03-24T21:11:21.999Z</time></trkpt><trkpt lat="42.34458623116844" lon="-7.981648022617725"><ele>146.0</ele><time>2026-03-24T21:11:22.999Z</time></trkpt><trkpt lat="42.34471955249814" lon="-7.98170018159388"><ele>146.0</ele><time>2026-03-24T21:11:23.999Z</time></trkpt><trkpt lat="42.34486222406167" lon="-7.981744724456113"><ele>146.0</ele><time>2026-03-24T21:11:24.999Z</time></trkpt><trkpt lat="42.34499848510621" lon="-7.981808159303493"><ele>142.0</ele><time>2026-03-24T21:11:25.999Z</time></trkpt><trkpt lat="42.345142771990204" lon="-7.981888037520601"><ele>138.0</ele><time>2026-03-24T21:11:26.999Z</time></trkpt><trkpt lat="42.34528954514464" lon="-7.981981972453187"><ele>134.0</ele><time>2026-03-24T21:11:27.999Z</time></trkpt><trkpt lat="42.345441313049974" lon="-7.982096642739351"><ele>134.0</ele><time>2026-03-24T21:11:29Z</time></trkpt><trkpt lat="42.34558612252338" lon="-7.982238883884647"><ele>134.0</ele><time>2026-03-24T21:11:30Z</time></trkpt><trkpt lat="42.345720534569715" lon="-7.982415931143981"><ele>134.0</ele><time>2026-03-24T21:11:31Z</time></trkpt><trkpt lat="42.345844128935674" lon="-7.982599450408405"><ele>132.33333333333331</ele><time>2026-03-24T21:11:32Z</time></trkpt><trkpt lat="42.34594143353823" lon="-7.98281903437599"><ele>130.66666666666666</ele><time>2026-03-24T21:11:33Z</time></trkpt><trkpt lat="42.34601241589466" lon="-7.983040296613763"><ele>129.0</ele><time>2026-03-24T21:11:34Z</time></trkpt><trkpt lat="42.346067279005425" lon="-7.983266489166079"><ele>127.66666666666666</ele><time>2026-03-24T21:11:35Z</time></trkpt><trkpt lat="42.34611181764887" lon="-7.983511494715549"><ele>126.33333333333333</ele><time>2026-03-24T21:11:36Z</time></trkpt><trkpt lat="42.3461464819038" lon="-7.983760354385716"><ele>125.0</ele><time>2026-03-24T21:11:37Z</time></trkpt><trkpt lat="42.3461681645264" lon="-7.984005888302767"><ele>123.33333333333333</ele><time>2026-03-24T21:11:38Z</time></trkpt><trkpt lat="42.34620004743857" lon="-7.984276250161245"><ele>121.66666666666666</ele><time>2026-03-24T21:11:39Z</time></trkpt><trkpt lat="42.346219498571095" lon="-7.984562659083891"><ele>120.0</ele><time>2026-03-24T21:11:40Z</time></trkpt><trkpt lat="42.346231913591" lon="-7.984823299733394"><ele>119.33333333333334</ele><time>2026-03-24T21:11:41Z</time></trkpt><trkpt lat="42.34624848293744" lon="-7.98508883875392"><ele>118.66666666666667</ele><time>2026-03-24T21:11:42Z</time></trkpt><trkpt lat="42.34626728194539" lon="-7.985364506501855"><ele>118.0</ele><time>2026-03-24T21:11:43Z</time></trkpt><trkpt lat="42.34628827856175" lon="-7.985639252032652"><ele>119.66666666666667</ele><time>2026-03-24T21:11:44Z</time></trkpt><trkpt lat="42.346314018014105" lon="-7.985911205721225"><ele>121.33333333333334</ele><time>2026-03-24T21:11:45Z</time></trkpt><trkpt lat="42.34634298639967" lon="-7.9861754112729235"><ele>123.0</ele><time>2026-03-24T21:11:46Z</time></trkpt><trkpt lat="42.346360695287466" lon="-7.986443580789365"><ele>123.66666666666666</ele><time>2026-03-24T21:11:47Z</time></trkpt><trkpt lat="42.34640394654131" lon="-7.986704256268455"><ele>124.33333333333333</ele><time>2026-03-24T21:11:48Z</time></trkpt><trkpt lat="42.34645749372555" lon="-7.9869499772998696"><ele>125.0</ele><time>2026-03-24T21:11:49Z</time></trkpt><trkpt lat="42.346517103821114" lon="-7.987180211834492"><ele>125.0</ele><time>2026-03-24T21:11:50Z</time></trkpt><trkpt lat="42.34657801866769" lon="-7.987393638837398"><ele>125.0</ele><time>2026-03-24T21:11:51Z</time></trkpt><trkpt lat="42.346640272743905" lon="-7.987604183010845"><ele>125.0</ele><time>2026-03-24T21:11:52Z</time></trkpt><trkpt lat="42.34670168749952" lon="-7.987818211106807"><ele>125.0</ele><time>2026-03-24T21:11:53Z</time></trkpt><trkpt lat="42.34675881905627" lon="-7.988029660391122"><ele>125.0</ele><time>2026-03-24T21:11:54Z</time></trkpt><trkpt lat="42.34681910286597" lon="-7.988247330336334"><ele>125.0</ele><time>2026-03-24T21:11:55Z</time></trkpt><trkpt lat="42.346876767220074" lon="-7.988458909197748"><ele>125.0</ele><time>2026-03-24T21:11:56Z</time></trkpt><trkpt lat="42.3469389084813" lon="-7.988669876551418"><ele>125.0</ele><time>2026-03-24T21:11:57Z</time></trkpt><trkpt lat="42.34700513756039" lon="-7.988881289727346"><ele>125.0</ele><time>2026-03-24T21:11:58Z</time></trkpt><trkpt lat="42.34707104223986" lon="-7.989100786704243"><ele>125.0</ele><time>2026-03-24T21:11:59Z</time></trkpt><trkpt lat="42.34712777759989" lon="-7.989324681982972"><ele>125.0</ele><time>2026-03-24T21:12:00Z</time></trkpt><trkpt lat="42.34718466971406" lon="-7.989551275487856"><ele>125.0</ele><time>2026-03-24T21:12:01Z</time></trkpt><trkpt lat="42.347246570528036" lon="-7.989771869778638"><ele>125.0</ele><time>2026-03-24T21:12:02Z</time></trkpt><trkpt lat="42.34729940729365" lon="-7.989975339139704"><ele>125.0</ele><time>2026-03-24T21:12:03Z</time></trkpt><trkpt lat="42.34735243419042" lon="-7.990171006537224"><ele>125.0</ele><time>2026-03-24T21:12:04Z</time></trkpt><trkpt lat="42.347415224682095" lon="-7.990366522064446"><ele>124.66666666666666</ele><time>2026-03-24T21:12:05Z</time></trkpt><trkpt lat="42.347493361597095" lon="-7.990566376506916"><ele>124.33333333333334</ele><time>2026-03-24T21:12:06Z</time></trkpt><trkpt lat="42.347535944360615" lon="-7.990778196318419"><ele>124.0</ele><time>2026-03-24T21:12:07Z</time></trkpt><trkpt lat="42.347597915743826" lon="-7.990993859439406"><ele>124.0</ele><time>2026-03-24T21:12:08Z</time></trkpt><trkpt lat="42.347657817342935" lon="-7.991214129924945"><ele>124.0</ele><time>2026-03-24T21:12:09Z</time></trkpt><trkpt lat="42.34771682662239" lon="-7.99143143605074"><ele>124.0</ele><time>2026-03-24T21:12:10Z</time></trkpt><trkpt lat="42.34777871999904" lon="-7.9916533256943785"><ele>123.66666666666667</ele><time>2026-03-24T21:12:11Z</time></trkpt><trkpt lat="42.34785785515435" lon="-7.991868787172224"><ele>123.33333333333334</ele><time>2026-03-24T21:12:12Z</time></trkpt><trkpt lat="42.34790742113666" lon="-7.992096154131022"><ele>123.0</ele><time>2026-03-24T21:12:13Z</time></trkpt><trkpt lat="42.34796782202361" lon="-7.992320859554995"><ele>123.0</ele><time>2026-03-24T21:12:14Z</time></trkpt><trkpt lat="42.34803455705221" lon="-7.9925505674577915"><ele>123.0</ele><time>2026-03-24T21:12:15Z</time></trkpt><trkpt lat="42.348100867845744" lon="-7.992773812737429"><ele>123.0</ele><time>2026-03-24T21:12:16Z</time></trkpt><trkpt lat="42.34817200081328" lon="-7.992999354444051"><ele>123.0</ele><time>2026-03-24T21:12:17Z</time></trkpt><trkpt lat="42.348235598109945" lon="-7.993221844266031"><ele>123.0</ele><time>2026-03-24T21:12:18Z</time></trkpt><trkpt lat="42.34830734274813" lon="-7.9934466602467955"><ele>123.0</ele><time>2026-03-24T21:12:19Z</time></trkpt><trkpt lat="42.34837642291455" lon="-7.9936635190059135"><ele>122.66666666666666</ele><time>2026-03-24T21:12:20Z</time></trkpt><trkpt lat="42.3484533812882" lon="-7.993879125754659"><ele>122.33333333333333</ele><time>2026-03-24T21:12:21Z</time></trkpt><trkpt lat="42.348535743648505" lon="-7.994084644166712"><ele>122.0</ele><time>2026-03-24T21:12:22Z</time></trkpt><trkpt lat="42.3486015114191" lon="-7.994326977596228"><ele>121.0</ele><time>2026-03-24T21:12:23Z</time></trkpt><trkpt lat="42.34867692931486" lon="-7.994556754481189"><ele>120.0</ele><time>2026-03-24T21:12:24Z</time></trkpt><trkpt lat="42.34875250630379" lon="-7.99478158184976"><ele>119.0</ele><time>2026-03-24T21:12:25Z</time></trkpt><trkpt lat="42.34883251004221" lon="-7.995018435118504"><ele>119.0</ele><time>2026-03-24T21:12:26Z</time></trkpt><trkpt lat="42.348919290872296" lon="-7.995256374175341"><ele>119.0</ele><time>2026-03-24T21:12:27Z</time></trkpt><trkpt lat="42.34899445651506" lon="-7.995509235278523"><ele>119.0</ele><time>2026-03-24T21:12:28Z</time></trkpt><trkpt lat="42.34906699524427" lon="-7.99574714113035"><ele>120.0</ele><time>2026-03-24T21:12:29Z</time></trkpt><trkpt lat="42.349133549983534" lon="-7.9959754225409645"><ele>121.0</ele><time>2026-03-24T21:12:30Z</time></trkpt><trkpt lat="42.349203113434065" lon="-7.996176636634439"><ele>122.0</ele><time>2026-03-24T21:12:31Z</time></trkpt><trkpt lat="42.34924396078143" lon="-7.996382809862442"><ele>121.99999999999999</ele><time>2026-03-24T21:12:32Z</time></trkpt><trkpt lat="42.349297320786874" lon="-7.9965439084252825"><ele>122.0</ele><time>2026-03-24T21:12:33Z</time></trkpt><trkpt lat="42.34933718829682" lon="-7.99664733858697"><ele>122.0</ele><time>2026-03-24T21:12:34Z</time></trkpt><trkpt lat="42.34935125939759" lon="-7.9967347731994245"><ele>122.0</ele><time>2026-03-24T21:12:35Z</time></trkpt><trkpt lat="42.34936241829409" lon="-7.996829593331928"><ele>121.99999999999999</ele><time>2026-03-24T21:12:36.999Z</time></trkpt><trkpt lat="42.349326175634914" lon="-7.996943574706095"><ele>122.0</ele><time>2026-03-24T21:15:10.999Z</time></trkpt><trkpt lat="42.34934384139519" lon="-7.997028636920693"><ele>122.49999999999999</ele><time>2026-03-24T21:15:11.999Z</time></trkpt><trkpt lat="42.34935956334778" lon="-7.997114921240003"><ele>123.0</ele><time>2026-03-24T21:15:12.999Z</time></trkpt><trkpt lat="42.349378241691454" lon="-7.997217430915236"><ele>123.5</ele><time>2026-03-24T21:15:13.999Z</time></trkpt><trkpt lat="42.349395557181865" lon="-7.9973315784812975"><ele>124.0</ele><time>2026-03-24T21:15:14.999Z</time></trkpt><trkpt lat="42.34941161468009" lon="-7.997432120182084"><ele>124.49999999999999</ele><time>2026-03-24T21:15:15.999Z</time></trkpt><trkpt lat="42.349409588181764" lon="-7.997536958550244"><ele>125.0</ele><time>2026-03-24T21:15:16.999Z</time></trkpt><trkpt lat="42.34942940858632" lon="-7.997644327324217"><ele>124.99999999999999</ele><time>2026-03-24T21:15:17.999Z</time></trkpt><trkpt lat="42.349444337536994" lon="-7.997750192251237"><ele>125.0</ele><time>2026-03-24T21:15:18.999Z</time></trkpt><trkpt lat="42.349460776732" lon="-7.9978507363058595"><ele>125.0</ele><time>2026-03-24T21:15:19.999Z</time></trkpt><trkpt lat="42.34947852024396" lon="-7.997956349566459"><ele>125.0</ele><time>2026-03-24T21:15:20.999Z</time></trkpt><trkpt lat="42.349497915713464" lon="-7.998068217403939"><ele>124.99999999999999</ele><time>2026-03-24T21:15:21.999Z</time></trkpt><trkpt lat="42.34951778349437" lon="-7.998186723679887"><ele>125.0</ele><time>2026-03-24T21:15:22.999Z</time></trkpt><trkpt lat="42.349540473244296" lon="-7.9983102455548405"><ele>123.6</ele><time>2026-03-24T21:15:23.999Z</time></trkpt><trkpt lat="42.34955475667019" lon="-7.998432322889554"><ele>122.2</ele><time>2026-03-24T21:15:24.999Z</time></trkpt><trkpt lat="42.34957436147517" lon="-7.998557725294863"><ele>120.80000000000001</ele><time>2026-03-24T21:15:25.999Z</time></trkpt><trkpt lat="42.349588560284325" lon="-7.99868011533124"><ele>119.4</ele><time>2026-03-24T21:15:26.999Z</time></trkpt><trkpt lat="42.349598060194396" lon="-7.998803021395782"><ele>118.0</ele><time>2026-03-24T21:15:27.999Z</time></trkpt><trkpt lat="42.34960853246405" lon="-7.99893062846237"><ele>118.0</ele><time>2026-03-24T21:15:28.999Z</time></trkpt><trkpt lat="42.34962202301595" lon="-7.999067295024933"><ele>118.00000000000001</ele><time>2026-03-24T21:15:29.999Z</time></trkpt><trkpt lat="42.34963771593828" lon="-7.99920221960589"><ele>118.00000000000001</ele><time>2026-03-24T21:15:30.999Z</time></trkpt><trkpt lat="42.34965423194387" lon="-7.999336004561038"><ele>118.0</ele><time>2026-03-24T21:15:31.999Z</time></trkpt><trkpt lat="42.34967225392909" lon="-7.999483266835045"><ele>118.0</ele><time>2026-03-24T21:15:32.999Z</time></trkpt><trkpt lat="42.34969445915547" lon="-7.999639616781695"><ele>117.2</ele><time>2026-03-24T21:15:33.999Z</time></trkpt><trkpt lat="42.349710199008804" lon="-7.9997742354103725"><ele>116.4</ele><time>2026-03-24T21:15:34.999Z</time></trkpt><trkpt lat="42.34973155073307" lon="-7.999905250702555"><ele>115.60000000000001</ele><time>2026-03-24T21:15:35.999Z</time></trkpt><trkpt lat="42.34975166644861" lon="-8.00003458945672"><ele>114.80000000000001</ele><time>2026-03-24T21:15:36.999Z</time></trkpt><trkpt lat="42.349772185476816" lon="-8.000149818984687"><ele>114.0</ele><time>2026-03-24T21:15:37.999Z</time></trkpt><trkpt lat="42.34978367608957" lon="-8.0002867532426"><ele>114.0</ele><time>2026-03-24T21:15:38.999Z</time></trkpt><trkpt lat="42.34980463581061" lon="-8.000393232065798"><ele>114.0</ele><time>2026-03-24T21:15:39.999Z</time></trkpt><trkpt lat="42.34982144814646" lon="-8.000502421117595"><ele>114.0</ele><time>2026-03-24T21:15:41Z</time></trkpt><trkpt lat="42.34984610537554" lon="-8.000604936735252"><ele>114.0</ele><time>2026-03-24T21:15:42Z</time></trkpt><trkpt lat="42.349873803483355" lon="-8.000720633142322"><ele>114.0</ele><time>2026-03-24T21:15:43Z</time></trkpt><trkpt lat="42.34990685271979" lon="-8.000858474306193"><ele>114.0</ele><time>2026-03-24T21:15:44Z</time></trkpt><trkpt lat="42.349938837299256" lon="-8.000979730290988"><ele>113.33333333333333</ele><time>2026-03-24T21:15:45Z</time></trkpt><trkpt lat="42.34996515428" lon="-8.001101056039944"><ele>112.66666666666666</ele><time>2026-03-24T21:15:46Z</time></trkpt><trkpt lat="42.34998961455407" lon="-8.001210703891912"><ele>112.0</ele><time>2026-03-24T21:15:47Z</time></trkpt><trkpt lat="42.350014031137505" lon="-8.001318640192924"><ele>111.33333333333333</ele><time>2026-03-24T21:15:48Z</time></trkpt><trkpt lat="42.3500378121537" lon="-8.001430010869116"><ele>110.66666666666666</ele><time>2026-03-24T21:15:49Z</time></trkpt><trkpt lat="42.35005942288619" lon="-8.001539355292852"><ele>110.0</ele><time>2026-03-24T21:15:50Z</time></trkpt><trkpt lat="42.350074406363724" lon="-8.001656438548212"><ele>108.66666666666666</ele><time>2026-03-24T21:15:51Z</time></trkpt><trkpt lat="42.35009064717755" lon="-8.001768482376526"><ele>107.33333333333333</ele><time>2026-03-24T21:15:52Z</time></trkpt><trkpt lat="42.35010145562124" lon="-8.00187755401816"><ele>106.0</ele><time>2026-03-24T21:15:53Z</time></trkpt><trkpt lat="42.35011072033725" lon="-8.001991660671345"><ele>104.66666666666666</ele><time>2026-03-24T21:15:54Z</time></trkpt><trkpt lat="42.35009900701115" lon="-8.002111098191838"><ele>103.33333333333333</ele><time>2026-03-24T21:15:55Z</time></trkpt><trkpt lat="42.35008314447563" lon="-8.002243620426452"><ele>102.0</ele><time>2026-03-24T21:15:56Z</time></trkpt><trkpt lat="42.350054745561025" lon="-8.002375403441253"><ele>100.0</ele><time>2026-03-24T21:15:57Z</time></trkpt><trkpt lat="42.35001772992547" lon="-8.002498188945898"><ele>98.0</ele><time>2026-03-24T21:15:58Z</time></trkpt><trkpt lat="42.34997484169068" lon="-8.002612238898488"><ele>96.0</ele><time>2026-03-24T21:15:59Z</time></trkpt><trkpt lat="42.349933452984594" lon="-8.002739545768865"><ele>94.0</ele><time>2026-03-24T21:16:00Z</time></trkpt><trkpt lat="42.34989461088767" lon="-8.002861777736877"><ele>92.0</ele><time>2026-03-24T21:16:01Z</time></trkpt><trkpt lat="42.34985928821502" lon="-8.002980819626908"><ele>92.0</ele><time>2026-03-24T21:16:02Z</time></trkpt><trkpt lat="42.349835266012114" lon="-8.003087814028722"><ele>92.0</ele><time>2026-03-24T21:16:03Z</time></trkpt><trkpt lat="42.34982814362509" lon="-8.003217708847966"><ele>92.0</ele><time>2026-03-24T21:16:04Z</time></trkpt><trkpt lat="42.34985477719928" lon="-8.003360964843967"><ele>92.0</ele><time>2026-03-24T21:16:05Z</time></trkpt><trkpt lat="42.34991487587701" lon="-8.003496117982236"><ele>92.0</ele><time>2026-03-24T21:16:06Z</time></trkpt><trkpt lat="42.34999915691635" lon="-8.003613745235592"><ele>92.5</ele><time>2026-03-24T21:16:07Z</time></trkpt><trkpt lat="42.35008937554218" lon="-8.003738259376348"><ele>93.0</ele><time>2026-03-24T21:16:08Z</time></trkpt><trkpt lat="42.35018427842854" lon="-8.003886386214363"><ele>93.5</ele><time>2026-03-24T21:16:09Z</time></trkpt><trkpt lat="42.35027277568923" lon="-8.00403003188219"><ele>94.0</ele><time>2026-03-24T21:16:10Z</time></trkpt><trkpt lat="42.35037213155382" lon="-8.004187293763806"><ele>94.66666666666666</ele><time>2026-03-24T21:16:11Z</time></trkpt><trkpt lat="42.35047019623139" lon="-8.00434663337965"><ele>95.33333333333333</ele><time>2026-03-24T21:16:12Z</time></trkpt><trkpt lat="42.350564654594244" lon="-8.00450937399717"><ele>96.0</ele><time>2026-03-24T21:16:13Z</time></trkpt><trkpt lat="42.35066519474895" lon="-8.004677634737607"><ele>96.0</ele><time>2026-03-24T21:16:14Z</time></trkpt><trkpt lat="42.35077908054437" lon="-8.004843585599113"><ele>96.0</ele><time>2026-03-24T21:16:15Z</time></trkpt><trkpt lat="42.350900173549654" lon="-8.004995880611771"><ele>96.0</ele><time>2026-03-24T21:16:16Z</time></trkpt><trkpt lat="42.351041404913" lon="-8.005127747307457"><ele>98.33333333333334</ele><time>2026-03-24T21:16:17Z</time></trkpt><trkpt lat="42.35119613111895" lon="-8.005239338974194"><ele>100.66666666666667</ele><time>2026-03-24T21:16:18Z</time></trkpt><trkpt lat="42.35136087052886" lon="-8.005326306796565"><ele>103.0</ele><time>2026-03-24T21:16:19Z</time></trkpt><trkpt lat="42.35152874142032" lon="-8.005389966895137"><ele>103.0</ele><time>2026-03-24T21:16:20Z</time></trkpt><trkpt lat="42.35170606154443" lon="-8.005429980570993"><ele>103.0</ele><time>2026-03-24T21:16:21Z</time></trkpt><trkpt lat="42.35188333947463" lon="-8.00543546831939"><ele>103.0</ele><time>2026-03-24T21:16:22Z</time></trkpt><trkpt lat="42.35206344357772" lon="-8.00543980499429"><ele>104.0</ele><time>2026-03-24T21:16:23Z</time></trkpt><trkpt lat="42.352250991257904" lon="-8.005423561124278"><ele>105.0</ele><time>2026-03-24T21:16:24Z</time></trkpt><trkpt lat="42.352435037914034" lon="-8.005418133410286"><ele>106.0</ele><time>2026-03-24T21:16:25Z</time></trkpt><trkpt lat="42.352622750914605" lon="-8.005419335052268"><ele>106.0</ele><time>2026-03-24T21:16:26Z</time></trkpt><trkpt lat="42.35281359843734" lon="-8.00541585465683"><ele>106.0</ele><time>2026-03-24T21:16:27Z</time></trkpt><trkpt lat="42.353008738622094" lon="-8.005404949616814"><ele>106.0</ele><time>2026-03-24T21:16:28Z</time></trkpt><trkpt lat="42.35320606350886" lon="-8.005398532398974"><ele>107.33333333333334</ele><time>2026-03-24T21:16:29Z</time></trkpt><trkpt lat="42.35340018243086" lon="-8.005402140262799"><ele>108.66666666666666</ele><time>2026-03-24T21:16:30Z</time></trkpt><trkpt lat="42.35359841274743" lon="-8.00539309891126"><ele>110.0</ele><time>2026-03-24T21:16:31Z</time></trkpt><trkpt lat="42.35380453198883" lon="-8.005382559286469"><ele>109.66666666666666</ele><time>2026-03-24T21:16:32Z</time></trkpt><trkpt lat="42.35401036135635" lon="-8.005377548980553"><ele>109.33333333333334</ele><time>2026-03-24T21:16:33Z</time></trkpt><trkpt lat="42.35421739842813" lon="-8.005365491981498"><ele>109.0</ele><time>2026-03-24T21:16:34Z</time></trkpt><trkpt lat="42.35442787087989" lon="-8.005352821315794"><ele>109.0</ele><time>2026-03-24T21:16:35Z</time></trkpt><trkpt lat="42.35463829464105" lon="-8.00534011456821"><ele>109.0</ele><time>2026-03-24T21:16:36Z</time></trkpt><trkpt lat="42.354851166313196" lon="-8.005326463582946"><ele>109.0</ele><time>2026-03-24T21:16:37Z</time></trkpt><trkpt lat="42.35506909497709" lon="-8.005304554345024"><ele>109.0</ele><time>2026-03-24T21:16:38Z</time></trkpt><trkpt lat="42.35528865518441" lon="-8.005285805489587"><ele>109.0</ele><time>2026-03-24T21:16:39Z</time></trkpt><trkpt lat="42.355509869789856" lon="-8.00527109978816"><ele>109.0</ele><time>2026-03-24T21:16:40Z</time></trkpt><trkpt lat="42.35572505440266" lon="-8.005257761148505"><ele>110.0</ele><time>2026-03-24T21:16:41Z</time></trkpt><trkpt lat="42.35593410387082" lon="-8.005249266598206"><ele>111.0</ele><time>2026-03-24T21:16:42Z</time></trkpt><trkpt lat="42.356137251573706" lon="-8.005239727436168"><ele>112.0</ele><time>2026-03-24T21:16:43Z</time></trkpt><trkpt lat="42.356337166609094" lon="-8.005239742303779"><ele>112.66666666666667</ele><time>2026-03-24T21:16:44Z</time></trkpt><trkpt lat="42.356533625600015" lon="-8.005246341999706"><ele>113.33333333333334</ele><time>2026-03-24T21:16:44.999Z</time></trkpt><trkpt lat="42.35672696367521" lon="-8.005264090052032"><ele>114.0</ele><time>2026-03-24T21:16:45.999Z</time></trkpt><trkpt lat="42.35691989019244" lon="-8.00528989338939"><ele>114.0</ele><time>2026-03-24T21:16:46.999Z</time></trkpt><trkpt lat="42.35712229189585" lon="-8.005314765064929"><ele>114.0</ele><time>2026-03-24T21:16:47.999Z</time></trkpt><trkpt lat="42.35731158625587" lon="-8.005342722066342"><ele>114.0</ele><time>2026-03-24T21:16:48.999Z</time></trkpt><trkpt lat="42.357508883418724" lon="-8.005356150186769"><ele>114.66666666666666</ele><time>2026-03-24T21:16:49.999Z</time></trkpt><trkpt lat="42.35770558031341" lon="-8.005312997789378"><ele>115.33333333333333</ele><time>2026-03-24T21:16:50.999Z</time></trkpt><trkpt lat="42.35789995794819" lon="-8.00526029955514"><ele>116.0</ele><time>2026-03-24T21:16:51.999Z</time></trkpt><trkpt lat="42.35808745018367" lon="-8.005158991902572"><ele>116.0</ele><time>2026-03-24T21:16:52.999Z</time></trkpt><trkpt lat="42.35827141624258" lon="-8.005036082185162"><ele>116.0</ele><time>2026-03-24T21:16:53.999Z</time></trkpt><trkpt lat="42.35846301849699" lon="-8.004925524221779"><ele>116.0</ele><time>2026-03-24T21:16:54.999Z</time></trkpt><trkpt lat="42.35864867869284" lon="-8.004785418132528"><ele>117.66666666666666</ele><time>2026-03-24T21:16:55.999Z</time></trkpt><trkpt lat="42.35883225428159" lon="-8.004664286458743"><ele>119.33333333333334</ele><time>2026-03-24T21:16:56.999Z</time></trkpt><trkpt lat="42.35901922407571" lon="-8.004539933434613"><ele>121.0</ele><time>2026-03-24T21:16:57.999Z</time></trkpt><trkpt lat="42.359209421986" lon="-8.004413542928843"><ele>121.0</ele><time>2026-03-24T21:16:58.999Z</time></trkpt><trkpt lat="42.35939794582968" lon="-8.004298492215899"><ele>121.0</ele><time>2026-03-24T21:16:59.999Z</time></trkpt><trkpt lat="42.35958575618387" lon="-8.004189837873403"><ele>121.0</ele><time>2026-03-24T21:17:00.999Z</time></trkpt><trkpt lat="42.35977534021055" lon="-8.00408401009898"><ele>120.33333333333334</ele><time>2026-03-24T21:17:01.999Z</time></trkpt><trkpt lat="42.35996532334518" lon="-8.003981788057809"><ele>119.66666666666666</ele><time>2026-03-24T21:17:02.999Z</time></trkpt><trkpt lat="42.360162110927604" lon="-8.003875315385502"><ele>119.0</ele><time>2026-03-24T21:17:03.999Z</time></trkpt><trkpt lat="42.36035346917209" lon="-8.003774720792094"><ele>118.33333333333333</ele><time>2026-03-24T21:17:04.999Z</time></trkpt><trkpt lat="42.36054492542231" lon="-8.003671996399865"><ele>117.66666666666666</ele><time>2026-03-24T21:17:05.999Z</time></trkpt><trkpt lat="42.36074186348216" lon="-8.003553418121509"><ele>117.0</ele><time>2026-03-24T21:17:06.999Z</time></trkpt><trkpt lat="42.360932573264584" lon="-8.003437231531915"><ele>117.0</ele><time>2026-03-24T21:17:07.999Z</time></trkpt><trkpt lat="42.36112208335123" lon="-8.003309546473815"><ele>117.0</ele><time>2026-03-24T21:17:08.999Z</time></trkpt><trkpt lat="42.36129553465362" lon="-8.003139969083465"><ele>117.0</ele><time>2026-03-24T21:17:09.999Z</time></trkpt><trkpt lat="42.36146646419753" lon="-8.002965162495373"><ele>117.0</ele><time>2026-03-24T21:17:10.999Z</time></trkpt><trkpt lat="42.36163913561164" lon="-8.002796376026494"><ele>117.0</ele><time>2026-03-24T21:17:11.999Z</time></trkpt><trkpt lat="42.36179580165179" lon="-8.00259382493117"><ele>117.0</ele><time>2026-03-24T21:17:12.999Z</time></trkpt><trkpt lat="42.36193598384784" lon="-8.00240391082126"><ele>117.0</ele><time>2026-03-24T21:17:13.999Z</time></trkpt><trkpt lat="42.362063999191975" lon="-8.002228384648852"><ele>117.0</ele><time>2026-03-24T21:17:14.999Z</time></trkpt><trkpt lat="42.3621953489985" lon="-8.002073354049633"><ele>117.0</ele><time>2026-03-24T21:17:15.999Z</time></trkpt><trkpt lat="42.362339935631006" lon="-8.001936333370022"><ele>118.66666666666666</ele><time>2026-03-24T21:17:16.999Z</time></trkpt><trkpt lat="42.362495457783275" lon="-8.001829185441531"><ele>120.33333333333333</ele><time>2026-03-24T21:17:17.999Z</time></trkpt><trkpt lat="42.3626631800679" lon="-8.001762464135147"><ele>122.0</ele><time>2026-03-24T21:17:18.999Z</time></trkpt><trkpt lat="42.36283278618593" lon="-8.001743033198705"><ele>122.0</ele><time>2026-03-24T21:17:19.999Z</time></trkpt><trkpt lat="42.36301767873431" lon="-8.001737247152736"><ele>122.0</ele><time>2026-03-24T21:17:20.999Z</time></trkpt><trkpt lat="42.36320206914596" lon="-8.001754302340247"><ele>122.0</ele><time>2026-03-24T21:17:21.999Z</time></trkpt><trkpt lat="42.363393090649296" lon="-8.001781977925841"><ele>122.0</ele><time>2026-03-24T21:17:22.999Z</time></trkpt><trkpt lat="42.36358642232475" lon="-8.001794958027137"><ele>122.0</ele><time>2026-03-24T21:17:23.999Z</time></trkpt><trkpt lat="42.3637834124634" lon="-8.00180238020098"><ele>122.0</ele><time>2026-03-24T21:17:24.999Z</time></trkpt><trkpt lat="42.36398655014947" lon="-8.00181263885976"><ele>121.66666666666666</ele><time>2026-03-24T21:17:25.999Z</time></trkpt><trkpt lat="42.36418618748908" lon="-8.001816358895756"><ele>121.33333333333334</ele><time>2026-03-24T21:17:26.999Z</time></trkpt><trkpt lat="42.36440354246725" lon="-8.001824509097494"><ele>121.0</ele><time>2026-03-24T21:17:27.999Z</time></trkpt><trkpt lat="42.36461719118485" lon="-8.0018346644273"><ele>121.66666666666667</ele><time>2026-03-24T21:17:28.999Z</time></trkpt><trkpt lat="42.3648334006132" lon="-8.001837157891979"><ele>122.33333333333334</ele><time>2026-03-24T21:17:29.999Z</time></trkpt><trkpt lat="42.365052935988444" lon="-8.001811376562024"><ele>123.0</ele><time>2026-03-24T21:17:30.999Z</time></trkpt><trkpt lat="42.365265180103385" lon="-8.001726029737982"><ele>122.0</ele><time>2026-03-24T21:17:31.999Z</time></trkpt><trkpt lat="42.36546650473908" lon="-8.001611509562318"><ele>121.0</ele><time>2026-03-24T21:17:32.999Z</time></trkpt><trkpt lat="42.36565789944889" lon="-8.00147038391924"><ele>120.0</ele><time>2026-03-24T21:17:33.999Z</time></trkpt><trkpt lat="42.36584227869628" lon="-8.001313112351438"><ele>123.66666666666666</ele><time>2026-03-24T21:17:34.999Z</time></trkpt><trkpt lat="42.36603485636966" lon="-8.00118045625038"><ele>127.33333333333333</ele><time>2026-03-24T21:17:35.999Z</time></trkpt><trkpt lat="42.36620902596895" lon="-8.001043277638477"><ele>131.0</ele><time>2026-03-24T21:17:36.999Z</time></trkpt><trkpt lat="42.366388371762575" lon="-8.000943163170563"><ele>132.66666666666666</ele><time>2026-03-24T21:17:37.999Z</time></trkpt><trkpt lat="42.36657844316191" lon="-8.000896643674098"><ele>134.33333333333334</ele><time>2026-03-24T21:17:38.999Z</time></trkpt><trkpt lat="42.36677009022973" lon="-8.00088596305157"><ele>136.0</ele><time>2026-03-24T21:17:39.999Z</time></trkpt><trkpt lat="42.36696458830372" lon="-8.00089258389536"><ele>136.0</ele><time>2026-03-24T21:17:40.999Z</time></trkpt><trkpt lat="42.36716072933618" lon="-8.000920583339758"><ele>136.0</ele><time>2026-03-24T21:17:41.999Z</time></trkpt><trkpt lat="42.367352575178415" lon="-8.00094890735653"><ele>136.0</ele><time>2026-03-24T21:17:42.999Z</time></trkpt><trkpt lat="42.367531566936755" lon="-8.00096350392294"><ele>134.33333333333334</ele><time>2026-03-24T21:17:43.999Z</time></trkpt><trkpt lat="42.367701074968195" lon="-8.0009589978558"><ele>132.66666666666666</ele><time>2026-03-24T21:17:44.999Z</time></trkpt><trkpt lat="42.36787437944334" lon="-8.000898199951026"><ele>131.0</ele><time>2026-03-24T21:17:45.999Z</time></trkpt><trkpt lat="42.36804474458516" lon="-8.000798749658404"><ele>130.33333333333331</ele><time>2026-03-24T21:17:47Z</time></trkpt><trkpt lat="42.36820501394558" lon="-8.000677540739858"><ele>129.66666666666666</ele><time>2026-03-24T21:17:48Z</time></trkpt><trkpt lat="42.36836795575739" lon="-8.000548180229137"><ele>129.0</ele><time>2026-03-24T21:17:49Z</time></trkpt><trkpt lat="42.36853053673381" lon="-8.000421257393612"><ele>129.0</ele><time>2026-03-24T21:17:50Z</time></trkpt><trkpt lat="42.36870468781334" lon="-8.000321851286653"><ele>129.0</ele><time>2026-03-24T21:17:51Z</time></trkpt><trkpt lat="42.3688786952453" lon="-8.00025529819651"><ele>129.0</ele><time>2026-03-24T21:17:52Z</time></trkpt><trkpt lat="42.36906771897294" lon="-8.000231913794208"><ele>131.33333333333334</ele><time>2026-03-24T21:17:53Z</time></trkpt><trkpt lat="42.369257277118855" lon="-8.00025071939186"><ele>133.66666666666669</ele><time>2026-03-24T21:17:54Z</time></trkpt><trkpt lat="42.36944637618299" lon="-8.00030989514944"><ele>136.0</ele><time>2026-03-24T21:17:55Z</time></trkpt><trkpt lat="42.36963079764454" lon="-8.000393011214392"><ele>136.33333333333334</ele><time>2026-03-24T21:17:56Z</time></trkpt><trkpt lat="42.36981699552923" lon="-8.00045808445536"><ele>136.66666666666666</ele><time>2026-03-24T21:17:57Z</time></trkpt><trkpt lat="42.37001504844892" lon="-8.000519683458476"><ele>137.0</ele><time>2026-03-24T21:17:58Z</time></trkpt><trkpt lat="42.370212849162805" lon="-8.000569696135337"><ele>137.0</ele><time>2026-03-24T21:17:59Z</time></trkpt><trkpt lat="42.37039418203994" lon="-8.000618231719372"><ele>137.0</ele><time>2026-03-24T21:18:00Z</time></trkpt><trkpt lat="42.370567877563595" lon="-8.000662566733322"><ele>137.0</ele><time>2026-03-24T21:18:01Z</time></trkpt><trkpt lat="42.37073129179561" lon="-8.000706865528576"><ele>136.5</ele><time>2026-03-24T21:18:02Z</time></trkpt><trkpt lat="42.37088454735552" lon="-8.00074105693821"><ele>136.0</ele><time>2026-03-24T21:18:03Z</time></trkpt><trkpt lat="42.37102391129169" lon="-8.000780195805483"><ele>135.5</ele><time>2026-03-24T21:18:04Z</time></trkpt><trkpt lat="42.371165049508036" lon="-8.000811031733512"><ele>135.0</ele><time>2026-03-24T21:18:05Z</time></trkpt><trkpt lat="42.37129928316411" lon="-8.0008104558167"><ele>139.5</ele><time>2026-03-24T21:18:06Z</time></trkpt><trkpt lat="42.37143490197501" lon="-8.0008461474401"><ele>144.0</ele><time>2026-03-24T21:18:07Z</time></trkpt><trkpt lat="42.37156757806119" lon="-8.000848153982025"><ele>148.5</ele><time>2026-03-24T21:18:08Z</time></trkpt><trkpt lat="42.371700998586114" lon="-8.000844302848623"><ele>153.0</ele><time>2026-03-24T21:18:09Z</time></trkpt><trkpt lat="42.37182012068647" lon="-8.000844004759212"><ele>153.0</ele><time>2026-03-24T21:18:10Z</time></trkpt><trkpt lat="42.371924125081684" lon="-8.000838511056461"><ele>153.0</ele><time>2026-03-24T21:18:11Z</time></trkpt><trkpt lat="42.372039306620536" lon="-8.000842487985427"><ele>153.0</ele><time>2026-03-24T21:18:12Z</time></trkpt><trkpt lat="42.3721647073873" lon="-8.000833407338513"><ele>153.0</ele><time>2026-03-24T21:18:13Z</time></trkpt><trkpt lat="42.372293214106115" lon="-8.00083415619767"><ele>151.75</ele><time>2026-03-24T21:18:14Z</time></trkpt><trkpt lat="42.372428561451294" lon="-8.00082826454975"><ele>150.5</ele><time>2026-03-24T21:18:15Z</time></trkpt><trkpt lat="42.372569268476106" lon="-8.000827391866245"><ele>149.25</ele><time>2026-03-24T21:18:16Z</time></trkpt><trkpt lat="42.372715312718256" lon="-8.000832689129723"><ele>148.0</ele><time>2026-03-24T21:18:17Z</time></trkpt><trkpt lat="42.37285917896105" lon="-8.000821112196842"><ele>148.0</ele><time>2026-03-24T21:18:18Z</time></trkpt><trkpt lat="42.373012643933876" lon="-8.000816368511225"><ele>148.0</ele><time>2026-03-24T21:18:19Z</time></trkpt><trkpt lat="42.373163743943394" lon="-8.000815144954837"><ele>148.0</ele><time>2026-03-24T21:18:20Z</time></trkpt><trkpt lat="42.373323347915495" lon="-8.000815526761622"><ele>150.0</ele><time>2026-03-24T21:18:21Z</time></trkpt><trkpt lat="42.37349245448353" lon="-8.000794375902803"><ele>152.0</ele><time>2026-03-24T21:18:22Z</time></trkpt><trkpt lat="42.37365356824869" lon="-8.000797178147636"><ele>154.0</ele><time>2026-03-24T21:18:23Z</time></trkpt><trkpt lat="42.37381678477818" lon="-8.00079775190521"><ele>155.33333333333334</ele><time>2026-03-24T21:18:24Z</time></trkpt><trkpt lat="42.3739915087609" lon="-8.000789550313694"><ele>156.66666666666666</ele><time>2026-03-24T21:18:25Z</time></trkpt><trkpt lat="42.3741719265855" lon="-8.000787368744312"><ele>158.0</ele><time>2026-03-24T21:18:26Z</time></trkpt><trkpt lat="42.37435156736" lon="-8.000784805235464"><ele>158.0</ele><time>2026-03-24T21:18:27Z</time></trkpt><trkpt lat="42.3745355912217" lon="-8.000781470945212"><ele>158.0</ele><time>2026-03-24T21:18:28Z</time></trkpt><trkpt lat="42.37472359668197" lon="-8.000785234031248"><ele>158.0</ele><time>2026-03-24T21:18:29Z</time></trkpt><trkpt lat="42.37491051961968" lon="-8.00076408952227"><ele>157.66666666666666</ele><time>2026-03-24T21:18:30Z</time></trkpt><trkpt lat="42.37510417111463" lon="-8.000761061214867"><ele>157.33333333333334</ele><time>2026-03-24T21:18:31Z</time></trkpt><trkpt lat="42.37529794740325" lon="-8.000758912323736"><ele>157.0</ele><time>2026-03-24T21:18:32Z</time></trkpt><trkpt lat="42.37549356380388" lon="-8.000754379475326"><ele>157.66666666666669</ele><time>2026-03-24T21:18:33Z</time></trkpt><trkpt lat="42.37569196762102" lon="-8.000769703247773"><ele>158.33333333333334</ele><time>2026-03-24T21:18:34Z</time></trkpt><trkpt lat="42.37589023811643" lon="-8.000770190991423"><ele>159.0</ele><time>2026-03-24T21:18:35Z</time></trkpt><trkpt lat="42.376090980719795" lon="-8.000744778440145"><ele>159.0</ele><time>2026-03-24T21:18:36Z</time></trkpt><trkpt lat="42.37629650397556" lon="-8.00073560452061"><ele>159.0</ele><time>2026-03-24T21:18:37Z</time></trkpt><trkpt lat="42.376503858694754" lon="-8.000719994660503"><ele>159.0</ele><time>2026-03-24T21:18:38Z</time></trkpt><trkpt lat="42.37669569038423" lon="-8.000683954877413"><ele>159.66666666666666</ele><time>2026-03-24T21:18:39Z</time></trkpt><trkpt lat="42.37687368155596" lon="-8.000612491181828"><ele>160.33333333333331</ele><time>2026-03-24T21:18:40Z</time></trkpt><trkpt lat="42.37705685353644" lon="-8.000515828405874"><ele>161.0</ele><time>2026-03-24T21:18:41Z</time></trkpt><trkpt lat="42.37723272874841" lon="-8.0003868713907"><ele>163.66666666666666</ele><time>2026-03-24T21:18:42Z</time></trkpt><trkpt lat="42.37741572125777" lon="-8.000263189050651"><ele>166.33333333333334</ele><time>2026-03-24T21:18:43Z</time></trkpt><trkpt lat="42.37757646076502" lon="-8.00013231565029"><ele>169.0</ele><time>2026-03-24T21:18:43.999Z</time></trkpt><trkpt lat="42.37773456107901" lon="-8.000034418911328"><ele>169.0</ele><time>2026-03-24T21:18:44.999Z</time></trkpt><trkpt lat="42.37790983109278" lon="-7.999950020678142"><ele>169.0</ele><time>2026-03-24T21:18:45.999Z</time></trkpt><trkpt lat="42.378093736504184" lon="-7.999884581989726"><ele>169.0</ele><time>2026-03-24T21:18:46.999Z</time></trkpt><trkpt lat="42.378286958408886" lon="-7.999843018251217"><ele>171.33333333333334</ele><time>2026-03-24T21:18:47.999Z</time></trkpt><trkpt lat="42.378484522018" lon="-7.999831558123441"><ele>173.66666666666666</ele><time>2026-03-24T21:18:48.999Z</time></trkpt><trkpt lat="42.3786819634688" lon="-7.999834144276168"><ele>176.0</ele><time>2026-03-24T21:18:49.999Z</time></trkpt><trkpt lat="42.37888314231502" lon="-7.999831868854352"><ele>176.0</ele><time>2026-03-24T21:18:50.999Z</time></trkpt><trkpt lat="42.379083109037374" lon="-7.999825510045556"><ele>176.0</ele><time>2026-03-24T21:18:51.999Z</time></trkpt><trkpt lat="42.37927700465002" lon="-7.9997730491240135"><ele>176.0</ele><time>2026-03-24T21:18:52.999Z</time></trkpt><trkpt lat="42.37947531167353" lon="-7.999738374903281"><ele>176.0</ele><time>2026-03-24T21:18:53.999Z</time></trkpt><trkpt lat="42.37966590340902" lon="-7.99963962876228"><ele>176.0</ele><time>2026-03-24T21:18:54.999Z</time></trkpt><trkpt lat="42.37984969644979" lon="-7.999546363296738"><ele>176.0</ele><time>2026-03-24T21:18:55.999Z</time></trkpt><trkpt lat="42.38002038074144" lon="-7.999427897140776"><ele>180.33333333333331</ele><time>2026-03-24T21:18:56.999Z</time></trkpt><trkpt lat="42.3801964679995" lon="-7.99930656510679"><ele>184.66666666666666</ele><time>2026-03-24T21:18:57.999Z</time></trkpt><trkpt lat="42.380376348916585" lon="-7.999218026046381"><ele>189.0</ele><time>2026-03-24T21:18:58.999Z</time></trkpt><trkpt lat="42.380552516271386" lon="-7.999112914557125"><ele>189.33333333333334</ele><time>2026-03-24T21:18:59.999Z</time></trkpt><trkpt lat="42.3807280579081" lon="-7.999024105753208"><ele>189.66666666666669</ele><time>2026-03-24T21:19:00.999Z</time></trkpt><trkpt lat="42.38091228059042" lon="-7.9989619889928845"><ele>190.0</ele><time>2026-03-24T21:19:01.999Z</time></trkpt><trkpt lat="42.381093449682496" lon="-7.99891582111298"><ele>190.0</ele><time>2026-03-24T21:19:02.999Z</time></trkpt><trkpt lat="42.38128274911585" lon="-7.998875917874049"><ele>190.0</ele><time>2026-03-24T21:19:03.999Z</time></trkpt><trkpt lat="42.38146967039224" lon="-7.998841006780775"><ele>190.0</ele><time>2026-03-24T21:19:04.999Z</time></trkpt><trkpt lat="42.38165954391974" lon="-7.99881237049788"><ele>192.0</ele><time>2026-03-24T21:19:05.999Z</time></trkpt><trkpt lat="42.38184734602031" lon="-7.998793256482719"><ele>194.0</ele><time>2026-03-24T21:19:06.999Z</time></trkpt><trkpt lat="42.38203660614539" lon="-7.998772467756117"><ele>196.0</ele><time>2026-03-24T21:19:07.999Z</time></trkpt><trkpt lat="42.38222441060897" lon="-7.998760719603327"><ele>197.66666666666666</ele><time>2026-03-24T21:19:08.999Z</time></trkpt><trkpt lat="42.38241726851263" lon="-7.998741978656825"><ele>199.33333333333331</ele><time>2026-03-24T21:19:09.999Z</time></trkpt><trkpt lat="42.382610460452106" lon="-7.9987372971534825"><ele>201.0</ele><time>2026-03-24T21:19:10.999Z</time></trkpt><trkpt lat="42.38280998060278" lon="-7.998740812238669"><ele>201.0</ele><time>2026-03-24T21:19:11.999Z</time></trkpt><trkpt lat="42.3830068514796" lon="-7.9987331491935745"><ele>201.0</ele><time>2026-03-24T21:19:12.999Z</time></trkpt><trkpt lat="42.38319743124008" lon="-7.998675940987604"><ele>201.0</ele><time>2026-03-24T21:19:13.999Z</time></trkpt><trkpt lat="42.38338356573551" lon="-7.998612932197406"><ele>203.33333333333331</ele><time>2026-03-24T21:19:14.999Z</time></trkpt><trkpt lat="42.38356664855816" lon="-7.998526879347239"><ele>205.66666666666666</ele><time>2026-03-24T21:19:15.999Z</time></trkpt><trkpt lat="42.383741134124044" lon="-7.9984239813226425"><ele>208.0</ele><time>2026-03-24T21:19:16.999Z</time></trkpt><trkpt lat="42.38391471961948" lon="-7.998309310111756"><ele>210.66666666666666</ele><time>2026-03-24T21:19:17.999Z</time></trkpt><trkpt lat="42.38408975880039" lon="-7.998209641485186"><ele>213.33333333333331</ele><time>2026-03-24T21:19:18.999Z</time></trkpt><trkpt lat="42.38425583854647" lon="-7.998096250110505"><ele>216.0</ele><time>2026-03-24T21:19:19.999Z</time></trkpt><trkpt lat="42.38443145911435" lon="-7.997995514261502"><ele>216.0</ele><time>2026-03-24T21:19:20.999Z</time></trkpt><trkpt lat="42.38461113037115" lon="-7.997931676730344"><ele>216.0</ele><time>2026-03-24T21:19:21.999Z</time></trkpt><trkpt lat="42.38479423432673" lon="-7.99788501298126"><ele>216.0</ele><time>2026-03-24T21:19:22.999Z</time></trkpt><trkpt lat="42.38497645563192" lon="-7.997845370233739"><ele>221.33333333333331</ele><time>2026-03-24T21:19:23.999Z</time></trkpt><trkpt lat="42.38515502391024" lon="-7.997816018808969"><ele>226.66666666666666</ele><time>2026-03-24T21:19:24.999Z</time></trkpt><trkpt lat="42.38533678156909" lon="-7.997788400318518"><ele>232.0</ele><time>2026-03-24T21:19:25.999Z</time></trkpt><trkpt lat="42.38551648558909" lon="-7.997762779316229"><ele>235.33333333333331</ele><time>2026-03-24T21:19:26.999Z</time></trkpt><trkpt lat="42.385698313637505" lon="-7.997725554990571"><ele>238.66666666666669</ele><time>2026-03-24T21:19:27.999Z</time></trkpt><trkpt lat="42.38587810371961" lon="-7.997698054583876"><ele>242.0</ele><time>2026-03-24T21:19:28.999Z</time></trkpt><trkpt lat="42.38606063367947" lon="-7.997662416947149"><ele>242.0</ele><time>2026-03-24T21:19:29.999Z</time></trkpt><trkpt lat="42.38624126517428" lon="-7.997630241587175"><ele>242.0</ele><time>2026-03-24T21:19:30.999Z</time></trkpt><trkpt lat="42.38641945957837" lon="-7.997597214591019"><ele>242.0</ele><time>2026-03-24T21:19:31.999Z</time></trkpt><trkpt lat="42.386601380243086" lon="-7.997577478929716"><ele>243.66666666666669</ele><time>2026-03-24T21:19:32.999Z</time></trkpt><trkpt lat="42.38679155839033" lon="-7.9975737646658835"><ele>245.33333333333331</ele><time>2026-03-24T21:19:33.999Z</time></trkpt><trkpt lat="42.38696652599511" lon="-7.9975966809537455"><ele>247.0</ele><time>2026-03-24T21:19:34.999Z</time></trkpt><trkpt lat="42.38712990935844" lon="-7.99765224841433"><ele>246.33333333333331</ele><time>2026-03-24T21:19:35.999Z</time></trkpt><trkpt lat="42.38728840082388" lon="-7.997740482158779"><ele>245.66666666666669</ele><time>2026-03-24T21:19:36.999Z</time></trkpt><trkpt lat="42.38743789143709" lon="-7.997859028083754"><ele>245.0</ele><time>2026-03-24T21:19:37.999Z</time></trkpt><trkpt lat="42.387570505148894" lon="-7.998002163273298"><ele>245.0</ele><time>2026-03-24T21:19:38.999Z</time></trkpt><trkpt lat="42.38768981761569" lon="-7.998164589621969"><ele>245.0</ele><time>2026-03-24T21:19:39.999Z</time></trkpt><trkpt lat="42.38779183267888" lon="-7.998351945628374"><ele>245.0</ele><time>2026-03-24T21:19:40.999Z</time></trkpt><trkpt lat="42.38787912480877" lon="-7.998551686597801"><ele>244.33333333333334</ele><time>2026-03-24T21:19:41.999Z</time></trkpt><trkpt lat="42.38797765930616" lon="-7.99874337338249"><ele>243.66666666666669</ele><time>2026-03-24T21:19:42.999Z</time></trkpt><trkpt lat="42.38808587213755" lon="-7.998923325077025"><ele>243.0</ele><time>2026-03-24T21:19:43.999Z</time></trkpt><trkpt lat="42.38820785849254" lon="-7.999086615941587"><ele>247.33333333333331</ele><time>2026-03-24T21:19:44.999Z</time></trkpt><trkpt lat="42.38834246289805" lon="-7.999227768031153"><ele>251.66666666666666</ele><time>2026-03-24T21:19:45.999Z</time></trkpt><trkpt lat="42.388494582428564" lon="-7.999328463915757"><ele>256.0</ele><time>2026-03-24T21:19:46.999Z</time></trkpt><trkpt lat="42.388663325208434" lon="-7.999382845297737"><ele>256.0</ele><time>2026-03-24T21:19:47.999Z</time></trkpt><trkpt lat="42.38882952181769" lon="-7.999416947530537"><ele>256.0</ele><time>2026-03-24T21:19:48.999Z</time></trkpt><trkpt lat="42.389001395040225" lon="-7.999408150580386"><ele>256.0</ele><time>2026-03-24T21:19:49.999Z</time></trkpt><trkpt lat="42.38916647324927" lon="-7.999362335918996"><ele>254.33333333333331</ele><time>2026-03-24T21:19:50.999Z</time></trkpt><trkpt lat="42.38932050664523" lon="-7.999262551797646"><ele>252.66666666666669</ele><time>2026-03-24T21:19:51.999Z</time></trkpt><trkpt lat="42.38947847644697" lon="-7.999179405125911"><ele>251.0</ele><time>2026-03-24T21:19:53Z</time></trkpt><trkpt lat="42.38962220340117" lon="-7.99905493413998"><ele>254.0</ele><time>2026-03-24T21:19:54Z</time></trkpt><trkpt lat="42.38977596103565" lon="-7.998947918060424"><ele>257.0</ele><time>2026-03-24T21:19:55Z</time></trkpt><trkpt lat="42.3899364933587" lon="-7.998853182391734"><ele>260.0</ele><time>2026-03-24T21:19:56Z</time></trkpt><trkpt lat="42.39009390775426" lon="-7.998759481223886"><ele>260.0</ele><time>2026-03-24T21:19:57Z</time></trkpt><trkpt lat="42.39026147588604" lon="-7.998705098526273"><ele>260.0</ele><time>2026-03-24T21:19:58Z</time></trkpt><trkpt lat="42.390436910908306" lon="-7.998689151418379"><ele>260.0</ele><time>2026-03-24T21:19:59Z</time></trkpt><trkpt lat="42.39061937075887" lon="-7.998701787090053"><ele>262.0</ele><time>2026-03-24T21:20:00Z</time></trkpt><trkpt lat="42.390791870487774" lon="-7.99874430087485"><ele>264.0</ele><time>2026-03-24T21:20:01Z</time></trkpt><trkpt lat="42.39096160857101" lon="-7.998811594645885"><ele>266.0</ele><time>2026-03-24T21:20:02Z</time></trkpt><trkpt lat="42.39112293070821" lon="-7.998913668603383"><ele>266.0</ele><time>2026-03-24T21:20:03Z</time></trkpt><trkpt lat="42.3912669796698" lon="-7.99903980204413"><ele>266.0</ele><time>2026-03-24T21:20:04Z</time></trkpt><trkpt lat="42.391414850527454" lon="-7.999172149147321"><ele>266.0</ele><time>2026-03-24T21:20:05Z</time></trkpt><trkpt lat="42.391560419345126" lon="-7.999304475096643"><ele>267.0</ele><time>2026-03-24T21:20:06Z</time></trkpt><trkpt lat="42.391692070799046" lon="-7.999449097066501"><ele>268.0</ele><time>2026-03-24T21:20:07Z</time></trkpt><trkpt lat="42.391833189566775" lon="-7.999587904851179"><ele>269.0</ele><time>2026-03-24T21:20:08Z</time></trkpt><trkpt lat="42.39196953968654" lon="-7.999743438651904"><ele>269.0</ele><time>2026-03-24T21:20:09Z</time></trkpt><trkpt lat="42.39210670585667" lon="-7.999887586309281"><ele>269.0</ele><time>2026-03-24T21:20:10Z</time></trkpt><trkpt lat="42.392248032293125" lon="-8.000034107615985"><ele>269.0</ele><time>2026-03-24T21:20:11Z</time></trkpt><trkpt lat="42.3923863680001" lon="-8.00018631018874"><ele>268.6666666666667</ele><time>2026-03-24T21:20:12Z</time></trkpt><trkpt lat="42.392523296670504" lon="-8.000341270432608"><ele>268.3333333333333</ele><time>2026-03-24T21:20:13Z</time></trkpt><trkpt lat="42.39266000788176" lon="-8.0005024804581"><ele>268.0</ele><time>2026-03-24T21:20:14Z</time></trkpt><trkpt lat="42.39278991074394" lon="-8.000677139028022"><ele>268.3333333333333</ele><time>2026-03-24T21:20:15Z</time></trkpt><trkpt lat="42.39292682614196" lon="-8.000843314952789"><ele>268.6666666666667</ele><time>2026-03-24T21:20:16Z</time></trkpt><trkpt lat="42.39306562642951" lon="-8.001010401926766"><ele>269.0</ele><time>2026-03-24T21:20:17Z</time></trkpt><trkpt lat="42.393206675426136" lon="-8.00118107450925"><ele>269.0</ele><time>2026-03-24T21:20:18Z</time></trkpt><trkpt lat="42.393347581514625" lon="-8.001355454552435"><ele>269.0</ele><time>2026-03-24T21:20:19Z</time></trkpt><trkpt lat="42.39348616811264" lon="-8.00153307095183"><ele>269.0</ele><time>2026-03-24T21:20:20Z</time></trkpt><trkpt lat="42.393625575423016" lon="-8.001716207005236"><ele>271.0</ele><time>2026-03-24T21:20:21Z</time></trkpt><trkpt lat="42.39377319568788" lon="-8.001889849460007"><ele>273.0</ele><time>2026-03-24T21:20:22Z</time></trkpt><trkpt lat="42.39392591767928" lon="-8.00205480049434"><ele>275.0</ele><time>2026-03-24T21:20:23Z</time></trkpt><trkpt lat="42.39408630592909" lon="-8.002211310543274"><ele>275.0</ele><time>2026-03-24T21:20:24Z</time></trkpt><trkpt lat="42.39424681386466" lon="-8.002353471686863"><ele>275.0</ele><time>2026-03-24T21:20:25Z</time></trkpt><trkpt lat="42.39441974211778" lon="-8.002497926902782"><ele>275.0</ele><time>2026-03-24T21:20:26Z</time></trkpt><trkpt lat="42.39459042562813" lon="-8.002619880443051"><ele>277.0</ele><time>2026-03-24T21:20:27Z</time></trkpt><trkpt lat="42.39476941797902" lon="-8.002732968297238"><ele>279.0</ele><time>2026-03-24T21:20:28Z</time></trkpt><trkpt lat="42.39495329978297" lon="-8.00285404528158"><ele>281.0</ele><time>2026-03-24T21:20:29Z</time></trkpt><trkpt lat="42.395135502769016" lon="-8.002962346428427"><ele>281.0</ele><time>2026-03-24T21:20:30Z</time></trkpt><trkpt lat="42.395316186850444" lon="-8.003059038927024"><ele>281.0</ele><time>2026-03-24T21:20:31Z</time></trkpt><trkpt lat="42.39550204476696" lon="-8.003153596125427"><ele>281.0</ele><time>2026-03-24T21:20:32Z</time></trkpt><trkpt lat="42.3956934884216" lon="-8.003225351282643"><ele>284.0</ele><time>2026-03-24T21:20:33Z</time></trkpt><trkpt lat="42.39587417438205" lon="-8.003337299929731"><ele>287.0</ele><time>2026-03-24T21:20:34Z</time></trkpt><trkpt lat="42.39605789717778" lon="-8.00344114164078"><ele>290.0</ele><time>2026-03-24T21:20:35Z</time></trkpt><trkpt lat="42.39623613464709" lon="-8.003552289635522"><ele>288.0</ele><time>2026-03-24T21:20:36Z</time></trkpt><trkpt lat="42.39640535412826" lon="-8.003685401691808"><ele>286.0</ele><time>2026-03-24T21:20:37Z</time></trkpt><trkpt lat="42.39656438262309" lon="-8.0038395201992"><ele>284.0</ele><time>2026-03-24T21:20:38Z</time></trkpt><trkpt lat="42.39671103903778" lon="-8.004014423541996"><ele>287.33333333333337</ele><time>2026-03-24T21:20:39Z</time></trkpt><trkpt lat="42.39684943778287" lon="-8.004197835417013"><ele>290.6666666666667</ele><time>2026-03-24T21:20:40Z</time></trkpt><trkpt lat="42.39697584432036" lon="-8.004395585641378"><ele>294.0</ele><time>2026-03-24T21:20:41Z</time></trkpt><trkpt lat="42.39709439620148" lon="-8.004602852664942"><ele>293.3333333333333</ele><time>2026-03-24T21:20:42Z</time></trkpt><trkpt lat="42.39721628866326" lon="-8.00479582881946"><ele>292.66666666666663</ele><time>2026-03-24T21:20:43Z</time></trkpt><trkpt lat="42.39732512513154" lon="-8.004980679807387"><ele>292.0</ele><time>2026-03-24T21:20:44Z</time></trkpt><trkpt lat="42.39745311245392" lon="-8.00512764196764"><ele>295.0</ele><time>2026-03-24T21:20:45Z</time></trkpt><trkpt lat="42.39758966081368" lon="-8.005255216615165"><ele>298.0</ele><time>2026-03-24T21:20:46Z</time></trkpt><trkpt lat="42.3977408715461" lon="-8.005333911893617"><ele>301.0</ele><time>2026-03-24T21:20:47Z</time></trkpt><trkpt lat="42.39789980975232" lon="-8.005378444906054"><ele>301.66666666666663</ele><time>2026-03-24T21:20:47.999Z</time></trkpt><trkpt lat="42.3980641867408" lon="-8.005401928988745"><ele>302.3333333333333</ele><time>2026-03-24T21:20:48.999Z</time></trkpt><trkpt lat="42.39822202262649" lon="-8.005442475582829"><ele>303.0</ele><time>2026-03-24T21:20:49.999Z</time></trkpt><trkpt lat="42.39836904138753" lon="-8.005465474678044"><ele>303.0</ele><time>2026-03-24T21:20:50.999Z</time></trkpt><trkpt lat="42.39849437575692" lon="-8.005515370126961"><ele>303.0</ele><time>2026-03-24T21:20:51.999Z</time></trkpt><trkpt lat="42.398605621677845" lon="-8.00558742072472"><ele>303.0</ele><time>2026-03-24T21:20:52.999Z</time></trkpt><trkpt lat="42.398713985421075" lon="-8.005681077686063"><ele>303.0</ele><time>2026-03-24T21:20:53.999Z</time></trkpt><trkpt lat="42.39880905970459" lon="-8.005804268545951"><ele>305.0</ele><time>2026-03-24T21:20:54.999Z</time></trkpt><trkpt lat="42.3988969667276" lon="-8.005945369963888"><ele>307.0</ele><time>2026-03-24T21:20:55.999Z</time></trkpt><trkpt lat="42.398975347450616" lon="-8.006104639524036"><ele>309.0</ele><time>2026-03-24T21:20:56.999Z</time></trkpt><trkpt lat="42.39904772206668" lon="-8.00628034211703"><ele>311.0</ele><time>2026-03-24T21:20:57.999Z</time></trkpt><trkpt lat="42.399100580046635" lon="-8.006469179870335"><ele>311.33333333333337</ele><time>2026-03-24T21:20:58.999Z</time></trkpt><trkpt lat="42.39914192081676" lon="-8.006668429761874"><ele>311.6666666666667</ele><time>2026-03-24T21:20:59.999Z</time></trkpt><trkpt lat="42.39916395901204" lon="-8.006890462166004"><ele>312.0</ele><time>2026-03-24T21:21:00.999Z</time></trkpt><trkpt lat="42.39916161498457" lon="-8.007118953167184"><ele>312.0</ele><time>2026-03-24T21:21:01.999Z</time></trkpt><trkpt lat="42.39915966866092" lon="-8.007340480940512"><ele>312.0</ele><time>2026-03-24T21:21:02.999Z</time></trkpt><trkpt lat="42.39914146223553" lon="-8.007583106337567"><ele>312.0</ele><time>2026-03-24T21:21:03.999Z</time></trkpt><trkpt lat="42.39913507648432" lon="-8.007817858258257"><ele>312.0</ele><time>2026-03-24T21:21:04.999Z</time></trkpt><trkpt lat="42.39914270563379" lon="-8.008040725073753"><ele>312.0</ele><time>2026-03-24T21:21:05.999Z</time></trkpt><trkpt lat="42.399164403217966" lon="-8.00824943958353"><ele>312.0</ele><time>2026-03-24T21:21:06.999Z</time></trkpt><trkpt lat="42.39921209963015" lon="-8.0084369435074"><ele>312.6666666666667</ele><time>2026-03-24T21:21:07.999Z</time></trkpt><trkpt lat="42.39926183714002" lon="-8.00861097215005"><ele>313.33333333333337</ele><time>2026-03-24T21:21:08.999Z</time></trkpt><trkpt lat="42.39932567880504" lon="-8.008804141272055"><ele>314.0</ele><time>2026-03-24T21:21:09.999Z</time></trkpt><trkpt lat="42.39941419967925" lon="-8.008989761720809"><ele>314.0</ele><time>2026-03-24T21:21:10.999Z</time></trkpt><trkpt lat="42.399520302721044" lon="-8.009168360795554"><ele>314.0</ele><time>2026-03-24T21:21:11.999Z</time></trkpt><trkpt lat="42.399656887975816" lon="-8.00931408553459"><ele>314.0</ele><time>2026-03-24T21:21:12.999Z</time></trkpt><trkpt lat="42.39979960128252" lon="-8.009456717396008"><ele>314.0</ele><time>2026-03-24T21:21:13.999Z</time></trkpt><trkpt lat="42.39995334122392" lon="-8.009589655178429"><ele>314.0</ele><time>2026-03-24T21:21:14.999Z</time></trkpt><trkpt lat="42.40011538093646" lon="-8.009714339797972"><ele>314.0</ele><time>2026-03-24T21:21:15.999Z</time></trkpt><trkpt lat="42.40028409918351" lon="-8.009834646975483"><ele>314.0</ele><time>2026-03-24T21:21:16.999Z</time></trkpt><trkpt lat="42.40045797324214" lon="-8.009953359400102"><ele>314.0</ele><time>2026-03-24T21:21:17.999Z</time></trkpt><trkpt lat="42.40063529104735" lon="-8.010070566563927"><ele>314.0</ele><time>2026-03-24T21:21:18.999Z</time></trkpt><trkpt lat="42.400817746293725" lon="-8.01018700796636"><ele>314.0</ele><time>2026-03-24T21:21:19.999Z</time></trkpt><trkpt lat="42.40100299833901" lon="-8.010300300866732"><ele>314.0</ele><time>2026-03-24T21:21:20.999Z</time></trkpt><trkpt lat="42.4011888091311" lon="-8.010407504662274"><ele>314.0</ele><time>2026-03-24T21:21:21.999Z</time></trkpt><trkpt lat="42.401382438803005" lon="-8.010510142174596"><ele>314.0</ele><time>2026-03-24T21:21:22.999Z</time></trkpt><trkpt lat="42.40157814369596" lon="-8.010616048636633"><ele>314.0</ele><time>2026-03-24T21:21:23.999Z</time></trkpt><trkpt lat="42.401774159042255" lon="-8.010715213259525"><ele>314.0</ele><time>2026-03-24T21:21:24.999Z</time></trkpt><trkpt lat="42.4019751528586" lon="-8.010817234783488"><ele>315.33333333333337</ele><time>2026-03-24T21:21:25.999Z</time></trkpt><trkpt lat="42.40217385992596" lon="-8.01091469283111"><ele>316.6666666666667</ele><time>2026-03-24T21:21:26.999Z</time></trkpt><trkpt lat="42.40237641259828" lon="-8.01101018965933"><ele>318.0</ele><time>2026-03-24T21:21:27.999Z</time></trkpt><trkpt lat="42.40258799727755" lon="-8.011105032833248"><ele>318.0</ele><time>2026-03-24T21:21:28.999Z</time></trkpt><trkpt lat="42.40279042539617" lon="-8.011197742490541"><ele>318.0</ele><time>2026-03-24T21:21:29.999Z</time></trkpt><trkpt lat="42.40299772130734" lon="-8.011278187787967"><ele>318.0</ele><time>2026-03-24T21:21:30.999Z</time></trkpt><trkpt lat="42.40320823673354" lon="-8.011364887564474"><ele>318.3333333333333</ele><time>2026-03-24T21:21:31.999Z</time></trkpt><trkpt lat="42.403399926744406" lon="-8.011457404613273"><ele>318.66666666666663</ele><time>2026-03-24T21:21:32.999Z</time></trkpt><trkpt lat="42.40357772386335" lon="-8.011558455795708"><ele>319.0</ele><time>2026-03-24T21:21:33.999Z</time></trkpt><trkpt lat="42.403744922705435" lon="-8.0116854706541"><ele>319.0</ele><time>2026-03-24T21:21:34.999Z</time></trkpt><trkpt lat="42.4039026120675" lon="-8.0118511561672"><ele>319.0</ele><time>2026-03-24T21:21:35.999Z</time></trkpt><trkpt lat="42.40403848906196" lon="-8.012038734475949"><ele>319.0</ele><time>2026-03-24T21:21:36.999Z</time></trkpt><trkpt lat="42.404137908291226" lon="-8.012240471487859"><ele>319.0</ele><time>2026-03-24T21:21:37.999Z</time></trkpt><trkpt lat="42.40422406580095" lon="-8.01247920563594"><ele>319.0</ele><time>2026-03-24T21:21:38.999Z</time></trkpt><trkpt lat="42.404291527117046" lon="-8.012717437084586"><ele>319.0</ele><time>2026-03-24T21:21:39.999Z</time></trkpt><trkpt lat="42.40433797158024" lon="-8.012960049338199"><ele>320.3333333333333</ele><time>2026-03-24T21:21:40.999Z</time></trkpt><trkpt lat="42.40436318713577" lon="-8.013206643856423"><ele>321.6666666666667</ele><time>2026-03-24T21:21:41.999Z</time></trkpt><trkpt lat="42.404377360518566" lon="-8.01345202094905"><ele>323.0</ele><time>2026-03-24T21:21:42.999Z</time></trkpt><trkpt lat="42.404396062478106" lon="-8.013710013683001"><ele>324.33333333333337</ele><time>2026-03-24T21:21:43.999Z</time></trkpt><trkpt lat="42.40444585967323" lon="-8.013976008572957"><ele>325.6666666666667</ele><time>2026-03-24T21:21:44.999Z</time></trkpt><trkpt lat="42.40451218056023" lon="-8.014212150860752"><ele>327.0</ele><time>2026-03-24T21:21:45.999Z</time></trkpt><trkpt lat="42.40460282069462" lon="-8.014436700049796"><ele>324.0</ele><time>2026-03-24T21:21:46.999Z</time></trkpt><trkpt lat="42.40471923920365" lon="-8.0146368125929"><ele>321.0</ele><time>2026-03-24T21:21:47.999Z</time></trkpt><trkpt lat="42.40487338870802" lon="-8.014817895882784"><ele>318.0</ele><time>2026-03-24T21:21:48.999Z</time></trkpt><trkpt lat="42.40504698468006" lon="-8.014956373521455"><ele>319.3333333333333</ele><time>2026-03-24T21:21:49.999Z</time></trkpt><trkpt lat="42.40523771662437" lon="-8.015066618517764"><ele>320.66666666666663</ele><time>2026-03-24T21:21:50.999Z</time></trkpt><trkpt lat="42.40544152558799" lon="-8.015117337483268"><ele>322.0</ele><time>2026-03-24T21:21:51.999Z</time></trkpt><trkpt lat="42.405647656682824" lon="-8.015183165609175"><ele>322.0</ele><time>2026-03-24T21:21:52.999Z</time></trkpt><trkpt lat="42.405848610985025" lon="-8.015260616828234"><ele>322.0</ele><time>2026-03-24T21:21:53.999Z</time></trkpt><trkpt lat="42.40605778122609" lon="-8.015325066828392"><ele>322.0</ele><time>2026-03-24T21:21:54.998Z</time></trkpt><trkpt lat="42.40626123334546" lon="-8.015416805034198"><ele>321.3333333333333</ele><time>2026-03-24T21:21:55.998Z</time></trkpt><trkpt lat="42.40645587712942" lon="-8.015543415588528"><ele>320.6666666666667</ele><time>2026-03-24T21:21:56.998Z</time></trkpt><trkpt lat="42.40663734605535" lon="-8.01571349802088"><ele>320.0</ele><time>2026-03-24T21:21:57.998Z</time></trkpt><trkpt lat="42.406817648757695" lon="-8.015888896772019"><ele>321.33333333333337</ele><time>2026-03-24T21:21:59Z</time></trkpt><trkpt lat="42.40699508878397" lon="-8.016071563217643"><ele>322.6666666666667</ele><time>2026-03-24T21:22:00Z</time></trkpt><trkpt lat="42.40717199002922" lon="-8.016256657292018"><ele>324.0</ele><time>2026-03-24T21:22:01Z</time></trkpt><trkpt lat="42.407341554275824" lon="-8.01642512987554"><ele>324.5</ele><time>2026-03-24T21:22:02Z</time></trkpt><trkpt lat="42.407537231965" lon="-8.016636233696886"><ele>325.0</ele><time>2026-03-24T21:22:03Z</time></trkpt><trkpt lat="42.40770013720054" lon="-8.016839423555131"><ele>326.0</ele><time>2026-03-24T21:22:04Z</time></trkpt><trkpt lat="42.407877228231264" lon="-8.017028222208616"><ele>327.0</ele><time>2026-03-24T21:22:05Z</time></trkpt><trkpt lat="42.408059203498325" lon="-8.01721659303237"><ele>327.3333333333333</ele><time>2026-03-24T21:22:06Z</time></trkpt><trkpt lat="42.408233590335136" lon="-8.017401455482275"><ele>327.66666666666663</ele><time>2026-03-24T21:22:07Z</time></trkpt><trkpt lat="42.40840794456872" lon="-8.017585775791652"><ele>328.0</ele><time>2026-03-24T21:22:08Z</time></trkpt><trkpt lat="42.40857666114055" lon="-8.017769174148876"><ele>328.3333333333333</ele><time>2026-03-24T21:22:09Z</time></trkpt><trkpt lat="42.40873912463138" lon="-8.017949242131039"><ele>328.6666666666667</ele><time>2026-03-24T21:22:10Z</time></trkpt><trkpt lat="42.4089146274846" lon="-8.01812974701119"><ele>329.0</ele><time>2026-03-24T21:22:11Z</time></trkpt><trkpt lat="42.409079961078" lon="-8.018311545502282"><ele>330.6666666666667</ele><time>2026-03-24T21:22:12Z</time></trkpt><trkpt lat="42.40924654497302" lon="-8.018486838214274"><ele>332.3333333333333</ele><time>2026-03-24T21:22:13Z</time></trkpt><trkpt lat="42.40941067288717" lon="-8.018666867201976"><ele>334.0</ele><time>2026-03-24T21:22:14Z</time></trkpt><trkpt lat="42.40957658141149" lon="-8.018840633190573"><ele>335.66666666666663</ele><time>2026-03-24T21:22:15Z</time></trkpt><trkpt lat="42.40974055055496" lon="-8.019012125494443"><ele>337.3333333333333</ele><time>2026-03-24T21:22:16Z</time></trkpt><trkpt lat="42.4099022904147" lon="-8.019185594970985"><ele>339.0</ele><time>2026-03-24T21:22:17Z</time></trkpt><trkpt lat="42.41006248664549" lon="-8.019359943981817"><ele>339.6666666666667</ele><time>2026-03-24T21:22:18Z</time></trkpt><trkpt lat="42.41022419006" lon="-8.019533514665255"><ele>340.33333333333337</ele><time>2026-03-24T21:22:19Z</time></trkpt><trkpt lat="42.410385702136395" lon="-8.019704548847658"><ele>341.0</ele><time>2026-03-24T21:22:20Z</time></trkpt><trkpt lat="42.41054622617126" lon="-8.019870674623855"><ele>344.33333333333337</ele><time>2026-03-24T21:22:21Z</time></trkpt><trkpt lat="42.41070880363363" lon="-8.02003737572464"><ele>347.6666666666667</ele><time>2026-03-24T21:22:22Z</time></trkpt><trkpt lat="42.410870620811714" lon="-8.020204375789566"><ele>351.0</ele><time>2026-03-24T21:22:23Z</time></trkpt><trkpt lat="42.41103196106154" lon="-8.02037166041292"><ele>351.0</ele><time>2026-03-24T21:22:24Z</time></trkpt><trkpt lat="42.41119881432739" lon="-8.020527281645215"><ele>351.0</ele><time>2026-03-24T21:22:25Z</time></trkpt><trkpt lat="42.411376365407186" lon="-8.020668445469898"><ele>351.0</ele><time>2026-03-24T21:22:26Z</time></trkpt><trkpt lat="42.41156485211623" lon="-8.020786491414494"><ele>353.0</ele><time>2026-03-24T21:22:27Z</time></trkpt><trkpt lat="42.41176046441408" lon="-8.020869992335578"><ele>355.0</ele><time>2026-03-24T21:22:28Z</time></trkpt><trkpt lat="42.4119642117621" lon="-8.02096228206433"><ele>357.0</ele><time>2026-03-24T21:22:29Z</time></trkpt><trkpt lat="42.41215290638617" lon="-8.021029140778307"><ele>357.6666666666667</ele><time>2026-03-24T21:22:30Z</time></trkpt><trkpt lat="42.41234482421774" lon="-8.021106982588435"><ele>358.33333333333337</ele><time>2026-03-24T21:22:31Z</time></trkpt><trkpt lat="42.412540227391496" lon="-8.021174087470893"><ele>359.0</ele><time>2026-03-24T21:22:32Z</time></trkpt><trkpt lat="42.41274066776979" lon="-8.021241447322009"><ele>359.0</ele><time>2026-03-24T21:22:33Z</time></trkpt><trkpt lat="42.412935373072095" lon="-8.021313795147277"><ele>359.0</ele><time>2026-03-24T21:22:34Z</time></trkpt><trkpt lat="42.41313040882033" lon="-8.021394533810755"><ele>359.0</ele><time>2026-03-24T21:22:35Z</time></trkpt><trkpt lat="42.41332394866639" lon="-8.021488858254026"><ele>360.0</ele><time>2026-03-24T21:22:36Z</time></trkpt><trkpt lat="42.413514542774514" lon="-8.02161349205866"><ele>361.0</ele><time>2026-03-24T21:22:37Z</time></trkpt><trkpt lat="42.41369750066638" lon="-8.021738882062392"><ele>362.0</ele><time>2026-03-24T21:22:38Z</time></trkpt><trkpt lat="42.41387554074125" lon="-8.02190130656183"><ele>362.33333333333337</ele><time>2026-03-24T21:22:39Z</time></trkpt><trkpt lat="42.41404060052063" lon="-8.022071439269022"><ele>362.6666666666667</ele><time>2026-03-24T21:22:40Z</time></trkpt><trkpt lat="42.41419993885963" lon="-8.02224483617876"><ele>363.0</ele><time>2026-03-24T21:22:41Z</time></trkpt><trkpt lat="42.414350424831426" lon="-8.022431331006409"><ele>364.6666666666667</ele><time>2026-03-24T21:22:42Z</time></trkpt><trkpt lat="42.4144911217272" lon="-8.022629018963086"><ele>366.33333333333337</ele><time>2026-03-24T21:22:43Z</time></trkpt><trkpt lat="42.41461496728526" lon="-8.022844011252314"><ele>368.0</ele><time>2026-03-24T21:22:44Z</time></trkpt><trkpt lat="42.41473227708094" lon="-8.023053639821354"><ele>368.6666666666667</ele><time>2026-03-24T21:22:45Z</time></trkpt><trkpt lat="42.41483751292767" lon="-8.023283911062896"><ele>369.3333333333333</ele><time>2026-03-24T21:22:46Z</time></trkpt><trkpt lat="42.41493032486192" lon="-8.02350726877439"><ele>370.0</ele><time>2026-03-24T21:22:47Z</time></trkpt><trkpt lat="42.41500287048399" lon="-8.023741156402679"><ele>371.66666666666663</ele><time>2026-03-24T21:22:48Z</time></trkpt><trkpt lat="42.4150785868459" lon="-8.023979930900353"><ele>373.3333333333333</ele><time>2026-03-24T21:22:49Z</time></trkpt><trkpt lat="42.41513486646654" lon="-8.024220762780091"><ele>375.0</ele><time>2026-03-24T21:22:50Z</time></trkpt><trkpt lat="42.41518283415161" lon="-8.0244615319861"><ele>377.3333333333333</ele><time>2026-03-24T21:22:51Z</time></trkpt><trkpt lat="42.415223168054574" lon="-8.0247049361875"><ele>379.66666666666663</ele><time>2026-03-24T21:22:52Z</time></trkpt><trkpt lat="42.41524977540121" lon="-8.024950148460322"><ele>382.0</ele><time>2026-03-24T21:22:53Z</time></trkpt><trkpt lat="42.41526630609341" lon="-8.025199060795389"><ele>384.0</ele><time>2026-03-24T21:22:54Z</time></trkpt><trkpt lat="42.41528039305882" lon="-8.025442812266816"><ele>386.0</ele><time>2026-03-24T21:22:54.999Z</time></trkpt><trkpt lat="42.41527562558054" lon="-8.025686265734935"><ele>388.0</ele><time>2026-03-24T21:22:55.999Z</time></trkpt><trkpt lat="42.415264068835484" lon="-8.02589287688182"><ele>389.5</ele><time>2026-03-24T21:22:56.999Z</time></trkpt><trkpt lat="42.415239008274604" lon="-8.026077797694308"><ele>391.0</ele><time>2026-03-24T21:22:57.999Z</time></trkpt><trkpt lat="42.415216459194156" lon="-8.02626669898387"><ele>392.5</ele><time>2026-03-24T21:22:58.999Z</time></trkpt><trkpt lat="42.415191796502164" lon="-8.026448037442885"><ele>394.0</ele><time>2026-03-24T21:22:59.999Z</time></trkpt><trkpt lat="42.4151615796677" lon="-8.026633451711927"><ele>395.0</ele><time>2026-03-24T21:23:00.999Z</time></trkpt><trkpt lat="42.415138447215966" lon="-8.026819579745391"><ele>396.0</ele><time>2026-03-24T21:23:01.999Z</time></trkpt><trkpt lat="42.41510689095278" lon="-8.026989412489309"><ele>397.0</ele><time>2026-03-24T21:23:02.999Z</time></trkpt><trkpt lat="42.4150710702334" lon="-8.027149188647797"><ele>398.0</ele><time>2026-03-24T21:23:03.999Z</time></trkpt><trkpt lat="42.41503552082676" lon="-8.027322923848558"><ele>399.5</ele><time>2026-03-24T21:23:04.999Z</time></trkpt><trkpt lat="42.41500423433865" lon="-8.02749410399861"><ele>401.0</ele><time>2026-03-24T21:23:05.999Z</time></trkpt><trkpt lat="42.41496559895684" lon="-8.02766278622087"><ele>402.5</ele><time>2026-03-24T21:23:06.999Z</time></trkpt><trkpt lat="42.41492501870096" lon="-8.027835732709676"><ele>404.0</ele><time>2026-03-24T21:23:07.999Z</time></trkpt><trkpt lat="42.41489311910947" lon="-8.028005949416258"><ele>404.0</ele><time>2026-03-24T21:23:08.999Z</time></trkpt><trkpt lat="42.414856431895295" lon="-8.02817866714601"><ele>404.0</ele><time>2026-03-24T21:23:09.999Z</time></trkpt><trkpt lat="42.4148106916967" lon="-8.028357872249632"><ele>404.0</ele><time>2026-03-24T21:23:10.999Z</time></trkpt><trkpt lat="42.4147614151229" lon="-8.028539835448385"><ele>404.0</ele><time>2026-03-24T21:23:11.999Z</time></trkpt><trkpt lat="42.414711263994455" lon="-8.028726892293934"><ele>403.3333333333333</ele><time>2026-03-24T21:23:12.999Z</time></trkpt><trkpt lat="42.414658868284675" lon="-8.028917048001135"><ele>402.66666666666663</ele><time>2026-03-24T21:23:13.999Z</time></trkpt><trkpt lat="42.41460766838524" lon="-8.029112117404726"><ele>402.0</ele><time>2026-03-24T21:23:14.999Z</time></trkpt><trkpt lat="42.414550841748365" lon="-8.029309016057079"><ele>403.33333333333337</ele><time>2026-03-24T21:23:15.999Z</time></trkpt><trkpt lat="42.4144860693734" lon="-8.029515611632819"><ele>404.6666666666667</ele><time>2026-03-24T21:23:16.999Z</time></trkpt><trkpt lat="42.41442094636302" lon="-8.029719797701222"><ele>406.0</ele><time>2026-03-24T21:23:17.999Z</time></trkpt><trkpt lat="42.414358685704805" lon="-8.029937116172508"><ele>407.33333333333337</ele><time>2026-03-24T21:23:18.999Z</time></trkpt><trkpt lat="42.414297551989264" lon="-8.030158474303864"><ele>408.66666666666663</ele><time>2026-03-24T21:23:19.999Z</time></trkpt><trkpt lat="42.41423284709168" lon="-8.030384841471584"><ele>410.0</ele><time>2026-03-24T21:23:20.999Z</time></trkpt><trkpt lat="42.41417309484937" lon="-8.030621503035002"><ele>410.3333333333333</ele><time>2026-03-24T21:23:21.999Z</time></trkpt><trkpt lat="42.41411561296768" lon="-8.030854674667854"><ele>410.66666666666663</ele><time>2026-03-24T21:23:22.999Z</time></trkpt><trkpt lat="42.41406466740735" lon="-8.031101062249077"><ele>411.0</ele><time>2026-03-24T21:23:23.999Z</time></trkpt><trkpt lat="42.41402440898339" lon="-8.031346636026282"><ele>411.0</ele><time>2026-03-24T21:23:24.999Z</time></trkpt><trkpt lat="42.414001667966836" lon="-8.031599364920426"><ele>411.0</ele><time>2026-03-24T21:23:25.999Z</time></trkpt><trkpt lat="42.414004644918634" lon="-8.031858317989043"><ele>411.0</ele><time>2026-03-24T21:23:26.999Z</time></trkpt><trkpt lat="42.41402564438267" lon="-8.032106849817238"><ele>411.66666666666663</ele><time>2026-03-24T21:23:27.999Z</time></trkpt><trkpt lat="42.41405617841256" lon="-8.032358142153909"><ele>412.3333333333333</ele><time>2026-03-24T21:23:28.999Z</time></trkpt><trkpt lat="42.41410271054832" lon="-8.032604382413034"><ele>413.0</ele><time>2026-03-24T21:23:29.999Z</time></trkpt><trkpt lat="42.41416244520086" lon="-8.03284567032313"><ele>414.3333333333333</ele><time>2026-03-24T21:23:30.999Z</time></trkpt><trkpt lat="42.41423859969709" lon="-8.033074584251464"><ele>415.66666666666663</ele><time>2026-03-24T21:23:31.999Z</time></trkpt><trkpt lat="42.41432755322677" lon="-8.033295879812012"><ele>417.0</ele><time>2026-03-24T21:23:32.999Z</time></trkpt><trkpt lat="42.41442396554186" lon="-8.03350674521215"><ele>417.66666666666663</ele><time>2026-03-24T21:23:33.999Z</time></trkpt><trkpt lat="42.414521144701595" lon="-8.033720254401093"><ele>418.3333333333333</ele><time>2026-03-24T21:23:34.999Z</time></trkpt><trkpt lat="42.41462115622494" lon="-8.03392813452543"><ele>419.0</ele><time>2026-03-24T21:23:35.999Z</time></trkpt><trkpt lat="42.414727281285856" lon="-8.034132454545649"><ele>421.66666666666663</ele><time>2026-03-24T21:23:36.999Z</time></trkpt><trkpt lat="42.414820871967464" lon="-8.034337155133647"><ele>424.33333333333337</ele><time>2026-03-24T21:23:37.999Z</time></trkpt><trkpt lat="42.414927278095675" lon="-8.034537534262068"><ele>427.0</ele><time>2026-03-24T21:23:38.999Z</time></trkpt><trkpt lat="42.41503599608567" lon="-8.034733525125393"><ele>427.0</ele><time>2026-03-24T21:23:39.999Z</time></trkpt><trkpt lat="42.41514020683319" lon="-8.03493476102413"><ele>427.0</ele><time>2026-03-24T21:23:40.999Z</time></trkpt><trkpt lat="42.41523649486967" lon="-8.035141406392365"><ele>427.0</ele><time>2026-03-24T21:23:41.999Z</time></trkpt><trkpt lat="42.41533246050769" lon="-8.035357771153594"><ele>428.0</ele><time>2026-03-24T21:23:42.999Z</time></trkpt><trkpt lat="42.41542622599632" lon="-8.035570153830886"><ele>429.0</ele><time>2026-03-24T21:23:43.999Z</time></trkpt><trkpt lat="42.41552132469568" lon="-8.035783924755417"><ele>430.0</ele><time>2026-03-24T21:23:44.999Z</time></trkpt><trkpt lat="42.415615666757354" lon="-8.035996175187666"><ele>431.6666666666667</ele><time>2026-03-24T21:23:45.999Z</time></trkpt><trkpt lat="42.41572127676176" lon="-8.036207676975282"><ele>433.33333333333337</ele><time>2026-03-24T21:23:46.999Z</time></trkpt><trkpt lat="42.41584523614181" lon="-8.036411818368776"><ele>435.0</ele><time>2026-03-24T21:23:47.999Z</time></trkpt><trkpt lat="42.415980908761526" lon="-8.036606209567019"><ele>434.66666666666663</ele><time>2026-03-24T21:23:48.999Z</time></trkpt><trkpt lat="42.41612472481682" lon="-8.036802164935816"><ele>434.3333333333333</ele><time>2026-03-24T21:23:49.999Z</time></trkpt><trkpt lat="42.41627489868481" lon="-8.03700888521573"><ele>434.0</ele><time>2026-03-24T21:23:50.999Z</time></trkpt><trkpt lat="42.416430906171676" lon="-8.037219064354575"><ele>434.0</ele><time>2026-03-24T21:23:51.999Z</time></trkpt><trkpt lat="42.416587982099614" lon="-8.03743533625451"><ele>434.0</ele><time>2026-03-24T21:23:52.999Z</time></trkpt><trkpt lat="42.41673191007545" lon="-8.037645567550332"><ele>434.0</ele><time>2026-03-24T21:23:53.999Z</time></trkpt><trkpt lat="42.41686424698183" lon="-8.03784621429953"><ele>432.66666666666663</ele><time>2026-03-24T21:23:54.999Z</time></trkpt><trkpt lat="42.416997791148795" lon="-8.038038610998926"><ele>431.33333333333337</ele><time>2026-03-24T21:23:55.999Z</time></trkpt><trkpt lat="42.4171148546698" lon="-8.038235554477847"><ele>430.0</ele><time>2026-03-24T21:23:56.999Z</time></trkpt><trkpt lat="42.41722206273028" lon="-8.038451752155098"><ele>428.6666666666667</ele><time>2026-03-24T21:23:57.999Z</time></trkpt><trkpt lat="42.417313763601484" lon="-8.038692083714864"><ele>427.33333333333337</ele><time>2026-03-24T21:23:58.999Z</time></trkpt><trkpt lat="42.41739528919108" lon="-8.038956387398901"><ele>426.0</ele><time>2026-03-24T21:23:59.998Z</time></trkpt><trkpt lat="42.417466967080436" lon="-8.039258195116012"><ele>424.33333333333337</ele><time>2026-03-24T21:24:00.998Z</time></trkpt><trkpt lat="42.4175583811914" lon="-8.039541692881928"><ele>422.6666666666667</ele><time>2026-03-24T21:24:01.998Z</time></trkpt><trkpt lat="42.417641476987576" lon="-8.03981078908372"><ele>421.0</ele><time>2026-03-24T21:24:02.998Z</time></trkpt><trkpt lat="42.4177177801073" lon="-8.040041129614199"><ele>422.0</ele><time>2026-03-24T21:24:03.998Z</time></trkpt><trkpt lat="42.417803763626594" lon="-8.04026424009964"><ele>423.0</ele><time>2026-03-24T21:24:05Z</time></trkpt><trkpt lat="42.417919073415995" lon="-8.040464497340052"><ele>424.0</ele><time>2026-03-24T21:24:06Z</time></trkpt><trkpt lat="42.41807203903634" lon="-8.040652843328752"><ele>422.33333333333337</ele><time>2026-03-24T21:24:07Z</time></trkpt><trkpt lat="42.41823694617507" lon="-8.040825024696005"><ele>420.66666666666663</ele><time>2026-03-24T21:24:08Z</time></trkpt><trkpt lat="42.41842489285773" lon="-8.040969445473639"><ele>419.0</ele><time>2026-03-24T21:24:09Z</time></trkpt><trkpt lat="42.41862760374569" lon="-8.04110502907726"><ele>419.3333333333333</ele><time>2026-03-24T21:24:10Z</time></trkpt><trkpt lat="42.41883663051321" lon="-8.041272310920714"><ele>419.66666666666663</ele><time>2026-03-24T21:24:11Z</time></trkpt><trkpt lat="42.41886984231774" lon="-8.041397350494766"><ele>420.0</ele><time>2026-03-24T21:24:12Z</time></trkpt><trkpt lat="42.41904672321768" lon="-8.041468392112057"><ele>420.0</ele><time>2026-03-24T21:24:13Z</time></trkpt><trkpt lat="42.41924198624194" lon="-8.041539053297345"><ele>420.0</ele><time>2026-03-24T21:24:14Z</time></trkpt><trkpt lat="42.419442862728005" lon="-8.04160916661761"><ele>420.0</ele><time>2026-03-24T21:24:15Z</time></trkpt><trkpt lat="42.41964958720057" lon="-8.04170088949084"><ele>417.66666666666663</ele><time>2026-03-24T21:24:16Z</time></trkpt><trkpt lat="42.41986331866378" lon="-8.041780905510047"><ele>415.3333333333333</ele><time>2026-03-24T21:24:17Z</time></trkpt><trkpt lat="42.420081967569594" lon="-8.041863164177077"><ele>413.0</ele><time>2026-03-24T21:24:18Z</time></trkpt><trkpt lat="42.42030013819146" lon="-8.04195813226894"><ele>414.0</ele><time>2026-03-24T21:24:19Z</time></trkpt><trkpt lat="42.42051715298724" lon="-8.042071701621751"><ele>415.0</ele><time>2026-03-24T21:24:20Z</time></trkpt><trkpt lat="42.420729043562325" lon="-8.042207999627875"><ele>415.0</ele><time>2026-03-24T21:24:21Z</time></trkpt><trkpt lat="42.420935052638484" lon="-8.042383608804382"><ele>415.0</ele><time>2026-03-24T21:24:22Z</time></trkpt><trkpt lat="42.4211248282024" lon="-8.042576552570663"><ele>414.0</ele><time>2026-03-24T21:24:23Z</time></trkpt><trkpt lat="42.421300701345956" lon="-8.042799142221682"><ele>413.0</ele><time>2026-03-24T21:24:24Z</time></trkpt><trkpt lat="42.42146751231874" lon="-8.043044084939567"><ele>411.0</ele><time>2026-03-24T21:24:25Z</time></trkpt><trkpt lat="42.42161809514445" lon="-8.043297609455456"><ele>409.0</ele><time>2026-03-24T21:24:26Z</time></trkpt><trkpt lat="42.421756888981704" lon="-8.043562577528956"><ele>409.0</ele><time>2026-03-24T21:24:27Z</time></trkpt><trkpt lat="42.42188790188166" lon="-8.043820709109216"><ele>409.0</ele><time>2026-03-24T21:24:28Z</time></trkpt><trkpt lat="42.4220028900886" lon="-8.044058628382572"><ele>409.0</ele><time>2026-03-24T21:24:29Z</time></trkpt><trkpt lat="42.42210583907599" lon="-8.044276801087948"><ele>411.6666666666667</ele><time>2026-03-24T21:24:30Z</time></trkpt><trkpt lat="42.42218307396362" lon="-8.044497178818721"><ele>414.33333333333337</ele><time>2026-03-24T21:24:31Z</time></trkpt><trkpt lat="42.42222793767088" lon="-8.044734402001472"><ele>417.0</ele><time>2026-03-24T21:24:32Z</time></trkpt><trkpt lat="42.422229663676625" lon="-8.044988973341374"><ele>415.0</ele><time>2026-03-24T21:24:33Z</time></trkpt><trkpt lat="42.42214200353412" lon="-8.045273273522389"><ele>413.0</ele><time>2026-03-24T21:24:34Z</time></trkpt><trkpt lat="42.422092383187056" lon="-8.045527139320566"><ele>411.0</ele><time>2026-03-24T21:24:35Z</time></trkpt><trkpt lat="42.42204130029607" lon="-8.045775748890199"><ele>412.0</ele><time>2026-03-24T21:24:36Z</time></trkpt><trkpt lat="42.4219889529715" lon="-8.046034878415727"><ele>413.0</ele><time>2026-03-24T21:24:37Z</time></trkpt><trkpt lat="42.42196374110418" lon="-8.046307290685153"><ele>414.0</ele><time>2026-03-24T21:24:38Z</time></trkpt><trkpt lat="42.421973229098434" lon="-8.046575207253197"><ele>414.66666666666663</ele><time>2026-03-24T21:24:39Z</time></trkpt><trkpt lat="42.42199360717208" lon="-8.046833480078602"><ele>415.3333333333333</ele><time>2026-03-24T21:24:40Z</time></trkpt><trkpt lat="42.422012577024155" lon="-8.047064969160452"><ele>416.0</ele><time>2026-03-24T21:24:41Z</time></trkpt><trkpt lat="42.42203245101747" lon="-8.047283760355143"><ele>416.0</ele><time>2026-03-24T21:24:42Z</time></trkpt><trkpt lat="42.422051485459555" lon="-8.047484366277123"><ele>416.0</ele><time>2026-03-24T21:24:43Z</time></trkpt><trkpt lat="42.422062286715615" lon="-8.047674982763827"><ele>416.0</ele><time>2026-03-24T21:24:44Z</time></trkpt><trkpt lat="42.42207650683236" lon="-8.047848002628724"><ele>416.0</ele><time>2026-03-24T21:24:45Z</time></trkpt><trkpt lat="42.42208748208004" lon="-8.048005481348195"><ele>416.0</ele><time>2026-03-24T21:24:46Z</time></trkpt><trkpt lat="42.4220990102671" lon="-8.048152933968902"><ele>416.0</ele><time>2026-03-24T21:24:47Z</time></trkpt><trkpt lat="42.42211034706042" lon="-8.048284028171127"><ele>416.0</ele><time>2026-03-24T21:24:48Z</time></trkpt><trkpt lat="42.42211966673352" lon="-8.048414217959483"><ele>416.0</ele><time>2026-03-24T21:24:49Z</time></trkpt><trkpt lat="42.422128232556695" lon="-8.048527166147695"><ele>416.0</ele><time>2026-03-24T21:24:50Z</time></trkpt><trkpt lat="42.42213991761151" lon="-8.048628210276993"><ele>417.8333333333333</ele><time>2026-03-24T21:24:51Z</time></trkpt><trkpt lat="42.422149061485804" lon="-8.04872344524271"><ele>419.66666666666663</ele><time>2026-03-24T21:24:52Z</time></trkpt><trkpt lat="42.42215921453617" lon="-8.048826732072943"><ele>421.5</ele><time>2026-03-24T21:24:53Z</time></trkpt><trkpt lat="42.42217020253302" lon="-8.04893372422046"><ele>423.33333333333337</ele><time>2026-03-24T21:24:54Z</time></trkpt><trkpt lat="42.42217929656521" lon="-8.049060414299197"><ele>425.1666666666667</ele><time>2026-03-24T21:24:54.999Z</time></trkpt><trkpt lat="42.4221892800918" lon="-8.049208371406149"><ele>427.0</ele><time>2026-03-24T21:24:55.999Z</time></trkpt><trkpt lat="42.42220160528825" lon="-8.049371932309626"><ele>427.0</ele><time>2026-03-24T21:24:56.999Z</time></trkpt><trkpt lat="42.42221791871287" lon="-8.049548027085804"><ele>427.0</ele><time>2026-03-24T21:24:57.999Z</time></trkpt><trkpt lat="42.42222933056581" lon="-8.049735195400899"><ele>427.0</ele><time>2026-03-24T21:24:58.999Z</time></trkpt><trkpt lat="42.42224054264022" lon="-8.049933654590564"><ele>427.0</ele><time>2026-03-24T21:24:59.999Z</time></trkpt><trkpt lat="42.422252612211395" lon="-8.050137226057481"><ele>427.0</ele><time>2026-03-24T21:25:00.999Z</time></trkpt><trkpt lat="42.422271640813825" lon="-8.050348799425516"><ele>427.0</ele><time>2026-03-24T21:25:01.999Z</time></trkpt><trkpt lat="42.422293531128894" lon="-8.050548961156753"><ele>427.0</ele><time>2026-03-24T21:25:02.999Z</time></trkpt><trkpt lat="42.42233264933117" lon="-8.050728467823994"><ele>427.0</ele><time>2026-03-24T21:25:03.999Z</time></trkpt><trkpt lat="42.42239415027113" lon="-8.050892700252714"><ele>427.0</ele><time>2026-03-24T21:25:04.999Z</time></trkpt><trkpt lat="42.42249073068459" lon="-8.051044754309089"><ele>427.0</ele><time>2026-03-24T21:25:05.999Z</time></trkpt><trkpt lat="42.422625811595054" lon="-8.051180763258497"><ele>427.0</ele><time>2026-03-24T21:25:06.999Z</time></trkpt><trkpt lat="42.422776413732656" lon="-8.051301641332486"><ele>427.0</ele><time>2026-03-24T21:25:07.999Z</time></trkpt><trkpt lat="42.422928222147476" lon="-8.051445379120837"><ele>427.0</ele><time>2026-03-24T21:25:08.999Z</time></trkpt><trkpt lat="42.42308158254201" lon="-8.051598788232067"><ele>427.0</ele><time>2026-03-24T21:25:09.999Z</time></trkpt><trkpt lat="42.423223832755085" lon="-8.051786721000118"><ele>425.0</ele><time>2026-03-24T21:25:10.999Z</time></trkpt><trkpt lat="42.423354032063" lon="-8.051978442688966"><ele>423.0</ele><time>2026-03-24T21:25:11.999Z</time></trkpt><trkpt lat="42.42345339144916" lon="-8.052169803854358"><ele>421.0</ele><time>2026-03-24T21:25:12.999Z</time></trkpt><trkpt lat="42.42352756173937" lon="-8.052384276891924"><ele>419.6666666666667</ele><time>2026-03-24T21:25:13.999Z</time></trkpt><trkpt lat="42.423574326559624" lon="-8.052630570145295"><ele>418.33333333333337</ele><time>2026-03-24T21:25:14.999Z</time></trkpt><trkpt lat="42.423598960871644" lon="-8.05288976455798"><ele>417.0</ele><time>2026-03-24T21:25:15.999Z</time></trkpt><trkpt lat="42.42361620143972" lon="-8.05314871893534"><ele>417.33333333333337</ele><time>2026-03-24T21:25:16.999Z</time></trkpt><trkpt lat="42.42364313557728" lon="-8.053411300879826"><ele>417.6666666666667</ele><time>2026-03-24T21:25:17.999Z</time></trkpt><trkpt lat="42.42369092048346" lon="-8.053670035544224"><ele>418.0</ele><time>2026-03-24T21:25:18.999Z</time></trkpt><trkpt lat="42.42379140971176" lon="-8.053907792721825"><ele>419.0</ele><time>2026-03-24T21:25:19.999Z</time></trkpt><trkpt lat="42.4238949323237" lon="-8.054150128562716"><ele>420.0</ele><time>2026-03-24T21:25:20.999Z</time></trkpt><trkpt lat="42.4239945510185" lon="-8.054394654691857"><ele>421.0</ele><time>2026-03-24T21:25:21.999Z</time></trkpt><trkpt lat="42.42411011525896" lon="-8.054646153681928"><ele>421.0</ele><time>2026-03-24T21:25:22.999Z</time></trkpt><trkpt lat="42.424222702529356" lon="-8.05489689138579"><ele>421.0</ele><time>2026-03-24T21:25:23.999Z</time></trkpt><trkpt lat="42.42432506388619" lon="-8.055135054601799"><ele>421.0</ele><time>2026-03-24T21:25:24.999Z</time></trkpt><trkpt lat="42.4244239357144" lon="-8.055426041109293"><ele>419.5</ele><time>2026-03-24T21:25:25.999Z</time></trkpt><trkpt lat="42.424519436476395" lon="-8.055699610672498"><ele>418.0</ele><time>2026-03-24T21:25:26.999Z</time></trkpt><trkpt lat="42.424614182796525" lon="-8.055983934200881"><ele>418.5</ele><time>2026-03-24T21:25:27.999Z</time></trkpt><trkpt lat="42.424708967288986" lon="-8.056262902609582"><ele>419.0</ele><time>2026-03-24T21:25:28.999Z</time></trkpt><trkpt lat="42.42480771933483" lon="-8.056545071997109"><ele>417.5</ele><time>2026-03-24T21:25:29.999Z</time></trkpt><trkpt lat="42.42491203094796" lon="-8.056825319930528"><ele>416.0</ele><time>2026-03-24T21:25:30.999Z</time></trkpt><trkpt lat="42.42501952546537" lon="-8.057104160131207"><ele>416.0</ele><time>2026-03-24T21:25:31.999Z</time></trkpt><trkpt lat="42.42513222365824" lon="-8.057390739715846"><ele>416.0</ele><time>2026-03-24T21:25:32.999Z</time></trkpt><trkpt lat="42.42525253663535" lon="-8.057673742185045"><ele>414.0</ele><time>2026-03-24T21:25:33.999Z</time></trkpt><trkpt lat="42.425377081554224" lon="-8.057950970551973"><ele>412.0</ele><time>2026-03-24T21:25:34.999Z</time></trkpt><trkpt lat="42.425509192109814" lon="-8.058239337992271"><ele>409.5</ele><time>2026-03-24T21:25:35.999Z</time></trkpt><trkpt lat="42.42564374787824" lon="-8.058523529598654"><ele>407.0</ele><time>2026-03-24T21:25:36.999Z</time></trkpt><trkpt lat="42.425774079061135" lon="-8.058808351802892"><ele>407.0</ele><time>2026-03-24T21:25:37.999Z</time></trkpt><trkpt lat="42.425906989782476" lon="-8.059099142333586"><ele>407.0</ele><time>2026-03-24T21:25:38.999Z</time></trkpt><trkpt lat="42.4260423133383" lon="-8.059395657182506"><ele>407.5</ele><time>2026-03-24T21:25:39.999Z</time></trkpt><trkpt lat="42.426179887496346" lon="-8.059688776218403"><ele>408.0</ele><time>2026-03-24T21:25:40.999Z</time></trkpt><trkpt lat="42.42631178164401" lon="-8.05997048819062"><ele>406.33333333333337</ele><time>2026-03-24T21:25:41.999Z</time></trkpt><trkpt lat="42.4264362014556" lon="-8.060239417004212"><ele>404.6666666666667</ele><time>2026-03-24T21:25:42.999Z</time></trkpt><trkpt lat="42.4265515587525" lon="-8.060480600055552"><ele>403.0</ele><time>2026-03-24T21:25:43.999Z</time></trkpt><trkpt lat="42.42668294300701" lon="-8.060761524030482"><ele>400.5</ele><time>2026-03-24T21:25:44.999Z</time></trkpt><trkpt lat="42.426814332256534" lon="-8.061035770728333"><ele>398.0</ele><time>2026-03-24T21:25:45.999Z</time></trkpt><trkpt lat="42.42694157286249" lon="-8.061313676738784"><ele>398.0</ele><time>2026-03-24T21:25:46.999Z</time></trkpt><trkpt lat="42.42706500835564" lon="-8.061576810112292"><ele>398.0</ele><time>2026-03-24T21:25:47.999Z</time></trkpt><trkpt lat="42.42718632379572" lon="-8.061822302489679"><ele>398.0</ele><time>2026-03-24T21:25:48.999Z</time></trkpt><trkpt lat="42.42730351132269" lon="-8.062055670569077"><ele>395.3333333333333</ele><time>2026-03-24T21:25:49.999Z</time></trkpt><trkpt lat="42.42741855495651" lon="-8.062245702059318"><ele>392.66666666666663</ele><time>2026-03-24T21:25:50.999Z</time></trkpt><trkpt lat="42.42752575775195" lon="-8.06242873558675"><ele>390.0</ele><time>2026-03-24T21:25:51.999Z</time></trkpt><trkpt lat="42.42762808245843" lon="-8.06257360981877"><ele>390.0</ele><time>2026-03-24T21:25:52.999Z</time></trkpt><trkpt lat="42.427726212879705" lon="-8.06269883245201"><ele>390.0</ele><time>2026-03-24T21:25:53.999Z</time></trkpt><trkpt lat="42.42781525754854" lon="-8.062790267490618"><ele>390.0</ele><time>2026-03-24T21:25:54.999Z</time></trkpt><trkpt lat="42.42791904516974" lon="-8.062865549377927"><ele>390.0</ele><time>2026-03-24T21:25:55.999Z</time></trkpt><trkpt lat="42.42800009839191" lon="-8.06294213441905"><ele>390.0</ele><time>2026-03-24T21:25:56.999Z</time></trkpt><trkpt lat="42.42813436531828" lon="-8.062909031769783"><ele>390.0</ele><time>2026-03-24T21:25:57.999Z</time></trkpt><trkpt lat="42.42823405458127" lon="-8.062910303658317"><ele>390.0</ele><time>2026-03-24T21:25:58.998Z</time></trkpt><trkpt lat="42.42832132917123" lon="-8.062939212670683"><ele>390.0</ele><time>2026-03-24T21:25:59.998Z</time></trkpt><trkpt lat="42.42838803479057" lon="-8.063014178146867"><ele>390.0</ele><time>2026-03-24T21:26:00.998Z</time></trkpt><trkpt lat="42.42843557943512" lon="-8.06312803298514"><ele>390.0</ele><time>2026-03-24T21:26:01.998Z</time></trkpt><trkpt lat="42.428461495094055" lon="-8.063250265588582"><ele>390.0</ele><time>2026-03-24T21:26:02.998Z</time></trkpt><trkpt lat="42.42848347902166" lon="-8.063392855837261"><ele>390.0</ele><time>2026-03-24T21:26:03.998Z</time></trkpt><trkpt lat="42.42853077446176" lon="-8.063537334182591"><ele>390.0</ele><time>2026-03-24T21:26:04.998Z</time></trkpt><trkpt lat="42.42859143473247" lon="-8.063711276918706"><ele>389.66666666666663</ele><time>2026-03-24T21:26:05.998Z</time></trkpt><trkpt lat="42.42867070203345" lon="-8.063880159140295"><ele>389.3333333333333</ele><time>2026-03-24T21:26:06.998Z</time></trkpt><trkpt lat="42.42875873036062" lon="-8.064049392556539"><ele>389.0</ele><time>2026-03-24T21:26:07.998Z</time></trkpt><trkpt lat="42.42885063882995" lon="-8.06422614258267"><ele>390.66666666666663</ele><time>2026-03-24T21:26:08.998Z</time></trkpt><trkpt lat="42.428935349241996" lon="-8.06441889719519"><ele>392.33333333333337</ele><time>2026-03-24T21:26:09.998Z</time></trkpt><trkpt lat="42.42902633577146" lon="-8.064612488807377"><ele>394.0</ele><time>2026-03-24T21:26:11Z</time></trkpt><trkpt lat="42.42911707499388" lon="-8.064817481581445"><ele>393.33333333333337</ele><time>2026-03-24T21:26:12Z</time></trkpt><trkpt lat="42.42921125883744" lon="-8.065023489053758"><ele>392.66666666666663</ele><time>2026-03-24T21:26:13Z</time></trkpt><trkpt lat="42.42930378853989" lon="-8.065235473207855"><ele>392.0</ele><time>2026-03-24T21:26:14Z</time></trkpt><trkpt lat="42.42939459671437" lon="-8.065446610989527"><ele>392.0</ele><time>2026-03-24T21:26:15Z</time></trkpt><trkpt lat="42.42947833146824" lon="-8.065641668554466"><ele>392.0</ele><time>2026-03-24T21:26:16Z</time></trkpt><trkpt lat="42.429554854123396" lon="-8.065825321462276"><ele>392.0</ele><time>2026-03-24T21:26:17Z</time></trkpt><trkpt lat="42.429631204323044" lon="-8.065985356903695"><ele>393.0</ele><time>2026-03-24T21:26:18Z</time></trkpt><trkpt lat="42.429705469698874" lon="-8.066148266266149"><ele>394.0</ele><time>2026-03-24T21:26:19Z</time></trkpt><trkpt lat="42.42976743443168" lon="-8.066290506805705"><ele>395.0</ele><time>2026-03-24T21:26:20Z</time></trkpt><trkpt lat="42.42983526444866" lon="-8.066416082593443"><ele>396.0</ele><time>2026-03-24T21:26:21Z</time></trkpt><trkpt lat="42.42989530463502" lon="-8.066545541033811"><ele>395.6666666666667</ele><time>2026-03-24T21:26:22Z</time></trkpt><trkpt lat="42.4299423289238" lon="-8.066666034568504"><ele>395.33333333333337</ele><time>2026-03-24T21:26:23Z</time></trkpt><trkpt lat="42.429985444785125" lon="-8.066781865743408"><ele>395.0</ele><time>2026-03-24T21:26:24Z</time></trkpt><trkpt lat="42.430032125393986" lon="-8.066873184136607"><ele>394.6666666666667</ele><time>2026-03-24T21:26:25Z</time></trkpt><trkpt lat="42.43007835217014" lon="-8.066964556391103"><ele>394.33333333333337</ele><time>2026-03-24T21:26:26Z</time></trkpt><trkpt lat="42.430111775923194" lon="-8.0670536090411"><ele>394.0</ele><time>2026-03-24T21:26:27Z</time></trkpt><trkpt lat="42.43015437358007" lon="-8.067141854291712"><ele>394.0</ele><time>2026-03-24T21:26:28Z</time></trkpt><trkpt lat="42.43019651298082" lon="-8.067220599377961"><ele>394.0</ele><time>2026-03-24T21:26:29Z</time></trkpt><trkpt lat="42.43025492940697" lon="-8.067367010729726"><ele>394.0</ele><time>2026-03-24T21:26:31Z</time></trkpt><trkpt lat="42.430311501597906" lon="-8.06749332821112"><ele>394.0</ele><time>2026-03-24T21:26:33Z</time></trkpt><trkpt lat="42.430370982522945" lon="-8.06764133688327"><ele>394.0</ele><time>2026-03-24T21:26:35Z</time></trkpt><trkpt lat="42.43043370262417" lon="-8.067784082662094"><ele>394.4</ele><time>2026-03-24T21:26:37Z</time></trkpt><trkpt lat="42.43046993560437" lon="-8.067857838869491"><ele>394.79999999999995</ele><time>2026-03-24T21:26:38Z</time></trkpt><trkpt lat="42.43053035369991" lon="-8.068010158183842"><ele>395.20000000000005</ele><time>2026-03-24T21:26:40Z</time></trkpt><trkpt lat="42.430590160257005" lon="-8.068137430790735"><ele>395.6</ele><time>2026-03-24T21:26:42Z</time></trkpt><trkpt lat="42.430655223590705" lon="-8.068253363002418"><ele>396.0</ele><time>2026-03-24T21:26:44Z</time></trkpt><trkpt lat="42.430713137874996" lon="-8.068368747619676"><ele>396.0</ele><time>2026-03-24T21:26:46Z</time></trkpt><trkpt lat="42.430764401674395" lon="-8.068494374188349"><ele>396.0</ele><time>2026-03-24T21:26:48Z</time></trkpt><trkpt lat="42.43082738696451" lon="-8.068614920518652"><ele>396.0</ele><time>2026-03-24T21:26:50Z</time></trkpt><trkpt lat="42.43085617198307" lon="-8.068691542454726"><ele>396.0</ele><time>2026-03-24T21:26:51Z</time></trkpt><trkpt lat="42.4308900614595" lon="-8.068769007070902"><ele>396.0</ele><time>2026-03-24T21:26:52Z</time></trkpt><trkpt lat="42.43092508413917" lon="-8.068842013134905"><ele>396.0</ele><time>2026-03-24T21:26:53Z</time></trkpt><trkpt lat="42.43099184531137" lon="-8.068981351221051"><ele>396.0</ele><time>2026-03-24T21:26:55Z</time></trkpt><trkpt lat="42.43102180386043" lon="-8.069056793818724"><ele>396.0</ele><time>2026-03-24T21:26:55.999Z</time></trkpt><trkpt lat="42.43105784241854" lon="-8.069150493313328"><ele>396.0</ele><time>2026-03-24T21:26:56.999Z</time></trkpt><trkpt lat="42.431102241640986" lon="-8.069238685394204"><ele>396.0</ele><time>2026-03-24T21:26:57.999Z</time></trkpt><trkpt lat="42.431146603359" lon="-8.069330126360704"><ele>396.0</ele><time>2026-03-24T21:26:58.999Z</time></trkpt><trkpt lat="42.43119343295403" lon="-8.06943234820777"><ele>396.0</ele><time>2026-03-24T21:26:59.999Z</time></trkpt><trkpt lat="42.43124000359875" lon="-8.06953290153314"><ele>396.0</ele><time>2026-03-24T21:27:00.999Z</time></trkpt><trkpt lat="42.43128784911039" lon="-8.069642816974898"><ele>396.0</ele><time>2026-03-24T21:27:01.999Z</time></trkpt><trkpt lat="42.43134842230703" lon="-8.069766421110371"><ele>396.0</ele><time>2026-03-24T21:27:02.999Z</time></trkpt><trkpt lat="42.4314197670998" lon="-8.069909140747033"><ele>396.0</ele><time>2026-03-24T21:27:03.999Z</time></trkpt><trkpt lat="42.43148228233786" lon="-8.070075997943688"><ele>396.0</ele><time>2026-03-24T21:27:04.999Z</time></trkpt><trkpt lat="42.43156018885777" lon="-8.070244180327927"><ele>396.0</ele><time>2026-03-24T21:27:05.999Z</time></trkpt><trkpt lat="42.43164086719271" lon="-8.070413939170615"><ele>396.0</ele><time>2026-03-24T21:27:06.999Z</time></trkpt><trkpt lat="42.43171593945103" lon="-8.070565472105814"><ele>396.0</ele><time>2026-03-24T21:27:07.999Z</time></trkpt><trkpt lat="42.431776704221235" lon="-8.070714407145916"><ele>396.0</ele><time>2026-03-24T21:27:08.999Z</time></trkpt><trkpt lat="42.43183478063453" lon="-8.070856262999822"><ele>396.0</ele><time>2026-03-24T21:27:09.999Z</time></trkpt><trkpt lat="42.43189544862222" lon="-8.070989501190319"><ele>396.0</ele><time>2026-03-24T21:27:10.999Z</time></trkpt><trkpt lat="42.431950219252" lon="-8.071113383626978"><ele>396.0</ele><time>2026-03-24T21:27:11.999Z</time></trkpt><trkpt lat="42.43199490735059" lon="-8.071221421751044"><ele>396.0</ele><time>2026-03-24T21:27:12.999Z</time></trkpt><trkpt lat="42.43205169069927" lon="-8.071326088378822"><ele>396.0</ele><time>2026-03-24T21:27:14.999Z</time></trkpt><trkpt lat="42.43209375969508" lon="-8.071418242834271"><ele>396.0</ele><time>2026-03-24T21:27:17.999Z</time></trkpt><trkpt lat="42.43211862868631" lon="-8.071505983152939"><ele>396.0</ele><time>2026-03-24T21:27:20.999Z</time></trkpt></trkseg><trkseg><trkpt lat="42.435069610363556" lon="-8.073872296743733"><ele>415.0</ele><time>2026-03-24T22:40:58Z</time></trkpt><trkpt lat="42.434998344335355" lon="-8.073944904410295"><ele>415.0</ele><time>2026-03-24T22:41:02Z</time></trkpt><trkpt lat="42.43493600858885" lon="-8.074009824868128"><ele>415.0</ele><time>2026-03-24T22:41:03Z</time></trkpt><trkpt lat="42.43486101735881" lon="-8.074087925578814"><ele>415.0</ele><time>2026-03-24T22:41:04Z</time></trkpt><trkpt lat="42.43477764764773" lon="-8.074175210102133"><ele>415.0</ele><time>2026-03-24T22:41:05Z</time></trkpt><trkpt lat="42.43469158729477" lon="-8.074271967818419"><ele>414.1666666666667</ele><time>2026-03-24T22:41:06Z</time></trkpt><trkpt lat="42.43463428338866" lon="-8.07433505471043"><ele>413.33333333333337</ele><time>2026-03-24T22:41:07Z</time></trkpt><trkpt lat="42.43457277413324" lon="-8.074390971688718"><ele>412.5</ele><time>2026-03-24T22:41:08Z</time></trkpt><trkpt lat="42.43452263989415" lon="-8.074458585338276"><ele>411.66666666666663</ele><time>2026-03-24T22:41:09Z</time></trkpt><trkpt lat="42.43443623567393" lon="-8.074474158518887"><ele>410.8333333333333</ele><time>2026-03-24T22:41:10Z</time></trkpt><trkpt lat="42.43434218418859" lon="-8.074532593793961"><ele>410.0</ele><time>2026-03-24T22:41:11Z</time></trkpt><trkpt lat="42.4342723247175" lon="-8.074581613022026"><ele>410.0</ele><time>2026-03-24T22:41:12Z</time></trkpt><trkpt lat="42.434187807867254" lon="-8.07470243439536"><ele>410.0</ele><time>2026-03-24T22:41:13Z</time></trkpt><trkpt lat="42.43407502813938" lon="-8.074791543958494"><ele>410.0</ele><time>2026-03-24T22:41:14Z</time></trkpt><trkpt lat="42.43391762457853" lon="-8.074895219923349"><ele>410.0</ele><time>2026-03-24T22:41:16Z</time></trkpt><trkpt lat="42.433834767746454" lon="-8.074968840710941"><ele>410.4</ele><time>2026-03-24T22:41:17Z</time></trkpt><trkpt lat="42.43378143954463" lon="-8.075025763195345"><ele>410.8</ele><time>2026-03-24T22:41:18Z</time></trkpt><trkpt lat="42.43382821813247" lon="-8.074953676159073"><ele>411.20000000000005</ele><time>2026-03-24T22:41:42Z</time></trkpt><trkpt lat="42.43377403918456" lon="-8.07500280065822"><ele>411.6</ele><time>2026-03-24T22:42:37Z</time></trkpt><trkpt lat="42.4337205610093" lon="-8.075067867360385"><ele>412.0</ele><time>2026-03-24T22:42:38Z</time></trkpt><trkpt lat="42.43356580873209" lon="-8.074818151151113"><ele>411.0</ele><time>2026-03-24T22:42:39Z</time></trkpt><trkpt lat="42.43350479601239" lon="-8.074686998404841"><ele>410.0</ele><time>2026-03-24T22:42:40Z</time></trkpt><trkpt lat="42.433434509189304" lon="-8.07455378859692"><ele>409.0</ele><time>2026-03-24T22:42:41Z</time></trkpt><trkpt lat="42.43336338636486" lon="-8.074393974751365"><ele>408.0</ele><time>2026-03-24T22:42:42Z</time></trkpt><trkpt lat="42.433282393903504" lon="-8.074212222763355"><ele>406.75</ele><time>2026-03-24T22:42:43Z</time></trkpt><trkpt lat="42.43320692228988" lon="-8.074042859927676"><ele>405.5</ele><time>2026-03-24T22:42:44Z</time></trkpt><trkpt lat="42.433136089703716" lon="-8.07388390731967"><ele>404.25</ele><time>2026-03-24T22:42:45Z</time></trkpt><trkpt lat="42.43307069337401" lon="-8.073737153997735"><ele>403.0</ele><time>2026-03-24T22:42:46Z</time></trkpt><trkpt lat="42.433013144922015" lon="-8.073608011802335"><ele>402.79999999999995</ele><time>2026-03-24T22:42:47Z</time></trkpt><trkpt lat="42.43296153913083" lon="-8.073492205306076"><ele>402.6</ele><time>2026-03-24T22:42:48Z</time></trkpt><trkpt lat="42.43292016064228" lon="-8.073399349482495"><ele>402.4</ele><time>2026-03-24T22:42:49Z</time></trkpt><trkpt lat="42.43286826532761" lon="-8.073282893282892"><ele>402.20000000000005</ele><time>2026-03-24T22:42:51Z</time></trkpt><trkpt lat="42.43278471128232" lon="-8.073230745993653"><ele>402.0</ele><time>2026-03-24T22:42:53Z</time></trkpt><trkpt lat="42.43264586416561" lon="-8.073332594008743"><ele>402.0</ele><time>2026-03-24T22:42:55Z</time></trkpt><trkpt lat="42.432573428621765" lon="-8.073393777618197"><ele>402.0</ele><time>2026-03-24T22:42:56Z</time></trkpt><trkpt lat="42.432475449577055" lon="-8.073475715097377"><ele>402.0</ele><time>2026-03-24T22:42:57Z</time></trkpt><trkpt lat="42.432361650101306" lon="-8.073585823159805"><ele>402.0</ele><time>2026-03-24T22:42:58Z</time></trkpt><trkpt lat="42.43225383118442" lon="-8.073641343639487"><ele>401.0</ele><time>2026-03-24T22:42:59Z</time></trkpt><trkpt lat="42.432136921464526" lon="-8.073734384480275"><ele>400.0</ele><time>2026-03-24T22:43:00Z</time></trkpt><trkpt lat="42.43203187074649" lon="-8.073804291292408"><ele>399.0</ele><time>2026-03-24T22:43:01Z</time></trkpt><trkpt lat="42.431929304628" lon="-8.073906514124328"><ele>398.0</ele><time>2026-03-24T22:43:02Z</time></trkpt><trkpt lat="42.43181797582477" lon="-8.073987241742486"><ele>398.0</ele><time>2026-03-24T22:43:03Z</time></trkpt><trkpt lat="42.43171251491031" lon="-8.074086017162989"><ele>398.0</ele><time>2026-03-24T22:43:04Z</time></trkpt><trkpt lat="42.4316104391796" lon="-8.074168487828315"><ele>398.0</ele><time>2026-03-24T22:43:05Z</time></trkpt><trkpt lat="42.43152229577898" lon="-8.074242562465797"><ele>398.0</ele><time>2026-03-24T22:43:06Z</time></trkpt><trkpt lat="42.43143685854044" lon="-8.074309781037256"><ele>398.49999999999994</ele><time>2026-03-24T22:43:07Z</time></trkpt><trkpt lat="42.43135232098928" lon="-8.074367444138895"><ele>399.0</ele><time>2026-03-24T22:43:08Z</time></trkpt><trkpt lat="42.43128070312214" lon="-8.074426459916157"><ele>399.5</ele><time>2026-03-24T22:43:09Z</time></trkpt><trkpt lat="42.431209172224925" lon="-8.074475294732483"><ele>400.0</ele><time>2026-03-24T22:43:10Z</time></trkpt><trkpt lat="42.43112978985198" lon="-8.074500330911837"><ele>400.49999999999994</ele><time>2026-03-24T22:43:11Z</time></trkpt><trkpt lat="42.4310588919487" lon="-8.074558899263184"><ele>401.0</ele><time>2026-03-24T22:43:12Z</time></trkpt><trkpt lat="42.430980299613246" lon="-8.07459462890634"><ele>400.99999999999994</ele><time>2026-03-24T22:43:13Z</time></trkpt><trkpt lat="42.430898903183405" lon="-8.074631030369105"><ele>401.0</ele><time>2026-03-24T22:43:14Z</time></trkpt><trkpt lat="42.43083624456755" lon="-8.074685174019578"><ele>401.0</ele><time>2026-03-24T22:43:15Z</time></trkpt><trkpt lat="42.43073655744678" lon="-8.074724507778253"><ele>401.0</ele><time>2026-03-24T22:43:16Z</time></trkpt><trkpt lat="42.43066439931071" lon="-8.074741261895305"><ele>400.99999999999994</ele><time>2026-03-24T22:43:17Z</time></trkpt><trkpt lat="42.43057518973729" lon="-8.074779548216206"><ele>401.0</ele><time>2026-03-24T22:43:19Z</time></trkpt><trkpt lat="42.43058252616618" lon="-8.07501608775294"><ele>400.75</ele><time>2026-03-24T22:43:22Z</time></trkpt><trkpt lat="42.43060135015427" lon="-8.075155377252518"><ele>400.5</ele><time>2026-03-24T22:43:23Z</time></trkpt><trkpt lat="42.43063487172551" lon="-8.075257431027667"><ele>400.25</ele><time>2026-03-24T22:43:24Z</time></trkpt><trkpt lat="42.43041706072478" lon="-8.075379622902464"><ele>400.0</ele><time>2026-03-24T22:43:29Z</time></trkpt><trkpt lat="42.43032344367736" lon="-8.07538410838832"><ele>400.00000000000006</ele><time>2026-03-24T22:43:30Z</time></trkpt><trkpt lat="42.43025404516895" lon="-8.075415828262992"><ele>400.0</ele><time>2026-03-24T22:43:31Z</time></trkpt><trkpt lat="42.43017687075511" lon="-8.07541326941473"><ele>400.0</ele><time>2026-03-24T22:43:33Z</time></trkpt><trkpt lat="42.43018012844331" lon="-8.07531580840792"><ele>400.0</ele><time>2026-03-24T22:43:34Z</time></trkpt><trkpt lat="42.43017466533733" lon="-8.075206722927765"><ele>400.00000000000006</ele><time>2026-03-24T22:43:35Z</time></trkpt><trkpt lat="42.430137549568016" lon="-8.075073336719608"><ele>400.0</ele><time>2026-03-24T22:43:36Z</time></trkpt><trkpt lat="42.43011952366572" lon="-8.07497068557532"><ele>399.4</ele><time>2026-03-24T22:43:37Z</time></trkpt><trkpt lat="42.430246241695265" lon="-8.074891485722695"><ele>398.8</ele><time>2026-03-24T22:43:41Z</time></trkpt><trkpt lat="42.43030762067691" lon="-8.074842338957701"><ele>398.20000000000005</ele><time>2026-03-24T22:43:44Z</time></trkpt><trkpt lat="42.4301986007279" lon="-8.074926274238418"><ele>397.6</ele><time>2026-03-24T22:44:04.001Z</time></trkpt><trkpt lat="42.43019438712656" lon="-8.074837373720845"><ele>397.0</ele><time>2026-03-24T22:44:10.001Z</time></trkpt><trkpt lat="42.430268309159665" lon="-8.074785017103963"><ele>397.0</ele><time>2026-03-24T22:44:19Z</time></trkpt><trkpt lat="42.4303473895039" lon="-8.07480119397837"><ele>397.0</ele><time>2026-03-24T22:44:24Z</time></trkpt></trkseg></trk></gpx>